GFSNW_sfc_wetblb_003.txt.gz
Wetbulb
47.97 47.73 47.64 47.83 48.78 50.39 48.15 41.82 35.50 47.39 49.64 36.29 34.70 33.76 34.28 39.83 38.36 41.09 40.45 38.62 36.61 33.81 34.18 33.15 32.55 29.69 32.14 37.55 37.65 34.73 36.36 33.87 28.34 28.70 35.08 37.23 35.26 32.30 31.79 25.55 22.85 26.52 23.44 25.04
47.60 47.46 46.95 47.73 48.77 50.00 45.59 39.28 42.42 48.38 45.64 32.86 34.30 37.00 37.22 39.13 39.66 39.40 39.47 37.68 39.00 38.32 34.52 31.39 32.36 32.56 37.47 38.61 37.01 34.37 36.56 32.97 24.41 24.24 32.09 35.12 32.88 33.31 33.40 32.46 30.61 24.83 21.47 25.18
47.47 46.95 47.10 47.42 48.56 49.84 47.53 41.09 36.13 41.88 43.43 42.12 35.00 33.77 34.58 35.08 40.67 40.38 41.25 39.37 39.50 37.52 36.03 36.09 32.68 32.92 37.48 38.23 38.60 41.74 40.31 34.61 27.49 25.35 29.17 33.20 30.93 32.26 33.35 31.79 26.82 25.83 26.27 28.76
47.46 46.76 47.35 48.45 49.01 50.50 47.68 43.34 36.70 38.64 33.73 37.16 36.79 37.33 36.58 34.82 34.61 39.55 40.70 38.67 39.24 37.10 35.50 35.66 34.85 34.50 35.71 37.89 40.29 39.96 38.32 30.47 32.68 33.65 34.09 33.45 33.61 32.87 32.74 31.26 30.59 26.16 28.96 29.32
47.58 46.47 47.27 48.49 49.11 50.28 44.77 38.61 39.42 37.94 37.08 39.25 36.17 35.20 32.64 33.69 36.03 39.19 38.17 36.42 39.44 39.97 37.10 36.07 32.56 34.85 34.64 34.87 37.34 38.24 39.78 32.66 33.45 31.19 34.84 34.15 31.69 34.50 33.43 33.33 32.70 31.39 31.49 30.61
47.51 46.39 47.54 48.06 48.85 48.95 42.34 43.12 44.44 42.06 39.17 37.41 34.38 32.67 34.99 36.06 39.05 39.96 41.44 40.49 39.77 38.61 39.94 42.08 42.21 42.34 40.96 40.16 37.81 36.71 36.25 33.05 31.64 27.55 34.31 34.00 28.65 32.98 33.66 34.32 35.27 33.28 29.13 34.00
47.17 46.64 46.58 47.34 48.56 48.45 45.41 44.02 43.05 40.52 35.79 36.80 35.90 36.02 37.41 37.89 38.67 37.92 41.50 42.07 40.72 43.46 46.02 45.79 44.46 42.44 40.07 39.35 38.32 39.73 36.55 32.96 32.64 29.22 32.10 25.58 35.99 40.25 38.34 35.41 35.88 37.14 36.64 37.54
46.90 46.75 46.50 46.93 47.49 48.31 45.31 45.61 42.78 41.65 35.88 39.03 37.72 37.43 36.25 36.84 38.82 40.51 40.62 42.05 43.22 47.18 43.77 38.69 36.70 35.99 34.78 35.57 37.94 37.85 39.44 36.10 32.22 29.11 30.52 34.03 34.48 38.43 35.59 34.28 33.82 38.66 37.93 39.10
46.68 46.63 46.41 46.67 47.03 47.73 45.84 45.48 46.98 43.97 39.94 36.88 40.81 38.32 38.77 37.91 38.34 40.23 41.98 44.54 45.55 45.14 41.60 38.32 32.87 26.04 29.08 28.57 30.73 35.89 38.93 38.64 34.26 32.50 28.65 26.62 32.22 39.01 40.36 40.62 33.26 39.98 39.78 40.35
46.44 46.57 46.24 46.72 46.55 47.09 46.00 44.94 46.74 43.16 40.64 41.73 40.36 37.53 38.21 42.80 40.93 39.09 39.90 40.78 38.96 43.44 39.15 35.07 34.04 30.82 31.33 27.77 29.10 31.57 34.09 33.88 31.50 31.46 30.77 31.42 36.53 38.30 41.88 32.25 34.32 36.92 40.65 41.47
46.38 46.21 46.08 46.62 46.12 46.53 45.93 43.58 46.71 41.17 41.34 43.83 44.75 43.91 40.79 40.08 39.73 38.89 41.51 40.73 41.27 40.36 36.01 36.27 35.87 32.93 32.35 29.04 30.35 31.50 31.00 29.98 29.27 30.89 28.65 24.07 37.12 38.08 34.77 37.27 37.04 37.35 39.93 41.56
46.01 45.93 46.21 45.82 45.61 46.15 47.11 41.64 45.23 44.73 41.48 43.62 46.69 46.79 46.57 46.57 46.07 43.81 43.22 41.36 41.64 42.41 39.52 38.58 38.99 36.27 33.92 30.67 28.13 32.98 31.67 33.83 32.09 32.70 31.67 36.81 37.74 37.59 39.01 38.21 36.82 36.85 38.02 38.19
44.88 44.85 44.87 44.86 45.12 46.00 45.89 43.36 43.88 41.09 42.53 43.68 42.03 41.86 46.52 47.90 47.60 49.19 42.55 42.64 44.85 43.88 46.23 42.63 38.91 36.39 36.06 30.16 30.95 30.60 34.50 37.24 35.94 35.57 35.74 36.64 37.78 38.23 37.40 36.52 36.49 37.01 37.03 36.33
44.27 44.40 44.69 44.65 44.54 45.10 45.78 42.75 44.38 41.12 37.18 39.90 38.44 45.24 41.62 45.70 47.28 47.34 47.91 47.15 47.71 47.01 45.96 41.87 40.49 36.21 36.56 33.34 33.98 34.08 36.65 37.04 36.28 35.11 37.32 36.81 37.48 37.32 36.50 36.01 36.38 36.26 36.26 35.86
44.17 44.19 44.04 44.30 44.27 44.52 44.05 43.30 44.12 43.94 37.74 38.77 40.23 42.42 42.82 45.73 46.06 46.46 47.53 46.64 45.42 44.50 42.20 40.83 39.87 39.84 36.27 33.78 33.73 33.01 36.91 37.64 35.95 35.59 39.18 38.16 37.54 37.21 36.67 36.10 35.24 35.98 35.68 34.52
44.04 43.58 43.59 44.17 44.19 44.26 41.26 37.69 44.40 45.78 44.79 41.18 37.79 44.37 44.07 46.85 47.17 46.44 45.51 46.20 45.73 44.86 42.97 41.85 44.39 43.99 39.55 33.01 32.59 39.24 38.02 38.18 39.50 39.25 36.69 36.43 36.24 36.86 36.42 35.25 35.33 35.96 35.19 35.38
43.83 43.65 43.92 44.42 44.35 41.83 37.68 37.25 43.28 45.47 44.18 40.84 36.58 36.03 44.95 46.76 46.26 45.94 45.86 46.90 45.56 44.53 42.73 41.39 43.24 43.40 43.79 40.28 35.77 41.07 40.21 40.08 38.31 37.82 37.27 36.07 36.06 36.69 36.29 35.89 35.39 35.56 33.81 34.03
43.62 44.42 44.58 44.29 44.78 43.76 40.24 43.56 45.85 45.48 41.59 43.00 35.75 35.71 39.01 46.31 42.49 42.20 46.24 44.37 45.07 44.62 43.12 43.25 41.78 41.60 41.04 37.85 40.64 38.79 36.55 36.61 36.41 35.69 35.80 36.89 35.92 35.44 34.42 34.99 35.07 33.46 32.32 32.35
44.26 44.04 44.02 44.29 42.14 38.65 39.50 44.15 44.35 45.41 42.80 38.45 37.56 33.69 30.08 44.39 42.88 42.55 43.86 44.21 40.26 43.85 40.92 41.22 40.31 38.94 36.37 39.62 39.50 38.48 36.10 37.02 37.04 33.92 34.70 35.14 34.87 33.92 34.06 34.12 33.77 32.86 32.33 32.42
42.51 38.16 36.20 35.35 37.74 43.63 43.06 43.83 41.11 39.76 42.35 42.63 38.96 36.05 35.91 39.43 40.39 39.96 40.42 40.32 38.27 33.98 39.08 39.89 37.06 37.87 41.53 41.84 41.23 40.40 38.28 36.26 34.67 33.21 29.54 30.59 31.78 33.18 33.11 33.81 34.49 34.26 33.62 32.17
36.84 32.96 32.93 38.31 42.53 40.31 40.02 36.12 37.20 38.50 35.75 40.61 39.55 35.67 37.43 40.53 36.86 38.42 37.08 35.03 34.20 32.78 33.26 36.22 34.33 33.23 36.48 36.43 38.76 40.55 38.36 36.55 36.63 36.40 36.36 36.91 37.31 35.09 33.11 32.49 32.78 32.55 32.07 30.07
37.40 37.49 39.66 38.87 34.98 32.86 30.84 32.10 34.69 35.31 30.35 37.80 38.64 38.12 36.36 36.85 38.02 35.49 36.85 32.28 33.50 31.01 30.82 33.08 31.22 32.48 32.69 33.71 36.01 37.45 36.20 35.66 35.86 35.27 35.66 35.85 35.82 34.84 33.45 31.50 30.67 30.63 29.43 28.05
37.03 34.90 27.86 29.36 30.62 28.08 28.42 28.03 31.75 32.71 35.19 35.72 36.16 35.06 36.65 34.77 34.31 30.77 30.47 32.46 32.07 29.33 30.37 29.15 28.77 30.90 31.77 32.56 34.04 33.71 34.50 35.50 33.80 32.56 32.91 32.82 31.47 32.01 31.53 29.34 29.62 29.17 27.38 26.16
30.11 27.11 18.23 26.11 27.49 28.02 30.54 29.86 31.09 33.64 33.47 35.44 36.73 34.56 34.23 33.59 28.39 30.38 32.73 33.27 32.05 27.87 25.90 21.96 25.38 27.91 30.62 31.31 32.37 33.08 32.59 32.17 30.88 30.10 30.77 30.47 30.03 28.61 29.02 28.95 29.38 28.38 26.43 25.28
27.74 27.46 15.14 24.39 31.12 31.28 31.82 32.34 32.26 34.37 36.42 35.88 34.82 33.64 32.89 26.20 29.33 29.53 31.71 29.13 26.79 28.24 25.02 25.04 24.89 23.25 27.10 30.91 31.41 31.53 30.00 29.07 28.39 28.94 28.95 28.42 28.55 27.90 26.17 26.43 27.39 27.25 25.67 24.68
29.84 27.15 19.62 29.22 22.34 17.13 29.80 30.63 31.37 35.85 37.73 34.83 34.56 33.31 31.54 28.08 30.23 28.38 28.09 26.50 24.79 27.81 25.98 24.91 22.25 27.80 29.56 30.41 30.31 29.83 29.78 29.79 29.32 29.28 29.36 28.89 28.30 27.59 26.15 26.60 26.47 26.01 25.16 23.57
26.46 26.83 31.13 29.81 26.50 25.38 28.50 30.32 32.44 37.83 35.08 33.34 32.97 31.32 31.55 26.66 23.04 24.28 25.68 25.35 30.18 32.00 24.14 20.69 25.37 22.50 26.54 28.65 29.02 29.15 29.26 29.14 29.28 28.93 29.33 28.08 27.73 27.42 26.28 23.37 23.16 22.81 22.31 21.88

GFSNW_sfc_wetblb_006.txt.gz
Wetbulb
48.16 48.15 47.30 48.12 48.49 49.54 47.99 42.08 33.99 48.43 49.22 36.32 36.08 35.21 35.56 41.46 40.26 43.69 41.39 40.84 38.97 36.89 37.05 35.14 35.31 35.12 36.76 41.34 41.53 36.65 39.52 35.20 30.04 32.48 39.07 40.02 38.39 34.62 33.29 27.46 25.95 29.37 28.04 29.15
47.99 47.93 47.26 48.00 48.39 49.51 45.36 38.73 39.51 47.80 47.04 34.42 35.40 37.63 37.71 41.55 40.55 41.37 40.89 39.18 40.32 40.15 37.05 33.62 36.53 36.70 40.64 41.36 40.74 38.59 39.67 34.03 27.88 31.30 34.80 37.26 34.01 35.84 35.59 34.13 32.85 28.12 25.08 29.00
48.09 47.72 47.01 47.85 48.64 49.65 47.99 39.10 33.99 40.98 41.41 43.46 38.05 37.21 37.09 37.86 43.12 42.36 42.49 40.51 41.61 39.14 36.73 38.27 35.79 36.09 39.65 41.54 41.43 42.06 41.72 35.95 32.44 28.72 32.67 35.97 33.23 33.85 34.87 33.39 28.67 29.68 30.49 32.15
48.10 47.73 47.16 48.36 49.71 50.29 47.29 40.96 37.75 39.76 34.50 38.30 39.90 39.88 39.04 37.32 36.95 42.35 43.34 39.68 39.43 38.30 35.22 36.16 35.63 37.61 38.24 39.79 41.46 41.49 40.09 32.32 34.13 34.28 34.94 34.93 34.55 33.92 35.12 31.82 32.89 29.22 33.00 33.50
47.72 47.55 47.22 48.78 49.51 49.70 44.00 36.93 39.18 42.28 39.94 40.10 39.69 38.93 37.25 37.10 39.08 39.75 38.34 38.70 40.43 39.87 37.17 37.52 36.10 38.24 38.38 37.89 40.54 39.23 40.72 32.90 34.63 31.61 35.23 35.28 33.13 35.36 35.63 35.31 34.73 34.18 34.83 34.20
47.67 47.40 47.70 48.41 49.04 48.20 42.63 43.30 43.80 43.55 38.72 38.58 37.98 37.66 37.77 37.94 40.84 41.41 42.42 41.38 40.36 39.08 40.54 42.88 43.85 43.01 42.37 41.01 39.71 38.31 37.01 34.62 32.41 29.10 35.97 35.12 31.54 34.78 35.48 35.53 36.49 35.79 31.03 37.16
47.31 47.20 46.94 47.53 48.08 48.22 44.94 44.47 42.86 41.39 36.59 38.29 37.89 38.76 39.77 38.92 40.08 40.39 41.76 41.94 40.46 44.07 47.74 46.64 45.19 44.70 42.58 42.26 42.16 42.43 37.11 34.55 33.24 29.94 33.39 28.26 38.30 39.81 39.20 36.99 37.74 38.78 38.63 39.26
47.07 47.10 46.82 47.39 47.08 47.96 45.82 45.58 42.88 40.69 38.30 39.56 39.13 39.69 39.18 41.70 43.02 41.32 41.78 43.17 45.53 47.84 44.96 39.59 36.63 36.69 37.11 39.18 41.34 41.36 41.83 37.30 33.65 30.88 31.03 35.35 37.91 38.77 38.89 36.49 37.04 41.01 39.74 40.70
46.72 46.62 46.51 47.35 46.63 47.33 46.46 45.74 45.43 42.91 39.34 39.13 42.27 40.71 40.35 38.85 39.44 41.04 42.17 46.08 47.95 46.84 42.00 38.45 32.84 31.71 33.78 33.10 35.69 40.49 40.04 39.38 35.35 33.12 28.84 28.70 36.93 40.64 41.75 41.32 35.64 41.71 40.42 41.10
46.47 46.29 46.51 46.81 46.01 46.50 46.27 44.97 44.80 41.86 38.76 44.89 43.59 40.91 41.18 44.88 43.10 39.71 41.27 42.08 42.40 46.06 39.79 35.82 33.27 33.92 36.59 32.98 33.21 33.62 33.84 34.27 31.98 32.48 31.35 35.51 40.75 40.75 44.22 34.87 35.90 41.38 41.91 43.16
45.17 45.24 45.30 45.32 45.42 45.72 45.90 44.68 45.38 40.74 37.48 39.61 46.46 46.36 44.00 43.87 44.24 40.33 42.51 41.53 41.92 40.95 35.96 35.27 35.48 34.57 37.20 35.63 37.22 36.69 35.55 34.03 32.20 34.53 31.03 30.98 41.98 42.17 38.67 42.16 43.20 41.40 42.68 43.62
44.57 44.47 44.39 44.72 45.19 45.30 45.88 41.83 46.38 44.80 38.87 41.78 48.14 48.63 48.93 48.39 48.19 45.42 44.76 42.73 42.13 42.69 39.01 38.86 38.39 35.71 38.16 36.91 34.93 39.46 35.56 39.29 38.36 38.26 39.09 42.60 43.82 44.16 45.55 43.86 42.14 41.93 42.43 43.58
44.52 44.35 44.50 44.47 44.29 44.62 44.31 43.25 45.11 41.51 38.37 44.09 44.56 45.50 48.78 50.25 49.38 51.53 44.73 43.73 46.23 44.62 46.63 42.93 40.27 37.07 39.62 36.60 37.42 38.48 40.88 42.50 40.48 39.88 43.06 43.02 44.44 45.09 43.95 41.86 41.33 41.19 42.72 41.75
44.79 44.63 44.51 44.18 44.26 44.61 44.41 42.18 44.47 41.26 37.21 35.89 41.90 47.23 46.67 49.61 49.58 49.81 49.84 48.51 48.38 47.52 46.45 41.94 39.72 38.13 42.81 39.97 39.60 39.61 42.88 41.91 41.57 41.14 44.01 44.89 44.26 43.45 41.96 40.39 40.42 40.33 40.98 40.36
44.73 44.67 44.39 44.06 44.36 44.58 44.51 44.01 43.84 44.41 37.52 35.87 41.99 46.45 46.94 48.09 48.75 48.33 48.90 48.34 46.93 45.49 42.76 41.04 38.82 43.22 38.62 41.67 40.10 39.54 43.02 43.50 41.46 41.25 44.05 44.25 43.66 41.87 41.28 40.45 39.23 39.22 37.83 36.77
44.44 44.52 44.02 44.05 44.14 44.10 42.19 37.29 44.43 45.40 42.82 36.58 38.03 46.19 44.49 46.52 47.49 47.05 46.99 46.90 46.65 45.92 43.20 41.87 43.67 46.50 41.43 40.45 39.32 44.50 45.05 44.77 46.22 45.67 43.56 41.94 41.49 41.55 41.31 39.96 38.99 39.25 38.52 37.30
44.41 44.20 43.76 43.76 43.90 43.69 37.47 36.84 42.65 44.42 43.92 37.17 38.14 38.85 45.76 47.33 46.84 46.47 45.57 47.32 46.56 44.99 43.47 41.51 42.17 43.48 43.33 41.11 38.41 44.81 45.98 45.77 44.74 43.87 42.55 40.96 40.88 41.61 40.45 39.90 38.79 38.34 37.49 37.13
43.73 43.56 43.29 43.72 44.85 43.37 39.67 43.33 45.54 45.56 40.89 40.76 36.80 37.50 40.74 46.77 42.90 42.33 47.20 44.96 45.05 44.60 43.12 43.37 42.09 42.87 42.26 38.72 44.18 46.11 44.50 42.87 42.50 42.10 41.14 41.27 41.17 39.77 38.31 38.22 37.79 36.32 35.23 34.95
43.09 42.77 43.30 44.59 42.44 38.97 40.73 44.11 44.54 44.63 41.08 38.13 38.69 35.84 34.98 45.67 43.65 44.41 44.65 45.28 41.14 44.63 41.48 41.41 41.36 40.51 37.15 42.33 44.48 45.14 45.08 42.96 43.06 38.94 39.55 39.77 39.62 37.86 37.11 37.66 37.46 36.17 35.02 34.20
42.12 39.92 37.08 34.89 38.73 42.68 43.21 42.61 39.41 39.23 40.35 41.17 39.32 40.40 38.13 42.46 41.84 42.05 41.67 41.69 39.31 35.11 39.81 40.32 37.53 38.04 44.03 45.61 45.90 46.75 45.09 42.46 38.90 36.73 34.69 35.39 35.04 35.39 36.38 37.25 38.42 37.72 35.69 34.28
38.51 34.45 33.32 38.87 42.45 40.05 39.80 34.39 34.86 37.08 35.89 41.09 41.29 40.39 38.88 43.78 38.83 39.91 41.19 38.32 36.10 33.95 36.23 36.55 36.14 37.07 40.64 41.35 40.52 42.29 45.11 42.35 40.96 41.10 41.38 40.77 40.27 38.36 37.47 36.89 36.76 36.12 35.22 33.73
37.36 37.57 40.10 39.14 35.38 33.73 32.55 32.48 34.17 35.21 34.56 38.82 39.37 40.16 40.63 41.13 42.21 40.64 39.23 36.26 35.84 32.52 35.08 33.95 32.57 38.54 39.17 37.62 38.28 39.39 42.00 41.03 39.68 39.78 39.75 40.51 39.92 38.85 37.50 35.74 35.37 34.85 33.05 31.38
38.68 35.37 31.38 31.58 33.09 29.75 29.10 26.78 31.13 33.12 35.40 36.29 37.24 36.95 39.78 39.33 39.92 36.97 36.45 33.70 33.58 35.04 32.65 31.25 35.52 38.74 37.11 36.26 37.04 37.27 38.39 39.26 38.02 36.53 37.75 38.21 36.93 36.56 36.16 34.51 33.70 32.61 31.34 30.99
31.55 27.86 22.97 27.54 26.95 29.22 30.56 29.97 31.00 34.68 34.11 35.76 37.73 35.95 36.76 36.66 36.59 35.67 33.20 35.40 34.28 29.94 28.33 30.27 36.21 36.26 34.82 34.21 35.81 36.35 36.27 37.04 35.99 34.80 34.72 34.27 34.16 33.39 33.96 33.46 32.66 30.97 28.94 29.06
29.22 28.26 24.01 27.21 29.85 31.50 33.08 33.01 33.10 34.26 36.47 36.12 35.72 35.04 36.19 34.25 33.42 33.85 33.73 30.99 28.62 30.53 31.23 35.25 36.37 33.71 32.12 34.61 34.85 35.67 35.09 34.28 33.34 33.40 33.02 32.52 32.13 32.03 30.90 31.83 32.23 30.85 29.21 28.57
30.97 28.12 26.09 29.90 27.79 26.95 29.49 31.48 30.79 35.77 36.16 35.55 35.21 33.95 33.30 33.97 33.59 31.21 30.74 29.03 28.53 33.62 35.10 37.48 33.55 33.37 33.96 34.45 34.14 34.06 33.68 33.58 33.06 32.99 32.66 32.04 31.16 30.56 29.30 30.12 29.98 29.29 28.28 26.75
27.92 28.19 31.65 31.14 28.35 26.33 28.91 30.61 31.47 36.00 33.63 32.61 32.92 31.63 32.95 30.81 30.23 29.05 31.87 30.68 35.40 33.67 35.07 31.43 31.29 31.78 33.13 33.22 32.51 32.12 32.44 32.38 32.35 31.97 31.98 31.14 30.09 29.92 28.95 26.89 27.32 27.10 26.92 26.21

GFSNW_sfc_wetblb_009.txt.gz
Wetbulb
48.54 48.64 47.90 48.77 49.32 50.46 47.83 42.84 35.19 48.22 50.45 35.78 38.09 36.53 36.54 41.56 40.61 43.75 41.74 41.86 40.25 38.96 38.64 37.46 37.59 37.44 38.69 43.51 43.25 37.16 40.43 35.94 30.93 33.30 39.84 41.28 39.04 35.07 33.94 28.45 27.55 29.89 29.08 29.17
48.45 48.37 48.02 48.74 49.51 50.76 46.97 40.31 39.51 48.03 47.38 34.33 36.19 37.08 38.14 41.48 40.60 42.02 41.63 39.88 41.66 42.19 39.22 35.57 38.73 39.15 42.49 42.79 42.02 39.46 39.99 34.58 28.98 32.19 36.50 39.61 35.62 37.51 37.18 35.85 33.85 29.23 26.24 29.96
48.38 48.12 47.82 48.43 49.37 50.55 48.28 37.57 34.94 40.60 42.05 43.25 39.91 36.96 37.72 38.50 43.98 42.93 43.39 41.77 42.65 40.52 38.78 40.50 37.75 37.74 40.80 42.69 42.74 43.13 43.42 36.53 33.25 29.51 34.25 36.79 33.26 35.10 36.59 34.51 30.23 30.54 31.15 32.87
48.28 48.02 47.70 48.47 49.87 49.84 47.38 39.78 38.36 41.51 36.28 38.31 39.99 40.49 39.90 38.01 37.87 43.19 43.72 40.53 40.56 39.55 36.18 37.19 36.65 39.29 40.01 41.56 43.32 41.93 40.13 33.05 35.13 35.66 36.54 36.60 35.64 34.93 35.27 32.61 34.33 30.19 33.26 33.77
48.02 47.88 47.98 49.11 49.54 49.96 44.52 37.85 38.66 41.88 40.74 42.27 40.90 40.25 39.10 38.76 39.76 40.76 38.90 39.25 40.90 40.92 38.18 39.02 36.75 39.50 39.22 38.34 40.91 39.77 40.63 33.77 35.23 31.68 36.11 36.51 34.73 36.94 37.11 36.82 35.96 35.41 35.01 34.08
47.72 47.72 48.36 48.72 49.09 49.16 43.01 44.41 44.50 41.76 39.29 40.19 39.24 39.85 39.69 39.78 42.15 42.67 43.62 42.43 41.59 40.06 41.46 44.03 44.06 44.55 43.55 42.60 40.26 38.28 37.53 34.95 32.42 30.00 36.51 35.56 33.27 36.68 37.18 37.10 37.79 36.82 32.81 37.13
47.24 47.14 47.36 47.61 47.81 48.45 45.57 44.22 43.06 41.04 36.76 39.59 39.01 40.22 40.77 40.32 42.10 40.96 42.57 43.82 41.78 45.01 48.66 47.31 45.63 44.14 43.44 42.42 40.93 41.53 37.34 34.47 33.66 30.98 33.71 29.34 39.17 42.39 41.50 38.55 39.74 40.88 40.30 41.14
47.09 46.85 47.31 47.22 46.73 47.59 45.91 45.62 42.42 40.51 38.75 41.56 40.73 40.92 41.46 42.48 42.97 41.91 42.52 43.67 45.98 48.43 45.54 40.68 37.11 37.22 37.22 39.11 41.26 40.56 41.23 37.53 33.06 30.57 30.34 35.09 39.38 41.11 39.97 37.78 37.92 41.91 39.56 40.96
45.62 45.80 45.90 46.09 46.22 46.56 46.76 45.83 45.31 41.39 39.07 40.78 43.43 41.65 42.17 40.99 41.04 41.36 42.66 47.15 49.33 47.47 43.38 38.48 32.84 32.41 35.36 34.01 36.10 41.21 41.22 40.14 34.84 33.29 28.80 27.89 39.34 42.40 43.88 42.38 35.69 42.63 42.73 42.03
45.23 44.97 44.87 45.07 45.68 46.11 45.86 46.21 45.36 42.03 38.63 44.88 45.17 41.57 42.01 44.61 43.23 40.91 42.26 43.02 42.59 45.92 40.13 35.60 34.85 33.48 38.29 33.54 33.90 33.42 35.10 35.29 31.54 31.32 30.85 35.30 43.73 43.52 45.51 35.32 36.86 43.02 42.71 43.19
45.17 44.91 44.80 44.80 45.07 45.02 44.80 43.94 45.91 41.11 37.16 39.85 45.43 47.18 44.79 46.08 45.26 40.74 43.48 42.26 42.32 41.46 36.66 36.01 36.05 35.85 38.12 36.78 39.22 36.96 35.20 33.23 32.53 32.91 30.38 29.62 44.83 44.42 39.32 43.29 45.44 44.14 44.70 43.89
45.23 45.01 44.74 44.75 44.63 44.72 44.80 39.85 45.79 45.59 37.88 39.50 44.97 47.62 50.45 49.52 49.72 46.80 45.33 44.21 43.42 43.53 38.81 38.78 38.47 36.55 39.12 38.24 33.96 41.80 36.40 40.68 39.12 38.85 39.70 46.49 47.55 45.48 47.46 46.33 44.16 44.52 43.90 46.95
45.31 45.31 45.24 44.90 44.39 44.30 44.14 41.87 43.74 43.32 38.23 41.00 44.46 45.74 50.80 51.91 51.71 52.65 45.36 46.39 46.42 45.78 47.54 42.51 40.54 37.28 40.32 36.24 37.57 40.15 42.47 45.04 41.00 41.58 45.28 46.14 47.78 48.17 46.39 44.42 43.57 44.01 44.50 45.31
45.34 45.29 45.12 44.57 44.53 44.47 44.30 41.72 43.68 42.29 36.91 34.66 42.06 48.40 48.02 51.00 51.27 50.51 50.70 49.56 49.15 48.17 46.86 42.00 39.69 37.04 43.45 39.58 41.12 40.45 43.68 43.53 42.58 42.90 45.84 47.66 46.21 45.62 44.25 42.54 42.92 44.11 44.08 43.63
44.74 44.78 44.76 44.98 44.38 44.32 44.76 43.74 43.79 44.29 38.19 35.73 39.95 46.40 47.66 49.18 50.11 49.78 50.24 49.63 47.97 45.99 42.88 40.94 39.05 41.69 41.82 43.05 42.54 40.35 45.32 43.62 42.09 41.29 46.66 46.14 45.26 44.21 43.98 42.51 41.47 41.80 40.46 39.63
44.42 44.52 45.01 44.76 44.07 43.79 41.68 36.83 44.98 46.01 43.66 36.64 37.11 46.46 45.64 46.98 48.27 48.12 47.88 48.29 47.16 45.87 43.65 41.91 43.51 45.17 42.24 38.57 38.49 45.20 47.52 48.24 48.46 46.48 46.84 45.30 44.33 43.72 43.80 41.88 41.20 40.89 39.44 38.61
44.80 44.12 44.09 43.82 43.68 42.55 37.43 35.82 41.69 44.22 43.90 36.91 36.46 40.28 46.24 47.64 47.04 46.79 46.36 47.45 46.30 45.60 43.41 41.94 42.47 42.71 43.62 40.20 36.96 45.13 47.39 48.56 48.11 48.08 45.78 43.73 43.11 43.02 42.41 41.32 40.62 40.44 39.41 39.05
44.11 43.85 43.38 43.74 44.35 43.23 39.47 42.84 44.50 44.50 40.10 39.47 36.27 38.82 41.88 46.96 43.16 42.45 47.04 44.17 45.34 44.75 43.51 43.77 41.35 42.82 42.45 38.26 43.14 45.87 47.38 48.47 47.01 46.64 45.81 43.94 44.07 42.29 40.81 39.83 38.88 37.39 36.73 36.49
43.70 42.85 43.27 44.43 42.43 38.53 39.91 43.94 44.50 45.08 40.19 35.26 38.79 36.12 35.64 46.04 44.40 45.01 44.37 46.24 40.84 45.60 41.96 41.84 41.80 40.13 37.36 41.82 44.47 46.36 47.75 45.64 46.16 43.87 42.56 42.07 41.01 40.11 39.17 39.26 38.99 37.37 36.67 36.16
42.25 41.86 39.29 35.31 39.40 43.18 43.42 41.15 38.21 37.69 39.48 39.03 38.64 42.33 38.34 43.26 43.10 42.76 42.98 43.86 40.14 37.02 41.30 42.23 38.50 38.19 44.12 45.89 46.64 47.58 48.08 47.28 42.73 38.84 36.87 37.34 37.36 37.78 39.02 39.38 40.39 39.04 37.23 36.01
39.62 35.61 34.16 40.04 43.13 41.54 38.05 33.78 33.53 35.69 34.82 40.00 41.77 42.19 40.28 44.96 39.75 41.00 42.97 39.07 38.20 34.94 37.77 37.04 37.63 37.39 42.79 43.76 42.41 43.23 44.32 47.10 43.79 45.18 44.59 42.27 42.02 40.18 39.70 40.23 40.20 38.42 36.73 34.95
38.24 37.58 40.42 40.00 36.24 33.98 32.17 32.48 33.29 34.85 34.57 39.88 40.25 41.10 43.00 43.09 44.34 41.81 40.87 37.28 37.37 33.18 37.90 34.98 33.15 39.85 42.02 40.45 39.52 40.20 41.64 44.91 43.93 43.03 42.26 43.02 42.77 41.92 41.08 39.35 37.61 36.89 35.90 33.61
40.78 36.32 32.37 32.90 34.40 30.42 30.69 28.25 30.16 32.68 34.66 35.24 36.85 38.26 41.61 41.69 42.75 39.67 38.47 34.16 33.92 37.24 33.76 32.42 36.90 41.76 40.64 38.02 37.35 39.11 39.85 41.89 41.69 39.85 41.30 41.82 40.99 40.70 38.55 36.92 37.16 35.19 33.54 33.04
32.36 29.31 27.63 30.47 29.94 29.96 30.51 30.96 31.52 34.81 34.40 35.09 36.82 37.19 38.37 38.73 38.30 38.74 33.77 36.01 35.59 31.36 29.09 31.92 40.44 39.38 36.90 36.90 37.81 37.90 38.13 39.10 38.73 38.31 38.36 37.52 37.14 37.17 37.49 36.34 35.23 33.92 32.31 32.15
30.73 30.12 27.56 28.63 31.56 32.90 33.89 34.29 33.98 34.70 36.78 35.74 36.40 36.26 37.80 35.56 34.59 36.66 35.09 31.76 29.74 31.35 32.80 38.42 38.40 36.24 35.85 36.43 37.06 37.74 37.18 36.59 35.92 36.03 35.78 35.66 35.19 34.89 33.46 33.82 33.94 33.00 31.54 31.44
32.12 29.47 27.63 30.23 29.76 31.04 32.48 32.82 32.12 35.85 34.77 35.71 35.38 34.00 33.73 33.58 36.07 32.21 31.45 30.28 29.71 35.63 35.15 36.71 36.10 34.87 35.45 35.87 36.44 36.27 36.49 36.18 35.70 36.05 35.50 34.95 34.53 33.38 32.55 32.98 32.28 31.82 31.25 29.66
28.53 28.90 32.58 31.95 30.18 30.21 31.92 32.55 33.37 36.04 33.82 32.70 32.86 31.75 33.23 33.03 32.38 30.69 34.83 32.56 34.31 32.91 33.75 34.79 34.42 32.75 33.05 33.79 34.15 34.06 34.24 34.90 34.81 34.20 34.26 33.83 33.47 32.66 31.49 29.46 29.68 28.71 28.70 28.10

GFSNW_sfc_wetblb_012.txt.gz
Wetbulb
48.81 48.79 48.41 48.91 49.99 51.10 48.94 42.75 35.63 47.61 49.97 36.91 37.10 35.18 35.78 41.40 40.74 44.55 42.10 42.10 39.34 36.01 36.09 35.43 35.18 35.85 38.80 42.79 41.99 36.70 39.10 35.74 26.07 31.08 37.74 38.97 37.21 33.35 32.91 27.07 21.31 27.03 25.85 26.12
48.85 48.55 48.39 48.84 49.42 50.88 46.53 40.08 40.46 48.60 47.82 33.39 35.12 37.53 38.48 40.84 40.62 41.75 41.37 39.88 42.04 40.71 37.33 34.59 37.44 38.72 41.23 42.39 40.77 37.91 39.08 32.57 23.68 26.87 34.17 37.06 34.96 35.25 35.89 34.04 32.21 26.82 24.16 26.46
49.01 48.56 48.38 49.55 49.47 50.79 48.32 40.84 34.31 40.37 42.67 42.14 37.78 36.13 37.88 38.49 43.89 42.73 43.30 41.33 42.37 40.12 37.96 39.78 36.45 37.22 40.70 41.44 41.99 44.11 42.70 36.19 28.02 23.41 27.65 33.42 30.22 33.88 35.99 34.16 29.20 28.36 29.22 30.65
48.25 48.15 48.51 49.04 49.88 50.70 47.05 41.51 38.41 41.07 36.71 39.25 38.99 39.56 39.54 38.02 37.60 43.39 43.72 40.54 40.57 39.05 35.64 36.27 36.19 38.65 38.83 40.83 42.76 41.23 38.45 30.67 30.88 33.98 35.08 34.31 33.23 33.37 34.54 33.08 33.90 30.15 31.82 32.81
47.77 47.55 48.87 49.02 49.19 50.05 45.24 39.64 38.69 41.11 40.64 41.73 38.94 40.07 38.60 38.29 39.93 40.94 38.91 39.01 40.72 40.11 37.10 38.20 35.88 38.55 38.48 37.61 39.78 37.81 38.85 31.71 33.52 28.38 34.17 33.91 31.64 34.42 35.57 36.37 36.66 36.91 36.73 35.43
47.45 47.55 48.45 48.43 48.47 48.14 43.26 43.96 44.73 41.57 39.27 40.10 38.62 38.88 39.39 40.02 42.12 42.55 43.32 42.42 40.93 39.84 41.22 43.17 43.08 42.86 42.88 42.01 39.01 37.26 36.76 34.90 31.63 24.50 34.04 32.73 30.58 34.90 36.74 37.91 38.63 37.70 33.76 37.79
46.35 46.26 46.25 46.58 47.15 47.29 45.10 43.90 42.78 39.85 36.77 39.17 38.81 40.58 41.31 40.70 41.97 40.09 42.50 43.47 41.71 44.36 47.12 46.07 44.37 42.93 41.99 42.22 39.60 41.14 36.80 34.14 32.99 29.29 30.10 22.59 35.67 41.55 41.53 39.27 39.65 40.79 39.79 40.62
46.05 45.67 45.49 45.81 46.46 46.82 43.68 45.23 41.34 39.86 37.57 40.30 40.29 40.98 40.99 41.57 41.93 41.67 42.61 43.58 45.30 47.10 44.29 39.29 36.65 37.18 36.76 38.11 40.38 39.77 40.27 36.09 32.25 29.04 24.58 31.55 35.84 39.60 39.22 37.02 36.68 40.99 39.61 41.19
45.92 45.59 45.31 45.39 45.73 45.86 43.30 45.48 45.22 41.05 37.93 39.14 43.52 40.82 41.71 39.10 39.27 39.94 42.74 46.22 47.39 45.60 42.41 37.53 32.17 31.26 33.88 32.36 35.47 40.94 40.43 39.00 34.29 32.31 27.32 24.04 35.50 40.15 42.98 41.41 33.60 39.32 41.84 42.07
46.00 45.68 45.24 45.17 45.30 45.21 43.18 44.14 45.52 41.87 38.34 42.35 42.01 40.66 40.92 42.79 41.99 39.64 41.82 42.86 42.66 44.28 38.83 35.37 34.10 32.50 37.43 31.21 32.01 33.00 34.90 35.53 31.67 31.46 29.67 32.06 39.28 40.56 43.42 32.09 33.33 40.46 41.41 42.86
46.09 45.92 45.67 45.19 44.93 44.89 43.13 41.24 46.06 41.19 36.93 38.74 42.68 44.97 43.36 43.97 43.63 39.33 42.42 41.21 41.37 40.57 35.73 35.03 35.46 35.01 36.42 33.74 36.35 34.27 32.90 31.87 31.74 32.30 29.87 25.82 40.98 40.61 35.89 39.66 40.88 41.31 40.98 42.11
45.97 45.82 45.70 45.50 45.10 44.63 43.98 38.35 43.13 44.82 38.57 38.54 43.12 43.70 44.95 46.14 47.94 45.35 44.01 43.12 42.37 43.04 38.89 38.34 38.55 35.46 37.16 35.84 31.20 38.60 33.93 36.54 35.39 33.92 34.02 41.32 43.51 42.58 42.69 42.42 40.61 40.63 40.51 42.31
45.38 45.70 45.68 45.46 45.08 44.80 43.50 40.67 41.82 41.88 38.20 38.09 41.53 43.66 48.54 51.09 50.28 51.04 43.65 44.75 45.76 44.69 46.06 41.65 39.85 36.29 39.40 34.09 34.66 36.87 38.15 41.10 37.17 38.12 41.38 41.66 42.68 43.50 42.20 40.39 39.18 40.60 42.35 42.08
45.20 45.24 45.19 45.01 44.98 45.00 43.71 40.16 41.90 40.41 37.58 33.12 40.26 48.23 46.44 49.89 50.06 49.43 49.24 47.63 48.34 47.68 45.97 41.69 39.21 36.93 41.34 38.24 38.73 38.03 40.20 41.35 38.59 38.33 41.55 41.69 41.24 40.47 40.01 39.94 40.82 41.80 41.93 41.41
45.14 45.30 45.08 45.15 45.08 44.81 42.78 41.86 41.88 42.34 37.28 33.94 37.62 42.92 47.53 48.38 48.91 48.90 48.92 48.65 47.26 44.77 42.57 41.05 38.36 40.98 39.89 39.72 39.78 37.16 40.92 39.66 38.11 37.50 42.34 41.60 39.01 39.90 40.79 39.51 39.16 39.16 38.15 37.58
44.69 44.69 45.30 44.65 44.57 44.06 40.15 34.77 43.55 44.31 42.26 36.02 34.77 45.51 45.37 47.07 47.33 47.75 47.49 47.30 46.71 45.85 43.13 41.65 42.73 44.48 40.95 36.91 36.01 40.49 42.45 44.12 44.53 41.54 42.00 41.62 40.82 40.79 40.57 38.74 38.33 38.02 36.83 36.70
44.57 44.66 44.44 43.93 44.00 41.83 36.49 34.74 40.48 44.27 43.32 36.08 34.27 39.01 45.89 47.05 46.58 46.22 46.34 47.26 45.92 45.16 43.09 41.63 40.87 42.11 42.90 39.85 35.49 41.41 43.93 43.40 44.42 43.98 42.27 39.75 40.03 38.68 39.22 38.68 38.12 38.41 36.71 36.54
44.36 44.30 43.58 44.56 44.60 42.83 38.86 40.79 43.58 43.43 38.41 38.31 33.09 37.64 41.22 46.46 43.00 42.14 45.80 44.15 44.87 44.16 42.45 43.12 40.93 42.00 41.68 37.33 40.48 41.54 43.17 44.05 43.67 43.02 42.17 41.20 40.49 39.10 37.64 37.49 36.75 34.49 33.67 33.99
44.04 43.07 43.74 43.70 41.05 37.05 39.58 44.12 44.17 42.75 38.66 33.06 36.35 34.54 33.62 44.97 43.67 43.53 42.79 44.67 40.14 44.07 40.86 40.86 41.34 39.58 36.50 39.30 41.51 42.76 45.20 43.58 42.24 40.37 40.24 39.64 38.69 37.62 36.63 36.72 35.87 34.06 33.38 32.72
42.87 41.48 38.09 34.63 38.24 43.34 43.01 40.59 37.28 35.44 37.28 37.56 36.21 41.03 37.81 42.43 41.93 40.02 41.60 42.80 38.59 34.47 39.34 41.56 38.11 37.75 42.37 43.88 44.26 42.86 42.84 42.94 40.21 37.29 33.48 33.58 33.26 35.70 37.04 36.79 37.14 36.33 34.41 32.62
38.89 34.53 33.25 39.22 43.71 41.29 37.62 32.98 32.37 34.25 33.35 38.57 40.16 40.48 38.33 43.38 38.23 39.25 40.67 36.55 36.02 33.47 34.03 35.52 33.45 35.88 39.86 40.46 40.22 39.94 40.51 41.37 41.93 42.40 41.65 39.39 38.76 37.50 37.66 38.01 37.93 36.46 34.42 32.62
38.28 37.39 39.57 39.88 36.31 32.97 31.41 31.63 32.62 32.91 33.56 38.75 39.45 38.29 40.43 41.22 41.79 39.04 39.15 34.51 34.94 31.44 35.92 33.46 31.93 36.05 37.83 36.72 36.36 37.41 39.13 39.99 41.92 42.22 40.52 40.68 40.67 40.02 38.86 37.77 36.49 35.25 33.70 31.15
40.67 35.87 30.85 31.86 33.15 28.86 29.20 26.58 30.52 32.16 33.52 34.38 35.62 36.56 39.89 38.58 39.13 37.15 36.06 32.74 32.46 33.44 32.06 31.02 30.31 34.36 35.40 34.82 36.02 36.74 38.72 39.27 39.65 38.61 39.56 40.32 40.24 40.10 39.21 36.38 35.63 33.33 31.70 31.05
31.30 28.26 23.00 28.04 28.35 29.16 30.61 30.58 31.19 33.81 33.92 34.72 36.36 36.11 36.72 37.55 35.02 36.07 33.15 35.12 33.05 29.60 28.03 26.28 32.43 32.34 33.78 34.85 35.97 36.00 36.36 36.85 36.91 36.46 36.95 36.76 37.44 36.51 36.24 35.16 33.87 32.51 30.66 30.51
29.47 28.35 24.40 27.22 31.49 32.43 32.57 32.77 33.09 34.31 35.92 35.37 35.76 35.04 37.03 33.72 33.50 34.29 33.19 30.83 28.28 30.06 26.70 31.60 31.99 31.39 32.22 32.63 33.29 34.19 34.61 35.18 35.22 34.73 34.33 34.78 34.59 34.75 33.37 33.27 32.68 32.15 30.71 29.37
30.32 28.67 26.60 30.21 29.19 29.29 26.42 27.60 31.97 34.99 34.99 34.63 34.16 33.38 32.93 32.97 33.69 31.32 30.26 29.52 27.68 27.63 28.77 28.21 31.21 31.17 31.38 31.59 32.29 33.04 33.37 33.85 34.50 34.99 34.36 33.89 33.38 32.38 31.04 30.96 31.15 30.61 30.09 28.45
27.68 27.48 31.71 31.82 30.61 29.47 26.75 29.59 30.40 33.77 33.14 31.97 32.07 31.49 32.10 32.39 31.52 29.42 33.07 31.12 30.78 29.06 27.33 27.55 28.90 28.88 30.38 30.63 30.93 31.99 31.90 32.50 33.10 32.89 33.47 32.63 32.60 32.01 30.58 28.57 28.60 27.28 27.57 27.27

GFSNW_sfc_wetblb_018.txt.gz
Wetbulb
47.96 48.17 48.35 49.13 50.72 52.00 45.85 38.84 28.71 44.70 48.54 36.69 37.05 33.01 34.83 39.95 40.00 41.51 40.58 37.50 35.47 33.94 34.63 32.41 31.68 31.75 34.37 39.36 38.69 33.84 36.25 31.30 20.42 28.71 33.96 35.70 33.51 30.70 29.03 18.90 17.44 21.17 20.53 23.59
47.40 47.28 47.73 48.56 49.88 51.41 41.31 34.98 35.20 44.27 44.03 33.12 35.07 37.40 39.15 41.09 41.03 40.53 40.02 37.20 37.96 37.90 33.95 30.66 32.91 34.75 38.71 40.32 39.04 35.28 36.79 29.90 19.60 25.05 32.09 34.34 31.17 32.15 32.22 30.08 26.93 17.85 21.95 24.01
47.33 47.05 47.25 48.17 48.95 50.72 41.25 34.75 27.84 34.89 40.29 38.72 36.25 36.75 35.96 36.57 41.44 40.48 40.58 37.42 39.30 36.50 34.26 35.78 33.82 34.14 38.44 41.38 41.16 43.60 40.60 31.73 23.65 21.06 23.12 30.31 26.22 31.21 32.14 30.51 25.78 24.61 26.19 28.92
47.39 46.95 46.77 47.30 48.81 49.45 41.99 37.03 36.40 38.61 30.76 34.25 37.38 38.99 38.29 36.29 36.58 40.87 40.46 37.91 37.42 36.23 33.18 33.65 33.37 35.59 35.96 39.33 43.50 41.53 37.77 25.69 26.68 30.72 32.35 31.67 30.88 31.05 31.65 28.60 30.84 27.74 30.28 31.22
47.44 46.82 46.37 46.98 47.99 48.28 41.41 38.13 37.51 38.79 34.67 37.20 35.74 36.30 34.76 36.77 37.97 38.55 37.33 37.40 39.01 38.02 35.60 35.34 33.17 35.50 34.18 33.74 35.90 35.68 37.95 30.71 32.13 29.62 31.33 31.68 28.83 31.70 32.15 32.66 32.83 33.21 33.20 32.50
47.33 46.77 46.23 46.22 46.72 44.91 39.46 38.77 42.64 40.69 35.68 34.63 33.79 33.83 36.36 37.73 39.13 39.87 40.88 39.47 39.11 38.34 39.32 40.83 39.66 39.13 38.72 37.37 35.20 33.79 33.75 31.17 28.11 18.78 29.41 29.52 25.92 30.34 32.06 32.45 33.86 33.64 32.46 36.91
47.20 46.73 46.46 46.00 45.93 44.84 41.77 41.20 41.25 38.13 32.90 33.93 35.25 37.34 38.89 38.32 38.77 37.20 40.37 41.76 39.69 41.71 43.94 43.43 41.18 40.51 40.90 40.07 39.18 40.35 35.40 31.27 26.83 20.27 26.53 18.20 32.28 35.99 37.35 34.60 36.74 38.19 38.51 40.51
46.69 46.73 46.42 46.22 45.78 45.62 38.12 44.17 37.59 37.61 32.99 36.96 36.87 37.95 37.58 38.17 39.08 38.48 39.79 41.85 43.00 44.63 41.97 36.78 35.66 35.89 35.02 37.23 38.78 38.39 38.83 35.19 23.83 22.73 22.76 28.53 33.31 37.01 36.27 35.20 34.72 39.01 38.42 40.08
47.17 46.47 46.28 46.15 45.83 45.41 37.06 42.76 43.96 39.71 34.96 33.97 39.12 37.54 39.05 34.63 33.16 35.80 39.84 43.13 44.12 42.93 39.79 34.76 28.59 29.70 33.21 32.94 35.77 39.75 38.40 38.24 32.90 30.57 24.71 22.47 31.40 37.35 40.77 39.03 31.30 39.42 38.90 39.91
46.83 46.17 45.81 45.99 45.43 45.29 38.05 36.85 42.18 39.94 36.15 38.98 36.70 37.26 39.20 40.12 36.51 34.40 37.63 39.57 38.86 40.31 35.05 32.44 29.73 27.28 35.96 30.68 30.83 33.54 34.59 34.67 31.62 31.28 28.72 29.05 35.62 37.39 40.88 28.85 30.97 39.01 38.73 39.00
45.47 46.21 45.38 45.33 45.81 45.09 38.82 35.70 39.03 35.41 35.54 35.76 38.16 40.09 39.81 40.81 38.82 34.23 37.13 37.18 38.04 36.56 34.09 32.03 33.43 32.88 35.08 33.56 34.61 33.34 32.64 31.46 32.30 32.03 28.74 24.62 38.46 38.80 34.55 38.19 39.05 39.60 39.01 38.14
45.42 46.21 45.75 45.28 45.68 44.92 43.47 33.84 38.14 39.51 33.96 33.15 39.48 40.79 41.52 40.47 42.26 41.54 40.92 38.28 37.54 38.44 34.32 32.89 35.96 35.05 34.98 32.13 30.44 34.85 32.71 33.46 31.79 33.02 31.79 38.10 39.83 39.74 41.47 40.38 38.88 38.85 38.29 38.70
45.74 45.12 44.74 45.24 45.63 45.32 43.15 38.03 36.67 35.14 31.81 31.91 32.44 32.93 39.11 42.71 42.04 45.42 41.96 40.65 42.21 40.83 41.16 38.29 38.72 34.43 37.67 31.93 32.77 32.28 37.04 39.38 36.68 35.02 37.93 39.01 39.54 40.15 39.49 38.59 37.59 38.49 40.09 38.26
46.34 45.35 45.21 44.95 44.81 45.22 45.12 37.03 38.48 36.73 32.24 27.44 28.96 42.35 39.90 45.03 45.25 44.61 47.49 46.97 45.29 43.82 41.82 38.89 36.83 35.44 38.87 33.70 34.89 35.91 37.23 38.43 38.42 37.06 39.31 40.01 39.24 39.99 38.98 38.23 39.55 38.81 39.09 38.45
45.68 44.70 45.07 45.13 45.16 44.76 43.48 40.46 38.22 39.23 31.20 27.34 29.82 35.39 39.60 42.19 46.96 47.42 48.61 47.05 45.53 42.16 39.46 39.12 37.15 38.54 38.71 39.26 38.50 35.68 37.03 35.88 35.35 34.45 41.50 40.95 40.47 39.70 39.24 38.05 38.16 37.45 37.58 35.67
45.43 45.23 45.27 44.59 44.42 44.31 40.88 31.37 41.38 40.50 37.30 29.06 25.50 37.77 40.51 45.98 46.50 46.38 46.69 46.71 45.58 44.05 42.12 40.91 41.80 43.40 39.97 36.15 34.77 37.99 38.80 41.01 42.32 38.59 41.07 41.02 40.44 39.47 38.11 37.10 36.61 36.50 36.04 35.25
45.10 44.90 44.56 44.22 43.88 41.61 36.58 30.33 38.78 42.58 38.52 32.39 28.71 31.47 42.05 46.20 45.77 45.47 45.65 46.33 44.43 42.90 42.59 41.04 41.06 41.20 42.08 38.80 34.27 39.82 41.90 43.92 43.35 43.42 41.43 38.65 38.71 38.93 37.92 36.94 36.63 37.22 34.02 33.52
44.79 44.20 43.90 43.58 44.43 41.74 35.27 37.66 42.75 42.44 37.11 34.82 28.33 31.16 40.97 46.08 42.17 41.15 45.62 43.31 43.62 43.39 41.97 42.29 40.44 40.78 40.77 35.44 37.73 40.41 42.22 40.13 42.53 41.15 42.00 40.42 38.31 36.88 35.56 35.28 34.10 32.34 31.32 30.46
43.62 44.19 43.99 42.66 40.36 34.28 35.01 44.07 43.45 41.05 36.69 30.94 31.83 31.09 33.73 45.09 42.84 43.26 42.67 44.13 39.12 42.34 39.60 39.80 40.36 38.27 35.90 36.88 34.60 34.56 35.85 35.80 37.03 38.33 38.38 36.60 36.40 35.54 34.37 33.38 32.50 31.17 30.60 30.37
43.02 38.69 36.95 33.21 35.62 43.19 41.72 39.37 35.69 33.97 34.16 33.42 30.38 36.58 36.63 42.35 41.12 40.14 40.18 41.46 38.66 34.51 39.61 41.60 38.35 36.62 39.38 36.54 35.67 34.51 35.06 36.14 35.61 34.04 33.00 34.20 29.77 32.11 33.15 32.82 33.36 33.43 32.45 30.91
36.27 33.21 32.32 34.96 41.51 38.81 36.54 31.72 30.82 33.45 31.55 34.95 35.07 39.38 38.70 43.06 36.77 39.19 40.73 35.16 34.93 32.25 33.61 35.56 33.02 35.26 34.02 34.42 33.67 34.78 35.14 35.82 36.52 36.37 36.99 37.99 38.04 36.06 34.14 33.69 34.37 33.89 32.77 31.03
35.00 35.63 39.38 38.63 35.39 33.17 29.94 28.94 31.99 31.88 31.61 37.20 36.62 38.29 40.10 40.25 41.59 37.43 37.30 32.30 33.86 30.33 35.58 32.90 29.91 34.16 32.26 32.38 32.41 33.23 33.86 34.86 35.99 36.42 37.00 38.70 39.24 37.86 35.61 34.49 35.35 34.39 33.55 30.58
38.68 35.46 30.93 30.82 31.95 26.14 26.23 25.20 29.26 31.80 32.97 33.97 34.34 34.53 37.73 39.19 40.10 35.90 35.25 32.41 31.40 31.88 31.67 30.09 31.73 31.19 31.55 31.49 32.06 32.19 33.42 34.36 35.21 36.34 36.61 37.40 38.76 37.91 37.82 36.72 36.40 34.45 31.77 30.76
30.40 27.63 23.37 26.07 25.60 27.98 29.03 29.22 29.99 33.58 33.26 33.84 35.55 34.83 34.92 34.79 34.86 35.83 32.06 33.52 31.56 28.54 27.06 28.30 30.24 28.22 29.58 30.58 31.55 31.06 31.17 32.61 33.36 34.93 35.98 36.16 37.35 36.53 36.24 34.98 33.40 32.21 30.48 29.92
25.04 27.67 21.31 25.06 28.28 30.26 30.90 31.84 31.93 34.28 35.70 34.44 35.15 34.59 36.33 32.92 32.83 34.14 31.98 30.37 27.71 28.98 24.59 29.15 24.37 25.56 28.39 29.19 29.88 29.79 30.12 30.81 31.64 32.99 34.73 34.90 35.04 34.78 33.53 33.55 33.04 32.61 31.19 30.42
26.34 26.73 23.70 28.41 27.64 27.82 28.70 29.08 28.90 34.54 34.09 34.13 33.55 32.97 32.58 32.61 32.02 30.93 29.29 27.98 25.72 24.10 28.65 24.91 25.13 27.08 27.88 28.43 29.12 29.78 30.10 30.11 30.57 31.53 32.44 33.73 33.58 33.84 33.26 33.47 33.60 32.90 32.20 30.29
23.52 24.70 29.03 27.28 28.92 28.78 26.35 26.52 28.51 33.01 32.58 31.78 31.94 30.99 30.61 31.81 31.36 29.03 31.37 29.77 29.79 29.67 30.06 22.96 24.56 25.45 26.88 27.97 28.68 29.42 29.59 29.36 29.45 29.52 30.52 29.95 31.54 30.94 30.34 29.38 30.10 30.07 29.35 28.62

GFSNW_sfc_wetblb_021.txt.gz
Wetbulb
48.10 47.88 48.08 48.80 49.83 51.56 44.67 37.10 28.97 42.54 46.87 34.30 35.81 33.48 35.13 39.74 40.31 40.56 39.34 36.41 35.79 34.33 34.05 31.82 30.60 30.88 33.80 38.28 37.41 33.15 35.67 30.24 21.98 28.83 33.39 35.01 32.79 30.11 28.11 19.18 15.72 19.43 19.13 22.83
47.92 47.69 47.66 48.12 48.92 50.45 39.85 34.32 34.15 42.43 41.86 33.12 35.25 36.84 38.76 39.86 39.39 39.22 38.71 35.65 37.79 37.00 33.08 30.37 31.79 33.65 37.84 39.17 37.15 34.24 35.73 27.09 17.99 25.20 30.27 33.19 30.37 30.99 30.39 27.84 24.53 17.09 19.62 23.50
47.82 47.47 47.26 47.52 48.15 49.94 40.58 33.93 28.76 35.53 37.38 39.27 37.10 35.26 34.79 35.75 40.26 39.40 38.27 36.96 38.29 35.51 33.74 34.33 32.40 33.11 37.79 39.08 39.79 42.99 39.82 30.03 23.57 20.31 23.00 28.36 25.39 29.58 30.86 28.53 22.44 23.62 25.57 26.82
47.92 47.34 46.99 47.00 47.50 48.51 40.80 35.38 35.31 38.75 33.76 37.12 38.35 37.40 36.93 35.29 35.78 39.43 39.16 36.00 36.37 35.11 31.67 32.85 32.28 34.36 35.42 39.97 42.93 39.47 35.91 25.51 26.22 29.77 31.46 30.04 30.09 30.23 30.67 26.31 30.09 24.49 27.20 28.83
47.87 47.32 46.90 46.60 47.04 47.24 38.65 34.94 37.39 39.24 34.69 34.68 34.07 35.23 33.97 35.73 36.86 37.73 36.43 35.56 37.54 36.44 33.87 33.93 32.46 34.68 33.44 34.31 37.64 37.16 37.08 29.94 30.25 27.63 30.70 30.43 28.59 30.99 31.42 31.60 31.72 31.12 31.56 31.18
47.68 47.20 46.83 46.46 46.34 44.26 36.60 36.59 40.19 37.60 34.61 32.95 31.97 32.78 35.33 37.16 37.91 38.84 40.06 38.75 37.83 37.22 38.46 39.30 37.77 37.62 37.75 36.59 35.17 33.53 32.85 30.90 28.09 21.37 27.65 28.74 25.59 29.42 30.91 31.48 32.66 32.32 28.41 34.56
47.66 47.11 46.77 46.51 46.19 43.38 40.82 41.22 40.79 37.09 31.19 32.67 34.07 35.91 38.21 37.51 37.70 36.08 39.64 40.65 37.96 41.17 43.45 41.83 40.83 39.59 37.76 37.10 35.95 38.19 34.69 32.51 30.45 19.60 25.28 17.31 30.37 34.54 35.45 33.47 34.36 35.03 35.43 37.61
47.23 47.02 46.71 46.37 46.24 45.70 39.65 42.87 35.76 37.35 32.61 35.69 35.07 36.48 36.22 36.85 37.80 37.29 38.92 40.65 41.83 43.31 40.74 35.53 33.82 35.21 35.16 36.98 38.17 38.10 38.32 34.88 24.31 22.57 23.48 26.17 31.53 36.07 35.41 34.24 33.99 37.56 37.22 38.98
46.49 46.77 45.92 46.27 45.67 45.58 36.09 40.27 40.58 37.17 35.07 32.16 38.32 36.14 36.47 33.49 32.05 34.73 38.46 41.97 43.24 42.21 38.12 33.64 27.88 29.06 32.14 32.01 35.12 39.03 38.02 37.27 32.09 29.54 25.05 20.44 29.89 36.42 39.20 38.42 29.91 38.21 38.96 38.92
45.40 45.85 46.08 45.36 45.89 45.55 37.38 35.24 37.23 36.13 33.86 35.97 35.65 33.76 36.36 38.16 34.66 33.00 35.39 36.95 37.77 39.49 34.09 31.61 28.94 27.76 35.49 29.87 31.37 33.40 34.06 34.74 30.67 30.19 28.82 28.04 34.67 36.50 39.68 27.46 30.77 37.85 38.68 38.91
46.47 45.76 46.58 45.65 45.41 45.50 38.41 35.43 37.59 33.32 31.92 32.75 36.84 38.26 35.65 38.81 37.35 34.33 36.24 36.27 37.02 35.70 32.00 31.52 30.98 30.82 34.80 33.47 34.52 34.27 32.97 31.39 31.71 32.47 29.04 23.82 38.34 37.85 33.76 37.57 37.75 38.65 38.90 38.61
47.47 46.06 45.17 45.21 45.89 45.81 43.34 33.88 37.52 38.63 32.35 29.66 36.56 37.55 38.03 39.16 41.45 38.86 41.25 36.72 36.17 37.78 33.57 32.29 33.00 32.43 35.08 32.36 30.71 33.37 32.58 32.92 30.51 31.96 30.94 36.85 38.68 38.65 40.57 39.74 38.59 37.72 37.62 39.04
46.99 47.48 46.06 45.20 45.45 45.47 43.56 37.53 38.92 35.45 33.75 30.64 30.28 30.57 35.73 39.23 39.08 40.93 36.68 41.90 43.04 39.19 39.76 36.58 36.03 32.80 37.38 31.91 30.88 30.53 35.76 39.26 35.72 34.19 36.35 37.12 39.48 40.05 38.78 39.29 37.83 37.72 38.32 39.16
46.84 47.40 45.42 45.03 45.04 44.78 44.90 37.91 39.86 38.50 32.66 26.48 26.04 36.79 34.28 41.03 40.59 40.78 41.84 43.39 46.15 43.46 40.54 37.41 35.67 33.47 36.40 32.49 33.24 35.35 36.45 38.10 37.21 36.88 37.86 39.69 39.77 39.72 39.90 38.76 38.14 38.38 38.42 38.11
46.54 46.84 45.79 45.52 45.65 45.14 42.06 41.67 40.37 40.36 34.55 24.72 26.18 31.66 34.41 35.44 36.11 42.38 41.64 41.66 44.85 42.02 38.23 37.18 35.38 36.16 36.19 35.69 37.62 33.51 36.10 34.47 33.72 32.49 38.17 39.24 40.49 40.33 39.86 38.42 37.88 38.45 38.45 36.18
46.16 46.52 45.49 45.24 44.96 44.39 40.64 34.09 40.68 40.99 39.98 31.83 21.51 32.45 33.68 39.40 41.56 43.45 42.96 43.30 45.76 44.56 39.44 38.17 39.70 42.54 38.34 33.94 34.70 36.61 39.16 41.01 42.25 39.18 40.12 39.87 40.40 40.01 39.07 37.69 37.07 36.60 37.07 37.09
46.43 45.90 45.04 44.50 44.08 40.96 36.38 30.69 35.06 41.37 40.59 29.08 24.80 26.57 36.76 38.51 45.49 45.88 45.60 46.66 45.15 44.19 42.58 38.99 40.75 40.94 41.08 38.71 33.96 38.38 41.74 41.67 40.89 42.21 39.10 38.23 38.87 38.99 38.18 36.69 36.24 37.42 34.39 34.47
46.00 44.67 44.47 44.31 44.64 41.19 36.00 36.75 41.84 41.54 35.20 34.72 26.77 28.27 34.69 44.30 41.73 41.27 45.65 43.40 43.91 43.35 40.20 40.73 39.98 40.61 40.86 34.17 35.42 34.76 36.61 36.85 37.37 38.64 38.49 39.02 39.67 36.56 35.49 35.05 33.99 32.98 32.51 31.24
44.17 43.97 44.22 41.23 37.30 33.64 33.72 43.82 44.19 40.68 36.53 29.56 30.78 28.18 31.60 44.95 42.44 42.99 42.95 43.84 37.67 42.22 37.67 39.19 40.28 37.85 35.50 34.19 33.44 33.23 34.14 32.97 33.95 35.54 35.80 37.49 37.50 37.78 34.63 33.86 32.63 31.72 30.57 29.77
42.25 39.22 37.32 32.09 36.20 41.87 42.45 39.00 35.70 34.12 34.60 33.16 28.89 33.62 32.40 42.35 40.62 39.84 40.45 41.42 37.51 33.26 37.93 41.04 37.63 36.07 35.27 34.67 34.59 35.02 34.08 33.52 33.59 31.74 32.28 30.56 29.16 30.99 33.90 32.93 32.92 32.48 31.25 29.86
34.93 32.06 31.08 33.98 40.65 37.44 36.08 31.73 31.20 32.58 28.51 33.93 33.88 35.02 38.66 42.74 37.58 38.52 40.46 35.18 35.02 31.93 34.24 36.36 33.01 31.88 33.40 33.90 33.33 32.74 32.10 32.25 33.20 34.26 35.49 35.43 35.66 35.78 36.11 34.13 33.29 32.50 31.22 30.10
34.11 33.76 38.70 38.43 35.15 32.97 29.82 28.16 31.03 31.21 30.42 36.45 34.78 37.50 39.51 40.69 42.33 38.23 37.97 31.87 33.86 29.97 36.15 32.94 29.93 31.47 31.50 30.54 30.33 31.29 31.74 31.97 33.20 34.71 35.22 35.67 36.83 37.43 37.02 34.87 33.23 33.11 33.33 30.97
37.36 35.64 30.99 30.61 31.44 25.99 24.40 22.23 26.63 30.66 33.36 34.11 33.98 34.50 37.99 39.77 40.01 35.26 34.38 31.81 28.66 30.80 31.43 29.87 31.33 29.75 29.82 29.05 29.83 30.59 31.76 32.98 33.61 34.55 36.56 36.89 37.52 37.40 36.16 35.86 35.19 33.56 31.45 30.87
27.43 27.05 22.79 24.66 22.31 24.97 27.68 28.54 24.61 32.79 33.31 33.72 34.38 34.70 35.09 35.98 34.52 35.46 32.01 32.97 32.36 28.38 26.57 27.47 29.08 29.82 28.42 29.47 30.28 30.28 29.91 30.73 31.43 32.60 34.35 35.66 35.81 35.95 35.92 36.15 35.14 33.47 31.67 30.94
23.17 27.13 19.09 19.81 26.80 23.21 30.35 31.19 30.72 33.65 35.50 34.33 34.18 34.45 35.87 33.21 33.08 34.08 32.23 30.50 27.40 28.77 25.68 25.63 29.47 24.57 27.35 28.32 29.08 29.16 29.54 29.60 29.87 31.09 31.96 32.83 34.30 34.72 34.09 33.88 33.38 32.72 31.13 30.46
22.92 23.61 20.84 25.10 22.70 21.09 25.34 24.13 29.59 33.41 34.21 33.69 33.05 32.38 32.47 32.73 31.00 30.91 29.56 27.67 26.39 24.96 27.80 29.07 25.75 26.92 26.91 27.05 27.73 28.53 29.48 29.43 29.51 29.81 30.53 30.82 31.12 31.72 33.33 33.03 33.60 32.51 31.54 30.67
19.83 20.90 28.16 25.87 25.32 24.70 27.89 29.21 30.42 32.64 32.44 31.30 31.89 30.79 30.33 32.23 29.94 27.58 29.19 28.06 29.02 28.64 28.99 22.18 24.75 25.38 25.82 26.29 27.31 28.09 29.23 28.55 28.45 28.35 29.15 28.79 29.13 30.07 31.09 31.59 31.48 32.03 32.08 31.08

GFSNW_sfc_wetblb_027.txt.gz
Wetbulb
49.30 48.91 48.66 48.71 48.67 49.71 42.75 35.01 31.06 41.67 43.33 35.25 37.98 35.13 36.90 40.48 38.89 39.82 36.47 35.70 33.89 31.73 31.78 30.11 30.09 31.29 33.44 38.19 37.74 33.10 34.61 30.46 26.91 30.39 33.98 35.35 33.39 30.52 28.14 22.50 20.34 22.30 21.91 25.17
49.06 48.66 48.43 48.32 48.30 49.16 38.69 32.82 32.69 40.77 41.16 33.57 34.88 36.89 37.11 38.34 37.68 37.36 36.90 34.22 36.27 34.76 32.01 29.55 31.34 33.17 37.29 38.43 36.86 34.61 35.22 27.83 21.21 27.38 31.07 33.44 31.09 31.07 29.89 27.16 25.75 22.09 22.16 26.40
49.34 48.54 48.13 47.94 47.82 49.21 38.90 33.02 29.27 35.62 37.71 38.04 34.97 33.59 33.05 34.19 38.85 37.12 36.68 35.24 35.74 33.30 32.26 33.73 31.35 32.02 37.38 37.74 38.04 42.39 38.38 29.78 25.28 21.50 24.51 30.02 28.34 30.08 30.04 28.78 23.48 23.62 24.32 26.77
49.18 48.63 47.88 47.61 47.12 48.15 39.38 34.61 35.54 38.47 31.41 32.65 32.94 33.93 34.43 32.80 33.97 37.79 37.04 34.20 34.18 32.82 29.72 30.95 30.63 33.41 34.96 37.83 41.91 37.80 35.63 26.07 25.71 29.71 30.58 30.60 30.55 30.47 29.71 26.70 28.20 24.77 27.28 27.26
48.64 48.34 47.59 47.33 46.74 46.38 38.30 34.27 35.63 38.19 33.13 32.30 30.68 32.03 31.11 33.58 34.96 35.46 33.71 33.74 36.46 33.90 31.69 32.01 30.94 33.28 32.35 32.62 35.70 34.86 35.15 28.71 28.04 24.35 30.46 30.63 28.96 30.72 30.51 30.48 30.63 29.58 30.44 30.51
48.21 47.94 47.28 47.04 46.71 43.84 39.00 39.77 40.85 38.92 33.22 30.10 28.98 30.78 32.80 34.88 35.78 37.10 38.28 37.84 37.49 35.17 36.31 37.36 36.59 35.90 36.38 36.36 34.72 33.21 34.28 30.73 23.45 21.54 28.23 28.13 24.84 28.54 30.50 31.38 31.64 32.34 28.47 33.75
47.53 47.01 47.15 46.55 46.68 42.38 37.37 38.94 39.73 36.23 29.09 29.85 31.39 33.23 34.17 35.70 36.61 34.25 37.42 38.21 37.55 39.97 40.92 39.34 38.16 36.26 35.53 35.98 34.44 36.68 32.90 31.80 27.82 20.10 24.94 17.50 29.18 33.92 34.14 32.63 33.33 33.96 34.14 35.55
47.53 47.09 46.80 46.71 46.32 44.45 37.17 35.45 36.90 35.89 30.94 33.09 31.03 33.45 33.41 34.93 35.42 34.80 36.76 38.59 39.77 41.31 38.17 33.86 31.44 34.26 34.56 35.59 35.78 34.67 37.52 33.61 26.76 22.75 24.03 25.42 30.43 33.58 32.13 31.70 33.55 35.62 35.27 37.04
47.61 47.36 47.00 47.15 46.33 44.36 37.10 35.05 35.21 33.23 30.43 27.48 35.29 34.37 36.10 32.11 29.26 32.85 35.98 39.78 41.10 39.34 35.92 32.56 26.92 24.03 27.99 28.23 33.98 37.54 35.82 34.75 30.38 27.08 21.69 19.98 29.10 36.79 38.62 38.09 31.82 38.36 36.72 37.29
47.16 47.14 46.85 46.58 46.03 44.63 37.85 35.80 35.76 32.09 27.52 30.81 34.46 31.70 33.78 39.21 34.23 30.28 32.26 34.98 36.00 37.21 33.21 30.93 28.07 25.45 30.89 27.53 28.46 32.28 33.65 34.24 30.44 28.65 27.43 27.25 33.45 38.32 39.74 30.71 32.61 37.92 38.99 39.35
46.56 46.52 46.64 47.34 46.53 45.47 40.22 36.39 36.95 33.26 27.57 28.57 31.56 34.84 32.07 33.22 37.67 34.64 34.37 34.84 35.15 34.94 33.15 33.59 32.24 27.82 30.75 28.48 30.16 31.95 30.70 29.95 29.33 29.67 26.41 22.50 36.88 37.10 33.66 37.60 38.35 38.85 38.82 38.97
46.75 46.16 46.40 47.27 45.75 45.47 43.15 36.59 39.17 39.35 32.43 31.37 33.58 34.87 35.75 34.93 34.55 32.69 36.73 36.64 33.52 35.69 31.88 30.19 30.02 29.91 29.96 30.26 29.70 31.58 29.48 30.79 29.76 30.02 28.99 34.78 39.67 40.10 41.36 39.95 38.47 38.32 38.09 38.67
46.88 46.29 45.30 46.46 47.02 46.11 43.56 38.77 38.84 37.90 34.94 32.66 32.81 32.41 35.28 36.60 36.31 37.40 32.19 38.85 42.58 37.17 36.87 34.85 33.28 30.53 32.37 30.37 30.74 29.19 33.08 35.85 32.71 32.95 34.76 35.47 37.86 40.24 39.62 38.73 38.55 39.04 39.00 38.38
47.18 46.38 46.31 46.14 46.44 46.46 45.24 39.93 39.69 38.63 34.86 28.80 28.68 34.57 31.07 35.01 35.87 35.63 36.85 36.60 38.76 36.56 39.65 38.73 35.81 31.11 34.14 29.78 31.36 31.48 33.75 35.71 33.84 33.51 36.28 36.93 37.73 39.59 40.01 39.99 39.43 38.80 38.67 39.10
46.50 45.10 45.13 45.93 47.21 45.97 43.35 40.44 39.02 39.79 34.96 27.76 29.03 32.70 34.23 35.00 34.95 34.24 34.53 33.55 33.08 32.38 34.68 38.46 35.32 34.46 33.76 32.14 32.73 30.63 34.46 34.24 34.17 33.42 37.02 37.38 38.05 39.75 39.37 39.08 39.34 39.66 38.11 37.29
45.83 45.57 45.58 46.96 44.77 44.78 40.17 34.34 38.37 39.19 38.48 30.29 24.98 30.96 28.60 30.85 32.80 32.72 32.42 32.96 34.61 34.46 35.46 39.59 37.33 37.36 35.64 29.58 31.02 34.82 35.19 36.93 39.24 38.02 38.14 39.51 40.49 39.45 38.34 36.75 37.24 37.86 37.39 37.31
46.11 46.08 46.63 44.31 45.06 40.73 34.87 32.29 34.58 41.00 38.15 32.19 21.60 21.40 31.36 37.85 33.66 31.12 30.46 31.86 34.81 36.49 35.31 39.20 37.00 36.90 37.26 33.27 30.05 36.10 36.34 36.89 35.52 36.49 36.68 36.98 38.91 37.79 36.30 36.32 36.90 37.22 35.17 35.41
46.04 45.97 44.48 45.01 44.59 41.38 36.50 36.30 41.87 40.28 35.79 32.82 23.82 20.61 29.94 38.52 34.61 31.66 36.70 34.04 35.23 38.67 38.34 40.21 35.94 38.40 36.01 32.68 34.33 33.25 33.86 33.44 34.46 34.94 35.77 36.48 36.37 36.96 37.08 36.75 35.03 33.96 33.81 33.32
45.71 43.64 43.20 42.41 38.16 33.17 33.90 42.00 42.85 41.39 34.89 26.53 27.85 24.07 23.61 38.35 36.81 38.27 38.09 39.41 33.15 39.24 37.74 39.01 37.22 36.59 33.93 33.86 34.75 32.38 31.84 31.96 32.12 32.28 32.16 32.35 32.79 33.31 35.25 36.15 35.31 33.13 33.03 32.02
41.74 38.81 36.85 32.85 35.52 40.71 41.19 39.59 34.26 33.75 34.46 32.91 27.19 32.47 28.32 35.23 35.31 36.27 36.22 36.62 35.07 31.56 37.15 40.35 37.31 33.43 32.00 31.36 31.22 31.52 31.36 30.67 30.05 28.83 28.32 26.51 26.08 30.01 33.22 34.32 34.66 34.79 33.40 32.40
34.61 31.68 31.50 34.74 40.32 35.73 35.24 31.34 30.69 30.46 28.29 31.93 30.73 32.38 31.14 37.94 33.93 37.15 39.11 34.53 34.28 31.09 34.77 35.41 33.67 33.91 31.11 29.58 29.78 30.28 29.51 28.98 29.87 30.73 31.79 32.36 32.40 32.85 33.04 33.76 34.06 34.75 34.24 31.68
37.99 35.54 37.49 37.33 34.21 31.11 28.78 27.11 30.35 29.54 26.50 35.13 33.89 34.81 35.84 38.08 41.29 37.29 36.73 32.96 33.15 28.01 37.02 33.71 29.59 30.17 27.16 28.90 27.92 28.23 28.27 28.80 30.89 33.38 33.83 35.38 36.08 36.22 35.17 34.65 36.35 36.99 35.20 31.52
36.31 35.06 30.76 29.98 29.41 25.01 23.56 21.25 23.73 27.40 32.44 32.97 33.04 31.44 36.44 39.17 39.41 35.59 34.51 30.96 29.49 32.18 32.09 28.78 26.46 26.97 26.99 27.68 28.36 27.81 28.92 30.33 32.26 32.20 33.16 34.00 34.86 36.61 36.18 35.18 34.93 34.50 33.00 31.58
24.71 21.10 17.80 21.95 20.69 25.53 25.90 24.87 27.68 29.14 31.71 31.70 32.07 32.94 35.03 36.46 34.38 34.99 28.58 30.86 30.89 27.87 26.09 22.54 28.15 25.60 27.78 27.82 28.91 28.92 28.20 29.07 29.34 29.50 30.48 31.56 32.00 33.31 35.89 35.39 35.42 34.01 32.07 31.02
18.96 21.40 14.62 19.40 26.63 25.64 26.22 26.08 29.86 27.22 32.75 31.24 30.90 32.59 35.31 33.37 31.83 33.94 30.40 29.63 27.83 28.75 24.81 22.35 21.76 29.60 28.68 26.58 27.22 27.87 28.12 28.41 28.69 29.11 29.31 29.95 30.30 30.66 31.49 33.87 34.03 33.40 32.42 31.18
19.66 23.12 20.19 23.32 20.79 22.73 21.92 21.51 25.42 32.08 32.52 32.45 32.08 30.76 31.23 31.20 31.87 30.23 28.38 26.31 22.77 26.15 22.74 25.32 28.77 28.37 26.57 26.22 26.38 27.61 28.67 28.06 27.75 28.19 28.97 29.19 28.64 28.32 28.96 32.02 32.23 33.11 32.29 31.73
23.13 18.04 22.91 20.13 18.42 22.70 23.84 27.38 27.93 30.95 30.64 28.34 30.46 28.93 29.58 32.03 29.64 26.99 27.05 26.73 27.78 23.83 27.30 25.84 27.33 26.46 26.77 25.89 26.72 27.38 26.97 24.97 26.07 26.30 27.71 27.70 27.58 27.69 27.20 26.17 26.77 27.39 31.00 31.69

GFSNW_sfc_wetblb_030.txt.gz
Wetbulb
50.12 49.47 49.29 48.96 48.59 49.88 46.60 43.06 42.19 47.41 48.42 43.16 42.59 38.12 38.03 40.97 41.44 43.17 39.87 39.88 38.07 36.90 36.67 35.69 35.84 34.88 38.07 41.89 41.39 37.18 37.99 35.56 30.91 32.93 37.05 38.54 37.13 35.35 35.01 31.50 27.60 29.75 29.96 33.16
49.67 49.53 49.05 48.70 48.31 48.91 45.99 41.71 41.96 48.28 48.14 38.71 39.24 40.08 39.52 40.55 40.55 40.32 39.46 38.05 39.62 39.21 36.72 33.96 35.99 36.84 39.85 41.51 40.60 38.38 39.21 34.05 28.05 29.32 34.35 36.69 34.69 35.44 34.54 32.58 32.46 28.81 29.73 33.42
49.62 49.13 48.56 48.20 48.03 48.29 45.63 42.21 39.34 44.44 45.72 43.06 40.22 38.21 38.18 38.09 42.05 40.22 40.07 39.20 39.91 38.06 36.37 38.30 35.29 35.59 39.37 40.46 40.53 42.16 41.69 34.22 31.87 29.07 31.41 35.01 31.93 34.00 34.38 34.09 30.53 30.33 31.79 34.09
49.34 48.77 48.17 47.83 47.57 47.51 45.12 42.50 36.73 39.39 38.76 39.62 39.20 39.11 38.69 37.30 37.52 41.44 40.92 38.63 38.33 37.42 34.56 35.50 35.12 37.37 37.81 39.65 42.10 40.35 39.65 33.35 32.49 33.48 33.88 33.98 33.78 33.50 33.36 31.25 34.03 31.41 33.47 32.98
49.26 48.10 47.83 47.39 47.24 46.64 43.42 37.71 37.07 40.34 38.49 37.01 37.70 37.50 38.15 37.49 38.73 39.42 37.59 37.42 38.75 39.09 36.62 37.30 35.24 37.94 38.09 37.04 39.98 38.77 38.83 33.03 32.90 30.49 32.93 33.42 31.71 34.40 34.84 34.29 34.61 34.28 35.35 34.89
48.79 48.12 47.58 47.28 47.07 45.48 41.04 41.49 41.90 39.60 36.38 36.66 37.44 37.66 37.71 38.46 39.95 41.09 41.70 41.24 40.40 38.98 40.15 42.38 42.29 42.38 42.48 41.69 38.87 37.42 37.18 33.90 32.14 28.93 31.35 31.44 28.80 32.35 34.21 34.88 35.95 35.63 31.92 37.75
48.46 48.44 47.81 47.68 46.92 43.73 42.37 40.36 40.33 36.65 34.77 36.37 36.74 35.99 37.14 38.02 39.47 38.71 41.94 42.99 41.24 42.39 44.27 43.61 43.64 42.63 41.31 41.27 39.62 41.54 36.71 35.11 33.33 29.95 30.33 24.54 33.86 37.79 37.58 35.87 37.36 38.11 38.78 39.95
47.98 47.74 47.46 47.68 47.04 44.67 40.85 40.40 38.84 36.98 32.87 35.48 34.89 35.98 35.50 38.51 39.90 40.15 41.24 43.41 44.59 46.69 43.48 39.33 35.90 36.41 36.66 37.06 39.28 39.30 40.26 36.91 31.35 29.08 27.80 31.87 34.53 35.26 35.41 34.96 36.99 39.58 38.80 40.88
47.50 47.14 47.38 47.40 47.06 44.69 41.53 40.75 40.41 37.46 32.42 32.05 35.14 35.13 36.38 35.12 37.91 39.40 41.15 45.22 46.78 45.01 42.16 38.59 32.04 30.05 32.93 32.36 35.24 39.79 38.76 39.44 34.16 30.55 25.78 25.12 35.03 41.01 42.64 40.92 35.32 41.62 40.95 41.10
47.34 46.90 47.23 47.38 47.48 46.17 41.61 40.46 40.03 37.43 31.03 33.75 35.60 33.65 35.11 39.48 38.19 37.35 38.35 41.45 42.74 43.71 39.98 35.54 33.66 32.47 35.48 31.07 30.31 32.71 34.20 34.38 31.22 30.53 28.66 32.76 39.33 42.25 43.60 33.64 37.05 43.01 43.22 43.88
47.57 47.34 46.81 47.01 47.24 46.09 43.08 41.22 40.83 37.87 32.98 33.49 33.79 36.49 34.68 34.73 36.27 35.99 38.90 40.18 39.90 39.43 36.80 35.53 34.46 34.08 35.98 34.14 35.55 33.69 32.93 30.99 31.06 32.38 28.07 25.77 41.05 40.02 36.55 41.77 43.06 43.46 43.76 43.94
47.74 47.15 46.55 46.17 46.70 46.41 44.87 39.97 41.00 40.86 35.65 34.26 36.78 37.42 38.36 37.38 37.36 35.41 35.62 37.18 38.74 41.63 39.17 38.76 37.88 35.37 36.24 36.00 31.38 38.49 31.92 36.56 33.98 34.97 34.52 40.74 42.64 43.28 45.17 44.37 43.43 43.21 43.32 44.07
47.48 46.94 46.84 46.75 46.59 46.75 45.96 41.51 41.70 39.14 35.48 34.37 34.31 33.47 38.27 39.41 38.64 39.81 31.27 37.05 40.80 40.29 40.06 39.20 38.35 36.06 39.02 34.33 35.05 36.83 38.99 40.68 37.28 36.94 40.82 40.85 42.26 44.31 44.64 43.96 43.33 44.25 44.45 43.48
47.19 46.80 46.37 46.23 46.58 47.31 45.85 41.62 42.64 40.55 36.58 28.43 30.32 37.26 34.70 38.72 39.20 37.90 38.02 37.46 38.28 36.30 35.39 39.31 39.51 37.19 40.78 37.92 37.96 37.66 39.79 39.64 38.56 38.39 40.98 42.20 43.41 44.51 45.44 44.75 44.84 44.61 44.83 43.61
46.94 45.70 46.13 46.23 46.75 45.85 45.16 43.42 41.82 42.27 35.45 28.42 30.45 36.12 36.97 38.01 37.50 36.21 36.68 35.34 33.81 32.46 30.58 34.06 37.39 40.40 39.11 38.98 38.66 37.09 40.51 39.42 37.22 37.33 43.01 43.19 43.24 45.06 44.13 43.40 42.61 42.59 42.31 43.16
46.44 46.17 46.37 46.99 44.96 45.30 42.06 35.37 41.01 41.68 40.94 32.40 25.89 35.27 32.79 34.42 35.79 35.39 35.08 35.01 34.28 34.49 31.23 32.38 38.67 41.71 41.19 37.39 36.03 40.86 41.75 42.11 43.10 41.95 43.54 44.19 45.17 44.21 43.61 40.50 41.09 41.60 41.97 42.45
46.11 46.17 46.46 45.45 45.20 43.51 37.40 34.26 38.41 42.01 40.65 32.11 26.79 27.15 33.31 36.35 36.29 34.73 34.09 35.82 34.73 34.30 32.88 33.06 37.19 41.00 40.95 38.42 35.31 40.75 41.81 42.59 41.74 41.31 41.09 40.75 41.69 41.87 40.89 39.79 40.70 41.23 41.15 41.11
46.39 46.38 44.86 43.64 44.71 42.40 38.94 39.78 42.52 42.01 36.75 33.20 24.68 25.74 30.76 37.99 33.75 31.09 35.04 31.52 32.47 34.80 33.93 37.26 36.30 40.14 40.05 36.59 40.00 39.86 40.18 39.55 38.91 38.94 38.74 38.53 38.92 38.75 39.17 39.35 38.88 38.73 39.33 39.71
45.82 43.44 43.06 43.72 39.86 36.03 37.32 41.88 43.41 42.25 36.81 28.61 27.97 26.10 26.68 37.97 35.99 36.68 35.50 35.74 28.52 36.56 34.70 36.68 38.17 35.76 36.34 39.03 39.00 38.87 38.44 38.43 38.07 36.52 36.26 36.89 36.99 37.21 37.54 37.84 38.64 36.91 37.17 38.33
41.84 40.18 37.30 34.15 37.10 41.08 41.67 39.22 35.02 34.40 34.90 33.72 28.27 32.94 28.58 34.86 36.28 35.29 35.50 35.61 33.93 31.08 35.30 40.40 36.09 36.18 35.55 34.98 35.70 37.35 36.06 35.38 34.78 34.29 34.83 33.93 34.11 35.01 36.78 36.64 37.93 38.35 38.42 37.92
38.27 33.95 32.57 37.30 40.54 37.64 35.16 31.22 31.23 31.55 28.70 31.65 31.34 31.52 30.18 37.42 31.91 33.99 36.39 32.29 33.75 32.37 34.55 35.22 33.83 34.63 34.08 33.68 33.52 33.72 33.84 33.99 34.13 34.62 35.23 35.34 35.19 35.09 36.10 36.74 37.83 38.29 38.64 38.81
39.38 37.70 38.84 38.43 34.90 32.18 28.83 28.78 31.30 30.09 28.48 34.76 33.63 35.03 35.37 36.02 40.36 37.61 37.93 33.39 34.91 30.30 37.93 35.13 32.28 34.19 31.21 32.61 31.92 32.25 32.61 33.25 33.88 35.21 35.07 35.98 36.27 36.26 36.74 36.49 36.87 37.75 38.89 37.42
38.75 35.09 31.72 30.71 30.69 26.00 25.44 23.15 27.82 29.31 32.21 33.06 32.85 30.87 35.75 37.90 39.46 36.59 35.01 32.32 31.65 34.23 32.55 30.68 33.70 31.67 30.96 31.51 31.95 31.86 32.45 33.02 33.59 32.98 33.93 34.59 34.61 35.64 36.45 35.85 36.75 34.73 34.06 33.81
30.10 25.27 18.45 25.02 25.00 27.28 28.48 28.32 29.84 32.79 31.84 31.73 31.16 31.23 33.88 36.34 34.09 35.35 31.36 33.87 33.11 29.79 27.97 29.72 33.04 31.56 31.45 31.55 31.84 32.15 30.95 31.38 31.68 31.77 32.50 32.73 32.85 32.95 34.49 35.39 35.37 35.20 33.89 32.66
26.31 24.66 20.71 22.54 28.71 29.24 30.24 29.79 30.66 32.70 32.96 32.26 30.53 30.59 33.58 33.43 32.16 34.76 32.65 30.65 28.63 29.79 29.51 33.79 33.41 31.92 30.76 29.68 30.16 30.79 30.16 30.07 30.62 31.31 31.24 31.32 30.99 31.32 31.83 34.16 34.96 34.89 33.90 33.18
26.65 24.96 22.73 25.31 24.41 26.16 27.20 28.29 28.78 32.93 32.79 32.93 31.61 29.49 30.38 32.12 32.41 31.72 30.96 28.94 27.33 31.51 33.75 32.78 32.55 31.14 29.78 28.89 29.39 30.23 29.96 28.88 29.06 30.25 30.55 30.34 29.64 29.27 29.89 31.15 30.04 31.47 33.64 33.25
22.67 23.22 25.94 26.31 24.89 25.28 26.60 28.87 30.53 32.26 30.89 28.48 29.59 27.72 30.33 31.53 31.60 29.22 31.69 31.07 34.30 33.42 32.69 31.89 32.71 31.04 30.38 28.72 29.07 28.70 27.37 27.23 27.92 28.41 29.36 29.30 29.20 29.89 29.32 28.14 28.46 28.41 30.42 32.88

GFSNW_sfc_wetblb_033.txt.gz
Wetbulb
50.28 49.92 49.66 49.26 48.92 49.30 49.94 46.87 43.70 50.10 51.41 44.89 45.34 40.02 39.64 41.25 42.50 44.25 41.64 41.55 39.78 38.85 38.96 37.69 37.79 37.22 40.23 43.78 42.94 38.45 39.90 38.18 31.87 34.19 38.95 40.42 39.67 37.93 38.12 32.46 30.07 32.89 31.80 32.78
49.97 49.57 49.15 48.76 48.55 47.98 45.47 44.29 45.46 51.10 50.86 40.86 40.13 42.16 41.35 42.52 41.63 41.53 40.76 39.48 41.18 41.47 38.91 35.79 38.63 38.87 42.00 43.23 42.15 39.86 40.50 35.67 29.14 29.69 35.96 38.38 35.89 37.83 37.72 35.59 35.08 31.41 30.43 32.88
49.74 48.99 48.69 48.40 48.25 48.05 47.33 44.66 40.70 47.45 48.69 46.51 42.94 40.36 39.95 39.77 43.71 41.72 41.91 40.92 41.84 40.18 38.23 40.27 37.43 38.04 40.77 42.39 42.41 42.14 43.29 36.67 33.29 30.90 33.48 37.64 33.35 36.38 37.15 35.15 31.46 32.76 33.37 35.74
49.46 48.86 48.41 48.17 47.63 47.39 47.18 44.02 38.67 40.86 41.23 42.61 42.45 42.15 41.06 39.02 38.87 43.02 42.68 40.26 40.08 39.09 36.25 37.19 36.74 39.26 39.23 41.06 42.02 42.05 41.26 34.55 33.84 35.11 35.91 35.81 35.61 35.50 35.67 32.71 34.70 32.80 35.72 35.81
49.18 49.03 48.45 48.22 47.12 47.49 44.70 38.03 37.78 41.07 41.91 41.22 40.95 39.54 40.06 39.25 40.26 40.75 38.96 38.79 40.35 40.56 38.00 38.78 36.89 39.14 39.26 38.03 41.28 40.10 40.88 33.49 34.84 32.34 35.14 35.01 32.89 35.72 36.58 35.90 35.58 35.82 36.68 36.11
48.89 48.45 48.21 47.98 47.01 46.17 40.92 42.23 42.69 39.45 39.63 40.37 40.09 40.58 40.07 40.01 42.00 42.58 43.11 42.56 41.23 39.81 41.32 43.76 44.21 44.48 43.89 42.81 39.99 38.73 38.12 35.52 32.98 30.37 33.27 32.82 29.60 33.89 35.56 36.65 38.03 37.55 33.39 38.83
48.45 47.87 47.94 47.94 47.30 45.16 41.78 40.16 39.80 36.28 38.00 39.15 39.33 38.71 39.52 39.92 40.84 40.34 43.22 44.54 42.47 42.70 46.50 46.08 45.50 44.40 43.41 43.06 41.85 42.62 37.74 36.08 34.89 31.12 31.53 24.73 35.37 40.02 39.57 37.68 38.86 39.91 40.17 41.51
48.07 47.50 47.53 47.94 47.64 45.83 42.68 41.87 38.82 36.62 33.00 36.43 37.61 38.39 38.27 40.55 42.45 41.35 42.56 44.83 46.45 47.57 45.05 40.35 37.03 36.77 37.64 38.69 40.69 40.63 41.77 37.83 33.08 29.77 29.72 34.01 36.20 37.22 36.08 35.77 37.03 40.73 39.80 41.51
47.71 47.26 47.25 48.05 47.69 47.30 44.51 41.85 42.12 37.82 32.22 34.67 36.51 35.88 38.15 37.73 40.05 40.96 42.52 46.69 48.74 46.88 43.73 39.61 32.02 30.93 34.51 32.64 35.91 41.28 40.51 40.41 34.85 31.35 27.06 26.05 36.02 40.96 42.76 42.21 36.07 42.76 42.20 42.09
47.99 47.68 47.24 47.55 47.19 46.21 44.39 42.50 42.02 38.55 32.43 35.45 36.11 34.72 35.55 39.44 39.46 38.42 41.29 42.87 43.83 46.10 40.64 35.76 33.42 33.07 37.08 31.77 31.43 32.36 34.25 34.73 31.61 30.50 29.06 33.55 40.68 43.62 44.14 34.32 36.90 44.08 44.40 44.63
48.01 47.59 46.87 46.40 46.64 46.48 45.23 43.25 43.37 38.64 34.23 35.54 36.63 36.53 34.62 34.98 36.44 35.82 39.89 41.11 42.24 41.52 37.07 36.47 36.23 34.80 37.01 35.14 37.02 34.95 33.25 31.34 30.94 32.32 29.04 26.22 42.50 42.76 37.84 42.21 44.79 44.83 45.15 45.47
47.53 47.73 47.21 47.20 46.80 46.88 45.76 40.54 43.33 42.62 37.04 35.65 39.98 39.36 39.56 38.13 37.79 35.32 38.56 37.85 39.71 41.57 40.19 40.25 39.77 35.76 37.98 37.07 32.31 39.93 33.16 37.08 35.02 36.18 35.90 42.38 43.99 44.22 46.38 46.16 45.10 45.39 45.08 45.54
47.57 47.32 47.30 46.86 46.57 46.94 46.40 41.79 43.16 41.60 36.29 35.26 35.82 34.71 39.40 41.01 40.01 40.85 31.22 36.10 40.08 37.47 37.17 40.01 40.16 36.46 40.50 34.82 36.00 37.70 39.72 42.66 37.36 37.88 41.22 42.15 43.45 46.08 45.95 46.33 45.73 45.94 46.16 45.26
47.33 46.99 46.54 46.65 46.50 46.80 45.77 42.49 43.97 41.85 37.26 30.08 31.69 39.32 36.31 40.00 40.02 39.29 38.82 36.72 38.93 37.21 35.27 35.45 38.92 37.11 42.61 38.35 39.98 39.37 42.04 41.77 38.87 38.95 42.03 43.43 44.51 45.79 46.91 46.05 46.23 45.95 46.42 45.88
46.43 46.42 46.54 46.81 47.09 45.39 45.72 44.71 44.34 44.00 36.41 30.28 31.26 37.16 38.20 39.49 38.75 37.67 38.12 36.86 35.41 34.19 30.88 32.56 34.81 41.07 40.61 41.31 40.72 38.88 42.52 40.93 38.45 37.74 43.91 43.70 44.73 47.02 47.24 45.66 45.39 44.28 43.66 44.05
46.50 46.31 46.38 46.61 45.65 45.43 43.12 36.81 42.34 43.04 42.02 33.13 27.42 37.34 35.43 36.21 36.82 36.02 35.67 36.22 35.38 34.36 32.35 31.12 34.93 38.24 39.55 37.58 35.91 42.00 44.77 45.60 46.28 43.68 46.32 46.12 46.68 46.94 46.42 44.71 44.23 43.65 43.19 43.92
46.60 46.71 46.66 45.26 44.29 45.11 38.70 35.43 39.87 43.20 41.96 32.82 28.26 30.10 35.57 36.37 37.28 36.26 35.70 36.38 35.22 34.07 32.22 31.62 32.84 35.50 34.62 38.37 35.78 42.26 44.56 45.47 45.07 46.19 45.18 43.11 44.06 43.59 43.50 42.67 42.53 42.58 42.71 43.23
46.73 46.59 45.19 43.40 44.68 43.35 39.87 41.70 42.83 42.73 37.13 35.02 26.56 27.78 32.25 37.74 33.81 32.62 36.48 32.76 33.42 33.38 31.91 33.74 32.71 34.90 33.85 34.33 40.74 43.00 43.66 44.24 43.59 42.99 42.30 41.36 41.43 40.98 41.42 41.63 41.40 40.61 40.67 42.24
45.38 43.52 43.09 44.00 41.27 38.00 38.71 42.18 43.33 42.61 37.09 30.63 29.82 27.20 29.33 37.62 36.35 36.83 34.51 34.69 27.20 34.18 29.45 31.04 34.19 32.66 31.98 38.54 40.47 41.35 41.62 41.27 42.18 40.43 39.56 39.43 39.05 39.54 39.93 40.01 39.88 39.62 40.30 40.67
42.32 41.31 38.62 35.35 37.92 41.39 41.95 39.06 35.63 34.48 34.60 34.13 28.64 34.41 30.06 35.50 35.64 34.86 34.35 34.26 31.96 27.59 32.05 37.50 33.77 33.91 39.42 37.65 37.73 41.74 40.23 38.99 38.98 37.54 36.67 36.77 37.44 37.64 39.30 38.84 39.50 39.64 39.94 40.58
40.95 37.19 34.55 38.99 41.48 38.63 35.82 31.62 31.41 32.96 29.98 32.85 32.50 32.76 30.64 37.39 31.65 33.93 36.18 32.98 34.61 31.20 33.59 33.97 33.53 34.57 37.21 36.65 35.88 35.98 36.62 37.29 36.95 37.50 37.62 37.95 37.63 37.47 37.18 37.04 39.26 39.51 39.84 39.99
40.04 38.87 40.24 39.79 36.22 33.79 30.09 30.25 32.53 31.26 30.48 35.05 33.41 33.86 34.81 36.41 37.58 33.85 34.82 32.54 33.14 31.00 34.63 33.03 32.59 34.48 33.91 34.86 34.19 34.20 35.11 35.78 36.21 37.15 37.15 37.28 37.67 37.29 36.14 36.83 37.13 36.71 36.92 38.83
40.94 36.07 32.41 32.54 32.65 28.43 27.38 24.33 29.14 29.26 33.68 34.09 32.35 29.53 33.90 36.65 38.37 36.37 35.03 32.50 32.64 35.59 33.84 32.00 35.28 33.62 33.51 33.33 33.70 33.58 34.67 35.46 35.78 34.89 35.11 36.31 35.81 36.04 35.67 35.84 36.41 36.62 35.73 33.97
33.15 28.86 24.00 28.49 28.17 30.21 31.23 30.92 31.67 34.49 33.45 33.14 32.24 30.42 31.64 35.38 33.63 34.95 31.71 34.04 34.15 30.62 28.84 31.18 36.35 34.55 34.18 34.31 34.47 34.39 33.38 34.03 33.96 33.33 34.32 34.32 34.34 34.49 34.98 35.60 35.65 35.15 34.36 34.13
31.18 29.23 26.02 26.68 32.12 32.40 33.27 33.37 31.65 33.86 34.59 33.29 31.71 31.37 31.34 31.96 32.29 34.59 33.06 31.34 28.88 30.13 30.39 36.04 36.42 34.47 33.59 33.24 33.67 33.43 32.70 32.59 32.81 33.15 33.25 32.84 32.46 32.50 32.55 32.65 32.66 34.97 35.41 34.66
30.97 28.40 27.56 29.91 28.48 31.58 31.09 31.78 31.05 34.74 34.13 33.72 32.24 29.04 29.46 30.81 32.15 31.73 31.55 30.41 29.02 33.59 36.39 35.47 34.72 33.33 32.44 31.82 32.08 31.99 31.09 30.65 30.83 31.97 31.74 31.60 30.89 30.48 31.04 32.28 30.88 30.70 31.96 33.69
26.26 28.71 30.64 30.71 30.01 29.54 31.26 31.56 32.21 34.47 32.21 29.40 29.89 27.28 29.55 31.37 30.18 30.58 34.12 32.80 35.02 34.96 35.65 34.69 34.95 32.91 31.17 30.47 30.55 30.22 28.75 29.15 29.41 29.81 30.26 30.43 30.46 30.41 28.67 27.39 29.41 29.69 30.00 30.81

GFSNW_sfc_wetblb_036.txt.gz
Wetbulb
50.32 50.08 49.60 49.61 49.12 49.29 48.54 46.46 40.75 49.44 51.09 43.14 43.69 38.85 40.74 42.15 42.43 44.49 41.88 41.54 39.85 37.92 38.07 36.18 36.05 36.15 38.82 42.92 41.88 37.21 38.63 35.40 30.90 34.00 38.87 40.87 39.26 36.82 36.21 30.24 25.82 26.11 24.63 25.22
50.03 49.78 49.49 49.52 48.81 47.99 44.35 42.41 44.11 50.44 49.66 38.20 38.09 41.53 41.24 42.97 41.76 41.81 41.11 39.73 41.26 41.10 37.84 34.83 37.41 37.93 41.53 42.87 41.18 37.79 38.82 32.81 27.20 29.84 34.56 36.95 34.19 36.53 37.62 34.26 32.85 28.54 22.59 24.70
49.82 49.54 49.37 49.19 48.32 48.20 45.42 43.43 38.33 45.66 47.31 45.30 41.92 39.70 39.65 39.65 44.02 42.25 42.27 41.01 41.64 39.39 37.24 38.73 36.16 36.98 41.00 41.43 41.61 42.96 41.43 35.15 29.61 23.76 26.99 34.14 30.72 34.55 35.37 32.02 26.29 28.48 28.13 29.92
49.65 48.98 48.94 48.80 48.11 48.66 46.08 42.58 37.78 40.25 38.06 40.43 41.20 41.89 41.16 39.40 39.07 43.14 42.77 40.01 39.86 38.71 34.96 35.85 35.43 38.03 38.29 40.77 41.29 40.17 38.82 28.24 29.01 32.95 35.11 34.19 33.52 33.83 34.61 30.15 33.16 26.79 31.10 32.18
49.26 48.55 48.57 48.56 48.18 48.50 42.71 37.14 36.46 39.22 38.90 41.16 39.96 38.70 39.62 39.25 40.23 40.43 38.89 38.41 40.54 39.29 36.90 37.19 35.26 37.66 36.29 35.09 38.49 36.98 38.51 30.16 30.37 27.49 34.44 32.91 30.10 34.16 34.81 35.05 34.14 33.68 34.19 33.29
48.74 48.25 48.26 48.43 47.65 46.72 38.35 38.90 42.02 38.90 39.78 39.72 38.19 38.29 39.19 39.47 41.79 42.38 43.12 42.03 40.71 38.85 40.08 42.50 42.12 41.15 40.86 39.41 37.25 35.59 35.21 30.78 26.66 23.46 31.82 30.35 25.57 31.38 33.49 34.55 35.48 34.88 30.37 35.69
48.36 48.00 48.14 48.44 47.91 46.32 41.40 39.10 38.93 35.69 35.00 36.87 37.55 38.50 39.51 39.35 40.05 39.12 42.81 43.90 41.86 41.58 44.80 43.62 41.95 39.68 39.98 40.32 38.47 39.66 34.99 33.27 31.09 24.85 27.02 17.67 32.50 37.21 37.44 35.64 37.02 37.05 37.60 38.49
48.33 48.19 47.80 48.02 48.17 47.33 42.42 41.03 37.65 34.29 30.12 32.88 35.21 35.38 37.39 39.44 41.27 40.38 42.13 44.32 45.03 45.25 43.05 37.87 35.69 35.16 35.70 37.40 37.90 37.23 38.33 34.44 30.61 23.98 24.30 30.46 33.32 35.21 34.46 34.21 34.41 39.26 37.65 39.01
48.37 48.12 47.66 47.85 47.64 46.58 44.17 41.54 41.50 36.93 30.50 29.35 33.74 32.16 34.16 34.51 36.48 39.29 41.88 45.42 46.70 44.27 41.14 37.49 30.97 29.09 31.94 31.70 34.82 38.61 38.42 37.59 32.94 30.80 23.78 22.49 34.78 37.64 40.24 39.31 32.04 40.23 40.10 39.34
48.19 47.96 47.27 47.01 47.28 47.21 44.80 42.27 42.35 38.05 32.00 34.56 33.82 32.13 33.17 36.73 36.79 36.07 39.99 41.40 41.98 43.53 37.50 34.16 32.09 30.57 34.13 29.02 29.84 31.59 33.19 32.53 28.02 30.09 27.34 29.49 39.56 41.35 41.57 31.39 33.57 40.11 40.64 40.71
47.70 47.90 47.68 47.58 47.56 46.84 45.32 43.17 43.06 37.83 33.59 34.70 36.88 36.31 32.39 32.46 32.37 29.88 35.73 37.53 40.06 39.51 35.97 33.63 34.42 32.72 34.05 30.92 33.41 31.90 29.94 29.63 29.94 30.94 27.63 22.06 41.45 40.15 34.90 38.99 41.06 42.15 42.39 42.28
47.52 47.79 47.36 47.24 47.00 46.98 46.48 40.20 43.04 42.36 36.33 34.81 39.18 39.14 39.50 37.60 36.33 32.62 33.49 34.90 36.35 38.74 36.68 36.09 35.56 32.01 32.34 32.17 28.20 35.44 30.40 33.24 30.15 31.48 30.94 38.73 40.49 39.71 42.66 43.00 42.02 41.37 42.15 42.48
47.59 47.46 47.29 47.14 47.01 47.08 46.44 41.88 42.61 41.41 36.52 34.47 35.10 34.67 38.71 40.82 39.15 39.79 30.18 33.76 37.00 34.65 35.05 35.01 37.80 34.50 35.35 29.24 31.19 33.25 34.65 37.87 34.13 34.49 36.89 38.09 40.06 42.22 43.08 42.51 42.08 42.97 43.36 42.54
47.29 46.89 46.95 47.13 47.18 47.29 45.39 41.79 43.04 41.39 36.85 28.79 30.93 39.28 36.53 39.99 39.01 38.91 38.45 36.46 36.73 36.31 34.63 33.45 35.39 35.44 38.09 33.33 34.96 35.27 37.69 37.78 35.25 34.87 37.76 38.90 40.27 41.78 43.02 42.94 43.20 42.70 42.88 42.53
46.97 46.82 46.72 46.91 46.81 45.91 44.89 43.31 42.81 43.16 36.65 29.09 30.91 36.49 37.78 38.46 37.92 37.41 37.80 36.14 34.01 32.01 29.40 29.81 30.32 35.63 37.45 37.81 36.91 34.38 38.10 36.81 34.10 32.89 39.34 38.67 39.73 42.24 44.00 42.74 42.66 41.56 39.70 39.97
46.66 46.78 46.95 46.92 45.11 45.36 42.48 36.88 41.54 42.25 41.50 33.32 26.92 36.16 35.09 35.80 36.47 35.88 35.28 35.29 34.10 33.39 30.58 29.10 30.84 35.82 35.27 33.03 32.14 38.52 39.87 41.40 42.04 39.16 41.92 42.22 42.96 43.59 43.39 42.18 41.35 40.46 38.98 39.51
46.78 47.01 46.84 45.50 44.49 43.75 37.64 34.98 39.43 43.02 41.20 32.71 27.66 28.47 35.06 36.15 36.58 36.36 35.04 35.63 33.73 33.53 31.83 29.42 28.71 29.84 35.60 33.57 30.78 38.77 41.82 42.36 41.92 42.85 42.23 40.40 40.71 39.68 40.43 39.68 39.34 40.26 39.34 39.61
46.79 46.13 44.87 43.22 44.56 43.12 39.42 40.98 42.76 42.25 37.16 33.98 26.39 26.96 31.41 37.11 34.06 31.90 35.56 32.58 33.27 32.09 29.95 30.09 28.11 30.15 30.15 26.75 35.05 39.81 41.82 42.03 41.38 40.54 39.13 38.17 38.64 38.57 37.98 38.17 38.57 37.69 37.61 38.28
45.40 42.99 42.98 43.86 41.09 37.34 37.46 42.38 43.03 42.31 36.97 29.44 29.27 26.15 27.34 37.58 36.00 36.72 33.24 34.48 26.67 31.16 27.07 27.19 28.72 27.03 26.00 30.33 34.01 37.83 38.94 39.25 38.84 37.68 37.75 36.47 36.72 36.91 37.06 36.99 37.14 36.70 36.87 37.60
44.24 40.34 38.06 35.44 36.70 41.20 41.18 38.41 35.44 34.33 34.91 34.24 27.90 33.70 28.69 35.21 35.11 34.61 33.22 32.99 30.11 25.65 28.39 31.94 28.35 27.30 33.61 36.75 38.38 38.26 37.37 36.98 37.87 35.24 32.53 31.42 31.06 34.76 35.60 35.54 36.95 37.51 37.24 37.34
39.37 35.51 33.96 37.33 42.00 37.55 35.89 32.10 31.46 32.98 29.79 32.13 31.77 32.50 30.58 36.58 31.40 32.24 36.16 32.00 32.55 28.20 31.25 29.53 31.24 31.70 35.03 37.25 35.51 35.45 35.84 35.57 35.31 35.62 36.00 36.04 35.69 35.05 34.58 35.53 37.67 38.09 36.01 34.95
38.89 37.15 39.12 38.71 35.50 32.39 27.57 26.15 31.36 31.12 30.32 34.04 33.22 31.91 32.44 34.54 37.51 32.85 34.29 30.86 31.87 28.96 33.81 31.80 31.06 32.62 33.47 34.75 33.14 33.82 34.59 34.48 35.04 36.06 35.95 36.03 36.31 35.00 34.73 36.41 36.55 36.80 36.56 34.09
39.42 34.67 29.55 30.48 28.98 20.41 20.16 17.99 22.98 26.10 32.53 32.73 31.72 29.42 32.32 34.21 37.10 33.98 34.20 31.41 31.18 33.34 31.42 30.98 31.30 31.80 32.63 32.70 33.02 32.80 33.81 34.90 35.19 33.87 34.56 35.29 34.31 34.68 34.79 35.31 35.93 35.83 35.89 35.10
30.35 23.82 16.64 23.03 21.19 25.12 26.09 25.93 25.93 30.87 30.49 31.36 31.40 30.62 29.75 33.09 32.12 34.21 30.85 34.51 32.98 29.05 27.48 28.36 28.64 30.16 31.16 31.73 33.20 32.75 31.80 32.63 32.50 32.46 33.46 32.97 32.63 31.85 34.04 34.08 32.94 34.68 34.45 34.67
26.38 25.17 18.58 19.82 28.17 27.32 27.39 27.55 26.47 29.56 32.22 30.60 30.21 30.62 30.91 30.05 30.40 32.65 32.01 29.78 25.02 29.42 27.93 32.11 32.25 30.60 30.95 31.26 32.09 30.61 29.93 30.03 30.30 32.50 31.82 30.89 30.53 30.23 29.86 30.67 30.38 30.36 32.71 34.02
25.76 23.91 21.68 27.25 22.78 23.92 25.11 24.67 24.73 30.52 31.26 30.59 32.16 28.87 28.27 28.94 30.95 30.09 28.16 29.44 27.33 30.99 32.02 33.51 32.83 32.18 31.65 30.18 29.97 28.95 28.24 28.25 29.36 30.49 30.99 30.87 29.91 29.15 29.03 30.10 30.10 29.95 29.88 30.64
26.51 22.38 29.05 26.61 24.53 24.21 26.11 27.70 28.32 31.75 27.57 22.56 28.11 23.90 22.71 27.17 27.09 28.73 31.42 30.16 32.46 34.00 33.58 32.89 32.52 31.09 29.92 29.31 29.29 28.28 27.40 28.27 28.22 28.68 29.20 29.29 29.14 28.10 25.95 24.31 25.43 28.04 29.18 28.70

GFSNW_sfc_wetblb_039.txt.gz
Wetbulb
50.38 49.95 49.83 49.98 49.77 49.76 44.96 39.45 39.08 45.52 47.53 37.21 35.68 29.98 37.13 41.92 41.20 42.13 40.30 38.65 37.38 34.47 34.96 33.77 33.45 32.97 36.41 42.01 41.26 37.23 39.04 34.44 30.74 34.13 39.65 41.33 38.51 34.35 33.38 26.80 24.62 24.04 22.51 25.25
49.95 49.44 49.49 49.68 49.34 48.80 43.15 36.12 37.93 45.90 45.72 36.29 32.66 37.25 40.12 41.38 40.34 39.62 39.28 37.89 39.24 38.41 35.45 32.42 34.63 35.41 40.13 41.36 39.75 37.18 38.41 31.96 26.59 29.26 34.39 37.48 34.51 35.85 37.00 33.45 31.59 26.00 20.39 23.77
49.69 49.16 49.26 49.37 48.93 49.13 42.76 39.05 36.35 41.56 41.48 42.95 40.56 36.10 36.58 37.70 41.66 40.54 40.51 38.77 39.02 36.60 34.32 35.73 33.91 34.75 39.48 39.99 39.75 43.84 41.33 33.74 27.54 23.70 26.18 32.64 30.01 34.19 36.64 34.33 28.57 28.42 29.37 28.34
49.40 48.99 49.00 49.25 49.19 49.67 41.82 37.67 36.87 39.08 35.58 36.16 36.80 40.49 40.46 38.73 38.32 40.86 40.22 37.62 37.76 36.85 31.97 33.19 33.29 35.52 36.02 39.07 41.75 38.46 36.73 25.88 27.42 31.32 33.89 32.97 32.54 32.79 33.04 29.33 31.55 26.56 30.42 30.13
49.03 48.77 48.81 49.09 49.13 47.16 36.15 35.56 33.85 37.73 33.80 37.10 35.48 36.97 38.76 38.44 38.63 38.65 36.99 37.88 38.23 36.88 36.54 34.93 32.39 35.44 33.62 33.26 35.65 34.89 35.91 25.48 27.26 23.12 33.14 32.21 28.86 32.55 33.25 33.97 33.51 32.64 32.99 31.19
48.74 48.70 48.62 48.71 48.61 44.09 32.36 33.63 36.29 37.06 36.85 34.91 34.18 37.25 38.06 39.16 39.08 40.47 41.43 40.58 38.95 37.11 38.18 39.51 38.66 37.79 38.13 37.12 35.27 33.47 33.54 26.90 21.93 20.01 29.83 28.88 24.56 30.06 32.15 33.27 35.42 34.61 29.98 34.33
48.84 48.48 48.30 48.49 47.93 45.65 36.01 34.57 34.57 31.54 30.05 30.41 32.91 34.61 37.26 37.01 37.64 37.25 40.47 42.03 39.20 40.53 42.84 41.59 39.22 38.63 38.05 37.93 35.68 37.04 33.03 30.29 24.41 18.77 24.65 16.37 29.32 34.70 35.69 34.35 35.63 35.74 35.49 36.98
48.82 48.28 48.05 48.07 48.07 47.78 37.67 37.13 34.37 30.93 26.32 29.66 30.74 31.60 31.41 34.38 37.56 38.04 40.44 42.36 42.90 43.68 41.25 35.47 33.49 33.45 35.28 35.87 36.37 34.88 36.88 32.55 24.65 21.75 21.21 28.03 32.24 34.32 33.31 32.27 32.65 37.31 36.16 37.18
48.43 48.06 47.73 47.91 47.89 47.73 39.66 37.46 37.24 33.61 27.71 26.29 31.57 29.30 31.33 30.34 31.32 37.66 40.50 43.20 44.61 42.33 38.92 35.19 30.25 28.40 30.47 30.46 34.39 36.90 36.62 37.31 30.05 29.61 22.16 21.95 33.54 36.16 38.68 38.00 29.50 38.95 39.37 38.33
48.09 48.33 48.16 47.92 47.86 47.42 42.19 40.61 39.13 33.68 28.91 32.89 32.63 28.12 30.76 31.96 30.18 31.75 36.80 36.89 39.13 40.87 34.50 31.06 30.14 29.68 32.73 27.23 27.63 30.39 32.83 30.72 27.19 29.50 27.35 28.72 35.92 38.16 40.04 29.68 32.19 38.41 39.18 39.53
47.78 48.11 47.67 47.69 47.48 47.18 42.63 40.16 41.55 34.07 29.07 30.96 34.81 34.76 29.60 30.87 29.45 26.30 31.65 33.90 38.02 38.16 33.14 30.53 30.06 29.76 31.40 28.77 30.24 30.00 28.38 26.40 26.53 27.84 26.19 21.76 39.91 39.11 34.86 38.31 39.39 39.89 40.19 40.64
47.59 47.88 47.69 47.47 47.48 47.30 45.10 40.21 42.91 42.05 33.80 31.35 36.43 37.65 38.22 36.31 35.65 30.36 29.68 30.45 35.24 35.49 35.76 35.53 32.69 31.18 29.34 29.12 26.24 31.63 28.09 31.07 28.14 29.75 29.83 36.83 40.28 39.22 41.25 41.54 40.50 40.28 41.06 41.42
47.84 47.50 47.30 47.66 47.78 47.81 44.58 37.65 38.42 37.43 32.78 30.62 31.08 31.73 36.64 39.54 37.87 38.97 28.85 31.92 34.47 33.83 35.15 34.09 35.97 32.04 34.00 27.45 28.39 30.87 34.41 36.03 32.27 32.71 34.18 36.61 38.76 41.00 41.72 41.96 41.23 41.83 41.94 41.46
47.44 47.24 47.25 47.32 47.37 46.61 45.14 38.25 40.49 37.01 33.32 25.88 28.14 36.98 35.11 39.00 38.12 38.28 37.59 35.49 35.95 35.14 34.04 30.82 32.81 33.09 35.70 31.56 32.91 32.34 35.13 35.85 33.17 32.85 35.78 36.83 37.72 40.10 41.65 41.67 41.86 41.77 41.98 41.49
47.04 46.89 47.16 47.41 47.21 45.33 42.49 38.97 38.85 40.34 33.65 27.20 28.98 35.17 37.47 37.45 37.62 36.96 37.48 36.11 33.66 30.82 27.94 25.83 26.53 33.14 33.12 33.82 33.69 32.20 36.05 35.16 33.05 31.74 37.44 36.89 37.61 40.56 41.93 40.99 41.18 41.38 40.60 39.03
46.91 47.05 47.38 46.58 45.48 45.42 39.47 32.99 39.57 41.36 39.08 32.29 26.29 35.00 34.29 35.22 35.91 35.38 34.80 34.72 33.45 32.31 30.13 27.76 28.63 32.37 33.10 29.35 27.31 33.98 38.45 39.40 39.32 37.53 40.29 40.09 40.42 40.94 42.08 40.92 40.15 39.92 39.11 38.47
46.76 46.84 46.31 44.89 45.22 39.24 34.13 32.40 36.43 42.27 39.41 31.29 25.73 27.35 34.62 34.67 35.31 34.96 34.13 34.63 33.04 31.72 30.41 28.82 27.67 28.90 31.33 28.24 24.30 33.22 36.81 39.72 39.78 41.11 41.29 39.21 39.99 38.92 38.81 39.10 38.58 39.74 37.71 38.03
46.17 45.44 43.67 43.33 44.83 42.55 35.52 38.27 42.28 41.03 35.94 33.31 25.11 26.29 30.74 36.79 33.56 32.23 34.41 31.27 31.93 31.46 29.55 29.80 27.53 28.34 26.96 22.86 28.03 32.47 35.00 39.11 40.48 38.17 38.54 39.49 38.31 37.55 37.25 37.40 37.47 36.11 36.36 36.76
44.91 43.17 43.72 40.86 36.85 34.27 34.50 42.43 42.95 41.48 36.37 26.83 25.80 24.25 24.00 37.42 35.37 36.37 33.65 32.78 25.43 31.34 27.29 27.09 27.14 24.60 20.86 27.43 28.96 30.14 36.45 37.13 36.71 38.41 37.37 36.75 36.01 36.24 36.73 36.49 35.53 33.86 35.03 35.75
44.67 38.09 37.13 31.37 33.81 41.25 40.40 38.48 35.25 33.77 34.36 33.54 26.96 31.77 27.08 34.82 33.55 33.16 32.94 32.07 26.83 23.95 25.87 30.08 25.59 24.23 31.26 31.47 33.89 38.96 38.72 38.42 38.10 35.85 33.96 31.84 30.79 34.22 33.76 33.69 35.32 35.74 35.61 35.75
36.39 33.48 32.72 34.25 41.57 37.03 33.44 30.93 29.27 31.15 26.19 30.79 29.96 32.15 29.94 34.22 29.96 30.81 35.37 30.94 29.42 27.56 27.75 27.14 27.80 30.79 33.65 35.03 33.22 33.96 35.08 36.84 36.72 36.69 36.09 35.89 35.90 34.78 34.01 34.30 35.34 36.11 36.41 33.66
36.00 34.35 37.74 37.69 34.79 27.22 19.01 15.89 26.11 24.77 24.32 31.30 31.35 30.70 31.44 32.36 36.26 32.84 33.56 30.37 31.37 25.26 33.51 30.03 29.57 33.51 33.94 34.54 33.41 33.84 34.49 35.98 36.12 36.66 36.16 36.07 35.45 34.74 34.99 36.03 36.14 36.03 36.57 34.68
36.23 30.87 25.67 25.82 21.91 15.81 12.42 11.17 16.66 17.33 27.19 25.29 26.74 24.89 30.09 32.57 35.21 33.68 32.77 30.59 30.49 33.22 30.31 30.69 32.04 31.53 31.97 32.86 34.05 32.97 32.81 34.82 35.44 34.51 35.18 34.87 34.68 34.71 34.31 35.22 35.27 35.67 35.50 35.51
25.47 16.91 14.78 17.25 13.47 15.80 18.49 18.81 17.76 25.52 23.38 23.97 25.94 27.79 26.61 30.31 30.32 33.46 29.63 33.79 33.02 26.78 23.58 26.57 31.94 31.83 30.33 31.64 33.18 32.99 32.27 32.98 33.11 33.14 33.22 32.44 32.56 31.93 31.66 30.36 29.51 30.14 31.15 33.10
23.05 20.13 14.51 13.20 22.29 17.21 18.25 25.14 19.94 23.74 26.10 24.77 23.59 25.41 30.36 28.73 28.09 31.38 31.41 30.00 26.37 28.91 28.29 31.77 32.77 32.87 32.23 31.87 32.13 30.78 29.09 29.60 30.22 30.82 30.60 30.74 30.69 29.76 28.71 29.08 29.32 29.19 29.41 31.11
20.25 18.57 17.47 21.84 16.15 15.35 16.87 14.49 17.89 24.25 27.23 24.47 26.08 23.22 24.86 26.02 28.90 27.37 28.67 28.75 26.81 28.38 31.87 34.61 34.21 32.06 32.73 30.71 29.84 27.94 27.46 28.38 30.15 30.65 31.09 30.52 29.32 28.10 27.24 27.45 26.60 28.53 28.97 28.66
26.87 17.72 24.41 20.74 15.84 19.43 19.66 25.64 25.63 29.46 23.96 17.35 19.70 14.34 16.85 22.76 24.40 22.46 29.88 28.79 29.44 31.83 32.59 32.51 32.90 32.22 31.84 31.47 29.58 28.45 27.44 27.72 27.30 27.82 28.85 28.38 28.87 27.90 24.37 22.91 24.36 26.09 28.26 28.03

GFSNW_sfc_wetblb_042.txt.gz
Wetbulb
50.11 49.62 49.73 50.08 49.55 50.03 44.17 37.52 34.80 44.77 46.64 38.94 33.25 28.37 36.07 41.56 39.95 40.97 39.26 37.39 36.02 33.00 33.60 32.29 31.82 32.73 36.24 42.23 40.57 36.49 36.84 34.67 30.51 33.61 39.75 41.22 38.50 34.11 34.55 29.72 23.77 22.72 21.19 23.89
49.56 49.11 49.57 49.93 49.30 49.19 40.74 37.76 36.51 44.60 44.78 29.00 30.71 35.81 38.87 40.06 39.13 38.19 37.89 36.50 37.88 36.82 33.70 31.27 33.08 34.15 38.77 41.62 40.21 37.38 37.41 31.33 25.21 29.36 34.02 37.63 36.40 36.55 35.84 33.42 29.77 21.78 19.50 23.72
49.31 49.31 49.53 49.62 49.16 48.97 41.52 37.12 34.81 38.05 42.58 40.49 36.04 34.42 35.15 36.50 40.41 39.31 39.20 37.36 37.91 35.66 33.18 35.33 32.92 33.37 38.18 39.24 39.18 43.51 41.21 32.18 26.35 24.68 28.03 33.88 31.71 34.60 35.51 32.61 24.01 27.21 25.45 27.48
49.25 49.14 49.23 49.32 48.50 47.32 40.38 35.15 35.83 38.18 34.51 37.76 37.36 38.52 38.08 37.26 37.55 39.45 39.02 36.35 36.37 34.66 30.40 31.99 31.91 34.21 35.15 38.42 41.14 37.93 35.68 26.57 26.83 30.76 33.19 31.64 31.53 33.40 34.75 32.37 34.29 30.68 33.18 32.71
49.24 48.83 48.96 48.51 48.79 44.52 33.34 31.41 33.59 35.74 34.50 36.42 35.44 37.74 37.56 38.43 38.23 37.42 36.26 37.56 38.00 36.47 34.42 33.36 31.40 34.06 32.78 32.42 34.96 34.01 34.44 24.93 26.60 23.14 31.35 30.57 28.93 31.87 34.40 35.54 35.56 34.10 31.53 30.72
48.90 48.57 48.60 48.53 48.19 41.94 31.84 32.55 34.19 35.49 35.39 32.53 36.18 36.31 37.45 37.87 37.75 39.45 40.33 41.02 37.70 35.68 36.45 37.73 37.98 36.86 36.98 35.71 34.33 32.56 32.28 26.46 21.12 18.58 29.03 28.48 24.42 29.80 31.32 32.80 34.50 34.65 29.62 35.87
48.62 48.11 48.18 48.37 48.35 42.77 34.77 33.54 32.07 28.52 26.85 31.20 31.50 31.89 34.78 32.85 35.52 36.58 39.16 41.71 39.28 39.58 42.83 40.54 38.17 36.72 36.36 36.43 34.50 35.80 31.34 27.67 22.84 17.32 23.47 14.23 28.59 33.07 34.90 33.90 34.63 36.61 35.10 36.08
48.34 48.07 48.17 48.30 47.98 47.45 36.92 35.50 32.78 28.62 24.38 27.53 29.49 30.28 31.30 33.05 35.32 36.45 39.27 41.38 42.28 43.16 40.40 34.05 31.53 31.39 32.20 33.65 34.95 33.82 34.83 30.88 23.08 20.97 18.59 25.84 30.07 32.53 31.99 30.58 30.94 36.33 36.48 36.47
48.03 48.32 47.95 47.92 47.82 47.77 38.60 36.27 35.67 31.73 25.65 25.44 30.37 28.16 31.94 28.50 29.66 35.01 39.60 41.24 40.77 41.30 37.61 33.86 26.86 24.31 29.08 29.64 33.88 35.52 36.93 36.35 28.05 26.20 22.13 20.95 30.04 34.65 36.64 36.22 27.74 36.68 38.07 36.87
47.87 47.87 47.67 47.79 47.50 47.68 40.64 37.84 37.10 32.30 27.22 30.35 31.20 27.58 28.34 30.75 27.65 27.19 35.28 32.87 36.15 39.28 33.12 30.51 27.78 24.38 32.20 27.47 27.02 28.24 32.40 32.04 29.53 27.04 27.41 27.63 33.79 37.51 39.25 28.11 30.15 38.54 37.69 38.48
47.50 47.75 47.58 47.81 47.29 47.30 41.02 38.64 39.56 34.21 28.16 29.60 32.80 33.93 29.37 30.11 28.94 24.90 30.11 32.66 36.83 36.81 31.24 30.11 28.61 27.96 29.42 26.93 29.11 28.87 27.62 25.68 26.42 29.00 26.04 20.41 36.99 38.06 33.74 37.42 38.84 38.88 37.34 37.34
47.55 47.62 47.36 47.84 47.89 47.36 44.04 35.80 40.64 41.80 32.24 30.15 35.09 36.08 36.89 36.31 34.44 30.16 28.78 28.20 34.31 34.61 34.56 34.81 33.88 32.13 31.25 27.50 25.30 29.52 27.83 30.51 27.96 29.26 29.39 35.82 38.25 38.63 40.57 40.75 40.25 40.04 40.03 40.24
47.80 47.02 47.17 47.43 47.52 46.75 43.32 36.18 39.97 37.38 34.07 29.41 30.02 30.89 35.96 38.80 37.98 38.05 28.07 30.31 32.41 33.23 34.99 32.72 34.49 31.49 33.07 27.41 26.76 27.75 31.06 33.70 31.65 32.05 34.04 34.72 37.68 39.34 41.10 41.17 40.76 41.11 41.33 41.42
47.44 46.60 47.04 47.41 47.33 45.82 43.83 40.11 37.96 35.71 33.75 26.93 27.42 36.26 34.77 39.10 38.01 38.18 36.69 34.64 35.27 34.30 32.45 27.78 29.62 31.86 34.32 30.39 31.47 30.60 33.37 33.37 31.83 31.55 34.72 35.87 37.63 38.40 41.14 41.01 40.87 40.54 40.41 40.09
46.79 46.69 47.29 46.93 45.85 45.22 40.05 37.64 37.87 38.49 30.84 25.40 27.84 34.49 36.62 36.50 36.96 36.94 37.21 35.61 33.41 31.31 27.44 26.70 26.42 30.91 29.83 30.40 32.01 30.30 35.88 34.44 31.25 31.02 36.20 36.40 37.13 39.56 40.70 40.08 40.12 40.37 40.47 39.22
46.76 46.95 46.50 45.45 44.75 44.49 38.23 34.16 37.80 39.78 37.26 29.23 26.59 34.48 33.79 35.49 35.51 35.24 34.90 35.19 33.79 32.53 29.76 28.02 29.03 30.83 30.93 25.80 25.90 32.20 33.86 37.17 38.00 35.40 38.54 39.18 39.26 39.27 40.15 40.29 40.45 39.65 39.22 38.42
46.44 45.84 44.63 45.05 44.59 37.24 32.64 30.62 34.89 41.45 36.96 28.39 22.45 25.53 33.43 33.85 33.78 34.68 34.25 34.62 33.23 31.86 29.96 28.24 26.99 27.60 30.27 27.81 23.18 29.18 31.51 33.30 33.86 36.14 38.00 39.11 39.82 38.97 39.30 39.34 38.72 40.11 37.71 37.39
45.23 43.75 44.41 45.22 44.74 41.31 33.92 37.17 42.06 40.19 33.20 30.51 17.31 24.07 30.28 36.37 32.58 32.74 35.11 32.22 32.65 31.66 29.35 29.38 27.90 28.21 26.83 22.55 26.52 28.66 30.61 31.74 34.40 37.30 38.04 37.18 39.28 36.61 36.48 36.87 37.09 36.07 35.85 35.75
43.84 44.50 45.00 38.54 35.03 30.95 32.99 42.03 42.67 40.23 31.63 20.76 20.07 20.27 20.94 35.35 33.66 35.99 34.14 33.02 27.22 30.37 27.17 27.45 27.54 25.15 20.78 27.53 28.26 29.00 31.65 33.10 36.30 36.56 36.58 37.22 37.80 36.98 36.44 36.15 35.48 34.41 34.68 34.88
43.79 37.27 33.83 28.20 32.73 40.70 39.97 36.80 34.35 33.83 33.63 27.29 19.46 26.52 21.47 31.03 31.30 30.08 33.73 32.25 26.72 23.29 26.84 29.16 25.86 23.89 29.52 33.13 34.51 32.85 35.32 38.67 37.83 34.80 33.22 33.67 34.34 35.24 34.58 34.01 35.22 35.25 34.76 34.00
34.92 30.81 27.72 33.19 40.15 35.14 31.55 31.04 28.90 30.24 22.21 31.02 31.48 28.49 28.20 31.86 28.67 29.73 33.15 31.00 29.56 24.29 28.30 25.88 22.52 26.92 34.89 35.87 35.16 34.24 33.50 35.79 37.67 37.93 37.72 36.45 36.52 35.51 34.85 34.83 35.51 35.70 35.53 33.19
34.55 33.51 35.87 34.53 32.02 24.58 19.03 16.72 24.11 23.08 20.50 29.47 30.22 26.98 28.77 29.35 34.30 32.99 33.38 29.31 30.74 24.61 32.12 27.47 26.78 32.37 33.88 32.70 34.12 34.23 34.84 35.39 36.27 37.12 36.91 36.49 35.18 35.30 35.65 36.28 35.93 35.94 36.33 35.94
34.56 29.38 20.41 24.36 20.83 16.27 11.22 8.47 14.64 14.93 25.38 22.28 23.79 23.72 26.71 29.42 33.99 32.92 32.68 29.39 29.56 32.71 29.66 29.45 30.11 34.25 34.16 32.58 32.93 34.05 33.41 33.73 34.31 34.90 35.06 35.71 35.41 35.02 34.53 34.14 33.33 34.78 34.69 34.99
24.95 16.17 14.96 15.42 12.17 14.04 15.59 15.96 15.65 23.09 27.56 23.02 25.88 27.34 23.82 27.61 25.49 31.63 28.97 32.13 33.42 27.54 25.32 25.18 29.41 33.86 34.32 33.38 33.26 32.16 31.51 33.15 33.01 33.00 33.51 32.84 32.98 31.82 30.90 30.21 29.55 29.58 30.20 31.58
24.69 19.69 16.84 14.12 20.74 15.31 19.60 26.74 20.23 21.56 24.53 23.93 23.53 28.16 27.49 22.51 25.04 26.68 29.49 29.12 27.01 24.75 23.21 27.63 32.39 35.92 34.22 32.84 32.02 29.52 28.05 28.37 30.32 31.77 31.62 31.10 31.23 30.63 29.26 29.44 29.39 29.10 28.78 28.63
20.15 18.25 18.07 21.47 15.92 12.95 14.17 14.88 16.68 22.49 26.17 23.32 29.70 25.78 24.24 24.04 26.91 24.87 22.48 25.56 19.03 24.22 28.58 32.26 34.41 33.04 33.30 33.03 31.99 31.14 27.89 27.57 28.52 29.91 30.78 30.53 29.12 27.48 26.04 25.66 24.80 27.41 27.86 26.95
23.11 18.33 24.97 20.80 17.66 18.20 19.02 24.41 25.02 27.77 23.19 16.79 16.08 12.55 15.06 24.74 22.84 21.99 25.00 22.20 21.28 26.96 30.25 30.29 30.04 30.83 31.68 33.01 31.18 30.74 29.55 27.90 28.45 28.62 29.71 29.52 29.35 29.02 25.86 23.19 23.21 24.83 27.22 26.94

GFSNW_sfc_wetblb_045.txt.gz
Wetbulb
49.74 49.78 49.91 49.98 50.16 49.61 43.15 37.04 33.45 44.02 45.57 39.41 36.60 26.25 34.70 41.10 38.82 39.92 38.35 36.19 35.06 32.08 33.37 32.88 32.46 34.02 35.57 42.09 39.74 34.81 35.65 32.92 29.19 33.85 39.68 41.17 37.20 32.60 31.95 24.31 21.65 21.50 20.21 23.55
49.49 49.39 49.58 49.93 49.49 48.94 39.39 36.84 35.87 44.52 45.78 28.50 29.73 34.83 37.88 39.01 38.22 37.44 36.85 35.51 36.79 35.63 32.05 30.62 32.16 33.96 38.84 42.06 39.58 36.11 36.43 29.27 27.98 29.75 35.60 37.98 36.11 35.71 34.07 31.78 28.17 21.98 20.93 25.52
49.15 49.14 49.49 49.46 49.00 48.08 40.54 35.59 30.58 36.23 42.43 38.49 33.73 33.52 34.50 35.64 39.73 38.28 38.31 36.27 36.68 34.02 31.85 34.27 31.69 32.58 37.37 40.22 40.71 43.70 40.77 31.92 26.91 23.67 26.46 34.13 32.99 35.61 35.25 32.02 25.38 28.07 27.55 29.10
49.03 49.05 49.15 49.21 48.57 46.14 38.77 34.05 33.12 34.93 28.92 35.82 36.76 35.90 37.10 36.21 36.58 38.38 38.27 35.57 35.70 33.38 29.30 30.99 31.46 33.48 34.46 37.52 40.86 37.71 36.49 29.80 27.59 30.75 33.30 32.19 31.15 33.35 35.38 31.93 34.04 28.27 33.34 29.37
48.84 48.72 48.85 48.89 49.22 43.35 33.11 30.10 30.69 33.98 33.12 35.68 36.12 37.54 36.90 36.95 38.42 36.84 35.61 36.23 36.58 35.32 32.89 32.14 31.27 33.22 32.03 32.44 33.93 33.64 33.58 25.27 26.20 22.79 30.56 31.03 29.18 31.21 34.18 34.97 35.09 34.45 33.31 32.56
48.59 48.56 48.73 48.59 48.36 41.29 31.10 31.12 33.18 33.74 32.19 32.57 35.92 32.66 36.15 35.70 38.04 38.78 39.78 40.35 36.14 34.39 35.34 36.72 36.79 36.05 35.65 35.11 33.68 32.01 31.15 26.25 21.79 19.07 27.46 27.60 23.73 28.75 30.46 33.14 36.10 35.60 30.98 37.26
48.31 48.35 48.37 48.34 48.36 42.11 33.83 32.47 30.71 28.44 25.46 31.36 29.88 30.36 32.60 32.52 33.73 36.30 37.68 41.31 37.66 38.97 42.59 39.61 37.10 35.84 34.80 35.40 32.99 34.96 29.59 26.49 21.92 17.14 23.22 15.01 28.03 31.64 33.36 32.63 34.53 36.84 36.24 35.45
48.41 48.27 48.06 48.05 48.33 46.37 36.17 34.11 31.18 27.64 23.58 25.49 27.72 30.42 31.51 33.44 34.32 36.04 39.32 40.31 40.32 41.95 38.90 33.26 30.67 30.14 31.34 32.45 33.62 33.21 33.43 29.31 22.58 19.02 18.99 24.83 28.97 30.98 30.77 29.66 30.47 35.19 35.60 37.60
48.10 47.74 47.85 47.96 48.02 47.40 37.49 35.07 34.28 30.32 25.72 25.12 29.61 27.20 29.85 26.99 27.98 33.89 36.16 38.25 36.41 40.20 36.89 32.83 25.20 23.67 26.73 27.05 32.45 35.94 36.62 35.63 27.35 25.13 20.72 18.92 27.62 34.92 34.96 34.11 26.45 34.82 35.32 36.23
47.75 47.51 47.69 47.77 47.63 47.17 39.37 36.69 35.54 31.18 27.26 29.07 29.68 26.04 25.87 28.40 27.57 28.64 32.94 31.58 34.12 37.75 32.33 30.79 27.39 24.26 30.10 26.25 26.27 27.69 31.34 31.82 27.76 28.48 27.20 27.16 32.41 34.69 36.83 25.16 28.05 37.65 36.75 36.24
47.72 47.45 47.63 47.85 47.68 47.23 39.94 37.36 38.36 32.72 27.86 28.78 32.26 32.81 28.36 28.37 27.53 26.03 29.39 31.25 32.27 34.67 30.08 29.51 28.35 27.27 27.93 25.35 27.85 28.28 28.06 25.27 26.28 28.92 27.26 21.53 34.75 36.34 31.83 35.26 38.03 39.06 38.60 36.76
47.76 47.25 47.41 47.59 47.13 46.43 42.24 34.17 39.04 40.17 30.98 29.82 33.95 34.78 35.51 34.15 32.92 29.55 28.53 27.02 33.71 33.40 32.83 32.43 33.78 30.53 30.53 26.04 24.38 28.29 26.89 29.88 27.70 29.22 28.77 35.73 36.72 38.37 39.66 39.80 38.86 39.85 39.93 38.85
47.49 47.17 47.41 47.52 46.79 46.11 41.87 35.50 36.86 34.80 29.62 28.60 29.56 29.62 34.12 37.26 36.36 37.11 27.60 29.64 30.95 32.40 34.31 30.79 33.49 30.34 30.86 25.84 26.21 25.68 29.93 31.97 30.49 31.27 33.82 34.27 36.31 37.74 39.69 40.35 39.88 41.00 41.04 40.66
47.41 47.18 47.48 47.37 45.86 45.98 42.43 35.99 36.30 34.18 30.88 24.27 27.53 35.27 32.99 36.86 36.56 36.35 35.80 34.06 34.29 32.68 30.23 26.31 27.16 29.99 33.40 28.80 30.27 30.31 32.93 32.86 30.78 30.30 33.53 34.67 36.35 37.42 38.61 40.37 41.27 40.55 39.92 40.48
47.10 47.18 46.96 45.73 45.57 43.96 39.52 36.92 36.88 37.13 29.83 25.09 26.45 32.17 34.72 34.69 35.45 35.31 35.73 34.90 32.57 30.32 27.23 26.32 25.14 29.32 29.66 29.88 30.69 29.79 31.46 29.73 29.23 29.62 33.63 33.87 34.99 38.04 40.10 39.20 40.02 40.53 40.13 39.01
47.07 46.85 45.47 44.98 45.98 43.50 37.09 31.73 36.16 38.75 35.85 25.44 22.38 31.49 31.12 32.61 33.40 33.71 33.06 34.54 33.10 32.26 29.88 28.83 29.73 30.49 29.81 23.59 24.26 30.45 32.69 31.86 33.19 30.09 33.02 35.22 37.00 39.58 39.55 38.83 40.04 39.99 39.82 39.62
46.57 45.09 45.39 45.03 43.74 36.27 31.70 30.70 36.11 41.12 35.59 26.75 21.70 23.26 31.73 32.24 32.77 33.85 33.02 34.54 33.34 32.18 30.59 28.86 27.14 27.05 30.06 27.81 23.35 29.48 30.21 30.48 30.82 31.68 32.75 33.05 35.48 36.08 37.32 38.65 38.69 39.97 37.57 37.37
44.95 45.21 45.07 44.91 44.20 40.22 33.45 36.09 41.65 38.81 32.39 28.18 14.74 19.18 26.32 35.06 30.25 32.40 35.32 32.43 32.22 30.91 29.48 29.15 27.98 28.46 26.79 23.04 27.23 30.54 31.88 31.36 31.49 33.34 35.47 35.65 36.84 37.37 37.31 36.60 36.25 35.37 35.31 35.23
44.81 45.67 44.49 37.42 33.36 29.68 31.58 41.16 42.15 39.07 30.32 20.79 18.11 17.98 18.45 32.20 30.46 34.54 34.24 32.44 26.34 30.35 27.48 27.39 27.63 25.41 22.07 28.61 30.68 31.37 34.53 32.83 32.53 37.40 35.86 35.44 36.17 36.42 37.46 37.28 34.24 33.84 34.45 34.43
45.36 36.75 32.35 27.65 31.65 40.00 39.56 35.08 31.48 29.32 33.46 26.22 19.00 26.58 20.77 29.43 27.43 27.16 33.56 31.78 27.33 23.82 27.02 28.73 25.91 25.00 30.45 34.88 35.87 35.35 35.07 34.06 35.02 34.87 33.64 34.40 32.94 34.46 36.59 36.21 36.21 35.70 34.61 33.65
34.23 30.42 26.98 32.28 39.44 33.53 30.52 23.21 24.53 26.02 20.80 29.71 30.31 30.56 28.13 30.22 26.61 28.38 32.28 30.68 29.69 22.64 26.99 25.62 24.79 27.50 32.68 36.65 34.49 34.12 35.78 35.22 35.36 36.56 37.71 36.34 35.75 34.65 36.22 36.10 36.13 35.78 35.26 32.81
34.30 33.26 34.78 33.32 28.56 22.52 18.26 14.79 20.85 21.92 20.90 26.49 26.50 26.37 27.73 28.15 34.21 32.35 33.21 28.44 30.14 24.93 30.02 26.97 25.82 28.09 32.89 35.73 34.27 33.59 34.42 34.90 34.13 35.76 35.72 36.18 36.24 35.69 36.14 36.45 35.94 35.81 36.13 35.60
32.96 28.31 21.22 25.09 19.69 15.61 10.04 8.41 11.77 13.99 20.22 23.08 23.22 22.51 25.50 28.26 31.49 31.52 32.13 28.80 28.75 31.74 27.44 27.75 26.38 30.40 33.95 35.64 34.54 33.02 32.56 33.51 34.27 34.02 34.92 34.65 34.41 34.36 32.46 31.61 30.78 32.45 33.48 33.85
24.93 18.52 15.51 16.14 11.43 13.53 14.65 15.30 15.57 21.63 28.62 21.86 25.64 26.48 25.57 26.77 23.80 29.48 27.57 31.18 31.95 26.50 21.12 22.16 27.08 30.77 34.72 35.00 34.76 32.06 29.46 28.28 31.06 32.14 32.84 32.65 32.19 32.29 31.85 31.07 30.21 29.62 29.43 30.53
20.89 21.48 16.98 13.32 20.03 17.44 20.82 24.41 22.00 21.45 25.44 23.73 23.33 23.84 27.16 25.42 26.06 27.03 28.48 26.12 20.35 16.43 18.15 21.21 28.74 32.69 33.86 32.97 33.90 31.49 29.43 26.99 27.33 30.19 31.90 31.63 31.28 30.68 30.28 30.25 28.05 28.98 28.55 28.00
18.74 17.26 16.68 20.11 14.84 10.57 16.81 21.94 18.18 21.77 25.45 24.82 27.56 22.18 23.73 23.79 25.98 23.62 22.84 23.57 21.92 16.62 18.68 24.44 27.72 31.42 31.54 31.35 32.63 31.31 29.98 28.23 27.68 28.68 29.61 30.36 29.78 28.56 27.65 26.11 25.57 26.86 28.29 27.60
15.21 17.32 24.41 19.61 17.24 16.91 18.57 24.17 25.02 27.05 22.71 16.00 15.62 11.08 15.08 24.66 21.27 20.95 25.20 24.74 19.34 20.14 23.09 24.30 27.82 28.55 30.40 30.75 30.72 31.22 30.50 31.03 28.20 28.57 30.58 30.85 31.12 30.17 29.18 27.39 24.98 24.60 26.69 26.79

GFSNW_sfc_wetblb_048.txt.gz
Wetbulb
49.43 49.55 49.92 50.04 49.69 48.81 43.03 36.84 36.01 43.33 46.94 38.93 36.83 25.38 33.02 40.61 37.95 38.98 37.27 35.98 35.11 33.51 35.57 33.55 30.91 32.01 34.71 41.01 39.77 34.34 35.13 31.94 30.34 34.47 39.30 38.69 34.02 30.84 30.54 23.25 20.79 20.90 19.71 23.41
49.06 49.39 49.65 49.74 48.96 47.86 39.03 34.68 38.05 45.76 45.82 33.33 28.83 33.21 36.42 38.07 36.92 36.72 35.99 34.96 35.92 34.66 31.70 30.61 32.72 33.00 37.63 41.20 38.52 35.66 36.59 31.21 27.29 28.22 34.72 36.43 36.01 36.00 33.30 30.50 26.64 20.96 20.20 25.79
48.86 49.16 49.37 49.35 48.17 48.01 40.16 34.01 29.54 36.89 42.51 39.97 32.07 31.28 33.56 34.53 38.49 37.15 37.22 35.40 35.79 33.16 32.06 33.20 30.80 32.62 39.09 41.33 40.71 43.55 40.11 30.77 26.54 23.50 25.64 31.65 31.06 34.69 35.39 32.25 29.50 30.03 28.38 29.84
48.69 49.04 49.06 48.96 47.21 46.74 38.31 32.67 31.84 33.16 27.55 33.40 33.31 34.27 35.52 34.74 35.64 37.39 37.73 35.23 34.82 32.25 28.72 30.16 30.29 32.63 34.37 38.87 42.54 39.19 36.20 25.78 25.93 29.55 31.44 32.05 30.88 31.34 34.27 33.35 33.38 29.59 33.29 32.18
48.53 48.79 48.71 48.65 46.63 43.19 32.67 29.97 30.07 32.78 30.86 32.24 31.26 33.79 34.46 35.15 37.06 36.65 35.07 35.84 35.71 34.47 31.89 31.06 30.33 32.68 30.64 31.93 33.10 34.30 34.11 26.67 26.48 24.12 30.24 31.08 29.19 30.82 33.01 34.60 34.93 34.34 34.39 33.50
48.26 48.38 48.42 48.48 46.37 40.05 30.54 30.14 32.22 31.60 29.22 29.95 35.05 30.30 33.49 32.32 34.90 37.97 40.47 40.25 36.53 34.49 35.29 36.13 35.31 35.25 34.54 33.87 33.15 31.72 31.04 25.53 21.02 18.77 26.69 26.92 23.49 29.10 30.35 31.60 34.88 34.89 31.81 36.67
48.19 48.01 48.18 48.41 46.50 40.42 33.68 31.35 29.39 28.21 25.47 26.61 28.98 30.65 32.00 31.96 33.08 35.40 37.39 40.55 37.17 38.63 41.42 39.54 36.47 34.91 34.13 34.38 32.25 33.88 28.25 25.85 22.51 17.06 22.23 13.22 26.82 30.26 32.57 31.46 33.63 36.24 36.35 38.35
47.82 47.80 47.89 48.16 47.49 44.40 35.12 32.85 30.44 26.41 23.67 25.42 26.53 29.32 30.36 32.14 32.33 35.26 39.63 37.47 36.35 36.96 37.90 33.25 30.59 29.54 30.37 31.23 32.16 30.88 31.96 27.95 21.83 18.92 18.26 24.07 26.96 30.13 29.62 29.07 29.71 32.67 34.74 37.10
47.54 47.66 47.64 47.84 47.41 45.30 36.51 33.88 33.16 29.07 25.58 25.02 28.29 26.14 27.69 24.90 25.80 33.57 35.33 36.39 34.66 37.83 35.92 32.02 25.09 23.09 26.17 26.77 31.00 35.99 35.79 34.26 27.29 24.13 19.55 18.21 26.15 33.00 34.32 33.23 25.71 33.83 34.86 34.74
47.48 47.60 47.58 47.67 47.44 45.74 38.48 35.52 34.06 30.51 27.11 28.31 27.83 24.73 25.14 27.09 26.00 27.51 30.45 31.08 33.78 35.93 31.15 30.15 27.29 24.03 28.38 25.84 25.73 27.47 30.77 31.66 25.88 25.03 24.15 26.45 31.71 34.06 35.39 24.09 26.98 36.11 36.60 36.92
47.45 47.67 47.78 47.35 46.81 45.71 39.26 36.24 37.29 31.67 27.81 28.63 31.63 32.22 27.84 27.29 26.06 24.09 27.86 30.73 31.66 32.19 29.29 29.38 27.52 26.77 26.59 24.36 26.19 26.54 27.76 24.89 25.15 26.72 25.25 18.87 33.58 34.55 29.33 34.18 36.70 37.93 38.06 37.98
47.47 47.49 47.61 47.07 46.38 45.40 40.44 33.72 37.99 37.44 30.39 29.89 33.00 33.57 34.09 33.18 31.76 28.34 28.14 27.46 32.93 31.70 32.97 32.32 31.00 28.28 30.23 24.38 23.20 26.89 25.69 28.93 28.29 27.95 27.11 33.54 34.01 36.43 38.43 38.46 37.93 38.15 38.89 39.97
47.46 47.44 47.62 46.82 46.22 45.24 40.87 34.64 35.12 33.14 29.25 28.43 29.48 29.11 33.62 36.18 35.23 35.66 26.76 29.66 30.91 31.80 32.94 30.84 33.28 29.83 30.78 24.53 24.92 24.85 27.65 30.86 31.33 30.39 32.30 32.35 34.92 35.94 35.77 36.77 37.72 40.02 41.00 40.87
47.40 47.56 47.60 46.10 46.04 44.61 41.37 35.31 34.99 32.99 29.57 25.57 27.33 34.53 32.13 35.74 35.36 35.90 34.42 33.01 33.41 32.46 30.01 25.86 26.62 27.68 31.48 27.45 28.22 28.05 31.70 32.28 29.48 28.98 31.00 32.10 34.23 34.95 35.12 36.00 38.94 39.15 40.42 40.66
47.36 47.48 46.50 45.85 44.97 43.84 39.37 36.53 36.15 35.63 29.92 26.26 27.03 31.05 33.22 33.89 34.83 34.58 34.60 33.56 31.56 29.50 27.05 26.11 24.95 26.35 27.21 27.68 27.54 25.93 28.76 27.26 26.14 25.65 30.37 28.80 29.77 34.08 34.76 36.87 37.77 38.63 38.84 39.38
47.29 46.80 45.61 45.43 44.46 42.39 35.32 30.65 34.43 37.67 34.52 26.44 23.14 30.47 30.10 32.32 32.37 34.07 32.49 32.75 32.16 31.16 29.08 27.53 28.79 30.45 29.30 24.68 23.72 28.38 30.20 29.72 31.45 28.69 30.31 30.60 31.88 34.07 35.36 36.64 37.43 37.81 39.05 38.99
46.98 45.38 45.76 46.11 44.51 35.32 31.15 30.36 34.07 39.68 34.24 27.24 22.11 22.61 30.82 32.42 32.33 32.92 31.73 32.22 30.61 30.13 29.04 28.11 27.44 27.65 30.59 28.23 23.58 28.67 30.27 33.15 34.91 34.81 32.04 31.36 32.99 33.79 36.54 36.48 38.03 38.77 38.18 37.23
45.63 45.34 44.85 44.13 43.57 39.49 32.90 35.76 41.01 36.86 30.51 27.29 14.21 16.75 25.35 33.56 29.13 31.07 35.41 32.55 32.05 29.64 28.31 29.07 28.59 29.57 28.07 23.61 27.77 31.66 34.17 34.76 33.88 33.12 33.94 34.47 36.53 35.73 36.48 37.51 36.36 36.04 35.21 34.82
45.44 45.31 43.96 36.10 32.68 29.34 30.84 41.06 40.66 35.23 29.92 21.08 18.59 20.16 14.93 30.18 28.62 32.80 34.64 33.10 25.55 29.56 27.15 27.52 28.31 26.05 24.39 31.14 32.43 32.90 34.28 33.92 33.33 34.31 35.17 36.20 36.08 36.32 36.70 36.33 36.50 35.87 35.69 35.96
45.58 37.58 32.14 28.12 31.57 39.56 39.31 33.42 29.81 28.87 28.65 26.09 18.52 27.78 21.03 27.70 26.00 27.65 30.67 31.07 27.87 20.08 27.30 29.58 27.04 26.34 29.93 31.70 34.16 35.94 34.08 33.75 33.52 31.29 30.94 33.20 33.59 33.84 34.01 34.12 37.08 36.82 36.08 34.99
34.92 31.38 29.53 32.58 38.92 32.82 29.39 22.18 21.59 23.64 19.73 26.94 24.45 22.44 19.82 29.48 19.91 22.85 30.72 28.60 29.49 20.33 26.75 26.58 25.77 24.93 30.07 34.04 35.72 35.68 34.37 33.87 32.86 33.87 34.71 35.65 35.22 33.44 33.04 34.03 36.89 36.90 36.61 34.85
35.33 34.08 35.14 31.79 28.01 23.07 17.96 12.49 19.51 20.73 18.55 24.95 23.47 25.31 26.87 27.31 30.38 31.46 29.24 27.63 29.03 20.88 29.42 26.49 22.32 26.10 30.59 34.45 35.21 34.90 32.70 31.91 31.54 32.60 32.27 32.48 34.52 34.21 33.01 34.24 33.86 33.84 35.18 35.17
33.11 30.00 24.36 24.98 19.39 16.32 10.53 10.48 11.38 13.64 20.08 23.17 24.54 17.44 25.16 27.55 28.59 26.36 29.37 28.21 27.58 31.29 26.75 21.94 23.28 28.30 30.38 32.98 34.93 34.65 33.44 30.61 29.62 30.89 32.49 31.99 33.37 34.03 32.89 31.40 31.05 30.72 31.47 32.45
27.29 23.09 17.45 17.38 14.22 14.89 14.97 16.26 16.11 21.06 27.84 23.66 25.35 21.33 25.10 26.56 24.79 28.85 25.36 27.94 30.79 24.23 17.35 17.59 19.16 25.34 28.61 31.39 32.40 33.43 32.55 31.77 28.84 27.90 30.85 32.11 31.51 30.97 32.29 31.66 30.16 28.60 29.09 29.41
22.23 23.14 17.42 15.71 21.05 19.75 19.75 19.97 23.42 22.08 27.68 23.47 22.38 20.63 26.61 24.80 25.43 27.63 26.95 24.75 23.39 16.90 15.25 17.09 21.44 27.45 29.03 29.42 30.10 29.72 29.99 29.92 29.95 27.51 28.53 29.89 30.54 29.58 29.56 29.54 28.26 27.52 29.20 28.82
20.80 17.41 17.79 21.90 16.76 11.03 22.61 24.21 18.57 21.14 24.94 26.91 21.90 17.04 18.46 22.94 25.64 23.00 18.54 22.12 20.29 17.31 16.02 22.08 23.67 28.66 28.43 27.97 28.70 28.50 28.95 29.29 30.05 28.80 28.83 29.50 29.91 29.82 28.64 29.90 28.54 26.22 27.27 27.93
18.33 16.75 24.41 19.39 15.17 17.93 18.93 22.71 24.41 26.00 22.66 16.24 14.87 10.68 14.08 23.14 20.99 19.90 24.69 23.55 20.50 18.98 20.11 21.45 24.98 25.96 26.45 27.27 27.38 28.25 28.41 28.89 29.13 29.96 29.30 30.00 31.66 30.90 29.32 28.15 29.02 27.74 26.91 26.82

GFSNW_sfc_wetblb_051.txt.gz
Wetbulb
48.66 49.27 49.56 49.85 49.18 48.03 43.24 37.27 37.37 44.32 47.17 38.68 37.05 29.21 31.71 40.09 37.43 38.98 38.39 37.11 35.96 35.92 36.26 32.55 30.21 31.60 35.47 41.00 39.19 34.35 35.32 32.89 30.96 34.34 39.43 39.08 35.61 32.21 31.46 26.14 23.57 23.28 22.88 26.28
48.32 49.02 49.35 49.46 48.25 47.96 38.68 34.50 40.28 45.99 45.81 32.59 28.53 32.09 35.38 37.38 36.05 35.91 35.79 34.44 35.98 36.38 35.04 31.49 32.72 33.57 38.52 40.40 38.10 35.31 36.28 29.61 27.87 30.26 34.35 36.69 36.44 35.39 33.26 30.60 28.13 22.94 24.53 27.57
48.10 48.82 48.91 48.85 47.32 48.31 39.15 34.01 29.69 38.89 42.51 40.71 34.25 31.64 33.22 33.58 38.22 36.68 36.42 34.74 35.13 32.50 31.58 33.03 32.09 32.53 39.61 40.60 40.44 42.74 39.26 30.89 27.11 23.98 26.43 31.69 31.55 34.49 34.70 31.32 25.38 27.40 29.00 31.28
48.10 48.42 48.65 48.47 45.84 48.80 37.98 32.28 30.31 32.56 34.41 34.22 31.33 32.79 34.35 33.86 34.82 36.61 37.90 34.59 34.42 31.58 29.20 29.76 30.28 32.53 36.80 39.77 42.26 38.48 35.80 26.78 27.41 30.07 31.40 32.96 32.22 32.33 34.44 32.90 33.45 30.10 33.30 32.87
47.97 48.11 48.35 47.68 44.84 43.66 32.81 31.02 30.96 31.63 29.36 30.48 30.44 32.84 32.94 33.72 35.08 36.18 34.44 34.75 34.30 33.80 31.58 30.50 30.05 32.49 32.40 34.67 36.48 38.09 35.11 27.32 28.11 25.50 30.11 31.43 30.31 31.51 32.35 34.32 34.47 34.04 34.55 33.75
47.95 47.89 48.18 46.93 45.22 39.91 30.13 29.49 31.49 31.22 28.01 28.72 32.92 30.14 31.42 32.01 34.26 36.95 40.16 39.21 35.54 34.79 35.33 36.13 35.42 34.80 34.14 34.13 33.20 31.61 32.39 29.82 26.30 23.42 27.11 27.47 25.10 29.74 30.62 32.00 34.71 35.04 31.96 36.67
47.92 47.86 47.91 46.44 45.12 39.47 32.98 30.53 29.79 28.47 25.17 25.65 27.14 31.31 33.04 32.48 32.83 34.57 37.19 39.28 36.79 38.45 39.51 38.98 35.28 34.38 33.80 34.02 32.28 33.23 28.33 26.15 22.97 17.82 22.81 14.91 28.03 31.76 32.55 31.60 33.01 34.99 35.66 37.89
47.94 47.79 47.72 47.04 45.05 43.59 33.63 31.84 29.66 26.99 23.66 25.54 26.69 29.14 29.89 31.19 32.46 34.32 37.83 35.69 34.05 34.81 36.76 33.00 30.86 29.53 30.43 31.23 32.47 31.41 31.41 27.84 22.88 20.18 18.97 24.04 27.73 31.03 30.41 29.51 30.64 33.65 33.44 35.76
47.93 47.57 47.64 47.11 45.84 43.91 35.16 33.21 32.02 28.83 26.45 24.78 28.00 25.61 26.74 25.91 27.43 33.31 34.46 35.52 35.32 38.36 35.55 31.70 25.81 23.65 26.78 26.75 30.65 35.91 35.11 33.99 28.92 24.95 20.41 19.07 26.85 32.61 34.56 33.59 26.80 35.85 35.00 35.95
47.93 47.63 47.42 46.98 45.98 44.47 38.20 35.33 33.18 30.93 26.70 27.35 26.08 24.46 24.74 26.56 25.01 26.89 29.01 30.45 32.63 35.57 32.49 30.59 27.18 23.64 27.70 25.39 25.80 27.35 30.68 31.52 27.68 27.21 26.35 26.70 31.66 34.04 35.28 25.42 28.13 36.12 37.55 38.04
47.99 47.88 47.29 46.70 46.01 44.49 39.20 35.56 35.76 31.22 27.95 28.10 30.63 31.37 25.87 26.71 25.24 25.46 27.78 29.41 30.73 31.57 30.32 29.35 27.04 26.34 25.47 23.84 25.54 26.07 27.50 25.45 25.75 27.62 26.51 20.10 33.75 34.81 31.89 33.48 35.98 36.86 37.87 38.46
47.93 47.78 47.15 46.40 45.70 44.71 40.17 33.70 37.22 35.76 30.65 29.92 32.38 32.45 32.78 32.31 30.77 27.62 26.33 27.54 32.24 30.36 33.13 32.28 30.41 28.04 29.00 23.47 22.28 27.40 25.68 29.55 27.54 28.25 27.24 32.96 34.54 34.97 35.94 35.42 34.62 35.61 36.72 38.84
47.69 47.85 47.24 46.32 45.60 44.49 40.35 34.68 34.28 32.48 29.47 28.70 29.47 28.54 33.04 35.13 34.05 34.73 26.20 27.65 29.64 30.42 31.11 31.68 33.22 27.87 30.48 23.59 24.47 24.59 27.64 31.17 29.18 30.10 30.85 29.25 31.66 34.70 33.80 33.04 33.03 35.78 38.97 38.81
47.79 47.80 46.75 46.29 45.01 43.95 40.27 34.65 33.94 32.09 29.92 25.81 27.12 33.64 31.10 34.58 35.02 34.78 33.54 32.02 32.00 31.69 29.68 26.73 27.24 27.08 29.12 28.52 28.79 27.74 29.87 29.54 26.15 26.61 29.76 29.89 31.02 33.15 32.66 33.50 33.61 36.43 37.43 37.46
47.75 47.67 46.47 45.23 44.34 43.15 38.78 35.64 35.01 34.67 31.51 26.88 27.05 30.46 32.44 33.16 34.35 33.99 33.63 32.60 30.21 27.53 24.91 24.99 25.27 26.40 25.74 25.18 25.46 23.64 27.23 24.55 22.36 21.88 28.62 28.91 29.63 32.45 33.82 31.59 33.09 36.02 36.54 36.57
47.58 46.71 46.09 45.00 43.94 41.04 35.35 31.43 34.80 36.61 33.03 27.84 23.53 29.84 28.78 30.75 32.08 32.67 31.76 31.65 30.40 28.97 27.43 27.25 29.14 30.51 28.84 24.81 22.55 27.31 28.79 29.57 30.31 30.63 34.34 34.35 34.38 33.52 33.10 34.04 35.98 36.26 37.60 37.64
47.26 46.09 45.64 44.80 43.12 37.95 32.45 31.44 33.92 38.39 33.13 28.48 21.36 20.75 29.48 31.46 31.14 31.41 31.11 31.35 29.26 28.46 27.01 27.25 26.37 27.35 30.01 28.27 24.36 29.65 32.69 34.60 35.22 35.59 33.89 31.97 34.43 33.53 36.03 36.95 37.28 38.49 37.59 37.61
46.10 46.00 45.83 44.71 43.47 39.86 34.38 36.84 39.89 35.16 29.37 27.06 13.36 14.65 24.24 31.03 28.07 30.91 33.47 29.18 29.36 28.43 26.90 27.29 26.87 28.70 28.50 24.43 28.76 32.68 35.15 35.91 34.44 34.18 34.34 33.77 34.51 36.17 36.40 37.48 37.49 36.08 35.73 35.93
45.99 45.23 43.88 37.01 33.65 30.49 32.14 40.89 39.66 33.92 29.75 19.66 17.74 11.31 12.09 29.06 27.55 30.21 34.42 29.41 24.26 28.24 25.97 26.76 28.38 26.13 22.99 29.76 31.56 32.89 34.72 33.59 32.93 33.47 32.99 33.09 32.19 33.50 35.41 34.51 35.16 34.35 36.59 36.70
44.97 37.62 32.44 30.05 32.67 39.47 38.71 32.33 29.57 28.02 27.77 26.53 18.12 27.65 17.65 25.18 25.13 26.12 29.15 28.59 27.13 16.51 25.93 28.77 26.35 25.17 29.58 30.77 32.32 34.73 35.22 34.57 33.82 29.59 28.79 31.02 30.90 32.27 33.04 33.60 33.98 35.96 36.74 36.11
35.32 31.35 30.26 33.41 38.73 32.80 28.57 21.93 21.70 23.70 19.66 26.13 22.21 20.58 18.56 27.92 19.21 21.10 28.48 26.25 24.24 14.60 21.92 24.61 19.46 21.90 27.54 31.31 32.52 34.15 34.43 33.58 32.49 31.72 31.29 32.26 32.83 31.62 31.82 32.24 34.09 33.73 34.65 34.46
35.74 34.71 35.20 32.20 28.46 23.06 18.52 11.78 19.41 20.36 18.19 24.94 22.90 24.83 26.57 26.64 29.04 29.03 30.99 25.23 27.14 14.31 25.37 20.95 17.46 23.00 27.80 29.56 30.81 32.26 31.96 31.48 31.17 30.83 29.62 31.10 31.87 32.25 32.78 32.66 32.42 31.31 32.79 33.65
33.74 31.03 26.34 27.18 21.15 18.17 11.96 10.84 13.99 14.90 21.22 25.29 23.04 17.89 24.75 27.22 28.06 25.84 27.97 25.59 22.48 29.59 24.99 17.24 19.62 24.57 27.77 27.84 30.59 30.72 29.60 30.00 30.16 29.73 29.00 30.69 31.57 32.25 31.72 31.63 31.81 30.38 29.93 31.00
28.92 25.74 19.82 20.70 15.90 16.21 16.30 17.66 17.20 21.43 25.87 25.55 24.93 20.75 25.37 26.96 24.71 26.53 23.58 25.38 30.58 25.34 16.87 14.33 15.88 22.55 27.12 28.05 29.82 29.20 28.25 28.32 26.90 26.74 27.52 26.99 28.79 29.71 30.55 30.20 29.52 27.93 26.85 29.30
25.87 26.74 20.96 19.06 22.17 21.15 16.31 17.60 21.63 26.69 28.16 24.84 23.48 19.90 24.08 20.17 25.11 27.00 25.96 23.31 20.59 22.09 14.95 15.90 19.66 25.21 26.56 27.04 27.64 26.29 25.70 25.88 26.34 27.37 26.68 25.14 25.98 29.13 29.65 29.85 29.46 28.92 26.89 27.79
24.69 21.43 21.18 22.36 20.57 16.70 24.39 23.88 17.84 26.03 26.32 24.48 21.92 15.32 13.09 20.64 24.94 22.46 20.44 10.58 9.51 16.31 14.89 21.11 21.55 25.86 25.21 25.30 26.41 26.03 25.57 25.80 26.52 27.05 28.12 28.52 27.11 28.14 30.34 30.25 29.94 29.38 27.70 27.24
22.14 19.80 25.92 23.18 21.31 21.43 20.72 23.38 24.38 25.68 23.74 17.72 15.31 10.89 13.59 22.64 20.71 19.12 23.17 17.49 19.34 19.52 19.38 20.32 23.66 24.29 24.19 24.71 25.46 26.14 26.44 25.98 25.47 25.29 26.24 26.64 28.61 29.33 30.86 28.69 29.27 29.55 29.05 27.87

GFSNW_sfc_wetblb_054.txt.gz
Wetbulb
49.33 48.92 49.20 49.56 49.22 48.70 47.29 46.31 39.97 47.56 48.55 40.41 39.26 35.30 36.88 40.86 40.69 42.03 40.56 39.29 37.69 36.66 36.06 33.42 34.43 34.31 37.75 43.54 42.71 37.86 39.43 38.45 32.30 34.95 40.44 41.70 39.94 38.67 39.14 33.12 30.61 32.72 31.73 33.62
49.04 48.79 48.94 48.98 48.28 48.40 45.94 43.55 41.72 47.65 46.45 36.52 37.64 38.33 38.33 40.67 39.61 39.20 38.99 37.97 38.74 39.63 37.26 33.44 35.69 37.20 41.56 43.20 41.63 39.24 40.30 35.33 29.59 31.68 35.63 39.21 37.93 38.64 38.49 37.67 35.69 32.03 30.11 34.39
48.94 48.72 48.50 48.54 47.36 48.44 45.94 43.17 36.97 41.03 43.17 42.25 37.16 37.57 37.97 37.96 41.70 40.32 39.96 38.85 40.13 37.73 35.94 37.60 35.51 36.86 41.10 42.73 42.51 42.39 42.97 36.35 33.74 31.68 33.77 37.80 34.84 37.57 38.43 37.28 33.16 33.65 34.25 36.34
49.02 48.37 48.10 47.63 45.87 49.32 44.83 41.24 38.91 39.89 35.77 38.48 38.59 38.79 38.64 37.43 37.22 40.93 41.90 38.92 37.96 37.21 34.51 35.42 35.29 37.29 38.92 41.11 42.82 41.10 40.40 34.08 33.62 34.35 35.68 36.43 36.30 36.82 38.00 35.05 36.69 33.90 36.49 37.36
48.99 48.11 47.83 46.39 46.44 46.72 41.68 38.70 38.68 38.78 36.96 36.34 38.32 37.55 36.78 36.99 38.13 39.51 38.67 37.34 38.39 38.59 36.09 35.79 35.05 37.31 37.26 38.08 40.54 39.59 39.13 33.64 33.25 31.24 33.38 34.67 33.31 36.06 36.46 37.52 37.85 37.28 37.29 36.62
48.75 48.19 47.57 45.96 45.80 43.28 40.31 37.81 39.28 40.08 32.46 35.88 37.50 35.67 34.86 35.25 37.78 40.57 41.64 41.07 39.64 38.79 39.33 41.57 41.52 40.83 41.12 41.00 40.05 37.45 37.59 34.72 32.54 28.99 30.91 31.36 28.90 33.18 34.89 36.20 37.95 38.09 34.38 39.53
48.57 48.23 47.32 45.98 44.26 42.84 41.14 39.05 39.91 38.30 31.95 35.55 34.14 33.98 35.75 36.06 37.09 38.23 39.57 41.36 40.50 40.76 41.83 43.42 41.24 40.70 39.90 39.98 38.22 40.02 35.70 33.91 32.91 29.43 29.61 22.98 31.88 35.98 36.34 35.42 36.83 38.56 38.65 40.23
48.47 48.17 47.38 45.98 44.83 42.39 40.38 38.20 37.56 37.65 30.63 33.34 32.76 33.57 33.88 36.45 38.24 39.22 38.99 38.01 38.44 41.02 41.33 38.72 35.67 35.70 35.86 35.92 37.60 37.36 38.61 35.65 30.08 28.53 27.94 30.99 33.63 35.78 35.62 34.73 35.76 39.46 38.98 40.72
48.34 48.04 47.45 46.60 44.87 43.45 40.54 38.45 37.01 38.98 34.47 30.71 31.29 32.04 31.42 35.40 34.78 37.73 37.32 39.10 41.15 42.22 40.87 37.29 30.76 30.05 32.04 31.44 33.97 37.24 37.13 37.61 34.69 30.60 24.88 23.95 33.34 37.49 39.56 38.91 32.37 39.13 39.83 39.69
48.20 48.07 47.51 46.68 45.93 44.01 42.02 39.26 37.48 38.96 32.65 32.97 32.19 32.33 31.58 32.39 32.73 34.87 33.38 32.76 37.21 40.90 38.75 34.86 32.87 31.40 33.32 30.53 30.29 31.67 33.34 34.00 31.17 30.69 28.51 31.79 36.59 38.65 39.68 30.18 31.86 38.41 38.65 38.55
48.26 47.87 47.31 46.51 45.35 44.18 42.21 39.10 39.21 38.83 33.89 33.52 34.36 34.45 32.32 32.07 32.48 35.05 32.24 34.57 36.25 38.28 35.33 34.88 33.75 33.14 33.03 32.11 32.78 32.60 31.94 31.08 31.21 31.62 28.15 24.96 36.04 39.11 34.45 34.82 36.91 36.06 36.40 37.59
48.21 47.81 47.22 46.60 45.32 44.30 42.49 38.35 39.87 39.88 36.99 34.02 36.76 36.70 37.28 36.55 35.48 34.21 33.61 34.34 33.89 35.90 36.08 35.21 34.70 31.57 33.25 30.89 29.68 34.35 31.03 33.01 32.46 32.63 32.30 35.74 35.93 37.21 36.98 37.10 35.65 35.85 35.28 37.86
48.08 47.70 47.00 46.40 45.68 44.29 42.59 39.09 37.97 39.88 36.15 33.80 35.12 33.36 37.18 38.78 37.85 38.71 33.54 34.17 34.22 34.72 35.59 36.54 35.19 31.30 34.10 31.89 31.48 32.54 34.40 35.69 33.56 33.02 34.87 34.39 36.92 38.49 38.79 37.40 36.26 36.65 38.21 38.56
48.30 47.57 46.46 45.77 45.15 44.04 41.86 39.65 37.85 39.53 37.67 32.26 31.78 37.27 35.75 38.72 39.26 38.31 37.44 36.30 36.16 35.94 36.08 34.21 34.21 32.30 33.53 30.95 31.62 31.88 33.16 33.25 29.76 31.43 34.67 35.41 35.71 38.00 37.35 37.34 37.76 36.84 38.76 39.05
48.04 47.14 46.11 45.00 44.31 43.48 41.22 39.69 39.54 38.72 38.32 32.18 31.75 34.75 36.43 37.20 38.16 37.22 37.46 36.40 35.03 34.83 33.67 32.74 30.26 31.79 31.28 31.11 31.31 30.65 32.99 30.57 29.25 29.66 34.36 32.79 33.63 36.60 37.56 36.55 36.23 36.94 36.52 36.64
47.49 46.25 45.34 44.50 43.63 41.31 39.34 35.54 39.55 40.16 37.60 35.45 30.02 34.25 34.63 36.54 36.66 36.32 35.59 35.89 35.11 35.12 33.54 31.90 32.59 32.88 32.42 28.57 27.82 32.11 33.28 34.27 34.53 31.52 35.07 34.64 35.41 36.11 37.12 35.59 36.29 37.30 37.79 37.97
46.92 45.99 45.12 44.23 43.47 41.80 35.93 35.35 38.39 39.90 38.25 35.43 29.63 30.63 33.71 36.06 35.98 36.55 36.06 36.22 35.14 34.89 33.22 31.96 31.56 31.64 33.33 31.42 28.34 32.94 35.37 37.16 36.54 36.80 34.99 32.64 34.45 33.38 35.36 35.81 37.14 38.28 38.03 37.35
46.57 45.88 45.00 44.35 43.51 41.43 37.76 39.57 40.41 38.05 34.84 33.67 28.10 26.85 30.97 34.32 33.06 31.62 37.20 34.02 34.30 33.59 32.34 32.69 31.38 32.48 32.12 28.23 32.89 34.32 36.31 36.27 35.48 35.55 35.39 34.17 34.56 34.93 34.63 35.21 35.95 34.61 35.13 36.29
46.28 45.38 43.33 39.73 36.92 35.50 37.04 41.67 40.00 37.91 36.83 28.83 28.12 27.67 25.78 33.76 32.22 34.18 34.29 34.32 30.18 32.99 30.70 30.46 31.42 29.85 27.72 32.05 32.98 34.21 35.16 34.16 33.96 34.86 34.88 33.85 32.57 32.65 33.51 33.07 34.48 33.52 34.25 36.67
44.95 39.46 35.05 33.41 35.22 39.78 40.20 36.60 34.90 34.21 33.55 32.43 27.09 29.38 27.14 31.25 31.32 31.80 32.01 32.74 30.07 27.48 29.85 32.08 28.97 29.85 33.48 34.49 35.23 36.59 36.74 36.11 34.97 31.22 30.56 30.65 29.82 31.13 31.46 31.60 32.31 33.32 33.51 33.59
37.71 33.60 32.49 35.93 39.36 35.73 32.41 29.40 29.87 28.80 27.97 30.94 28.54 28.97 28.15 32.73 29.19 29.43 32.34 27.93 28.89 25.54 28.12 28.66 27.83 27.90 32.32 35.48 35.51 36.67 36.58 36.19 35.54 35.26 34.67 34.06 32.04 31.02 31.13 31.17 32.38 31.90 32.38 31.48
37.56 37.00 36.89 34.61 31.78 29.48 27.33 20.34 25.54 27.15 26.14 29.50 30.00 29.68 30.54 31.10 33.91 30.71 31.61 28.16 28.78 22.98 29.40 26.96 23.70 30.66 32.09 32.96 33.72 35.89 36.43 35.17 34.08 34.55 33.62 33.81 33.33 32.68 31.81 31.62 31.46 32.14 32.37 32.11
36.71 34.13 31.09 31.59 26.84 23.90 24.00 18.47 22.74 24.92 27.37 28.06 27.71 26.90 30.11 31.01 32.68 29.31 29.04 26.68 26.34 30.69 26.77 25.16 28.37 30.41 31.67 32.25 33.16 34.06 34.68 33.27 31.98 31.79 32.70 32.83 32.71 33.19 32.37 31.92 32.65 32.56 31.26 31.00
32.73 31.01 23.59 25.62 25.55 24.40 24.41 26.62 26.27 26.04 28.43 27.65 27.89 27.19 28.14 29.16 27.64 29.09 24.44 28.89 30.51 24.57 23.80 24.75 28.49 30.26 30.98 32.17 32.74 32.15 31.76 31.35 30.16 30.00 30.52 30.38 30.44 30.32 31.30 32.40 32.80 31.73 30.33 30.11
29.82 31.24 24.02 24.45 23.78 23.61 23.67 24.84 27.36 28.72 29.59 28.60 27.10 27.77 28.54 27.06 26.09 27.26 26.98 23.99 21.56 24.52 25.03 27.88 30.49 30.27 30.17 30.09 30.63 30.19 29.76 29.27 29.33 30.43 29.80 29.54 29.64 29.55 29.64 31.53 32.65 32.07 31.33 29.88
28.93 26.51 24.06 24.66 25.65 22.78 26.31 25.10 25.31 29.68 28.38 28.08 28.01 24.27 22.08 23.01 25.67 23.42 21.99 19.76 18.88 25.38 27.46 30.09 29.89 30.05 29.78 29.20 29.62 29.51 29.34 29.08 29.57 30.05 29.66 29.33 29.01 29.00 29.83 30.87 31.73 32.57 32.16 30.80
28.68 25.14 29.09 27.98 28.82 27.66 26.98 26.97 27.65 29.33 28.98 26.42 24.66 20.38 20.80 25.08 21.92 20.78 25.18 22.72 27.61 29.90 29.83 29.09 28.62 29.51 29.65 29.85 29.29 28.97 28.86 28.60 28.94 28.82 28.39 27.87 28.26 28.08 28.82 28.81 30.43 30.64 31.83 31.60

GFSNW_sfc_wetblb_057.txt.gz
Wetbulb
51.10 50.32 50.01 49.93 49.03 49.98 48.68 47.95 39.86 48.84 51.06 40.24 42.42 37.47 40.16 41.29 41.35 43.56 40.76 40.20 38.39 37.45 36.93 35.23 35.90 35.75 39.27 44.65 43.61 38.44 41.47 38.36 32.59 35.64 40.99 43.16 41.89 39.29 39.38 33.12 31.20 34.39 33.14 33.87
50.56 50.11 49.94 49.89 49.22 50.64 49.88 43.39 43.35 48.79 48.31 37.03 37.95 41.03 40.72 42.02 40.88 41.05 40.51 38.68 40.13 40.95 38.29 34.38 37.96 39.03 42.91 44.62 42.94 39.79 41.91 36.48 30.41 31.32 37.13 40.94 38.55 40.36 40.25 40.05 37.86 33.24 30.67 34.35
50.26 49.96 49.81 49.63 48.97 49.69 49.52 45.26 37.48 42.53 44.34 43.11 40.24 39.77 39.46 38.96 43.19 41.57 41.72 40.42 42.13 40.04 38.33 40.22 37.08 38.40 42.00 44.20 43.71 42.52 43.65 38.00 34.89 30.99 34.78 38.61 34.81 37.81 39.38 37.95 33.01 33.37 34.11 36.30
50.18 49.87 49.45 49.17 48.02 49.35 48.87 45.30 42.20 43.28 36.28 39.55 41.46 41.61 41.01 38.78 38.20 42.60 42.97 40.18 40.08 38.90 36.30 37.40 36.51 38.69 40.49 42.96 42.93 43.01 42.36 36.04 34.97 36.44 38.09 38.39 37.89 37.59 38.62 35.93 37.00 33.68 36.50 37.60
50.09 49.56 49.06 47.73 47.92 49.43 46.19 42.10 41.25 42.60 42.49 42.88 41.63 39.43 39.65 39.03 40.22 41.04 39.18 39.01 40.03 40.35 38.03 37.87 36.39 38.77 39.10 38.57 42.16 41.28 41.82 34.29 35.61 33.70 35.77 36.25 34.50 37.61 38.58 39.18 39.26 38.75 39.15 38.38
49.93 49.11 48.27 47.16 49.93 48.60 44.90 43.79 44.41 43.74 38.61 41.13 40.80 39.98 39.45 39.32 41.51 42.56 43.46 42.14 41.46 40.03 40.55 42.68 43.33 42.98 43.53 42.38 40.22 39.84 39.05 36.19 33.90 31.00 33.11 33.00 30.14 34.97 36.72 37.78 39.40 38.61 34.84 39.75
49.47 48.95 47.42 46.77 49.24 47.02 46.66 45.65 46.24 41.79 37.13 40.53 40.02 38.84 40.43 40.23 40.39 40.21 41.57 43.18 41.71 42.11 44.64 44.52 44.18 43.24 42.25 42.13 41.33 42.98 38.55 36.48 35.25 30.98 31.33 24.02 32.82 38.19 37.43 35.97 37.71 39.35 39.33 40.82
49.25 48.63 46.90 46.28 46.94 46.37 44.96 44.16 43.83 43.09 37.87 39.93 37.47 39.17 39.48 41.03 42.13 41.08 40.70 40.35 41.44 44.19 43.23 39.60 36.04 36.89 37.01 37.74 39.79 39.75 41.01 37.91 32.40 30.02 29.24 32.89 34.43 36.96 36.75 35.84 35.15 39.60 38.93 40.48
48.99 48.37 47.17 45.75 45.51 44.53 44.44 42.97 42.94 44.10 38.33 35.99 38.35 38.08 40.31 39.50 39.24 39.85 39.56 41.84 44.55 44.64 42.38 38.40 31.68 29.72 33.69 31.88 34.78 39.12 38.73 39.60 34.92 31.43 26.16 24.84 33.76 38.35 41.04 40.36 31.98 38.93 38.62 38.15
48.87 48.26 47.53 46.12 45.63 44.90 45.04 41.64 42.60 43.47 35.64 35.56 36.09 37.89 37.55 38.77 38.86 39.71 38.25 37.86 41.10 43.82 40.01 35.01 33.19 32.26 35.97 30.91 30.91 31.87 33.73 34.61 31.45 31.33 28.86 32.60 35.97 39.15 41.29 30.06 31.56 37.30 37.10 37.00
48.73 48.26 47.49 46.99 45.47 45.16 45.58 41.00 43.03 42.98 35.48 35.28 37.05 36.71 35.59 35.56 37.20 38.82 36.32 37.96 39.25 40.93 37.22 36.08 35.27 34.14 35.60 34.53 35.40 34.25 32.87 31.28 30.73 32.14 28.85 25.85 36.90 39.81 34.12 35.96 38.53 38.24 38.09 37.75
48.45 47.95 46.88 46.14 45.08 44.60 45.39 39.28 42.30 44.76 39.31 35.77 39.31 38.22 38.93 38.06 37.19 37.92 38.21 37.65 37.18 39.19 37.88 37.99 37.13 34.01 35.92 34.79 30.55 37.21 31.63 35.61 33.55 34.03 33.85 37.80 38.42 37.68 38.93 39.02 36.54 37.42 37.25 38.16
48.13 47.83 47.39 46.06 45.45 44.45 44.61 42.85 42.67 42.41 37.52 36.65 37.63 34.41 38.49 41.18 39.94 40.72 37.43 37.64 37.70 37.90 39.47 40.05 38.15 33.68 36.24 32.87 33.82 34.68 36.23 37.41 35.48 34.41 37.31 37.61 38.06 40.21 39.84 39.32 37.99 38.67 38.80 38.29
48.05 47.69 47.11 46.47 45.59 44.83 44.71 41.64 42.03 43.90 41.05 34.86 32.84 39.79 36.96 40.59 41.37 40.02 39.88 38.55 38.79 39.03 39.61 37.99 37.61 34.99 36.21 34.69 34.14 33.93 34.74 34.73 32.05 33.20 36.44 37.09 38.39 39.85 38.71 37.85 38.18 38.51 39.04 38.19
47.57 46.96 46.35 45.63 45.04 44.75 44.14 42.70 41.66 42.37 41.29 33.73 33.21 37.50 38.24 39.54 40.08 38.89 39.53 38.70 37.84 37.77 36.19 35.75 33.61 35.11 34.02 34.28 33.58 32.23 34.85 32.94 31.21 32.10 35.70 34.74 35.70 37.98 37.91 35.83 35.58 36.33 36.06 36.30
47.07 45.74 45.65 45.18 44.74 44.36 43.66 39.74 42.45 42.59 43.53 38.01 31.25 37.14 36.87 37.87 38.99 37.98 37.28 37.73 37.36 37.67 36.38 34.52 34.57 34.91 34.63 31.03 30.18 34.40 35.41 36.01 36.62 33.79 36.55 36.25 36.75 37.59 37.64 35.43 35.43 36.44 37.12 37.53
45.57 45.00 44.90 44.83 44.88 43.53 39.17 38.34 40.96 41.28 42.99 37.57 31.82 31.81 35.57 37.65 38.19 38.46 37.94 38.71 37.10 37.28 35.55 34.48 34.18 33.82 35.03 33.04 30.09 34.49 36.41 38.01 38.05 37.84 36.80 33.94 35.40 33.72 35.80 35.60 35.77 36.69 36.79 37.35
45.60 45.09 44.95 44.37 43.89 42.93 39.15 39.98 41.18 41.36 39.49 39.30 32.30 29.49 32.16 36.29 34.77 33.16 38.39 35.83 36.78 35.91 34.89 34.67 33.58 34.03 34.10 30.24 35.49 36.21 36.76 37.18 36.58 36.66 36.94 35.77 36.81 36.10 35.28 35.45 34.88 33.27 33.11 34.46
45.73 43.94 43.35 42.88 40.04 38.71 38.64 41.64 41.00 42.43 40.75 33.95 34.04 30.51 27.57 35.61 34.28 35.82 35.23 36.31 32.49 35.12 33.11 32.93 33.18 32.25 29.17 34.28 34.71 34.68 35.85 34.75 34.63 35.93 35.57 35.60 34.54 33.86 33.83 34.00 33.48 31.75 32.40 33.47
43.96 41.59 39.45 36.06 36.75 41.32 41.33 39.68 38.07 37.95 37.42 36.58 29.98 32.89 28.75 33.87 33.82 32.53 31.78 32.95 31.62 28.87 32.27 33.97 30.44 31.62 36.36 36.26 36.37 36.38 36.10 35.85 35.54 32.30 31.04 32.92 32.53 33.07 33.24 32.86 33.56 32.93 32.09 32.52
39.82 36.61 34.06 37.69 40.51 37.46 35.51 32.79 33.97 32.74 32.40 33.77 31.90 32.72 29.56 34.63 31.44 31.11 33.34 28.84 29.61 27.02 29.71 29.45 29.96 29.62 33.44 36.41 35.86 36.60 36.55 36.30 35.65 35.32 35.08 34.90 34.13 33.41 32.97 33.00 33.59 33.62 33.28 32.31
40.39 38.85 39.09 37.11 33.76 33.11 31.43 26.38 29.73 31.45 28.87 32.02 32.04 31.03 33.22 32.91 35.68 31.66 32.18 28.63 28.86 24.91 31.30 27.88 25.18 31.96 33.50 33.85 33.93 34.85 36.17 35.86 34.54 34.24 33.02 33.44 33.59 33.67 33.27 33.13 33.42 33.72 34.04 33.81
39.94 37.91 34.27 34.07 29.74 28.54 30.01 23.80 26.21 27.89 30.45 30.14 30.35 28.92 32.53 32.63 33.80 29.76 29.98 27.30 26.83 32.34 27.87 26.53 29.82 31.30 32.33 33.06 33.68 33.99 35.96 35.06 33.39 32.34 32.61 32.87 32.53 33.07 32.50 31.80 32.75 33.44 33.85 34.48
37.34 33.48 25.60 31.49 27.99 28.87 30.61 31.79 32.45 31.36 32.50 31.00 31.93 29.99 30.52 31.16 29.79 29.36 25.83 29.76 30.43 24.82 23.20 25.63 29.89 31.19 32.02 33.14 33.63 32.65 32.20 32.58 31.64 31.12 31.50 31.47 30.94 30.92 31.52 31.81 32.31 31.87 31.74 33.35
33.54 35.26 27.53 27.25 25.74 27.54 28.07 30.59 30.82 31.48 33.38 31.89 30.46 30.41 31.41 28.97 27.29 28.89 27.77 24.93 22.46 25.57 25.82 30.74 32.51 32.18 32.20 32.00 32.08 31.67 31.28 31.31 30.87 31.18 30.72 30.57 30.09 29.78 29.97 31.26 31.85 31.73 31.64 32.08
33.09 29.50 25.19 26.43 27.85 26.45 29.27 30.34 28.42 31.85 31.95 32.13 32.53 27.96 26.01 25.18 27.03 24.43 23.35 22.09 21.27 27.33 31.86 33.28 32.38 32.13 32.37 31.74 31.68 31.75 31.73 30.93 30.63 30.89 31.30 31.14 30.39 30.01 29.98 30.44 30.08 30.72 31.49 30.66
32.33 27.82 30.90 31.99 31.53 31.17 30.82 31.74 30.31 33.28 32.09 30.20 29.82 25.28 23.69 27.15 24.04 22.74 27.05 24.12 29.60 32.04 33.00 33.39 33.31 32.19 32.14 31.76 31.12 31.06 30.81 30.19 30.40 30.39 30.58 29.91 30.56 29.85 28.25 27.44 29.49 30.38 30.76 30.68

GFSNW_sfc_wetblb_060.txt.gz
Wetbulb
52.70 52.25 51.32 51.15 50.83 50.15 49.12 47.68 39.40 48.31 50.53 39.94 41.20 37.33 40.01 41.27 40.70 42.75 40.38 39.90 38.39 37.12 36.53 34.70 35.18 35.65 38.62 43.51 41.94 37.85 40.56 36.39 30.85 34.84 40.75 41.89 39.61 37.08 36.32 27.93 26.51 28.69 26.29 27.44
52.54 51.78 51.12 50.99 50.33 50.98 48.34 43.39 41.80 48.63 47.79 36.42 36.25 40.73 40.56 42.14 40.54 40.80 40.32 38.73 39.74 40.57 37.08 33.27 37.11 38.37 42.80 44.69 42.52 39.42 40.84 34.33 26.67 28.84 35.40 39.22 36.73 38.29 38.67 36.99 34.15 27.75 23.60 27.05
52.03 51.28 50.88 50.81 50.52 51.92 48.24 43.46 36.02 41.12 43.91 42.49 38.73 38.56 38.70 38.16 43.39 41.47 41.95 40.87 41.97 39.75 37.45 39.70 36.32 37.29 42.22 43.28 43.51 43.24 41.77 36.68 30.74 25.91 29.73 34.94 31.91 35.85 37.65 34.72 26.35 29.55 29.61 30.84
51.97 51.06 50.65 50.60 50.18 51.64 47.61 44.32 39.86 41.12 35.02 37.40 39.82 41.64 40.31 37.96 37.44 42.48 42.64 39.53 39.90 38.66 35.40 36.21 35.33 38.00 39.75 42.37 42.20 41.20 40.29 32.77 30.34 34.67 37.07 36.44 35.72 35.05 35.73 31.81 33.73 27.83 32.33 33.48
51.17 50.89 50.93 50.67 49.81 50.56 45.01 40.59 39.82 41.84 40.55 41.41 39.96 39.85 39.25 39.08 39.81 40.81 38.70 38.61 39.91 39.19 36.72 36.97 35.26 37.67 37.94 35.84 39.23 38.02 39.46 31.22 31.01 27.45 34.75 34.32 30.93 35.50 37.04 37.68 37.64 36.65 36.01 35.12
50.85 50.63 50.55 50.26 49.22 49.90 44.13 42.49 43.76 41.92 40.58 40.08 38.85 38.85 39.48 39.95 41.53 41.87 42.82 41.93 40.36 38.63 39.49 40.20 41.16 40.68 41.65 41.04 39.13 37.71 36.48 30.99 27.44 25.18 30.27 29.57 24.55 31.30 34.57 35.59 36.58 35.93 32.33 34.59
50.89 50.79 49.91 48.64 50.25 50.10 44.76 43.11 43.91 39.71 34.56 38.86 38.92 40.55 40.70 40.20 40.87 39.37 41.02 42.40 40.48 40.39 43.16 42.86 40.34 40.04 40.07 39.90 39.74 41.28 37.21 34.13 30.11 23.37 25.53 16.66 29.10 34.76 35.75 34.74 36.55 37.02 36.84 37.60
50.71 49.90 48.87 48.21 50.56 50.52 43.49 43.41 42.37 39.90 36.13 37.81 38.67 39.80 39.71 40.37 41.18 39.92 39.37 39.35 40.34 42.64 41.31 36.95 33.60 33.98 34.07 35.53 37.46 36.06 38.31 35.81 28.68 25.67 23.43 28.30 31.11 34.11 33.97 33.02 33.35 36.75 35.85 36.60
50.06 49.37 48.12 48.03 50.14 50.39 43.51 42.41 41.39 41.35 37.89 33.33 39.85 38.57 39.92 37.61 36.90 37.60 38.11 40.80 42.78 42.01 39.60 35.76 27.22 27.26 31.24 29.82 32.82 36.09 37.20 36.01 29.93 26.25 22.23 19.75 30.21 36.17 38.40 36.95 27.95 35.06 34.77 34.45
49.77 48.34 47.39 47.25 48.31 48.12 44.20 40.30 41.82 41.21 33.45 33.93 35.07 34.83 35.77 38.90 37.44 37.20 36.74 37.00 38.75 40.70 36.51 31.86 29.03 27.58 33.39 27.67 27.49 28.12 30.54 30.84 26.62 26.72 24.16 28.21 32.57 36.48 38.61 26.31 26.84 34.86 35.36 34.95
49.45 48.26 46.91 46.61 46.53 46.69 44.42 40.18 42.05 40.37 34.23 33.48 36.88 36.72 33.92 34.87 35.05 34.28 33.90 35.08 36.70 37.30 34.29 32.55 31.16 29.83 30.64 29.56 31.73 29.99 29.42 26.29 26.47 28.29 26.30 21.34 34.66 35.84 30.41 31.64 34.90 34.93 34.95 34.96
49.18 48.29 47.24 46.70 46.30 46.48 46.01 37.81 42.14 42.44 36.30 33.86 37.44 37.22 37.79 36.79 36.47 34.28 36.05 35.56 36.43 35.80 35.66 33.80 33.01 30.25 31.35 30.48 26.14 32.42 27.43 30.56 28.34 30.17 29.21 34.07 35.11 34.19 35.80 35.68 34.33 34.82 34.67 35.78
48.89 48.25 47.69 46.62 46.48 46.12 44.62 39.75 40.46 40.13 34.69 33.57 34.27 32.71 37.54 40.22 38.74 39.29 33.48 34.45 36.88 35.86 35.35 35.31 33.89 31.96 31.97 27.27 28.51 29.33 31.82 32.84 30.99 30.44 33.44 33.26 34.16 36.08 36.29 35.80 34.59 35.48 36.28 36.75
48.51 47.64 46.91 46.11 45.93 46.35 45.55 40.68 40.95 41.59 37.94 30.54 30.04 38.89 35.02 39.21 39.72 38.92 38.30 36.75 37.38 36.77 35.60 33.17 32.94 30.72 32.88 29.51 30.33 29.60 29.91 30.69 28.71 29.10 32.07 33.53 34.71 35.20 35.14 35.24 36.18 36.13 36.78 36.58
48.28 47.77 46.81 46.17 46.66 45.66 42.98 41.38 40.71 41.12 38.54 30.45 30.20 35.68 37.33 38.45 38.36 37.52 38.09 37.38 35.74 33.30 31.24 30.34 28.55 30.06 29.53 29.16 28.29 26.70 30.56 28.77 26.34 27.14 32.64 32.19 32.53 34.94 36.69 34.75 34.17 34.79 34.58 35.16
48.20 47.78 46.28 46.58 46.39 45.69 42.69 37.73 41.01 41.30 42.20 34.17 28.04 35.16 34.82 36.21 37.04 36.45 35.38 35.38 34.21 33.38 32.01 29.50 30.05 32.59 30.39 25.21 24.33 30.26 32.08 33.24 33.75 31.36 34.60 35.24 35.72 35.97 35.93 33.60 33.75 35.09 35.21 35.15
46.85 46.62 46.61 45.56 44.73 41.16 37.81 36.32 39.06 40.88 41.30 33.49 28.19 27.47 33.43 35.84 35.88 35.96 35.00 35.66 33.42 33.41 31.25 30.01 29.57 30.04 30.80 28.66 24.94 30.98 33.12 35.02 35.04 34.98 33.29 31.11 32.85 31.49 33.97 33.49 33.68 34.88 34.22 34.36
46.24 45.68 46.11 44.98 44.25 43.05 37.32 38.27 40.86 40.85 36.97 36.68 26.34 23.61 28.44 33.97 32.89 31.56 35.53 32.28 33.16 32.17 30.53 30.69 29.12 30.15 29.63 25.16 31.69 33.14 34.27 34.23 33.60 33.55 33.17 32.60 33.29 33.19 32.09 32.55 32.08 31.05 30.93 31.95
46.67 46.37 45.68 42.35 39.10 37.01 36.37 41.52 41.77 40.89 38.03 28.75 29.82 23.89 20.19 32.71 32.54 34.34 33.07 33.20 28.24 31.21 29.17 28.80 29.83 28.34 23.33 31.00 32.24 31.74 33.08 32.13 31.57 32.65 31.99 31.92 31.63 31.67 31.88 31.26 30.22 29.07 29.53 30.52
45.87 42.40 39.18 34.71 35.71 42.48 41.55 38.71 35.57 33.89 34.47 33.44 25.76 28.94 22.44 30.41 31.23 30.87 31.12 32.06 30.43 26.81 29.56 30.03 27.23 27.32 33.25 32.91 32.87 33.32 33.19 33.11 32.55 28.41 26.53 28.21 26.07 29.68 29.77 29.82 30.68 30.37 30.26 30.83
39.43 35.45 33.06 37.61 40.64 37.28 35.15 30.35 28.37 29.66 27.66 30.33 28.87 28.38 24.82 31.33 28.50 28.26 32.31 28.11 28.85 25.18 28.22 27.97 28.22 24.65 29.75 32.47 32.18 33.05 32.91 31.88 30.87 30.69 31.34 31.12 30.19 29.13 29.02 29.74 30.91 31.38 31.47 30.95
39.95 37.94 38.64 36.66 33.93 32.88 27.77 24.49 26.86 27.65 23.44 29.14 28.08 27.82 29.52 29.59 32.61 28.86 30.55 25.73 27.90 24.04 30.11 26.78 23.73 29.31 28.98 30.37 29.74 30.93 31.50 31.06 31.17 31.63 30.69 30.43 30.77 30.35 29.86 30.00 30.20 30.38 30.97 31.30
39.34 35.52 31.30 31.46 28.52 26.08 23.93 17.83 20.91 22.10 27.69 27.34 26.34 24.34 28.84 29.78 32.44 29.45 28.01 22.01 23.15 28.85 25.96 23.72 26.45 27.94 28.67 28.86 29.62 29.06 28.79 30.05 30.61 30.14 30.39 30.36 29.94 30.80 29.77 28.60 29.07 28.74 28.75 29.60
33.52 29.52 21.58 25.59 23.36 27.68 29.37 28.84 27.76 29.02 29.80 30.35 28.72 25.62 26.50 29.17 27.73 28.27 18.66 26.91 28.52 23.26 16.17 16.77 21.25 26.13 27.60 28.60 29.74 28.90 28.06 28.59 25.74 25.41 27.46 27.52 26.95 27.08 28.01 28.18 28.98 28.91 28.58 29.18
29.22 31.41 21.36 25.73 26.29 27.45 28.82 27.38 28.36 29.83 31.30 28.94 27.05 26.09 27.73 23.73 22.52 26.37 23.17 17.99 13.38 18.84 18.17 22.09 23.99 27.77 28.14 27.73 28.51 27.63 27.30 27.18 26.73 27.05 24.97 24.20 24.98 24.48 25.77 27.13 27.83 27.91 28.16 27.95
29.49 26.80 23.60 26.83 26.11 25.77 27.19 26.99 27.17 30.48 29.76 28.78 28.17 22.83 18.42 20.04 21.74 17.72 14.84 15.96 13.33 17.81 22.53 25.12 25.77 27.15 28.10 27.83 28.23 27.48 27.49 26.96 27.02 27.19 27.67 27.47 26.84 25.76 25.63 27.50 27.27 27.31 27.21 27.35
27.79 24.70 29.46 29.68 29.52 28.60 29.07 28.95 27.64 30.59 28.93 24.52 24.33 15.63 17.27 21.81 16.88 17.23 21.97 16.27 20.74 23.76 24.49 25.51 27.18 27.03 27.11 27.55 27.00 26.87 26.94 26.98 26.45 26.39 26.72 26.17 27.75 25.69 24.15 23.89 26.63 26.74 27.94 28.16

GFSNW_sfc_wetblb_063.txt.gz
Wetbulb
55.21 53.87 52.37 52.10 51.58 51.17 48.84 42.68 35.57 47.33 46.67 38.56 39.41 35.16 39.22 41.69 40.00 42.11 38.74 37.59 36.12 34.50 33.44 32.76 33.21 35.17 35.89 40.93 40.02 35.05 38.42 34.83 31.44 34.15 39.93 40.89 38.19 35.93 35.20 26.57 26.10 26.61 23.79 25.16
54.51 53.26 51.82 52.12 51.66 51.58 44.59 40.06 40.52 47.56 46.71 31.17 34.06 39.03 39.93 42.11 40.09 40.38 39.25 36.99 37.97 38.04 34.88 31.02 37.04 37.06 41.58 44.21 40.49 36.56 38.09 33.32 27.80 28.99 33.80 37.21 35.90 37.24 37.73 35.99 33.00 26.45 21.91 26.39
53.89 52.83 51.59 51.95 51.78 52.03 45.84 39.43 34.58 40.93 42.67 40.74 36.35 35.18 36.37 36.95 43.08 41.50 42.24 39.23 39.32 38.19 34.99 36.51 35.36 36.25 41.84 43.28 40.90 43.74 41.17 33.96 27.57 24.27 29.37 33.87 31.71 35.24 36.75 33.30 25.39 29.37 29.57 29.70
53.74 52.30 51.39 52.21 51.90 52.13 45.16 40.19 34.48 37.52 33.40 33.50 36.64 39.80 38.00 36.31 36.14 40.19 40.16 37.75 38.42 36.20 32.41 35.43 35.18 37.71 39.93 40.94 42.11 40.18 38.21 28.83 27.70 33.32 35.97 35.50 34.19 33.81 34.85 31.48 32.35 28.01 31.00 31.32
53.23 51.43 51.76 51.88 51.50 51.95 42.24 38.30 36.75 36.98 34.57 36.94 37.48 37.84 37.90 36.90 38.73 38.25 37.11 37.73 37.93 37.57 34.63 35.49 34.03 36.87 37.02 36.92 37.69 36.60 37.28 27.60 29.20 25.21 33.74 33.20 30.57 34.04 34.63 34.95 34.83 34.22 33.70 33.34
52.74 51.46 51.05 51.13 51.31 49.53 40.58 39.52 39.45 37.86 36.81 35.27 34.47 34.92 36.85 38.42 39.48 39.67 40.43 40.48 37.99 36.73 37.23 37.19 38.52 39.59 38.63 39.30 36.43 35.17 34.39 28.35 24.56 21.84 29.24 28.31 24.26 30.50 32.47 34.23 35.56 36.18 32.24 33.80
52.40 50.95 50.01 50.89 51.10 49.68 41.30 38.77 38.98 34.87 32.41 35.51 35.90 38.58 39.55 38.60 38.40 37.41 38.17 39.98 37.49 38.95 40.70 40.50 39.04 38.17 37.87 38.03 38.97 39.68 34.34 30.44 25.72 19.51 23.61 14.81 27.72 32.85 34.31 33.82 34.75 35.37 34.81 34.74
51.69 50.57 49.94 50.64 50.92 50.93 40.36 39.30 39.29 35.24 31.23 34.12 37.68 39.73 37.63 38.18 37.90 36.67 36.81 37.24 38.27 40.63 38.73 33.93 31.27 31.17 31.99 33.72 35.16 34.47 36.57 32.83 25.01 22.25 19.43 25.64 29.40 32.61 32.20 31.22 30.67 33.47 32.84 33.27
51.44 50.45 50.07 50.71 49.90 50.50 40.26 37.52 37.98 37.17 33.59 29.17 31.41 37.29 37.10 33.86 32.54 34.44 35.43 38.57 40.87 40.15 37.26 33.71 25.89 24.43 29.81 27.80 30.62 34.98 35.60 33.86 28.23 24.59 21.23 19.43 28.25 34.36 37.52 35.44 26.24 32.77 33.39 32.39
51.16 49.94 49.49 49.20 50.14 50.85 40.43 36.65 38.91 35.40 29.50 30.38 32.19 33.05 33.94 35.76 34.17 32.22 33.89 35.24 36.97 38.84 33.66 29.78 27.07 24.42 31.61 26.14 26.37 27.05 28.51 28.45 24.40 23.92 21.55 26.26 30.95 33.39 37.25 24.44 24.31 32.70 33.52 33.50
50.40 49.72 49.04 48.59 50.42 50.40 40.57 36.68 39.03 35.60 29.74 30.36 33.32 33.72 31.10 32.76 32.77 31.30 32.52 33.77 35.00 34.95 31.38 30.55 28.46 27.33 28.69 27.91 30.42 29.04 27.62 23.96 24.59 26.02 26.14 22.48 33.17 33.30 29.76 30.26 32.71 33.63 33.80 33.49
49.81 48.77 47.80 48.05 50.34 47.16 42.27 35.07 39.36 39.09 32.51 30.28 34.80 35.14 35.67 34.68 33.77 33.38 33.96 33.28 33.88 34.41 33.19 31.63 30.48 28.58 28.88 27.81 24.37 30.31 26.49 29.57 27.62 27.93 27.06 33.05 32.93 32.11 33.75 33.96 32.47 32.07 31.99 33.49
49.03 48.09 47.42 47.82 47.83 47.13 42.10 36.36 36.99 35.95 30.64 29.75 30.38 30.46 35.36 37.67 36.87 37.22 32.10 32.48 35.23 34.06 34.47 32.97 31.83 29.43 29.76 25.48 26.45 27.13 29.27 30.94 29.62 29.39 29.53 30.66 32.10 33.26 33.89 33.43 32.50 33.31 35.43 35.26
49.02 48.33 47.66 47.29 47.51 46.56 42.79 37.48 38.47 36.08 32.57 26.15 27.53 36.36 32.96 37.59 37.48 37.34 36.63 35.38 35.69 35.04 33.41 31.33 29.95 29.24 31.36 27.84 29.37 28.80 30.25 29.64 27.49 27.01 29.73 30.78 32.04 33.07 33.63 33.96 34.47 33.71 34.24 34.16
48.72 48.41 47.31 47.13 46.91 45.75 41.07 38.39 38.62 38.92 33.45 26.88 27.43 32.80 35.53 35.96 36.12 35.95 36.41 35.70 33.65 31.59 28.86 26.70 27.17 27.91 27.83 26.65 26.28 24.47 28.51 27.53 25.25 24.52 30.78 30.12 30.80 32.76 33.80 32.63 33.01 33.86 33.46 33.24
48.13 47.00 46.60 47.44 46.31 44.64 39.42 33.51 38.00 39.44 37.18 29.80 24.92 33.48 33.32 35.42 35.53 35.07 34.46 34.21 32.87 31.44 29.29 26.82 27.66 30.91 28.77 22.45 22.00 28.10 30.24 31.78 32.24 29.83 32.45 32.89 32.79 33.16 32.85 31.14 31.69 32.38 32.78 32.87
47.48 46.69 47.42 47.31 44.73 38.57 35.81 33.14 36.84 40.81 38.52 30.29 25.48 23.62 31.47 34.25 33.96 33.71 33.26 33.51 32.09 31.10 28.75 27.82 26.95 28.13 28.93 26.52 23.23 28.82 30.98 32.65 32.96 33.35 31.43 29.83 31.28 29.26 31.81 30.21 31.34 32.96 32.33 32.26
47.04 46.57 46.12 45.20 44.03 41.27 34.41 36.53 41.04 40.22 35.39 31.60 19.16 19.07 25.60 32.47 30.95 29.15 32.94 30.17 31.12 30.10 28.63 29.13 27.26 28.71 27.67 23.61 29.00 30.63 32.06 32.18 32.33 31.95 31.66 31.02 31.10 30.93 30.93 31.37 30.48 28.89 28.37 28.91
46.93 46.31 46.13 39.59 36.76 33.50 33.58 41.18 41.49 38.73 32.15 25.66 22.86 19.87 16.46 31.22 31.78 33.34 30.61 30.72 26.23 29.83 28.20 28.03 28.72 26.63 21.71 27.98 30.22 30.19 31.42 31.00 30.71 31.26 30.70 29.80 29.28 29.59 29.90 29.52 28.87 27.70 27.71 28.46
46.74 42.22 37.13 32.11 33.66 42.12 41.37 36.19 31.02 30.90 30.86 27.89 21.23 21.98 18.83 28.16 31.77 30.43 30.91 31.45 29.43 19.52 27.46 28.82 26.92 25.73 30.92 30.55 31.21 31.61 31.53 31.72 31.13 26.32 24.91 26.20 24.03 26.80 27.32 27.72 28.32 28.36 28.47 28.96
37.97 33.90 32.41 36.27 40.63 36.11 33.39 28.50 26.68 26.75 22.12 26.58 24.98 22.72 22.66 30.05 23.72 26.05 30.63 28.10 28.90 24.60 25.75 25.01 25.14 24.90 27.43 29.73 30.24 30.81 30.60 30.53 29.64 28.98 28.86 28.36 28.07 26.94 26.73 27.56 28.70 28.91 28.55 27.78
38.45 36.68 37.27 35.41 32.19 30.08 24.33 21.86 24.86 24.22 21.52 25.59 24.33 26.11 27.05 28.71 30.52 26.35 30.09 23.52 27.25 23.28 30.49 26.17 23.46 27.90 29.38 28.69 28.24 29.12 29.74 28.89 28.83 29.54 29.22 28.97 29.07 28.38 27.86 28.03 27.92 27.91 28.71 29.00
37.84 32.72 27.08 25.32 22.83 19.47 14.29 17.53 18.54 17.94 24.51 23.95 24.58 22.48 27.15 29.13 30.01 27.64 23.45 17.74 18.64 27.25 25.11 20.93 22.79 28.03 27.04 27.16 28.03 27.49 25.97 25.63 27.62 28.27 28.40 28.66 27.95 28.35 27.87 26.98 27.67 27.37 27.10 27.99
29.81 23.97 19.12 17.88 15.15 21.34 25.97 23.54 21.40 24.76 24.81 26.82 26.60 25.47 26.29 28.11 24.97 24.73 14.64 26.19 25.87 14.66 10.35 14.81 19.35 24.03 25.52 26.48 27.96 27.41 26.10 26.36 23.77 22.75 25.48 25.78 24.86 24.56 25.84 26.84 27.06 26.75 26.48 27.76
24.56 22.82 15.44 18.05 25.65 26.70 24.19 21.02 25.17 25.41 28.52 27.03 25.50 25.74 25.69 21.39 20.65 24.45 20.73 15.42 8.95 15.11 16.59 19.05 20.27 25.22 25.92 26.20 26.81 26.20 25.04 24.99 24.75 25.09 22.91 21.10 22.30 23.15 24.31 26.03 25.67 25.95 26.70 26.77
24.27 20.11 18.48 26.20 25.60 25.35 22.11 22.48 26.10 25.29 28.47 26.12 26.06 20.51 16.79 18.83 19.70 15.16 11.35 12.67 10.59 16.19 18.07 22.44 23.80 25.03 26.05 26.74 26.92 26.20 25.55 24.97 25.32 25.18 25.83 26.11 25.19 24.68 25.18 26.34 25.66 25.69 25.33 24.97
18.74 19.48 28.12 27.25 27.46 26.20 25.49 26.09 26.17 28.49 27.40 21.41 20.31 14.52 15.86 20.75 14.11 15.00 18.21 14.09 17.27 20.43 21.13 22.28 25.06 25.91 25.47 25.35 25.54 25.64 25.50 24.93 24.44 23.99 24.23 23.76 25.41 22.85 20.05 21.35 24.96 24.98 26.17 25.69

GFSNW_sfc_wetblb_066.txt.gz
Wetbulb
50.74 52.05 54.17 52.06 51.47 51.86 49.09 42.91 34.37 45.22 46.28 37.27 38.25 34.76 38.60 41.34 38.27 39.64 37.47 36.49 35.01 32.56 32.01 31.54 32.35 33.31 34.95 39.46 38.99 34.95 36.50 33.39 29.48 30.44 37.47 39.84 38.02 34.39 32.08 23.60 23.71 24.42 21.41 24.84
50.21 51.04 52.96 51.99 52.38 51.75 45.87 39.43 40.65 46.58 45.50 33.07 33.20 39.08 40.16 40.51 38.74 38.72 37.85 35.93 37.07 36.71 33.46 31.36 36.01 36.42 40.33 41.80 38.77 35.06 36.53 31.07 20.92 26.44 31.70 36.08 35.51 36.24 37.01 34.92 31.49 27.21 21.99 25.74
50.43 50.40 52.81 51.96 52.54 51.88 46.54 38.62 34.51 40.55 42.29 40.23 36.25 36.05 37.38 37.87 41.51 39.81 40.62 37.93 37.84 35.45 33.81 35.06 35.40 36.56 41.80 42.56 39.31 44.04 40.65 31.79 26.95 22.69 26.78 33.06 30.63 34.65 35.40 32.39 25.83 28.06 28.76 29.73
49.43 52.98 52.38 51.84 52.20 52.07 45.57 38.11 33.28 37.56 33.10 35.20 34.49 35.88 36.92 36.25 35.73 38.75 38.73 35.94 37.06 34.67 30.40 32.40 33.55 38.07 39.17 40.20 41.71 38.83 36.60 27.35 26.73 31.81 33.92 33.36 32.26 33.34 34.34 31.09 32.26 29.60 32.15 31.38
49.23 52.96 52.39 52.02 51.65 52.41 44.95 37.60 34.76 35.46 32.65 35.42 34.28 36.63 35.28 35.56 37.20 36.54 35.39 35.04 36.45 35.75 33.30 33.00 31.95 36.98 35.07 33.80 36.85 35.30 35.54 25.89 28.23 24.96 32.33 31.89 30.31 32.90 33.35 33.87 33.18 32.94 33.67 31.86
49.21 50.03 51.79 51.46 51.53 50.86 42.23 39.91 38.42 37.18 35.17 33.21 33.43 35.25 37.78 37.53 38.40 38.19 39.40 39.26 36.72 35.14 35.45 36.13 36.88 37.59 37.33 37.36 35.59 33.90 32.74 28.13 23.79 22.59 27.93 27.99 24.51 29.06 31.71 33.62 33.93 33.93 31.60 34.17
48.71 51.54 51.41 51.45 51.61 48.78 42.23 38.64 37.97 35.01 31.78 33.99 34.48 37.38 39.07 38.43 37.51 36.23 36.75 39.66 36.58 38.45 40.11 38.89 38.31 36.86 36.33 36.47 35.53 37.49 32.23 28.71 24.66 17.94 23.10 14.92 27.27 32.36 34.24 32.93 32.84 33.67 33.05 33.09
50.07 52.00 50.91 50.74 51.23 48.25 40.27 38.25 38.09 34.68 30.47 33.77 35.81 37.94 36.72 36.27 36.22 35.07 35.81 36.52 37.63 39.91 37.99 33.22 30.47 30.05 31.37 33.00 33.95 35.02 35.36 30.82 24.38 20.80 18.75 24.56 28.01 31.17 30.63 30.01 27.98 30.73 30.48 31.27
49.00 49.84 50.30 50.10 50.85 51.83 40.31 36.78 37.55 36.40 33.43 29.14 30.33 36.58 37.64 32.65 30.94 32.47 34.55 38.37 40.07 40.14 35.56 32.12 24.71 23.43 26.67 26.39 29.12 33.83 33.42 32.39 26.90 23.93 20.61 19.49 27.29 32.10 33.91 33.69 25.56 30.90 31.98 30.82
50.18 50.37 50.38 49.95 50.66 50.73 39.84 36.52 38.23 35.02 29.11 29.37 30.69 34.10 34.24 35.10 32.63 31.10 32.83 34.63 35.95 37.80 32.11 29.02 26.81 24.48 30.02 25.56 25.81 26.33 27.65 26.97 24.20 23.56 21.09 25.22 30.58 32.26 34.60 23.90 25.05 31.50 31.91 32.06
50.86 51.13 49.88 49.66 50.24 48.37 39.63 36.32 38.08 34.83 29.18 29.66 32.05 32.68 31.48 32.50 32.94 31.32 32.87 33.99 34.87 34.05 29.96 29.56 27.81 26.37 27.87 26.65 28.17 27.47 26.84 23.79 24.02 24.89 22.12 22.55 31.44 31.86 29.54 29.97 31.92 32.51 32.21 32.43
50.84 49.94 49.25 49.32 49.71 47.50 41.75 34.92 38.20 37.70 31.83 30.47 33.81 33.87 34.54 34.16 32.97 32.89 32.67 32.28 33.24 34.20 31.44 30.44 29.05 28.18 27.13 26.31 24.08 28.51 26.29 28.63 26.67 27.25 26.81 30.02 31.44 31.19 32.26 33.02 31.71 31.21 31.17 32.68
50.16 49.20 48.56 48.67 50.21 47.84 41.65 35.70 35.62 34.70 30.05 29.82 30.40 30.23 34.70 36.71 35.61 36.33 32.73 32.23 34.79 33.70 33.78 31.98 30.78 29.09 29.05 24.76 25.70 24.92 27.75 29.97 28.29 28.46 28.23 28.98 30.91 32.02 32.58 31.75 31.12 32.39 32.95 33.24
49.07 48.29 47.85 49.15 48.65 46.69 42.24 36.87 37.81 35.03 31.48 26.90 27.68 35.45 32.61 36.54 36.33 36.40 36.02 35.01 34.88 34.27 32.85 30.68 29.10 28.88 30.03 26.50 28.38 27.90 29.76 29.61 26.89 26.07 27.67 29.48 30.30 30.76 31.91 32.12 32.27 32.23 33.05 32.94
48.43 47.86 47.95 48.51 47.33 45.50 40.61 37.90 37.73 37.58 33.97 26.95 27.26 32.02 34.88 35.49 35.32 35.48 35.73 34.95 32.77 31.17 28.68 27.40 27.62 27.44 26.94 25.00 25.56 24.43 27.94 27.28 25.49 24.96 29.73 28.78 29.38 32.30 32.48 30.53 30.41 31.80 31.20 31.41
47.86 47.72 47.88 47.48 46.69 44.40 38.40 33.68 37.21 38.93 36.70 29.48 25.90 32.47 32.63 34.69 35.25 34.52 33.62 33.57 32.02 30.69 28.24 26.58 27.59 29.46 27.38 21.96 21.44 26.47 28.93 30.50 30.94 29.36 31.34 31.62 32.81 32.75 31.64 29.73 30.63 31.14 31.36 31.12
47.53 47.23 47.35 47.49 45.44 39.37 35.22 33.27 36.20 41.36 37.03 30.12 25.09 23.45 31.11 32.94 32.70 32.45 32.42 32.54 30.86 29.76 27.98 27.09 26.60 27.05 27.83 25.76 22.46 27.64 29.70 31.78 31.89 31.55 31.17 28.91 29.90 28.79 29.65 29.42 30.41 31.68 30.52 30.30
47.06 46.62 46.85 45.33 44.25 41.23 34.80 36.27 42.29 39.37 33.23 29.40 19.08 24.88 25.87 32.02 28.45 27.98 31.83 29.27 29.36 28.98 27.70 28.03 26.61 27.52 26.85 23.26 27.54 29.23 31.41 31.44 30.68 30.13 29.81 29.77 30.06 29.17 29.14 29.60 29.44 27.80 27.22 27.39
47.54 47.14 45.93 39.45 36.90 32.87 32.57 42.27 41.29 36.78 32.43 23.30 19.16 19.03 19.28 30.24 29.86 29.82 29.66 29.87 25.98 29.17 27.19 27.17 27.87 25.64 21.44 27.12 28.39 29.26 30.25 30.15 29.89 30.15 29.62 28.79 27.50 27.70 27.70 27.38 27.27 26.06 26.25 27.07
46.94 42.14 36.38 31.48 34.75 42.22 41.24 36.01 31.14 30.89 29.19 26.91 22.24 19.96 22.89 27.43 29.95 28.82 25.98 28.93 25.54 15.26 26.57 27.82 26.12 24.95 29.62 29.13 30.57 31.27 30.93 30.80 29.89 25.93 23.97 25.40 22.76 25.47 25.04 25.68 26.80 26.74 26.58 26.86
37.12 33.95 32.04 35.97 40.48 34.95 31.94 27.93 24.71 26.39 21.91 25.79 23.55 22.38 24.71 29.08 22.45 27.51 28.62 27.81 28.27 21.35 21.25 23.03 20.86 22.71 26.45 28.68 29.04 29.76 29.42 29.24 28.93 28.34 28.09 27.87 26.61 25.37 25.19 25.43 26.60 27.48 27.34 26.23
38.17 36.53 37.37 35.51 32.33 27.82 23.75 17.92 24.37 23.86 20.04 25.55 24.82 24.90 27.32 27.69 29.69 26.58 27.34 20.97 26.53 15.10 30.40 25.79 20.39 24.42 27.57 28.11 28.04 28.40 28.38 27.77 27.61 28.05 27.52 27.80 27.81 27.03 25.98 25.70 26.04 26.65 27.34 27.61
37.30 32.88 28.96 28.55 22.04 20.49 16.74 18.70 20.79 22.81 24.68 25.20 25.87 22.91 26.87 27.88 29.11 26.02 23.27 17.63 16.77 27.84 24.47 16.92 21.23 25.69 26.89 26.78 27.18 27.46 25.22 24.26 25.71 26.66 26.83 27.07 26.53 27.30 25.96 25.12 25.71 25.98 25.81 26.67
29.64 26.69 21.26 21.56 19.23 20.68 22.89 24.30 20.84 23.91 24.04 25.01 25.59 24.42 25.52 27.49 24.36 24.59 16.35 25.80 25.83 15.66 8.44 14.73 18.42 24.43 24.99 25.35 26.29 26.40 24.96 24.60 23.05 22.44 24.55 24.74 23.86 23.36 24.54 24.96 25.08 25.23 24.78 26.17
24.11 25.96 17.16 15.61 24.56 26.10 25.18 17.70 22.95 25.50 28.21 25.94 23.64 23.14 24.87 21.08 20.83 23.88 23.00 22.02 9.35 14.73 15.31 18.51 19.72 24.43 24.35 24.42 25.49 25.06 24.21 23.97 23.42 23.43 21.13 19.39 19.96 20.70 22.37 23.75 24.25 24.24 24.77 24.73
25.42 21.26 20.81 25.72 22.00 21.57 18.70 23.33 25.60 25.22 26.62 24.60 24.24 18.45 16.77 18.18 19.50 14.59 11.06 12.38 11.17 15.84 16.81 22.32 22.84 24.16 24.09 24.42 26.13 25.97 25.04 23.74 23.92 23.98 24.44 24.80 23.60 22.91 22.49 23.35 22.58 22.46 23.34 23.58
24.25 22.60 27.82 23.52 23.10 20.60 22.10 25.31 26.17 27.59 25.22 18.40 18.42 13.24 14.37 19.92 13.38 14.30 17.09 13.73 18.36 18.84 20.65 21.02 23.78 24.14 24.58 25.13 25.52 25.61 24.99 23.64 23.04 23.00 23.26 21.97 23.44 18.12 15.58 18.89 22.84 22.66 24.36 23.84

GFSNW_sfc_wetblb_069.txt.gz
Wetbulb
50.27 50.74 51.06 53.54 51.46 52.28 49.11 43.64 35.83 45.10 45.32 36.87 36.62 31.84 35.88 40.05 37.38 38.19 36.59 34.90 33.77 30.50 31.25 30.49 30.45 31.71 34.30 39.39 38.20 33.39 34.80 32.00 28.80 29.94 36.37 37.98 35.30 32.14 30.47 23.88 24.37 23.03 21.67 25.23
50.05 50.42 50.14 51.63 52.02 52.02 46.25 40.20 39.80 45.44 45.07 30.30 30.94 37.82 38.33 38.52 37.02 37.45 36.49 34.70 35.91 35.76 31.83 30.24 34.57 34.58 39.47 40.52 37.35 33.74 35.21 27.89 19.48 23.77 29.63 35.04 34.11 34.74 33.69 31.69 28.52 23.78 19.21 23.77
50.22 50.23 49.81 51.80 51.74 52.42 46.59 40.12 34.48 40.33 42.27 37.69 34.57 36.50 35.79 35.39 39.95 38.54 39.11 36.41 36.66 34.24 32.46 34.19 34.03 34.54 39.70 40.01 38.89 43.53 39.22 30.07 25.61 21.12 25.12 31.18 29.35 33.20 33.23 30.19 22.45 25.73 26.29 27.03
49.57 50.31 49.66 52.01 51.19 52.51 47.37 38.81 34.25 38.37 32.93 34.47 36.19 36.30 37.89 35.37 34.74 37.43 38.81 35.39 35.61 33.28 29.11 31.63 34.14 37.97 36.93 38.82 40.82 37.47 34.66 26.44 26.36 30.22 32.38 32.13 31.24 32.44 33.53 29.59 31.71 26.74 29.47 29.61
48.44 50.19 49.48 51.28 51.00 52.34 45.48 38.16 34.18 36.32 34.45 34.49 35.52 36.69 34.86 36.11 35.70 35.25 34.20 34.32 35.53 34.49 31.59 31.56 31.32 37.10 34.20 32.20 36.16 34.08 34.12 24.92 27.54 24.00 29.87 30.23 29.52 31.30 32.73 32.86 31.90 31.64 32.03 30.61
48.22 49.38 49.05 49.31 51.16 51.09 43.71 41.72 38.27 36.22 36.57 32.17 33.74 33.80 34.88 35.98 37.23 36.79 37.79 37.42 35.28 33.85 34.44 35.52 35.30 36.63 37.31 35.94 33.58 32.66 31.25 27.76 23.07 21.27 26.45 27.47 23.86 26.69 29.95 31.57 32.02 32.02 29.69 32.22
48.75 48.78 49.63 50.91 51.54 50.08 43.59 39.25 37.02 33.76 31.26 32.98 33.82 36.89 37.75 37.05 36.53 35.36 35.80 37.98 35.94 37.64 39.86 37.35 37.12 36.10 35.25 34.93 33.90 35.88 30.58 27.50 23.91 17.94 22.60 14.89 25.64 30.89 32.36 30.69 30.47 31.58 30.84 30.44
49.59 49.14 51.95 51.63 50.70 48.27 41.42 38.10 36.68 34.69 29.80 32.82 34.61 38.02 36.63 36.13 34.85 33.95 35.09 35.99 36.51 39.20 36.24 32.40 30.03 29.28 31.57 32.21 32.81 33.44 33.26 29.24 23.58 19.37 17.78 23.42 26.70 30.74 30.62 29.41 28.67 30.03 29.78 30.88
49.01 49.11 50.41 50.71 51.00 49.34 40.64 37.08 36.70 36.05 34.09 28.73 29.73 36.70 35.53 31.97 30.07 31.82 34.31 38.08 39.23 38.47 34.41 30.75 24.29 22.66 25.53 25.75 27.67 34.60 32.23 30.61 26.55 23.64 19.92 18.83 25.86 31.36 32.71 33.10 25.21 30.90 31.40 30.39
48.79 50.82 50.51 50.64 50.47 51.08 41.93 36.44 37.20 34.61 28.66 28.28 31.92 35.15 35.56 35.67 31.77 30.42 32.28 33.65 35.73 36.78 30.72 28.85 26.33 23.76 28.67 24.45 24.95 25.78 27.95 26.28 23.49 22.65 20.40 25.02 29.64 31.49 32.97 23.23 24.65 30.96 31.58 31.17
48.82 50.80 50.59 49.97 49.65 49.63 42.02 35.74 37.13 34.30 28.39 29.04 31.89 33.04 32.75 32.93 32.69 31.44 32.98 33.77 34.50 33.39 29.79 29.06 27.53 25.97 27.26 24.93 26.13 25.79 26.07 23.05 23.29 23.92 21.20 19.42 30.46 31.41 28.61 29.49 30.80 31.70 31.13 30.84
49.78 50.90 50.31 49.82 49.81 47.33 42.96 36.36 37.41 37.08 31.63 29.99 32.99 32.79 33.33 33.22 32.59 32.71 31.70 31.89 32.72 33.89 30.86 29.44 28.43 27.79 25.81 25.37 23.61 26.86 25.45 27.63 26.14 26.89 26.16 29.14 29.86 29.97 31.37 31.99 31.13 30.29 29.37 30.86
51.05 50.66 49.99 49.24 49.76 46.70 41.87 35.65 34.70 34.17 30.07 29.56 31.16 30.30 34.65 36.08 34.45 35.49 32.91 31.96 34.51 33.21 32.86 31.28 29.79 28.76 28.30 24.44 25.18 23.64 26.63 29.22 27.71 27.72 27.24 27.51 29.08 30.49 31.07 30.60 30.56 31.39 31.91 31.43
50.26 49.91 48.94 49.06 49.93 46.26 41.85 36.09 36.25 34.53 31.63 27.90 28.94 35.13 33.89 35.87 35.38 35.53 35.39 34.84 34.19 33.62 32.68 29.93 29.03 28.68 28.90 25.94 27.22 26.87 29.06 29.02 26.62 25.23 25.99 27.13 30.45 29.98 30.64 31.35 31.38 31.02 31.52 31.17
49.31 48.45 47.87 49.39 48.64 45.53 39.91 37.68 37.05 36.36 34.16 27.14 27.84 31.79 35.32 35.41 35.08 34.86 35.25 34.55 32.62 30.50 28.05 26.54 27.21 27.32 26.52 23.97 25.34 24.50 27.44 27.39 25.98 26.10 28.72 28.45 28.17 31.29 31.74 30.02 29.33 30.54 29.40 29.47
47.84 48.12 48.90 47.97 46.38 44.48 38.05 33.80 36.92 37.66 36.07 30.12 25.45 31.78 31.58 33.70 34.41 33.67 32.96 32.87 31.18 29.33 28.29 25.94 26.93 28.67 26.76 22.47 21.59 25.61 27.50 29.15 29.45 28.59 29.98 29.98 30.85 31.61 30.48 28.66 29.71 30.22 30.01 30.18
48.08 48.92 48.44 47.94 45.51 39.18 34.22 32.94 36.17 40.10 36.69 30.10 25.29 24.17 30.85 31.00 31.39 31.84 31.73 31.63 29.77 29.56 28.04 26.81 25.67 26.26 27.28 25.08 22.00 26.52 28.41 29.80 30.38 30.09 30.60 28.51 28.24 28.33 30.14 28.17 29.41 31.03 29.37 29.00
47.96 47.99 46.45 45.68 44.76 41.11 34.54 36.82 42.17 38.00 31.66 30.18 21.58 26.12 26.20 31.31 28.77 28.39 31.01 28.90 28.75 28.78 27.26 27.31 26.13 26.92 26.33 22.75 26.67 27.16 30.21 29.73 28.76 28.76 28.26 28.38 30.04 29.04 27.22 27.69 28.33 26.92 26.64 26.45
47.51 46.44 45.09 39.61 35.50 33.52 33.34 42.92 40.18 36.23 32.90 22.86 21.74 20.58 21.38 30.11 28.86 29.72 29.35 29.55 24.89 28.53 26.60 26.75 27.39 25.21 20.75 26.25 26.76 28.68 29.78 29.47 29.45 29.10 28.28 27.82 26.44 25.83 25.83 24.71 25.70 24.49 25.05 25.54
46.62 41.01 35.27 31.68 34.66 42.03 41.35 34.96 30.99 30.72 29.97 28.23 22.73 21.94 26.39 27.32 27.54 26.41 25.12 27.38 24.05 14.50 26.03 27.34 25.85 24.54 29.28 28.91 29.50 30.84 30.83 30.52 29.22 25.85 23.76 25.17 22.32 24.54 23.36 23.99 24.90 24.95 25.12 25.71
37.35 33.11 30.52 34.94 40.46 34.83 30.00 24.87 24.18 24.74 22.74 27.23 24.87 25.44 26.34 29.10 23.11 23.66 27.79 19.81 22.64 13.97 19.77 22.61 18.86 22.41 25.74 28.23 28.62 29.81 29.33 28.66 27.58 26.34 27.55 27.37 25.66 24.97 24.07 24.46 25.20 25.80 26.20 26.02
37.91 36.17 37.27 35.17 31.49 28.33 21.05 15.02 21.82 22.64 21.81 26.15 25.86 25.58 27.47 28.00 29.31 26.36 26.18 20.39 20.94 14.55 27.38 24.40 16.79 22.63 27.02 27.71 27.58 27.49 27.61 27.78 27.66 27.81 26.52 25.92 27.39 25.75 25.11 24.66 24.48 24.90 26.01 26.71
37.18 33.14 27.53 27.12 23.17 16.14 13.84 16.96 15.78 16.99 25.98 26.20 25.71 22.89 26.71 27.82 29.04 26.09 23.46 19.00 17.68 28.25 23.87 16.00 19.31 24.96 26.72 27.19 27.19 26.60 24.90 25.52 25.87 25.34 25.74 26.27 25.68 26.16 24.80 23.89 24.12 23.91 23.64 24.50
29.70 26.55 21.15 18.76 12.32 17.07 17.79 20.94 24.98 26.13 25.86 25.55 25.09 25.07 25.28 26.36 22.93 23.64 14.60 25.94 25.56 17.01 11.42 13.26 17.33 24.29 26.31 25.91 25.69 25.38 24.29 24.80 22.15 21.46 23.63 23.98 22.74 22.12 23.43 23.99 23.77 23.46 23.07 24.66
26.62 24.73 20.80 15.06 22.27 27.10 24.58 24.17 23.70 25.08 29.55 26.08 23.59 23.67 24.33 21.80 20.99 23.78 24.72 21.43 9.30 13.45 14.46 17.73 19.84 24.66 25.06 23.91 24.36 24.06 23.77 23.83 23.24 22.24 20.35 17.47 17.82 18.78 20.82 22.24 22.76 22.92 23.22 23.02
23.19 20.51 19.64 25.23 23.75 22.43 18.11 17.88 21.47 23.90 25.87 24.99 24.62 20.18 18.72 18.42 19.78 15.49 11.42 11.49 9.89 15.27 16.35 21.32 21.74 24.31 23.15 23.30 24.44 24.95 24.84 23.74 23.25 23.10 23.31 23.80 22.79 21.93 20.72 21.14 20.21 20.61 21.72 21.79
21.69 22.47 27.59 23.98 23.34 23.89 24.54 25.34 25.45 26.59 24.46 19.50 20.41 15.58 16.12 20.05 13.84 14.53 17.19 14.76 17.49 18.41 19.23 21.00 23.32 24.00 23.20 23.52 25.46 25.96 25.28 23.26 22.22 21.96 22.50 21.28 22.75 15.84 14.89 17.98 20.98 21.19 22.53 22.14

GFSNW_sfc_wetblb_072.txt.gz
Wetbulb
49.46 50.28 50.52 50.49 51.09 51.02 48.61 43.49 34.31 45.72 45.88 37.20 37.04 31.75 33.98 39.13 36.18 37.18 35.93 33.73 32.79 29.33 29.94 29.25 29.28 30.81 34.23 39.00 37.44 32.44 33.31 30.75 28.79 29.53 34.54 36.99 36.72 31.11 28.80 23.32 24.09 22.78 23.97 25.61
49.34 50.04 50.20 51.06 51.64 50.97 46.38 38.89 39.03 45.94 45.21 31.67 32.51 34.81 36.50 36.84 35.67 35.62 35.33 33.85 35.08 34.53 30.99 29.33 32.14 33.54 38.73 38.91 36.50 32.47 33.84 26.74 18.13 23.55 28.92 33.21 31.78 33.07 32.16 29.55 26.41 22.16 20.31 24.12
49.46 49.85 49.87 50.04 51.85 51.20 46.51 39.64 32.85 39.28 41.72 39.04 30.06 32.70 33.92 33.58 38.39 37.37 37.53 35.09 36.03 33.16 30.84 33.02 32.24 32.97 38.46 39.00 38.58 42.25 37.81 28.47 24.82 20.15 24.63 30.08 29.76 31.39 31.62 28.82 21.26 24.90 24.14 25.46
49.44 49.32 49.62 50.18 51.92 51.36 46.38 39.69 35.51 39.04 32.86 35.22 32.05 34.00 35.55 33.56 33.80 36.74 37.48 34.50 34.30 32.26 28.42 30.03 31.79 34.83 35.17 37.42 39.62 35.97 33.50 26.14 24.93 27.83 31.03 31.23 31.34 31.34 31.78 26.73 28.85 24.53 28.10 28.43
49.59 48.69 49.92 50.52 51.95 52.28 45.01 38.08 35.87 36.65 35.02 33.40 32.24 36.70 33.65 33.89 34.62 34.75 33.14 33.36 34.75 33.36 30.96 30.28 30.60 34.61 31.99 30.69 35.05 32.39 32.93 24.11 26.70 24.04 28.40 29.16 29.25 30.15 31.63 31.30 30.90 30.57 29.27 27.71
49.35 49.18 49.57 49.36 50.08 50.96 44.06 41.76 40.07 37.14 36.23 31.69 31.45 33.31 35.79 36.23 36.34 36.17 36.84 36.21 34.08 33.16 33.77 34.43 34.08 35.85 35.18 34.36 31.80 31.31 29.88 27.03 22.42 20.83 25.62 26.66 23.61 26.38 29.37 30.30 30.47 31.63 28.48 31.72
49.04 48.72 49.68 50.15 50.16 49.80 44.34 41.12 38.11 34.40 31.82 31.77 32.85 35.18 36.32 35.67 35.25 34.57 34.95 36.63 34.89 36.10 37.59 36.05 36.08 35.32 34.53 34.01 32.85 33.99 29.32 26.61 23.21 17.82 22.47 15.25 25.71 29.76 30.89 30.42 29.84 29.96 29.55 29.92
48.60 49.57 49.93 50.98 49.76 49.53 42.86 39.55 38.26 34.41 31.82 31.12 33.48 36.33 34.34 33.97 33.78 33.34 34.30 35.50 35.57 38.02 34.93 31.86 29.71 29.09 31.11 31.54 31.75 32.12 31.98 27.85 22.56 18.92 17.11 22.68 25.19 29.48 29.22 28.06 28.87 30.12 29.24 29.89
48.61 49.77 50.94 51.91 51.47 48.05 41.12 38.30 37.87 33.76 32.53 31.45 28.55 36.22 34.10 31.21 29.31 31.28 34.41 37.55 38.52 37.26 33.00 29.69 23.72 22.02 24.61 25.07 26.67 31.48 31.23 29.71 26.24 23.08 19.38 18.02 24.04 30.20 32.38 32.10 24.24 29.87 30.64 30.00
48.61 50.17 51.50 51.14 50.63 48.69 41.79 37.79 36.36 33.04 28.18 27.53 29.52 34.58 33.34 33.56 31.37 29.92 31.52 32.87 35.17 35.48 30.33 28.62 25.78 22.70 26.14 23.64 23.89 24.63 27.03 25.36 22.81 22.34 19.95 24.06 28.14 31.07 32.22 22.73 24.10 29.76 30.80 30.47
48.62 50.38 51.35 51.28 50.12 47.90 42.31 35.83 35.74 33.37 28.38 28.71 32.68 33.30 32.46 32.56 32.72 31.28 32.74 33.43 34.22 32.75 29.30 28.63 27.07 25.48 25.69 23.19 23.83 23.82 25.79 22.56 22.55 23.08 20.12 17.84 29.42 30.75 26.88 28.82 29.20 30.77 30.31 29.89
49.01 51.14 50.91 51.21 50.35 47.71 43.25 34.85 36.71 36.18 31.24 29.61 34.12 34.34 34.89 32.42 31.79 32.64 31.16 31.70 32.11 33.27 30.38 28.84 27.96 26.87 24.68 24.23 22.07 25.44 24.36 27.03 25.36 26.24 25.58 28.62 28.57 28.48 29.84 31.06 30.41 28.72 29.08 29.92
48.39 51.17 50.72 50.58 50.33 47.48 42.46 35.58 34.22 33.89 30.01 30.48 32.62 30.75 33.99 35.34 33.56 34.49 32.75 31.82 33.98 32.61 32.25 30.52 28.93 28.43 27.71 23.93 24.62 22.60 25.51 28.26 27.23 27.23 26.56 27.05 28.03 29.07 29.89 29.58 29.57 30.69 31.14 31.23
49.93 51.13 50.21 49.93 47.63 45.69 42.20 36.89 34.98 34.11 31.53 30.96 30.53 34.95 32.94 36.26 34.95 34.97 34.76 34.63 33.67 33.23 32.22 29.65 28.81 28.49 28.34 25.42 25.98 26.05 28.58 28.31 26.10 25.88 26.39 26.59 29.63 29.96 30.67 30.68 31.13 30.85 30.90 30.41
50.34 50.04 49.55 50.21 46.99 45.45 40.64 38.01 36.48 35.34 33.98 27.37 28.02 32.04 35.92 35.55 34.54 34.43 34.85 34.12 32.24 30.39 28.18 26.84 27.28 27.20 26.23 23.29 25.05 24.22 27.33 27.35 26.41 26.43 29.02 28.58 28.31 30.75 31.37 29.86 29.52 30.04 27.91 27.35
49.20 48.93 49.97 48.72 47.11 44.28 37.86 33.50 36.43 36.73 35.61 29.88 28.69 31.63 32.62 34.70 33.62 32.89 32.31 32.12 30.18 28.67 28.28 25.98 26.61 28.04 26.62 23.02 22.18 25.89 25.98 28.17 28.24 27.96 27.53 29.09 28.96 30.44 29.83 28.32 28.32 27.96 28.33 28.53
48.91 49.04 48.12 46.08 44.83 38.83 34.80 33.00 35.95 39.17 35.96 29.72 24.35 24.48 30.92 32.68 31.52 31.14 31.17 30.80 29.17 28.95 27.36 26.56 25.16 25.86 26.64 24.26 21.34 25.94 27.96 29.22 27.75 29.28 30.39 27.60 28.13 28.07 29.76 27.56 27.93 29.53 27.63 28.23
48.87 47.50 46.67 45.53 44.68 41.11 35.34 36.47 41.06 36.91 31.61 29.90 21.26 25.34 26.13 31.61 28.85 27.99 30.23 28.68 28.45 28.22 26.83 26.86 25.64 26.35 25.70 22.40 26.03 25.75 28.81 29.05 27.96 29.08 27.09 27.44 29.15 28.53 27.13 26.98 27.26 25.50 25.92 25.83
47.15 46.53 45.30 39.96 36.22 33.32 34.11 41.82 39.37 35.37 31.83 22.92 22.05 21.48 20.10 30.56 29.03 29.37 29.56 29.10 24.46 28.22 26.13 26.59 26.94 24.50 20.42 25.89 25.70 27.27 29.20 29.02 28.85 28.44 26.72 26.40 24.84 24.95 24.59 23.93 24.11 23.10 23.54 24.00
45.75 40.05 35.33 30.49 33.28 42.26 40.72 33.75 30.58 29.78 29.18 27.36 20.04 23.35 24.46 27.43 27.53 26.67 25.30 27.32 24.74 15.78 25.41 27.14 25.49 24.26 28.44 29.00 28.68 29.58 30.74 30.02 29.04 25.84 23.98 25.08 21.98 24.36 22.42 23.69 24.13 23.48 23.55 23.88
36.98 32.67 30.31 33.94 40.05 33.31 29.46 23.74 24.33 25.96 23.31 26.66 24.31 26.07 26.02 29.00 23.18 24.33 27.78 18.00 21.01 15.05 19.04 22.20 18.94 21.73 24.91 27.39 28.00 29.25 29.84 29.18 27.88 25.01 26.38 26.58 24.35 24.53 23.73 24.06 24.59 24.90 24.84 24.49
37.55 36.23 36.58 33.82 29.73 24.67 18.53 13.43 23.09 22.10 22.12 25.20 25.97 25.26 28.02 27.59 28.98 26.33 26.42 19.46 18.24 13.26 23.10 21.68 15.97 21.96 26.28 26.83 26.42 26.49 27.06 26.92 26.67 26.14 25.80 25.13 27.00 25.19 24.65 23.96 23.73 23.96 24.64 25.11
37.28 32.68 25.89 25.71 20.59 15.12 12.68 11.70 13.43 16.19 24.82 26.04 26.66 23.61 26.62 27.68 28.86 25.81 22.14 16.37 15.45 26.09 23.29 14.93 19.06 24.14 25.86 26.41 26.23 25.67 23.97 25.21 25.91 25.55 25.60 25.67 25.00 25.71 24.10 23.30 23.30 22.38 21.95 22.47
29.98 25.08 20.31 20.77 13.05 16.82 18.83 18.83 19.56 25.39 25.67 26.03 25.36 25.79 26.00 26.22 24.01 23.75 14.22 25.47 24.57 16.67 14.83 13.10 17.19 22.25 25.65 25.82 25.92 25.49 24.43 23.62 20.62 21.26 23.15 23.40 23.13 21.67 22.35 23.15 22.92 22.52 22.12 23.67
25.99 23.72 19.60 16.89 22.18 25.88 24.40 17.93 21.98 24.58 29.74 26.00 24.91 24.35 24.16 20.64 20.84 24.62 24.59 20.87 14.43 13.44 14.39 17.28 18.76 23.68 25.07 24.91 24.26 23.83 23.13 22.93 23.20 22.29 19.65 17.47 17.25 17.87 20.16 21.50 22.03 22.08 22.33 22.00
23.59 16.34 16.04 23.94 21.75 23.21 20.61 15.76 19.81 23.28 26.01 25.97 23.36 18.98 18.51 20.38 21.35 16.26 11.03 12.09 11.83 16.01 16.01 20.23 20.61 24.66 23.91 23.89 24.07 23.98 23.65 23.54 23.55 22.91 22.71 23.11 22.19 21.29 19.88 20.10 20.17 20.75 20.85 20.48
17.46 16.92 25.22 22.74 19.85 20.47 21.20 23.20 25.08 26.26 23.37 17.90 17.72 14.04 14.89 19.46 13.24 14.16 17.23 15.58 19.49 18.57 18.67 19.89 23.20 24.46 23.19 22.88 24.22 25.41 25.38 23.79 22.40 21.37 21.71 20.05 21.56 14.25 14.59 17.62 22.96 20.86 21.59 21.28

GFSNW_sfc_wetblb_075.txt.gz
Wetbulb
50.06 49.89 49.98 50.12 50.72 50.18 48.26 42.39 33.87 45.93 47.05 35.48 36.81 31.15 33.12 38.51 35.26 36.51 34.75 33.78 32.20 29.58 29.60 30.05 30.32 31.05 34.51 38.53 38.45 32.79 34.86 32.40 28.33 31.30 35.39 37.00 36.18 32.36 29.63 27.43 25.04 24.25 25.09 25.92
49.80 50.01 50.03 49.58 51.04 50.25 45.45 37.30 38.37 46.21 45.27 32.04 32.71 35.29 35.21 35.86 34.73 34.37 33.93 33.56 34.77 33.91 31.26 29.71 32.87 35.72 39.08 38.62 36.61 33.22 34.17 28.16 20.56 26.33 30.67 33.96 33.39 34.09 31.65 29.39 27.96 23.99 23.25 25.87
50.27 50.24 49.71 49.93 51.05 50.64 46.03 38.88 32.09 37.99 41.47 39.15 33.86 34.56 32.04 32.22 37.17 36.54 36.19 34.75 35.38 32.78 31.09 32.60 32.76 32.89 38.03 38.41 38.44 41.31 36.89 28.96 25.72 22.35 26.70 31.29 31.42 32.73 32.13 29.66 24.94 26.43 26.06 27.67
49.99 50.03 49.59 50.25 51.02 50.17 45.40 39.19 35.43 38.17 32.08 35.01 34.66 35.29 33.67 32.55 32.33 36.19 36.53 34.26 33.61 31.84 28.07 29.17 31.54 34.44 35.07 36.96 38.61 35.51 33.58 26.84 25.33 27.80 30.33 32.69 32.32 32.40 32.02 28.50 29.34 27.17 28.83 29.16
49.96 49.78 49.92 50.08 50.66 50.66 44.19 37.34 36.03 38.28 34.98 35.21 34.23 35.97 30.87 32.63 32.93 33.84 32.49 33.22 33.68 32.57 30.04 29.88 29.04 33.88 32.09 30.90 34.51 32.71 32.54 25.02 27.00 24.00 28.88 30.47 30.38 31.75 32.04 32.59 31.31 30.63 29.73 30.65
49.82 49.82 49.34 49.96 50.24 50.24 43.65 42.15 40.82 37.59 35.91 33.58 33.61 34.27 32.87 34.25 35.15 35.77 35.83 35.62 33.51 32.58 33.14 34.09 34.00 35.12 34.13 33.87 32.55 30.87 29.65 27.06 22.74 21.48 25.67 27.30 24.47 27.34 30.89 31.84 32.00 31.48 29.08 32.34
49.67 49.27 49.46 50.51 51.10 49.20 44.82 40.65 38.16 35.17 32.06 33.84 34.05 36.57 35.78 34.27 33.96 33.65 34.10 35.69 34.16 34.96 36.54 35.79 35.65 34.61 33.72 33.81 32.92 32.75 29.18 26.51 23.46 19.44 23.82 16.90 26.47 30.81 31.45 31.60 31.54 31.68 31.17 31.42
49.43 49.09 49.94 51.33 51.40 48.97 42.71 38.71 38.42 36.11 32.09 32.94 35.47 36.93 34.81 32.78 33.12 32.52 34.03 35.14 34.77 37.08 34.28 31.52 29.76 28.92 30.30 30.81 30.81 30.68 31.27 27.62 22.99 20.82 18.82 23.64 26.04 30.01 29.91 29.20 29.40 31.15 29.78 30.76
49.78 49.45 50.71 51.03 50.79 47.88 41.43 38.18 37.93 37.37 33.21 31.19 29.15 35.05 34.75 30.36 27.85 31.20 34.24 36.97 37.64 36.38 31.97 29.24 23.56 21.49 24.45 25.67 28.31 31.05 31.13 29.50 26.48 23.49 20.03 18.54 25.69 30.58 32.76 32.64 25.03 30.79 31.49 30.97
48.81 49.89 51.41 51.08 50.07 48.05 41.72 37.13 35.15 33.35 29.17 30.26 31.16 33.27 32.80 31.78 30.69 29.81 30.57 32.21 34.62 34.49 30.16 28.39 25.41 22.20 25.77 23.47 23.82 25.16 26.48 25.26 23.38 23.36 21.05 24.68 28.74 31.22 32.71 24.04 25.34 31.08 31.75 31.53
48.94 51.42 51.30 50.13 49.15 47.25 41.85 35.12 34.63 33.47 28.33 30.10 32.73 32.17 31.56 32.27 32.33 31.34 32.74 33.09 34.41 32.24 29.06 28.28 26.56 25.11 24.83 22.95 23.31 23.60 25.63 22.95 23.01 23.52 21.11 17.86 29.39 31.05 28.02 29.86 30.41 31.70 31.64 31.81
48.73 51.44 51.22 50.64 50.11 47.43 43.12 36.73 36.71 36.07 31.06 29.73 32.75 32.84 32.90 31.16 31.32 32.54 30.77 31.78 31.47 32.81 29.87 28.32 27.78 26.20 23.80 23.06 21.74 24.95 24.37 27.06 25.41 26.25 25.94 29.28 29.99 30.18 31.08 31.50 31.33 31.25 31.07 31.90
49.19 51.27 51.23 50.74 49.83 47.32 41.96 33.92 33.70 33.97 30.91 30.37 33.09 31.37 34.59 35.18 33.47 33.73 32.88 31.54 33.61 31.94 31.74 29.84 28.68 28.06 27.52 23.83 24.32 22.63 25.36 28.16 27.27 27.56 27.58 28.69 29.75 30.33 31.19 31.43 31.09 31.88 32.06 32.01
49.28 51.34 51.20 50.99 48.98 46.69 42.54 35.14 34.04 33.99 33.39 30.80 30.04 35.24 32.29 36.03 34.37 34.33 34.42 34.32 33.42 32.97 31.73 29.64 28.75 28.44 28.15 25.35 26.13 25.92 28.51 28.55 26.53 26.44 27.82 27.75 29.82 30.37 31.17 31.47 31.60 31.43 31.61 31.22
48.48 50.80 49.82 48.37 47.06 45.36 39.48 35.87 35.41 34.96 34.11 27.96 29.29 33.22 35.41 35.00 33.93 33.93 34.30 34.04 31.92 30.26 28.15 26.79 27.42 27.19 26.08 23.05 24.84 24.06 27.67 27.99 27.06 27.09 29.73 29.28 29.13 30.44 31.62 30.37 30.01 30.47 29.42 28.56
47.50 50.05 50.15 48.35 45.90 42.97 37.28 33.28 35.89 36.20 34.80 29.90 30.15 31.16 32.12 34.76 34.52 32.40 31.87 31.32 29.25 28.63 28.39 25.99 26.46 27.46 26.84 23.46 22.71 27.86 27.32 27.67 28.93 28.15 27.76 28.95 29.14 30.43 30.50 29.19 29.33 29.50 29.43 29.44
48.85 49.64 48.74 47.29 45.17 38.79 34.44 32.40 35.59 38.98 34.94 29.75 24.13 23.85 30.74 32.53 33.40 30.63 30.74 30.29 28.86 28.72 26.88 26.34 25.23 25.90 26.50 23.79 21.21 26.40 25.96 27.37 27.52 27.68 29.86 27.69 29.11 28.76 30.34 29.14 28.96 30.19 28.93 28.33
48.83 47.34 47.20 46.78 45.47 41.52 35.06 36.36 40.95 36.55 31.36 30.02 21.23 22.57 25.75 31.18 28.11 27.77 29.35 28.10 28.27 28.18 26.69 26.36 25.20 25.97 25.22 22.15 26.04 24.84 27.85 28.74 28.33 28.75 27.07 27.65 28.72 28.53 28.32 28.26 27.35 26.08 25.44 25.01
47.76 46.85 45.59 39.05 34.91 31.92 33.86 41.76 39.11 34.60 31.26 23.35 21.85 20.96 19.07 30.15 28.47 28.83 29.07 28.54 24.57 28.22 25.90 26.10 26.43 23.57 19.90 25.77 25.28 25.92 28.08 28.66 28.82 28.18 27.08 26.87 26.05 26.43 25.86 24.51 24.11 23.03 23.22 23.51
46.64 38.64 34.20 29.90 32.24 41.96 39.35 33.58 30.69 28.85 28.73 27.34 20.68 23.33 21.21 27.40 26.65 26.47 25.52 26.27 23.83 15.41 24.87 27.00 24.98 23.90 27.87 27.73 27.38 28.26 29.63 29.60 28.49 25.95 24.12 25.05 22.20 24.77 22.60 23.54 24.03 23.33 23.14 23.38
35.88 31.48 28.90 33.52 39.70 32.33 28.39 24.58 23.87 25.62 23.76 26.51 24.78 23.82 25.48 28.74 23.09 24.27 27.64 18.06 19.02 13.18 18.90 22.05 18.83 21.05 24.47 26.35 27.31 28.23 29.36 29.08 27.59 25.30 25.99 26.67 24.42 24.05 23.41 23.86 24.29 24.63 24.46 23.97
36.28 34.66 35.71 33.04 28.87 23.78 18.87 14.27 22.00 22.79 21.36 24.58 25.10 25.86 27.27 26.78 28.32 26.84 25.89 18.96 18.97 12.97 21.25 22.39 15.39 21.38 25.48 26.10 26.01 26.21 27.84 27.82 26.71 26.06 25.73 24.79 26.42 24.66 24.37 23.72 23.50 23.59 23.99 24.45
36.35 30.78 25.48 26.01 21.19 15.46 13.30 13.03 14.77 16.82 24.48 25.98 27.12 25.55 26.64 27.32 27.60 25.07 21.15 16.08 16.65 23.16 18.98 14.22 18.00 23.05 25.18 25.33 25.66 25.12 23.63 25.43 26.33 26.08 25.49 25.02 24.08 25.10 23.83 23.18 23.12 22.11 21.25 22.18
29.03 22.78 20.13 21.02 13.36 17.62 19.80 18.57 18.83 22.27 23.66 25.92 25.01 26.16 26.26 26.12 23.56 24.65 14.16 24.21 23.14 14.67 10.57 12.76 16.28 21.34 24.28 25.22 25.81 25.47 24.19 23.93 20.39 20.92 22.27 22.72 22.33 20.73 21.67 22.68 22.74 22.26 21.83 23.76
28.25 23.58 18.97 17.99 23.06 18.23 21.05 17.12 19.47 22.51 27.82 26.49 23.89 25.24 25.84 22.57 20.57 24.97 23.07 19.35 13.03 12.52 14.28 16.93 18.04 22.87 24.25 24.41 24.54 24.49 23.88 22.79 22.75 21.70 20.07 17.04 16.23 16.49 19.52 21.41 21.62 21.48 21.89 21.90
20.78 15.37 14.36 20.43 17.55 15.50 23.52 22.42 23.37 23.91 26.93 23.83 24.45 21.06 17.04 17.53 19.94 15.78 13.52 12.15 11.08 15.57 15.89 19.99 19.41 23.89 23.51 24.07 24.50 23.87 23.01 22.71 23.27 23.17 22.55 22.44 21.41 20.47 19.17 19.19 19.33 19.77 20.43 20.46
21.97 16.73 23.46 21.60 17.88 19.85 21.97 23.34 24.19 26.08 23.88 19.19 19.32 14.60 17.67 18.55 10.49 13.09 15.79 14.14 17.41 17.61 17.21 18.47 22.29 23.97 23.10 23.08 23.87 24.29 24.62 23.66 22.30 21.07 21.06 18.96 20.36 13.01 11.74 15.15 19.71 19.98 21.05 20.33

GFSNW_sfc_wetblb_078.txt.gz
Wetbulb
50.46 50.20 50.38 50.11 50.66 49.80 47.42 42.60 33.83 44.93 47.92 35.15 36.49 34.39 35.73 39.02 38.25 40.38 38.54 38.45 36.39 35.67 36.03 35.45 35.20 34.99 37.39 42.01 41.28 37.09 39.49 37.82 32.91 34.80 39.30 39.87 39.58 37.20 36.04 34.60 28.84 30.72 33.23 30.57
50.78 50.59 50.26 49.88 50.64 50.09 46.02 37.67 38.14 46.48 46.15 32.16 33.70 37.36 37.10 38.53 37.63 37.73 37.88 36.99 38.69 38.39 36.57 34.18 37.18 37.80 41.88 42.45 40.88 38.56 39.41 35.65 32.09 33.55 37.42 39.35 37.91 37.58 36.37 35.54 36.10 29.85 31.19 30.81
50.90 50.70 50.56 51.18 50.73 50.37 47.38 40.28 32.60 37.41 39.81 40.35 36.73 35.71 35.34 35.07 40.32 39.18 39.44 38.20 39.69 38.05 36.67 39.03 36.67 37.50 40.91 42.04 41.80 40.82 40.60 35.42 32.01 30.75 31.89 36.37 35.52 36.61 37.45 36.74 34.36 33.32 32.91 32.43
50.40 50.21 49.86 50.96 51.11 51.49 47.89 40.02 35.36 38.06 33.62 36.03 36.74 36.87 36.70 35.13 35.12 40.16 40.23 38.24 38.30 37.38 34.66 36.06 36.19 38.61 39.21 40.86 40.73 40.17 39.83 33.05 32.60 33.93 34.78 36.32 36.24 36.18 36.91 34.96 34.76 33.87 34.27 35.39
50.25 50.02 49.92 50.24 50.81 50.89 45.44 38.06 37.54 39.16 38.12 38.58 35.60 37.31 36.01 35.74 36.67 37.81 37.01 36.99 37.61 39.17 35.82 36.70 35.55 38.07 38.35 37.37 40.78 38.44 39.00 34.13 32.98 32.86 34.79 36.28 34.36 36.27 37.02 36.77 35.85 35.87 36.23 35.34
50.04 50.33 49.80 50.60 51.28 50.25 44.63 43.59 43.02 41.10 36.94 36.82 36.11 36.56 37.47 37.41 39.39 39.51 39.50 39.88 39.13 37.65 37.61 40.69 41.22 42.20 40.62 39.62 38.68 36.41 36.25 35.03 33.47 29.82 32.03 33.38 32.26 32.22 35.17 36.16 36.92 36.49 34.94 36.93
50.09 50.45 49.91 51.18 51.05 49.23 47.30 43.83 43.05 39.54 33.50 36.77 36.28 37.65 39.07 37.89 38.19 37.82 38.27 40.47 39.83 39.55 42.40 41.81 42.91 41.98 41.01 40.59 38.56 38.82 36.06 33.96 33.19 31.56 31.79 26.33 32.30 36.58 35.59 34.82 36.06 37.01 36.90 37.24
49.89 49.55 50.92 51.66 50.31 48.18 45.30 42.73 42.52 40.46 34.29 37.36 37.41 37.76 37.48 38.81 39.23 37.76 38.10 39.22 40.71 42.56 40.85 38.58 35.14 36.23 36.65 36.90 36.99 37.33 38.38 35.62 31.20 31.26 30.65 30.20 31.36 34.42 34.55 34.21 34.41 36.69 36.30 36.52
49.90 50.93 51.85 51.34 48.30 46.45 43.21 40.02 41.40 42.96 39.17 33.43 31.21 36.38 38.90 38.27 37.67 38.14 38.64 42.06 43.49 41.88 39.13 36.23 29.69 29.12 30.64 31.36 33.96 37.65 37.46 37.79 35.94 31.73 26.85 25.68 32.49 35.90 37.97 37.94 31.94 36.76 37.00 37.25
49.50 51.54 51.76 50.71 50.01 46.69 43.50 39.36 39.90 41.75 35.63 33.23 33.01 35.69 36.26 38.12 38.51 37.60 38.88 39.60 40.96 41.36 38.45 33.76 31.96 30.58 32.33 29.99 29.92 31.12 33.57 34.00 31.59 31.96 30.16 32.06 35.13 37.04 37.74 29.84 32.06 36.94 37.70 38.30
50.06 51.22 51.02 50.63 48.18 46.37 43.01 38.96 39.76 40.81 35.36 33.62 34.36 34.46 35.42 38.46 39.18 38.85 39.03 39.26 40.39 39.93 35.52 34.90 33.50 33.05 32.79 31.95 32.06 32.07 32.00 31.83 31.71 30.89 29.13 26.23 36.48 36.41 33.49 36.34 35.88 37.91 37.58 38.26
50.84 51.03 50.58 49.72 47.91 46.20 43.69 39.78 40.02 40.18 38.02 34.69 36.51 36.28 37.19 35.66 36.04 39.02 37.95 38.12 37.89 39.72 37.73 36.67 35.62 32.99 33.09 31.99 30.65 33.56 30.88 34.38 33.63 33.57 34.04 35.50 36.91 37.34 37.62 37.65 37.93 37.07 37.95 37.89
51.08 51.26 50.97 50.85 48.60 46.59 44.06 40.32 39.90 40.89 37.05 36.24 36.82 35.07 37.93 38.85 37.67 38.12 39.54 39.24 39.43 38.50 38.76 39.06 37.25 33.71 35.50 32.56 32.93 32.88 34.28 34.74 34.16 33.50 35.17 35.78 36.69 36.90 37.26 37.51 37.50 37.60 37.68 37.29
51.53 51.84 51.19 50.55 48.64 46.99 44.48 41.14 39.90 41.36 39.82 36.63 34.12 38.69 36.90 39.80 38.93 37.86 38.52 39.05 38.94 39.16 39.77 38.85 37.85 35.61 34.86 34.41 33.23 33.46 35.91 34.75 34.46 34.50 36.07 34.78 36.47 36.85 37.64 36.83 36.35 35.94 36.12 35.84
50.60 51.22 51.49 49.68 47.53 45.09 42.45 41.05 39.74 39.90 40.66 34.76 34.05 35.91 37.80 39.04 38.66 38.24 38.98 39.18 38.81 39.25 39.12 38.30 36.25 34.88 33.89 32.27 32.59 32.77 35.28 36.23 34.62 35.34 36.61 36.58 35.78 35.94 37.33 35.99 35.37 35.55 34.57 33.64
48.41 50.07 48.88 47.03 45.23 43.50 42.39 39.86 41.09 40.81 40.84 38.51 33.85 36.24 35.55 36.76 37.71 36.90 36.18 36.16 35.87 37.03 37.46 34.37 33.61 32.69 33.75 32.35 31.75 36.77 36.36 35.74 36.02 36.54 34.66 34.79 34.78 35.03 35.67 35.41 34.72 34.31 34.13 34.05
49.32 50.25 48.82 47.25 45.40 43.06 39.23 37.69 40.11 41.15 40.81 37.20 32.76 32.76 35.11 34.96 36.09 36.15 36.65 35.85 35.12 36.63 34.11 33.23 33.37 33.23 33.95 32.13 30.75 34.55 33.13 34.98 34.08 34.68 35.30 34.05 34.23 34.46 34.98 34.68 34.06 34.15 33.49 32.95
50.03 48.89 48.11 46.90 44.89 42.73 39.37 40.85 42.35 40.02 37.10 36.28 30.41 30.70 32.15 35.11 33.86 34.21 34.81 34.91 35.35 33.56 32.88 32.24 31.78 31.58 31.52 29.05 34.26 32.45 32.92 34.08 34.00 34.06 33.34 32.89 33.63 33.96 33.66 33.70 32.65 31.47 30.55 30.05
48.31 47.48 45.09 42.87 39.80 37.92 38.38 41.80 41.11 38.73 37.66 34.09 31.47 31.81 30.52 34.43 32.73 33.99 34.80 34.22 32.71 32.86 31.63 31.40 31.41 29.90 27.90 32.92 32.53 31.59 33.13 34.18 34.32 33.46 32.43 32.37 32.47 32.14 32.13 31.01 30.02 28.91 29.28 29.40
44.53 42.16 37.86 35.27 36.51 41.93 40.11 37.57 35.72 35.26 33.70 32.83 32.13 30.48 30.25 32.84 31.74 31.15 32.16 31.29 30.30 29.36 30.17 31.81 29.01 29.70 33.58 33.05 33.13 32.97 34.22 34.45 34.10 30.44 28.91 29.72 29.00 30.10 29.81 29.35 29.10 28.58 28.76 28.85
40.14 35.96 34.57 37.09 39.68 37.02 32.92 31.84 31.09 30.26 29.32 30.28 29.21 30.49 29.32 32.94 30.84 30.70 32.04 29.24 28.14 26.84 28.10 28.62 28.32 27.83 31.27 31.45 32.28 33.18 34.84 34.57 33.47 32.51 31.98 32.29 31.34 29.94 29.18 29.27 29.07 29.04 29.06 28.69
39.70 37.99 37.41 36.35 32.70 29.88 27.96 25.49 25.41 25.65 27.84 27.21 28.73 29.36 31.40 31.05 32.70 31.33 30.01 27.91 26.70 24.74 28.90 26.62 24.57 30.84 31.20 31.20 31.81 32.09 34.18 33.61 32.18 31.48 30.98 30.69 30.51 29.97 29.13 28.89 28.79 28.63 28.76 28.46
38.68 34.10 31.42 29.40 28.20 22.43 22.12 20.29 23.24 22.59 27.16 28.32 29.13 28.90 29.95 29.77 31.54 28.72 27.66 24.83 25.10 28.48 24.38 24.15 28.03 29.69 30.18 30.98 31.25 30.56 31.68 32.18 31.23 30.61 30.97 30.14 29.39 29.15 28.53 28.28 28.48 27.69 27.14 28.18
33.81 28.92 21.89 25.58 22.63 23.61 26.15 27.23 28.38 28.07 29.50 29.17 29.99 28.21 29.30 29.71 28.65 27.46 24.24 26.17 26.78 19.83 18.11 23.65 30.23 29.34 30.50 30.77 31.03 30.19 29.59 29.45 28.52 29.33 28.60 27.94 27.14 26.68 27.01 26.96 27.27 26.72 26.56 27.42
31.99 28.07 22.89 23.97 27.06 25.56 24.40 24.49 27.36 28.02 31.17 29.65 28.14 27.98 28.51 27.33 25.36 26.90 24.87 20.62 18.84 21.31 24.93 29.62 29.36 28.49 29.51 29.89 29.52 30.12 30.01 29.37 28.77 28.21 26.82 25.45 24.43 24.68 25.52 26.64 26.12 26.01 25.69 25.67
27.96 23.19 22.64 23.34 23.67 23.87 25.03 24.95 26.20 28.83 30.23 28.91 29.44 25.32 23.79 24.75 25.37 22.12 20.96 20.70 21.00 27.74 26.69 29.28 28.23 28.16 28.96 29.55 29.23 29.28 29.31 28.83 28.64 28.56 27.57 26.99 26.18 25.66 25.10 24.47 25.10 25.07 24.77 24.27
29.26 25.30 25.31 26.54 25.28 25.21 25.84 26.11 27.25 29.95 29.63 28.04 25.78 20.52 23.27 22.93 20.93 20.23 23.27 23.26 29.39 28.79 26.77 26.74 28.62 28.79 28.14 28.83 28.23 27.58 27.28 28.00 28.14 26.65 26.34 25.31 24.31 21.89 22.30 23.27 24.73 24.13 24.21 24.06

GFSNW_sfc_wetblb_081.txt.gz
Wetbulb
50.73 51.14 51.41 51.51 51.02 50.13 48.55 43.88 32.90 45.82 47.18 34.79 36.20 34.82 37.00 40.09 39.68 42.05 40.10 40.00 38.96 37.97 38.02 36.61 36.96 35.63 38.38 43.37 42.80 38.66 40.96 38.90 34.05 35.71 41.06 41.84 41.08 38.05 38.32 34.50 31.75 34.78 34.72 31.15
51.40 50.88 51.32 51.73 51.62 50.19 47.58 38.10 36.21 44.16 45.90 33.74 35.11 38.58 37.95 40.34 39.43 39.76 39.53 38.49 40.16 41.09 38.60 35.51 38.72 39.45 43.05 43.88 42.21 40.11 40.97 37.76 33.54 34.75 38.83 42.16 39.02 40.05 40.36 38.99 39.19 32.28 32.90 31.83
51.23 50.59 50.54 50.96 51.74 51.78 48.69 41.38 33.45 38.30 39.48 41.28 38.07 36.78 36.70 36.74 42.42 41.10 41.41 40.21 41.93 40.43 39.05 41.56 38.42 39.12 42.09 43.44 43.03 41.26 42.87 38.00 34.56 31.77 33.47 38.11 36.52 38.37 39.85 39.06 35.03 34.88 34.42 34.03
50.60 50.49 50.21 50.90 51.66 51.71 48.93 42.05 36.81 38.98 35.17 38.06 39.75 39.48 38.73 36.92 37.05 41.74 42.59 39.84 40.03 39.15 36.75 38.74 37.93 40.37 41.30 42.91 42.04 42.14 42.51 34.32 35.27 36.79 37.91 38.41 37.83 37.68 38.37 36.08 37.49 34.19 36.06 36.23
50.57 50.38 50.34 51.06 51.68 51.47 45.84 40.71 40.06 41.80 38.01 38.87 39.30 38.57 37.80 37.23 38.83 39.85 38.65 38.52 40.39 41.39 38.11 39.80 37.29 39.60 40.27 39.25 42.79 40.89 42.13 35.72 35.63 35.37 37.27 38.02 35.36 37.93 38.80 38.23 38.46 37.80 38.10 37.18
50.47 50.02 50.49 51.31 51.77 51.01 46.08 46.90 46.52 44.00 38.63 39.37 38.44 38.28 38.37 38.84 41.21 41.35 42.64 41.99 40.95 39.16 40.36 43.61 44.13 44.24 43.38 41.96 40.64 39.64 39.35 37.39 36.28 31.48 35.43 35.27 33.06 33.70 36.39 37.72 39.15 38.35 35.86 38.87
50.12 50.05 51.19 51.86 50.99 51.16 49.27 47.08 46.41 42.31 37.10 39.29 37.59 39.95 40.95 39.87 41.07 39.47 41.42 43.10 41.41 41.46 45.31 46.01 45.78 44.70 43.47 42.68 41.69 42.35 38.42 36.73 36.63 33.29 34.71 28.05 33.62 38.20 37.37 36.50 38.34 39.68 39.48 40.10
50.22 51.77 51.72 51.49 49.83 48.69 48.16 46.74 46.15 43.97 37.64 40.18 40.40 40.75 40.45 41.78 42.37 40.50 40.37 41.34 43.99 45.09 42.99 40.51 37.18 37.63 38.37 39.13 40.35 40.46 41.39 38.48 33.89 32.74 31.99 32.94 34.20 36.31 36.38 35.66 36.26 39.88 39.38 39.44
52.04 52.52 51.85 49.11 48.27 47.58 46.85 43.77 45.01 47.12 41.36 36.42 35.40 40.45 42.21 40.45 40.46 40.50 40.28 43.90 46.15 44.59 41.70 38.43 32.18 31.37 32.80 33.24 36.05 40.91 40.88 40.63 37.08 34.04 28.68 27.41 34.59 38.01 40.02 39.73 33.12 39.71 40.54 39.97
51.76 51.50 50.69 49.18 48.00 47.09 46.78 43.29 44.00 47.14 40.23 36.98 37.46 39.59 39.19 42.17 42.43 40.38 41.20 42.13 43.04 44.25 40.09 35.55 33.92 32.54 34.90 31.84 31.48 32.72 35.31 36.12 33.77 33.59 31.83 33.90 37.86 39.16 40.06 31.03 33.09 39.63 40.39 40.84
51.34 50.89 50.87 49.94 48.67 46.29 46.58 42.36 44.28 45.15 40.49 36.86 37.98 37.84 39.75 41.74 42.99 40.51 42.16 41.37 42.36 41.93 37.25 36.62 35.59 35.12 35.55 34.12 34.90 34.01 33.68 33.47 33.33 33.48 30.72 27.89 39.52 38.04 34.58 38.07 39.16 40.45 40.17 40.85
51.45 50.23 50.47 49.82 48.69 46.32 45.68 43.38 44.00 45.33 42.34 37.97 39.93 39.41 39.69 38.01 38.35 40.89 42.55 41.24 41.32 42.65 39.75 39.43 38.70 35.31 36.43 34.85 32.69 36.73 32.91 36.44 34.51 35.05 35.37 38.80 41.06 40.58 40.62 40.87 40.25 39.89 40.39 40.57
51.45 51.09 50.49 49.91 49.21 47.10 47.10 44.34 44.10 45.97 41.60 39.31 40.23 38.27 40.48 41.82 40.68 41.27 40.42 43.51 42.76 42.33 42.23 42.31 40.04 35.35 38.49 34.01 34.93 35.54 37.50 38.26 35.81 35.76 38.97 39.10 39.95 40.81 40.52 40.29 40.10 40.16 40.31 39.82
51.69 51.36 51.00 49.87 48.81 47.31 47.54 43.81 43.49 45.46 44.48 40.36 37.23 41.53 39.53 41.96 42.32 40.34 41.01 40.74 42.70 43.08 43.46 41.90 40.15 36.99 38.69 37.11 36.05 35.74 38.25 37.54 36.93 36.78 39.75 39.05 39.59 40.39 40.76 39.64 39.09 38.49 38.59 38.31
51.81 51.81 51.26 49.18 46.81 46.11 46.40 44.86 43.65 43.47 43.15 38.95 37.69 38.91 39.89 41.49 41.98 41.20 41.96 42.15 42.07 42.95 41.97 40.95 38.48 38.87 37.06 37.17 35.60 35.33 38.50 38.10 35.62 36.09 39.70 39.05 38.01 38.66 39.80 38.86 37.91 38.31 37.43 35.99
49.28 49.66 48.82 46.75 45.37 44.75 46.53 42.81 44.46 44.00 43.91 42.32 36.98 39.61 38.49 39.68 40.49 40.09 39.73 39.74 40.50 41.39 40.63 39.77 38.19 36.10 36.16 34.69 34.38 40.11 40.97 40.36 40.20 39.28 38.11 38.09 37.61 37.71 38.47 38.30 37.47 36.93 36.21 35.93
49.51 48.98 47.35 46.89 45.87 46.81 41.92 39.89 42.47 43.09 43.50 41.33 36.11 36.87 37.76 37.85 38.56 40.04 40.45 40.24 39.37 39.87 38.74 37.49 37.16 36.09 36.22 35.39 32.84 38.14 37.87 39.62 37.95 38.28 37.91 36.04 36.59 36.84 37.27 37.21 36.41 35.85 35.24 34.62
50.30 49.26 47.83 46.11 45.05 44.15 42.18 42.21 42.18 42.20 41.23 40.66 35.30 35.19 35.19 37.57 37.53 37.73 38.76 38.72 39.03 37.61 37.30 35.74 34.71 34.60 34.51 31.09 37.54 36.21 35.83 36.83 36.85 37.19 36.68 36.41 36.96 36.65 36.16 36.04 35.19 33.59 32.25 32.02
49.27 48.11 46.29 45.05 43.30 40.94 41.03 42.91 44.06 42.41 40.02 38.52 35.84 34.62 33.19 37.29 36.37 37.71 37.69 37.91 35.37 36.48 34.72 34.28 33.61 33.57 30.20 36.03 37.41 35.87 35.88 35.61 36.57 35.82 35.56 35.27 34.77 34.66 34.66 33.80 32.12 30.66 31.20 31.42
46.75 44.47 41.58 38.98 39.69 42.45 42.25 41.12 38.23 38.99 37.92 36.51 35.02 36.03 33.42 36.42 35.72 35.17 35.96 35.58 34.65 32.22 33.50 34.37 30.64 32.02 37.44 37.11 36.14 36.45 36.99 37.30 36.90 32.91 31.29 31.83 31.55 32.05 32.25 31.25 31.35 30.91 30.66 30.68
43.11 39.86 38.09 40.93 41.13 40.44 36.75 35.26 34.42 34.64 32.84 33.86 33.58 34.68 31.92 35.20 34.08 34.93 35.47 34.04 32.73 29.05 31.70 30.29 31.50 30.41 34.79 36.06 35.98 36.81 37.29 37.76 37.26 36.04 35.02 34.91 34.18 32.41 31.25 31.01 31.08 30.90 30.73 30.01
41.83 41.15 41.31 40.83 37.35 34.69 31.80 32.42 30.41 28.31 31.14 29.96 31.10 31.59 34.33 32.98 35.32 34.12 32.14 31.32 29.89 27.30 32.28 28.95 27.17 34.93 34.63 34.15 34.40 34.90 36.92 36.89 34.81 34.17 32.83 32.61 32.09 31.92 31.05 30.67 30.31 30.26 30.27 29.88
41.52 38.12 35.54 35.36 31.85 27.31 26.28 25.57 28.73 27.76 30.70 31.18 31.53 30.60 32.58 31.91 33.91 31.71 30.46 27.39 27.38 30.78 26.85 26.92 31.80 33.18 33.48 34.35 34.25 33.51 35.79 35.29 33.96 32.49 32.84 32.13 30.98 30.86 30.12 29.66 30.20 29.52 29.12 30.00
37.47 33.67 28.01 30.72 27.74 28.36 31.97 31.14 32.54 32.14 33.00 32.09 34.07 30.83 32.12 32.30 30.67 30.59 26.74 29.14 28.21 23.82 21.47 25.50 34.28 32.60 33.26 34.07 34.10 33.15 32.53 32.18 31.42 31.89 31.09 30.20 29.44 28.84 29.03 28.63 28.89 28.32 27.68 28.09
34.54 31.83 27.72 28.90 32.66 31.02 30.62 29.31 30.22 31.40 34.08 33.08 31.42 31.23 32.24 30.14 28.29 29.20 27.16 23.06 21.44 24.33 27.83 35.11 34.80 32.77 32.88 32.64 32.38 33.09 32.26 31.78 31.19 30.35 28.10 26.79 26.62 27.10 27.57 28.60 27.93 27.59 27.11 26.61
32.93 30.39 28.13 28.05 28.29 29.98 29.19 29.50 30.57 32.49 33.52 32.94 33.13 29.33 27.53 28.29 29.16 24.68 23.50 23.73 23.96 31.08 32.74 34.40 31.50 31.41 32.64 32.45 32.25 32.25 32.21 31.90 31.37 30.80 30.35 29.18 28.14 27.55 27.05 26.58 27.09 26.37 25.80 25.07
30.57 30.22 31.22 31.89 30.21 32.90 31.51 31.34 31.54 34.09 32.28 31.15 31.10 25.33 27.10 26.78 25.37 23.99 28.27 26.43 34.00 35.09 31.08 31.44 32.43 31.50 31.83 32.13 31.19 29.66 29.33 29.65 30.30 29.69 28.76 28.07 26.67 24.98 24.89 24.71 26.02 25.39 25.29 25.12

GFSNW_sfc_wetblb_084.txt.gz
Wetbulb
51.92 51.58 51.71 52.35 52.88 52.08 48.45 41.50 33.51 45.90 47.67 35.59 35.94 32.94 36.73 40.20 39.88 42.71 40.27 40.03 39.16 37.17 37.32 35.94 36.11 35.84 38.29 42.99 42.04 37.21 38.56 36.11 30.71 34.69 39.87 41.20 38.93 35.55 34.52 28.00 27.32 29.69 28.00 26.44
51.80 51.36 51.06 52.08 52.42 51.61 45.94 37.40 36.99 45.66 45.65 32.95 33.41 37.90 38.46 40.63 39.71 39.84 39.96 38.46 40.30 40.24 37.96 34.32 37.58 38.36 42.37 43.56 41.64 37.23 38.47 33.15 28.25 27.87 34.38 38.71 36.49 37.45 37.75 36.91 34.72 27.51 25.22 25.44
51.63 51.60 50.90 51.78 52.45 52.27 48.70 40.69 32.74 39.34 41.30 41.72 36.64 36.11 36.86 36.79 42.70 41.19 41.88 40.25 41.32 39.85 38.50 40.03 37.56 37.59 41.73 42.01 41.91 42.08 40.69 34.51 30.16 25.34 28.42 34.86 32.22 35.51 36.76 34.52 26.59 28.17 28.46 30.08
51.57 51.55 50.65 51.30 52.28 52.29 48.86 42.27 37.08 39.44 34.72 37.91 38.66 38.63 39.09 37.31 36.94 41.61 42.05 39.26 39.83 38.81 36.40 37.01 36.37 38.81 39.60 41.42 42.54 39.87 39.16 29.79 30.15 33.77 36.29 36.13 35.15 35.07 35.47 32.41 32.88 27.79 31.13 32.23
50.93 51.26 51.32 51.62 52.40 52.00 45.98 40.15 39.25 41.11 38.21 39.14 37.95 38.05 37.53 37.54 38.55 39.33 38.25 38.11 40.18 40.31 36.71 37.60 35.33 37.95 37.41 36.06 38.89 37.32 39.45 29.64 30.87 27.74 35.44 35.17 31.30 34.35 35.87 35.79 35.64 34.69 34.91 33.32
51.00 51.44 51.70 52.22 52.41 51.31 45.45 45.77 45.85 42.20 39.68 38.61 36.65 36.73 38.36 38.99 40.86 40.73 41.59 40.92 39.26 37.17 38.60 40.99 39.82 40.49 39.72 37.67 36.58 36.45 35.97 32.26 28.69 25.06 32.08 31.86 26.46 30.74 33.17 35.26 36.17 34.74 31.57 34.28
51.95 52.65 52.30 52.24 51.32 50.69 48.33 45.94 45.07 40.78 35.86 37.61 37.05 39.84 40.58 39.73 40.22 38.44 40.66 41.43 39.24 39.88 43.61 43.19 41.03 40.09 40.25 39.67 38.17 38.66 34.91 32.60 30.13 25.10 26.84 19.22 29.14 35.10 35.58 34.37 36.90 37.21 37.05 37.46
53.00 52.59 51.99 50.12 49.98 50.24 46.58 45.90 43.88 42.05 35.84 38.84 39.16 39.92 39.84 40.50 40.70 39.23 39.30 40.17 41.05 42.95 40.44 36.96 33.95 33.49 34.53 36.09 37.07 37.06 37.40 33.85 26.46 23.86 22.94 27.87 30.16 33.57 33.40 32.01 32.44 36.79 36.09 36.56
51.77 51.02 49.67 49.38 48.91 49.35 46.30 43.11 43.58 44.10 38.21 33.64 36.35 39.19 40.60 37.00 36.91 37.32 39.11 42.55 43.52 41.43 38.42 34.59 26.52 25.37 28.79 28.41 31.80 36.83 38.23 36.52 30.64 27.95 23.67 20.86 29.48 34.84 37.10 36.16 27.13 35.95 37.43 36.54
51.84 51.76 51.04 50.40 48.50 48.71 46.58 42.47 43.56 42.87 36.50 35.54 36.54 36.47 36.71 40.12 38.97 36.79 37.95 39.13 39.79 40.44 35.56 30.60 28.33 26.12 31.02 26.68 26.30 27.17 30.43 30.58 26.76 27.09 24.47 28.39 34.09 35.84 36.68 24.77 27.67 35.43 36.68 37.21
51.23 50.75 50.41 50.11 49.17 47.78 46.16 41.44 43.56 42.04 36.94 34.81 38.41 38.48 36.96 38.60 39.22 36.41 38.76 37.74 38.72 37.93 32.61 31.01 29.40 28.51 29.96 28.27 29.68 28.53 28.75 26.68 26.51 27.24 23.10 20.94 36.05 34.34 29.97 33.46 34.53 36.18 35.61 36.08
51.28 50.94 50.94 50.82 50.39 49.40 48.20 42.00 44.33 44.24 39.01 35.43 39.55 38.91 38.70 37.52 36.92 35.25 39.38 37.76 38.47 38.07 34.42 33.17 32.04 28.94 30.13 29.65 25.62 31.29 26.85 31.30 28.36 29.64 29.55 35.03 35.94 35.21 36.07 36.68 36.29 35.33 35.53 36.39
51.66 51.15 51.28 50.70 50.41 50.01 47.55 42.59 42.73 44.25 38.71 36.21 36.36 36.57 38.56 40.90 39.52 39.70 36.13 39.04 39.45 39.42 38.21 36.45 34.42 30.80 31.74 26.58 28.47 28.64 32.69 34.20 30.27 31.39 33.21 33.78 35.46 36.15 36.43 35.62 35.40 36.35 36.72 36.42
51.77 51.31 51.51 50.24 48.46 49.06 48.10 41.79 41.96 42.04 42.00 36.22 34.04 40.43 37.32 40.28 40.73 39.44 39.17 38.05 40.48 39.31 38.42 36.17 33.84 31.28 34.18 30.69 31.03 30.06 32.78 33.30 32.01 31.76 34.55 33.49 34.57 35.53 36.40 36.36 36.20 35.74 36.01 35.39
50.95 51.43 50.79 48.81 46.91 46.84 46.47 43.26 42.48 41.84 39.92 34.62 33.74 37.28 38.49 39.84 39.99 39.80 40.19 39.65 38.57 37.79 36.28 34.21 32.19 32.95 32.09 31.84 30.11 29.08 33.57 32.46 30.27 29.49 34.52 33.88 33.07 33.85 35.45 35.47 34.85 35.18 34.44 32.75
48.63 50.44 48.85 46.57 46.71 46.67 45.29 40.16 42.37 42.25 41.26 38.14 32.34 36.93 36.06 37.12 37.98 37.79 36.78 36.98 36.82 36.40 35.31 33.79 32.44 33.49 30.97 28.21 27.46 34.94 35.47 36.58 35.24 33.64 34.04 34.06 34.39 34.54 34.94 34.59 34.61 34.32 33.19 32.79
48.64 48.68 47.67 47.41 46.79 44.42 40.08 37.95 40.11 42.48 40.46 37.64 32.74 32.45 34.75 35.76 35.62 36.71 36.58 36.76 35.02 34.79 33.93 32.32 31.74 31.71 31.51 30.14 27.45 34.43 35.46 35.83 33.92 34.29 34.21 31.84 33.63 32.63 34.17 34.10 33.70 34.57 32.14 31.05
49.50 48.44 47.45 46.17 45.78 44.10 40.10 40.09 42.99 42.79 38.45 37.66 31.34 32.17 30.86 34.46 33.56 32.94 35.03 33.70 34.07 33.36 32.46 30.63 29.37 29.69 29.15 26.57 32.48 31.83 32.94 34.28 33.59 33.77 32.92 32.99 33.93 33.90 32.80 32.86 32.22 30.47 28.86 28.09
49.79 48.37 47.46 43.98 41.61 38.81 39.25 43.90 43.71 40.87 36.72 32.11 31.62 29.63 27.20 34.02 32.65 33.76 33.19 32.97 29.24 32.41 29.66 29.50 29.56 28.18 25.08 30.15 32.66 32.57 32.23 32.31 32.74 32.93 32.54 32.01 31.81 31.98 31.76 31.06 28.46 25.75 26.51 27.34
48.30 43.65 39.16 36.06 38.38 42.97 42.95 39.47 35.78 34.97 34.55 33.28 29.70 32.22 27.29 31.24 31.46 31.49 31.27 31.44 29.42 23.20 29.23 29.91 26.61 26.86 33.32 34.49 33.76 34.03 33.85 34.61 33.55 29.12 27.06 27.99 26.56 29.04 29.08 27.74 27.71 27.26 26.72 26.69
41.29 38.02 35.56 38.94 42.17 38.18 34.17 31.06 29.71 31.50 28.74 31.84 29.81 29.38 26.74 32.07 28.82 30.21 31.79 28.90 26.97 20.58 25.12 24.86 25.40 25.86 30.11 33.62 31.70 32.72 34.15 34.55 33.79 32.12 32.35 31.41 30.03 28.66 27.26 26.95 27.26 27.05 25.77 25.40
40.97 39.85 40.38 38.48 34.91 31.62 25.55 25.01 27.75 26.11 25.81 27.71 27.25 28.02 30.29 29.98 32.06 30.66 29.78 26.07 24.50 19.36 28.73 24.03 22.63 28.06 30.25 30.76 30.97 31.74 33.32 33.50 30.85 30.74 29.37 29.23 28.92 28.18 27.18 26.78 26.01 25.72 25.30 26.17
39.78 35.95 31.03 31.79 29.04 21.72 20.97 17.83 22.25 22.63 27.33 27.66 27.48 25.43 28.72 28.74 30.43 28.85 27.02 21.16 21.90 26.61 18.77 21.69 26.93 29.09 29.96 30.27 30.72 31.17 31.74 30.58 29.52 29.06 29.07 28.88 27.41 27.30 25.83 25.23 25.73 24.76 24.76 25.18
34.01 28.02 20.58 24.74 21.33 24.67 27.53 27.01 28.65 28.05 28.60 28.36 29.36 26.62 27.65 28.75 26.26 27.66 20.16 26.30 24.94 14.82 13.43 20.51 26.36 27.94 29.01 31.02 31.55 31.59 30.31 28.53 26.70 26.51 27.04 26.74 26.09 24.09 24.52 24.74 24.72 24.07 23.26 24.01
30.00 28.20 21.25 24.95 29.05 26.58 25.21 24.99 25.85 26.92 30.52 29.97 27.24 26.53 27.91 25.31 23.86 25.76 22.95 17.05 11.08 18.92 20.30 25.71 27.25 27.42 29.49 29.97 30.37 31.17 30.46 29.05 27.88 26.61 24.07 21.51 22.08 21.77 22.04 23.53 23.67 23.31 23.15 22.58
30.09 27.45 23.06 26.72 24.43 23.24 23.37 23.08 25.03 28.74 30.24 27.86 28.42 24.13 20.93 21.70 23.14 18.49 16.66 16.57 17.04 24.73 27.21 27.09 24.64 27.40 28.65 29.06 29.88 30.05 30.09 28.50 27.73 27.03 26.83 25.79 23.94 23.15 21.67 22.53 22.11 21.58 21.73 20.50
31.27 27.68 30.20 27.64 25.57 27.34 26.58 28.37 28.07 31.12 28.11 24.78 25.00 18.87 19.84 22.05 17.45 17.88 23.16 20.98 26.27 29.67 27.93 26.09 27.70 27.89 27.74 28.99 29.20 28.76 28.73 28.23 27.39 26.29 24.93 22.98 22.64 18.62 16.83 16.89 20.87 21.17 21.61 20.37

GFSNW_sfc_wetblb_087.txt.gz
Wetbulb
52.36 52.75 52.18 52.78 52.99 51.55 45.33 37.91 32.57 45.53 46.87 35.13 35.43 32.87 35.12 38.39 39.60 41.33 39.00 37.85 36.95 33.98 35.07 33.86 34.04 33.61 37.91 42.41 40.54 36.71 38.91 34.57 26.87 32.15 38.77 39.32 36.59 34.39 31.79 26.36 26.20 26.50 25.73 27.73
52.33 52.25 51.67 52.32 53.08 52.38 40.72 37.36 38.10 43.33 42.54 27.01 30.76 37.18 38.20 39.53 38.48 38.30 38.24 36.95 38.50 38.08 36.17 32.55 34.90 36.08 41.38 42.29 39.92 36.12 36.57 31.53 24.71 27.73 32.17 36.30 33.90 35.31 34.56 34.51 30.37 25.38 22.15 26.54
52.17 52.01 51.53 52.10 52.74 52.86 44.40 38.41 32.03 37.01 40.83 38.05 35.24 32.48 34.31 35.44 40.90 39.55 40.36 38.57 38.96 37.03 35.57 36.64 34.94 36.88 40.64 40.87 40.19 43.23 39.70 31.93 27.96 23.08 28.08 32.93 30.56 33.39 34.99 31.04 23.97 25.35 25.59 28.72
52.03 51.94 51.77 52.10 52.58 52.67 43.69 38.21 31.12 35.01 28.73 33.19 34.82 35.09 36.76 35.60 35.33 39.25 39.54 37.14 38.29 37.73 33.44 34.22 33.58 36.21 37.53 39.81 42.48 38.39 36.64 28.02 27.12 31.58 34.25 33.75 31.93 32.48 33.53 30.64 29.60 25.21 28.93 29.99
52.00 52.71 52.46 52.54 52.53 52.33 41.20 35.23 34.27 36.05 33.92 35.89 33.46 35.66 34.91 35.62 36.75 37.10 36.15 36.03 37.31 36.77 33.44 33.92 32.53 35.24 34.16 33.49 36.96 35.02 36.64 27.11 29.11 25.79 32.88 32.26 28.69 31.65 33.40 33.77 33.35 31.94 32.02 30.80
53.18 53.00 52.56 51.64 51.07 49.92 40.18 40.69 40.59 36.84 36.27 33.84 31.57 33.62 36.25 37.20 38.05 38.72 39.34 38.14 36.41 35.12 36.12 37.06 37.07 37.05 37.03 35.69 33.98 33.70 33.73 29.12 24.71 22.57 29.86 29.48 24.98 28.96 31.07 32.85 33.79 32.67 29.44 32.49
52.39 51.70 50.78 50.61 50.52 49.13 42.81 40.76 39.86 35.06 31.62 33.85 33.99 37.70 38.37 37.54 37.66 36.07 38.16 38.22 36.28 38.23 40.95 40.30 38.56 37.49 36.65 36.71 35.78 35.62 32.62 30.05 25.73 21.24 25.34 16.74 28.37 32.81 33.84 32.39 34.87 35.10 34.99 35.54
51.59 51.08 51.05 50.36 50.19 50.55 41.77 40.19 39.00 36.12 30.94 33.96 35.66 37.56 37.35 37.29 37.53 36.94 37.16 38.29 38.68 40.12 38.16 34.37 31.34 30.82 32.31 33.66 34.56 35.15 34.90 31.12 24.05 21.49 19.58 25.09 27.92 31.99 31.66 30.36 30.53 34.39 34.31 34.72
52.02 51.41 50.79 50.47 49.70 50.48 41.44 38.62 39.21 37.97 32.94 30.82 33.62 34.41 36.59 33.03 32.17 34.48 37.33 40.63 41.07 39.29 36.32 31.36 24.24 23.23 26.53 27.06 30.12 35.60 35.81 33.60 28.26 25.03 22.33 19.92 28.16 32.92 35.41 34.21 25.72 33.61 35.58 34.39
51.69 50.85 51.10 51.01 50.21 49.68 41.94 38.48 39.60 38.41 31.47 31.56 33.19 32.85 33.72 36.49 34.81 33.33 35.23 37.61 37.76 38.73 31.84 28.23 26.14 23.44 29.52 25.19 24.71 25.44 27.67 27.65 24.92 24.35 22.31 26.68 32.03 34.64 35.37 23.45 26.10 34.23 35.07 35.61
50.95 50.88 51.47 51.24 51.01 50.45 41.91 38.35 39.65 38.40 31.40 31.56 35.34 36.08 33.10 35.47 35.69 33.16 36.27 36.20 36.44 35.05 29.87 28.68 27.00 26.16 27.97 25.86 28.39 26.09 26.90 23.85 24.65 24.75 21.19 19.20 34.81 33.03 29.39 32.22 33.49 35.17 35.09 35.18
51.34 51.25 51.84 51.10 50.91 50.19 46.49 37.84 41.69 41.23 35.17 33.40 36.73 36.03 36.49 35.53 35.07 33.78 36.11 35.88 35.74 35.55 32.05 30.11 28.87 27.58 27.14 26.64 22.93 29.13 24.55 29.14 27.37 27.76 27.70 33.40 34.35 34.52 34.81 35.31 34.56 34.36 34.91 35.02
51.12 51.25 51.40 50.61 50.08 50.02 45.25 38.21 38.40 39.95 34.33 33.61 34.39 34.14 36.47 38.38 37.51 37.86 35.04 36.34 37.01 37.02 36.26 33.90 31.93 28.58 28.98 24.66 25.46 26.43 29.06 31.91 28.81 29.50 30.42 32.40 34.18 34.75 35.31 35.61 35.00 35.26 35.13 35.02
50.94 51.63 51.12 49.58 48.74 49.15 45.20 37.81 38.62 38.75 38.28 32.63 33.08 38.33 35.45 37.99 38.18 37.67 37.15 36.23 37.87 37.27 35.88 33.68 31.12 29.65 31.87 28.06 29.29 28.45 30.51 31.64 29.59 29.35 32.07 31.21 33.48 33.78 34.91 35.09 35.13 34.41 34.22 33.70
49.20 51.21 50.49 48.86 47.63 47.50 42.13 39.31 38.94 38.53 37.79 31.96 31.55 35.26 36.55 37.59 37.46 37.89 37.95 37.22 36.16 35.10 33.67 30.73 30.67 30.63 30.24 29.41 28.14 26.22 31.38 30.70 29.13 27.92 32.49 32.31 32.08 33.49 35.11 34.14 33.77 34.18 33.16 31.47
48.94 49.71 49.05 47.24 47.15 47.11 41.59 36.78 40.07 39.34 38.03 32.91 29.01 35.09 34.01 35.11 35.90 35.71 34.96 35.37 34.83 34.04 33.39 31.73 30.53 31.73 29.82 25.46 24.73 31.48 32.48 33.55 34.71 33.25 32.83 32.93 33.01 33.61 33.43 33.70 33.29 33.09 31.93 31.74
48.98 48.95 47.11 47.09 46.85 39.79 37.35 35.22 38.31 41.91 38.25 34.63 30.74 30.38 33.27 34.19 34.16 34.57 34.54 34.65 33.36 33.48 31.79 30.26 29.68 30.10 29.57 27.03 25.33 32.41 33.83 33.66 32.78 33.13 33.61 31.19 32.42 31.59 32.56 32.85 32.74 33.91 30.83 30.01
49.36 48.71 47.46 46.21 45.92 43.25 38.20 37.93 42.18 40.90 36.22 35.26 29.44 26.73 29.01 33.58 31.01 31.01 32.95 31.84 31.84 31.60 30.65 29.20 28.03 28.59 27.27 25.17 29.55 31.53 31.66 32.28 32.07 32.78 32.34 33.12 32.96 32.05 31.19 30.92 30.50 28.96 27.71 26.68
49.72 48.27 47.49 41.93 38.29 35.63 36.52 43.79 42.67 37.85 34.12 26.56 27.83 19.17 19.93 32.32 30.38 31.05 31.79 30.69 26.65 30.57 27.92 27.99 28.73 26.20 24.00 29.32 30.14 31.36 30.90 32.41 32.06 31.55 31.29 31.60 31.45 31.07 30.68 30.26 28.93 26.07 25.26 25.79
48.81 41.54 36.88 32.94 36.26 42.49 41.27 36.80 32.44 30.84 30.57 29.35 25.20 25.77 24.25 28.71 28.56 29.24 28.36 29.08 26.75 19.84 27.67 28.68 26.34 25.82 31.03 33.32 32.91 33.53 32.31 32.69 32.14 28.38 26.59 27.95 27.02 29.35 29.57 28.34 27.21 26.35 25.66 25.70
39.67 34.71 32.14 36.46 41.88 36.19 31.56 26.51 25.55 27.03 24.74 28.64 26.76 25.79 23.75 29.98 25.47 27.43 30.07 25.84 22.44 16.44 23.09 24.27 23.68 26.60 28.38 31.53 32.73 32.84 32.59 32.71 32.09 30.98 30.88 31.02 29.84 28.71 27.83 26.23 26.42 26.85 26.20 25.31
38.99 37.56 37.91 36.02 32.06 27.31 22.20 18.01 24.03 23.68 23.37 26.22 24.59 26.55 28.65 27.84 29.77 28.00 27.94 22.96 21.60 15.47 25.18 21.48 20.34 27.47 29.47 29.14 27.41 29.87 31.85 32.05 30.68 30.79 30.59 29.90 29.13 27.82 26.23 26.16 25.93 26.21 25.75 26.11
38.32 32.47 27.04 27.07 24.67 17.63 16.56 15.16 16.00 17.52 24.19 24.15 24.45 22.84 27.16 27.59 29.24 26.95 24.78 19.67 21.16 25.05 15.85 18.49 22.38 27.44 29.07 28.59 29.10 28.74 29.07 28.74 28.03 27.88 28.11 27.66 26.66 27.22 26.46 25.59 25.66 25.16 24.29 24.39
30.41 23.29 18.08 21.32 15.47 19.57 21.37 20.82 21.03 25.32 25.32 26.57 26.88 24.01 25.39 27.39 24.74 25.83 16.72 24.61 23.61 11.76 8.89 16.84 22.62 26.94 28.22 28.62 29.49 29.33 27.80 26.83 24.89 25.70 27.26 26.81 26.16 24.70 25.13 25.53 24.90 24.33 23.64 24.17
25.70 24.21 17.71 19.72 25.20 19.94 18.63 17.44 20.71 23.55 27.77 27.75 25.66 23.96 25.71 22.41 22.21 24.50 21.01 15.41 10.19 15.11 16.26 20.78 23.03 27.42 27.70 28.56 28.86 29.28 27.66 26.41 25.73 25.65 25.36 26.21 25.19 23.73 23.85 24.57 24.22 23.54 23.74 23.07
26.14 25.22 20.30 24.84 20.54 17.98 18.30 15.38 19.17 23.77 28.16 24.76 26.30 20.50 17.59 19.83 20.64 16.45 15.06 12.57 12.54 17.70 20.46 25.09 23.20 26.39 27.47 28.67 29.41 29.88 29.90 27.94 27.22 25.94 26.09 26.00 24.63 23.82 23.34 23.13 22.55 22.31 22.54 21.75
30.88 28.04 27.88 24.27 20.18 22.74 23.74 24.61 25.45 27.92 26.61 20.91 21.34 15.23 19.05 20.05 13.25 14.91 19.91 17.03 21.06 24.68 25.34 22.60 25.71 26.60 26.92 28.22 29.17 29.42 29.20 28.30 27.15 25.94 25.99 25.43 24.53 21.13 19.74 19.79 21.29 21.59 22.37 21.32

GFSNW_sfc_wetblb_090.txt.gz
Wetbulb
52.20 52.07 52.36 53.02 53.25 49.95 44.52 38.36 32.19 42.40 43.94 32.26 34.90 32.72 34.86 38.60 38.44 40.70 38.48 36.41 35.55 33.38 34.64 33.04 33.44 32.68 35.56 41.14 39.80 35.48 37.67 33.30 26.85 31.91 37.12 38.70 36.50 33.92 31.67 26.96 24.99 24.84 24.41 26.82
52.34 52.14 52.02 52.71 53.19 49.78 40.22 35.49 35.10 42.12 42.99 25.66 28.71 35.77 37.01 38.07 37.67 37.54 37.71 35.69 37.20 37.61 35.31 31.86 34.17 35.25 40.48 41.27 38.85 35.01 34.91 30.31 24.83 27.57 30.45 35.06 32.82 34.17 33.34 31.91 28.54 23.54 20.89 25.33
52.96 52.38 52.17 52.47 52.82 52.68 42.29 35.86 28.06 34.44 38.33 36.73 31.86 31.74 33.57 34.83 39.77 38.36 38.82 37.33 38.28 36.04 34.70 35.61 33.68 35.02 39.70 39.88 39.23 43.13 39.13 30.75 27.33 21.15 27.42 31.48 29.79 31.92 33.34 29.25 22.41 24.63 24.42 26.48
53.35 52.64 52.48 52.68 52.65 52.45 41.93 34.60 28.80 33.02 29.50 32.70 33.88 33.16 35.41 34.44 34.32 38.19 38.99 36.98 36.65 35.42 32.07 32.64 32.20 34.89 35.98 38.46 41.47 37.57 35.45 27.71 26.54 29.87 33.09 31.41 29.86 30.38 31.99 28.76 27.85 24.70 28.06 28.98
52.81 52.20 51.49 51.54 51.96 50.30 40.04 33.92 33.21 34.70 32.79 34.35 31.28 34.40 34.25 34.73 35.75 36.14 35.37 34.80 35.90 35.17 32.15 31.81 30.70 33.57 33.02 32.42 35.18 33.93 34.94 26.22 28.69 24.99 31.23 30.37 27.93 30.45 31.99 32.20 31.87 30.77 30.35 29.27
51.19 51.60 51.20 50.96 51.34 47.71 38.82 39.11 39.13 36.00 35.10 32.01 31.39 33.18 34.95 36.24 36.72 37.60 37.66 36.67 34.76 34.20 34.78 35.85 36.21 36.04 35.63 34.13 32.83 32.71 32.60 28.20 23.78 21.43 28.13 29.10 23.09 27.44 29.56 31.00 32.31 31.26 28.14 31.79
52.04 51.61 51.20 50.66 51.16 47.30 41.22 38.84 38.67 34.00 31.33 32.63 33.55 36.55 37.02 36.53 36.58 34.97 36.98 36.94 34.51 36.91 39.84 38.79 37.34 35.77 35.87 35.39 34.35 34.27 31.27 28.74 24.25 19.60 24.41 15.17 26.44 31.76 32.47 31.16 33.09 33.22 33.50 33.71
51.39 51.54 51.33 50.60 50.80 48.18 39.83 38.42 38.29 34.74 30.39 32.33 34.59 36.03 35.64 35.59 36.32 35.55 35.82 37.11 38.38 39.15 37.43 32.85 29.95 29.64 31.23 31.92 32.86 33.28 33.47 29.58 22.93 20.67 18.84 24.18 27.47 30.41 30.71 29.61 30.18 32.83 33.49 33.62
51.62 51.43 51.70 51.66 51.20 48.82 39.87 37.43 38.40 37.15 32.41 30.82 31.97 33.12 35.04 32.02 30.55 33.13 36.09 39.45 39.91 38.65 34.79 29.95 23.83 22.85 25.38 26.22 29.12 32.00 33.49 31.51 27.14 23.45 21.30 19.20 26.71 32.01 34.33 33.03 24.75 33.74 34.95 33.80
51.38 51.51 51.63 51.45 51.15 49.84 40.54 37.59 38.59 36.67 31.97 31.24 31.74 32.14 32.64 35.14 33.11 31.75 33.68 36.50 36.79 37.11 30.22 27.61 25.38 22.95 27.81 24.39 23.66 24.73 26.63 26.32 24.28 23.55 21.28 25.46 30.93 33.67 34.13 22.48 24.87 33.39 34.91 34.40
51.10 51.22 51.52 51.07 50.66 49.66 41.59 37.81 39.12 37.39 31.82 31.19 34.43 34.92 32.14 34.84 34.69 32.13 35.13 35.19 35.37 33.77 29.22 28.01 26.22 25.34 26.60 23.96 26.40 24.53 25.23 22.75 23.76 23.78 20.84 18.44 33.76 32.58 28.09 30.45 32.12 34.26 34.43 34.56
50.09 51.44 51.56 50.91 50.17 49.02 44.23 37.53 39.98 39.67 35.25 33.70 36.00 35.85 36.39 35.74 35.05 34.33 34.88 34.35 34.31 34.50 31.19 29.06 27.78 27.11 25.56 24.71 22.03 27.39 24.85 28.05 26.15 26.96 26.48 31.89 33.52 32.34 33.99 33.93 33.80 33.69 34.11 34.06
50.19 51.77 51.34 51.15 50.17 48.15 43.81 37.40 37.11 38.17 34.05 33.56 33.92 33.57 36.10 37.42 36.81 37.38 34.87 35.28 35.84 35.82 35.12 32.63 30.76 27.45 28.20 24.00 24.34 24.15 27.83 30.53 28.58 28.94 28.17 31.61 33.05 33.21 34.16 34.90 34.48 34.62 34.64 34.32
49.48 51.57 51.32 50.19 49.47 47.68 43.20 36.83 36.99 38.59 37.11 32.25 33.04 37.27 34.83 37.64 37.11 36.54 36.35 35.77 36.45 36.21 34.91 32.49 29.91 29.33 31.05 27.11 27.93 27.37 29.75 30.66 28.95 28.12 30.73 30.87 33.22 33.35 34.56 33.94 34.24 33.89 33.79 32.99
49.15 50.38 51.15 50.16 48.70 46.13 40.23 37.48 37.06 37.74 38.72 32.52 31.68 34.54 35.79 36.57 36.47 36.66 36.52 35.99 35.05 33.78 32.07 29.66 29.96 29.88 29.29 27.75 26.69 25.06 29.98 30.04 28.68 27.42 32.10 31.61 31.51 33.45 34.17 33.23 32.82 33.07 32.06 30.31
48.60 49.14 49.27 48.33 48.02 47.02 40.32 35.82 39.12 38.09 38.68 33.20 28.59 34.06 32.59 34.59 35.34 35.15 34.95 34.99 33.75 33.01 32.27 30.62 30.17 30.67 29.75 25.01 23.79 30.72 30.79 32.22 33.68 32.06 32.03 32.79 32.47 33.15 33.99 33.65 33.43 33.23 32.42 31.28
48.66 48.95 47.68 47.48 47.59 39.40 36.68 35.19 37.91 40.92 37.93 33.70 28.31 27.70 32.79 33.05 32.84 33.52 33.53 33.56 32.83 32.67 30.93 29.92 28.82 29.37 30.26 26.07 24.17 31.09 32.41 33.05 32.59 32.40 32.81 30.00 31.85 31.51 33.05 33.07 32.78 34.21 30.59 29.76
49.17 49.08 47.54 46.39 46.56 42.45 37.45 37.52 42.42 39.23 35.47 33.51 24.05 25.34 27.64 31.58 30.15 30.07 31.80 30.65 30.41 30.25 29.83 28.52 28.10 28.20 26.96 24.86 29.25 29.79 31.02 31.16 31.18 31.73 30.72 32.38 32.06 31.31 30.50 30.71 29.84 28.31 27.12 26.70
49.48 48.84 46.74 40.84 37.60 34.63 35.65 43.80 41.46 36.42 33.31 25.74 23.98 20.80 20.22 31.24 29.50 29.94 30.87 29.81 26.26 29.89 27.83 27.43 28.39 26.84 24.05 29.55 30.26 30.13 30.81 31.39 31.82 30.92 31.15 30.85 30.48 29.86 29.42 29.30 28.61 27.25 25.65 25.29
48.68 40.59 36.28 31.79 35.51 42.35 40.57 35.62 31.83 29.70 29.79 29.04 24.65 24.84 24.15 28.68 27.65 28.62 27.80 28.26 26.41 20.15 27.11 28.68 26.28 26.02 30.71 32.13 31.54 32.46 32.33 31.95 30.89 27.86 25.75 27.30 27.19 28.71 28.88 28.95 27.86 25.95 25.34 25.25
38.03 33.95 32.09 35.64 41.09 35.08 30.27 26.24 24.81 26.37 24.52 27.62 25.42 25.59 24.79 29.05 25.68 26.86 29.34 20.97 21.39 16.56 21.77 24.08 22.59 23.54 28.80 31.14 29.69 30.62 32.69 31.84 31.76 30.37 30.25 30.54 30.14 29.88 29.08 27.23 26.25 26.53 26.28 25.73
38.49 36.88 36.83 34.57 31.02 26.42 21.58 17.85 23.39 23.09 22.91 25.36 24.57 26.48 27.95 27.34 29.41 28.17 26.88 22.47 20.29 16.72 23.11 20.51 17.99 23.91 28.66 28.77 28.39 29.95 29.81 30.81 31.14 31.56 30.86 30.09 29.82 29.59 28.04 26.18 25.90 26.60 26.67 26.32
35.97 31.32 25.82 27.35 22.85 18.42 16.29 14.46 15.75 14.72 22.88 23.23 23.33 22.56 26.65 27.14 29.18 26.54 24.40 20.42 20.99 23.81 14.01 17.57 20.80 24.91 27.31 28.09 28.08 28.29 29.11 29.08 28.57 28.07 28.24 28.09 26.97 27.06 26.49 25.96 26.57 26.06 24.73 24.59
27.95 23.24 19.34 21.71 14.74 19.91 21.82 20.59 19.75 24.35 24.10 24.41 24.47 22.94 24.71 26.65 24.69 24.85 16.39 24.03 23.18 11.05 10.93 15.69 19.59 24.14 27.41 27.36 28.20 29.06 29.30 27.76 25.28 24.90 26.03 26.06 25.67 24.92 26.12 26.42 25.96 25.24 24.06 24.01
27.00 23.96 18.87 18.96 23.62 19.27 18.86 17.95 19.87 22.57 27.17 26.35 24.51 23.41 24.59 22.31 21.78 24.30 20.61 15.28 10.63 15.16 16.69 19.51 21.84 26.28 25.99 26.11 27.70 28.12 27.18 26.02 25.44 25.53 25.31 24.42 24.73 24.64 23.75 25.03 25.32 24.33 23.69 22.89
24.74 25.41 20.32 24.09 21.39 14.47 16.84 14.80 17.48 23.47 27.35 24.29 25.49 19.51 17.52 19.00 21.02 16.86 15.27 12.89 12.74 18.27 18.67 23.74 22.00 26.71 25.76 26.16 27.79 28.47 28.10 25.99 25.49 25.05 25.79 25.49 24.64 24.56 24.12 24.27 23.11 22.75 22.82 21.54
31.83 27.46 27.79 27.98 26.05 24.29 23.27 23.69 24.89 28.01 26.95 21.97 21.25 15.28 19.19 21.06 14.93 17.01 19.85 15.98 20.57 21.99 22.38 22.81 25.25 26.02 25.47 26.06 27.97 28.75 28.83 27.34 26.17 24.72 24.56 23.67 23.78 21.22 20.05 21.46 22.32 22.24 22.34 21.45

GFSNW_sfc_wetblb_093.txt.gz
Wetbulb
52.44 52.23 52.71 53.27 53.31 49.58 43.96 37.51 28.70 41.38 43.03 31.72 35.79 33.37 36.22 39.23 38.55 39.78 38.00 35.88 34.52 32.60 33.65 33.35 34.25 31.24 34.42 40.12 39.54 34.69 37.14 32.85 26.96 31.63 35.70 36.49 35.08 32.73 31.20 25.75 24.95 25.34 25.67 27.49
52.89 52.39 52.57 52.90 53.07 48.02 39.26 33.13 32.92 40.77 39.72 26.23 31.02 34.39 36.35 37.54 36.92 36.47 36.47 35.20 37.09 37.07 34.64 30.35 33.36 34.76 39.32 40.88 38.11 34.30 34.76 29.42 23.29 26.36 30.15 34.12 31.89 32.47 32.35 30.79 27.50 23.96 21.77 25.28
52.93 52.47 52.48 52.47 52.47 51.74 40.57 33.32 28.49 34.42 36.25 33.92 30.78 30.73 33.11 33.85 38.52 37.17 37.76 36.95 37.56 35.15 33.16 34.70 32.09 33.91 38.52 39.07 38.54 42.94 38.39 29.53 26.84 20.62 27.31 30.69 29.19 30.55 31.84 27.78 21.51 24.19 24.00 25.35
51.24 51.25 51.82 52.12 52.09 51.65 40.60 33.80 29.03 31.99 29.34 32.46 32.91 31.92 34.21 33.56 33.77 37.36 37.82 35.39 34.79 33.99 31.48 31.38 30.71 33.45 34.82 37.26 39.40 36.82 34.07 27.19 24.92 28.73 31.34 30.66 28.76 28.92 30.61 27.82 26.48 22.71 26.24 26.43
51.46 51.17 51.35 51.73 51.76 48.99 39.17 33.81 32.91 33.90 31.73 32.80 31.65 34.36 33.55 33.95 34.93 35.13 34.63 33.93 35.14 34.18 31.37 30.75 29.64 31.97 31.65 30.95 34.38 32.66 33.74 25.80 28.06 24.16 29.90 29.79 28.59 28.91 30.66 30.80 30.05 30.23 29.48 27.64
51.14 50.86 50.77 51.40 51.02 46.78 38.36 37.63 37.82 35.72 34.10 31.38 30.33 32.63 34.23 35.22 35.74 36.15 36.61 35.65 33.87 33.35 34.05 35.39 35.64 35.58 34.85 33.40 31.09 31.81 31.39 27.43 23.64 20.46 26.80 27.99 22.74 26.20 29.04 30.31 30.92 29.76 27.00 29.52
51.54 51.48 50.80 51.26 49.68 46.68 40.59 38.24 37.49 33.75 30.65 32.00 31.97 35.91 36.25 35.40 36.01 34.17 36.16 36.29 34.30 36.50 39.22 37.36 35.21 33.42 34.58 34.74 32.19 33.34 30.12 27.68 23.63 19.95 23.70 15.94 25.25 30.71 31.90 30.60 32.79 32.52 32.56 32.69
51.69 51.77 51.87 51.06 48.86 47.03 39.44 37.56 37.95 34.31 29.88 31.03 33.37 33.87 35.00 34.46 34.83 34.58 35.33 36.84 37.59 38.25 35.82 32.09 29.23 28.55 29.56 30.27 31.44 30.94 32.11 28.53 22.37 19.85 18.53 23.94 25.68 29.22 29.96 29.41 29.63 33.48 33.13 32.20
51.83 51.69 52.15 51.47 49.69 46.97 38.98 36.89 38.05 36.12 32.49 30.13 32.18 32.10 33.02 30.88 30.29 32.14 34.52 38.47 39.23 36.97 32.51 29.02 24.08 22.15 24.14 25.62 28.34 31.25 31.49 30.22 26.68 22.91 20.41 18.13 25.62 30.81 33.83 32.05 23.42 32.81 34.34 33.59
51.25 51.40 51.96 51.91 50.67 47.29 40.11 37.24 38.29 36.63 32.17 31.25 30.80 32.29 32.51 33.65 31.47 30.91 32.18 35.30 36.18 35.47 29.47 27.44 24.83 22.49 25.73 22.96 23.06 24.00 25.45 25.27 23.64 23.20 21.36 24.68 28.99 32.87 33.70 21.96 24.65 32.92 34.30 33.78
50.40 50.94 51.71 51.69 51.42 48.16 41.30 37.29 38.35 37.86 32.51 31.46 34.60 35.22 31.90 33.54 33.48 31.98 34.76 33.60 34.40 32.38 28.59 27.73 25.90 24.72 25.32 22.96 24.70 23.08 24.07 21.57 22.68 22.73 20.09 18.06 32.58 31.73 27.52 29.87 30.79 32.91 32.65 33.47
49.67 50.93 51.87 51.55 51.54 50.09 43.68 36.63 39.16 38.50 36.07 34.33 35.68 36.07 36.37 36.13 35.02 34.69 33.61 33.85 33.15 33.72 30.32 28.27 27.20 26.82 24.35 23.74 22.00 25.48 24.63 27.18 24.60 26.40 25.79 30.71 32.88 31.37 32.68 33.19 33.37 33.19 33.25 34.08
49.42 51.31 51.64 51.77 50.31 48.20 43.19 36.21 36.74 37.07 33.70 32.95 33.22 33.45 36.05 36.73 36.32 36.90 34.67 34.13 35.43 34.57 34.10 31.58 29.57 27.58 27.61 23.85 23.27 22.34 27.18 29.21 28.04 28.46 27.45 29.79 32.59 32.56 33.89 33.67 33.74 34.21 34.16 34.41
48.95 50.75 50.96 50.55 49.80 47.69 42.41 36.21 36.11 37.96 35.90 31.79 32.73 36.45 33.82 36.67 36.48 36.01 35.88 35.63 35.63 35.22 33.91 31.62 29.77 28.95 30.58 26.81 27.07 26.08 29.28 29.71 28.13 27.15 29.85 29.45 32.07 32.54 34.31 33.96 34.10 33.38 33.19 32.94
48.98 49.33 50.66 49.92 48.67 45.60 40.09 36.28 36.14 37.17 37.88 31.53 31.44 33.84 35.30 35.55 35.56 35.80 35.54 35.00 34.23 32.91 31.16 28.91 29.45 29.37 28.37 26.96 25.84 24.19 29.31 29.19 28.30 27.00 31.33 30.35 30.37 31.33 34.06 33.36 33.27 33.49 32.51 30.61
48.67 48.70 49.23 48.56 47.67 46.15 39.84 35.19 38.29 37.26 37.44 31.48 28.64 33.55 31.29 33.70 34.14 34.45 34.07 34.71 33.09 32.20 31.25 29.89 29.84 30.12 30.10 24.91 23.32 29.56 29.76 31.09 32.65 31.74 29.58 31.52 30.65 31.40 31.91 32.94 32.99 32.93 31.99 31.03
48.29 48.83 48.56 47.03 47.21 39.43 36.73 34.64 37.04 40.86 37.25 32.37 27.92 27.01 32.12 31.47 32.01 32.60 32.64 32.41 31.43 31.81 30.28 29.57 28.49 29.02 30.16 26.26 24.26 31.20 31.50 31.98 31.49 30.33 32.14 29.26 30.88 31.63 32.98 33.12 32.99 35.18 30.59 29.83
48.24 49.32 48.44 46.85 45.71 42.24 36.51 36.99 42.32 38.33 34.54 32.33 23.20 23.40 27.42 31.50 29.39 29.40 30.63 29.79 29.52 29.71 29.76 28.63 27.95 28.06 26.85 25.16 28.88 30.02 31.40 31.27 31.21 31.73 31.91 31.52 31.73 31.43 30.83 30.42 29.27 28.45 27.49 26.42
48.46 49.27 47.14 39.88 37.06 34.01 35.11 43.09 40.40 35.32 32.78 25.25 22.57 20.33 20.01 30.38 28.87 29.59 29.85 29.24 25.94 29.37 27.66 27.05 28.13 25.70 23.07 29.30 29.27 29.60 30.36 30.76 30.66 29.67 29.83 29.53 29.95 30.00 29.59 29.21 28.55 27.63 26.57 25.65
48.72 40.65 36.00 31.77 34.79 41.86 40.10 34.66 31.48 28.61 28.79 27.87 23.99 24.17 24.21 27.66 27.18 28.03 27.33 27.75 26.26 19.08 26.99 27.90 25.86 25.19 30.38 31.50 31.70 31.21 31.55 31.56 30.30 28.24 26.39 27.69 27.54 28.78 28.50 28.79 28.78 28.22 25.78 25.20
40.79 34.86 32.76 34.91 40.19 34.11 29.63 26.53 25.30 26.31 24.29 27.46 24.74 24.40 24.49 28.60 24.90 26.38 28.83 20.68 21.30 16.47 21.94 23.84 21.91 22.56 26.51 29.84 29.68 29.86 28.56 29.83 31.35 30.99 30.96 31.81 30.73 30.08 29.14 28.70 27.87 26.29 25.92 25.64
39.36 36.83 36.03 33.81 30.23 25.74 21.48 19.07 22.71 23.02 23.31 24.95 24.92 25.99 27.20 27.08 28.93 27.68 26.64 21.49 19.75 16.36 22.50 20.52 18.41 23.39 27.27 27.88 27.94 27.99 28.47 28.52 29.83 30.61 30.33 30.07 30.84 30.81 30.04 28.09 25.98 26.14 26.82 26.74
36.68 31.63 27.10 26.94 23.98 17.00 15.89 17.81 15.88 13.81 22.16 23.05 24.34 23.22 26.49 26.66 28.68 26.15 24.03 19.82 21.30 23.46 14.71 18.09 21.08 25.29 26.50 26.03 26.89 27.17 26.35 28.81 29.46 29.12 29.14 29.29 28.24 28.49 26.60 24.98 25.13 24.70 24.29 24.79
32.12 27.96 20.66 21.93 15.18 20.14 21.76 21.05 19.85 23.09 22.78 24.96 24.33 23.74 25.30 26.34 24.71 24.76 16.68 23.87 22.67 12.22 13.35 17.33 20.86 24.41 26.31 26.76 27.18 27.51 27.24 26.77 25.09 25.98 26.56 25.95 25.42 24.03 24.23 25.42 24.88 23.84 22.59 23.22
30.92 27.16 22.16 20.05 24.20 20.03 18.22 16.24 19.98 22.30 26.16 24.78 24.30 23.94 24.59 21.68 21.38 24.32 20.50 14.72 11.64 16.83 18.20 20.96 22.78 25.40 26.11 25.65 26.38 26.90 27.28 26.05 24.44 23.23 22.63 21.86 22.22 22.28 21.68 23.07 23.41 23.19 23.13 22.28
28.90 22.14 19.62 22.59 21.15 23.93 23.25 16.05 18.38 23.08 26.29 23.60 24.89 20.07 17.99 18.86 20.62 16.09 17.12 14.53 14.36 19.72 19.46 23.32 21.65 26.43 26.19 25.52 26.67 27.69 27.79 26.37 25.28 24.38 24.40 24.24 23.33 22.70 21.93 22.20 21.66 21.50 21.23 20.09
32.69 28.07 26.43 26.83 27.36 28.58 26.69 25.27 24.37 27.04 26.44 20.84 19.81 14.85 19.39 21.50 15.11 17.63 20.09 17.81 21.83 22.75 21.02 20.85 24.17 26.96 26.28 25.31 26.25 28.01 28.32 26.97 25.37 24.12 23.85 22.99 23.15 19.89 17.31 18.53 20.37 20.11 20.39 19.81

GFSNW_sfc_wetblb_096.txt.gz
Wetbulb
52.34 52.37 52.76 53.05 53.24 49.94 43.15 34.92 30.27 41.41 41.94 32.81 33.99 32.74 36.06 39.60 37.17 38.67 36.89 34.76 33.60 31.61 32.34 31.67 33.05 30.09 33.85 39.37 39.69 34.89 36.56 32.63 26.54 30.58 35.16 36.15 34.85 32.14 30.70 24.71 23.68 25.15 24.95 27.09
52.62 52.55 52.59 52.66 52.80 48.20 38.18 32.55 32.25 40.32 39.85 27.46 29.40 32.92 36.05 37.19 36.61 36.00 35.62 34.21 36.07 35.84 33.52 29.88 31.98 33.71 38.43 40.16 38.03 34.27 35.63 28.98 21.28 25.03 28.83 32.76 31.02 31.88 31.39 29.85 26.50 23.70 20.35 24.60
52.01 51.60 51.73 51.90 51.94 49.74 39.13 33.37 29.50 35.03 35.89 32.53 29.42 30.88 32.32 33.06 37.37 36.34 36.84 35.36 36.35 34.75 32.74 33.23 30.73 32.52 37.63 38.96 38.42 43.05 38.11 29.34 27.37 21.24 26.44 29.56 28.10 28.69 30.20 27.68 20.57 23.34 23.53 25.31
52.09 52.05 51.72 52.02 52.01 49.64 39.82 33.84 29.47 31.80 27.76 32.09 30.78 30.80 33.58 32.83 33.05 36.56 36.97 34.68 33.93 32.30 29.53 29.85 29.27 32.32 33.76 36.57 38.76 35.85 33.44 26.34 24.73 28.17 29.59 29.94 29.33 28.27 29.13 26.53 25.84 22.01 25.95 25.94
51.84 51.99 51.58 52.04 51.62 48.12 38.74 34.50 33.19 32.61 30.77 31.20 31.33 34.05 32.75 33.28 34.37 34.57 34.13 33.45 34.53 33.51 30.53 29.59 27.89 31.10 29.46 29.57 33.10 31.46 32.73 25.73 27.59 23.62 29.29 28.42 28.24 29.16 29.02 29.78 29.25 27.90 27.62 27.62
51.88 52.40 52.21 51.77 50.93 46.23 38.21 36.41 36.63 34.68 33.02 30.72 30.55 31.50 32.98 34.14 34.79 35.48 35.70 34.81 32.72 31.94 33.18 35.16 35.37 35.16 34.07 32.44 29.67 30.80 30.27 26.80 23.22 21.30 25.35 26.74 23.01 26.03 28.69 29.87 30.45 29.87 26.71 29.08
51.71 51.95 52.28 52.04 50.49 47.00 40.21 37.68 36.74 33.62 30.16 31.53 31.60 33.98 34.58 33.98 34.24 32.63 35.34 35.01 32.63 35.58 37.67 36.19 33.53 32.26 33.41 32.41 32.42 32.19 28.89 26.81 23.24 19.54 22.12 14.72 24.96 29.05 30.55 29.95 31.24 32.35 30.99 32.57
51.87 51.38 51.98 52.15 51.34 48.08 39.06 37.38 37.73 34.04 29.63 30.65 31.45 33.18 32.41 32.59 33.28 32.70 34.36 35.82 37.04 37.35 34.14 31.07 28.64 27.54 28.13 29.23 29.74 29.70 30.89 27.43 22.02 18.42 17.34 23.48 24.39 27.58 28.80 27.88 28.85 32.63 32.28 31.79
51.40 51.48 51.67 51.70 51.90 48.86 38.53 36.65 37.88 36.31 32.12 29.97 32.79 31.79 31.43 30.33 28.69 31.68 33.60 36.89 37.69 35.67 31.36 28.54 23.53 21.41 22.77 24.29 26.60 30.01 30.22 29.05 25.87 22.28 19.61 17.50 23.70 29.25 32.54 30.30 23.25 31.39 33.72 32.91
50.49 51.03 51.61 51.63 51.72 48.34 39.73 37.03 36.86 36.45 32.14 31.61 32.32 32.39 32.64 33.30 30.50 30.17 30.12 33.97 35.21 33.92 28.90 27.27 24.18 21.81 24.56 22.07 22.05 22.48 24.35 24.10 22.90 22.71 20.60 24.42 27.52 32.06 32.67 20.70 24.71 31.89 33.51 33.87
49.81 50.68 51.45 51.58 51.53 49.95 40.89 37.30 37.57 36.20 32.46 31.48 33.78 35.22 32.87 32.62 32.50 31.29 33.71 31.97 32.92 31.13 28.05 27.26 25.85 24.27 24.21 21.52 23.78 22.03 23.58 20.59 21.76 21.85 19.08 17.86 31.90 30.59 27.05 29.71 29.29 32.16 32.30 32.82
49.49 50.46 52.05 51.66 50.83 48.00 42.66 36.40 38.52 37.68 35.23 33.69 34.89 35.75 35.01 35.23 35.06 35.12 32.46 32.80 32.70 33.05 29.48 27.63 26.92 26.33 22.51 22.20 21.89 23.46 23.03 26.47 23.68 25.82 25.53 30.30 31.77 31.68 32.05 32.20 32.69 32.32 32.39 33.58
49.15 49.73 51.76 50.85 50.23 47.96 42.25 35.92 36.30 36.66 33.46 33.37 33.04 33.34 34.59 36.06 35.58 36.43 33.89 33.32 34.79 33.31 33.35 30.82 29.08 27.39 27.53 23.40 22.55 21.32 25.94 27.56 26.85 27.95 26.86 29.29 31.49 32.27 32.98 33.04 32.77 33.39 33.04 34.02
48.65 49.53 51.02 50.87 49.21 46.04 41.42 35.73 35.63 37.28 35.11 31.25 32.33 35.86 32.75 35.21 35.94 35.48 35.30 34.80 35.13 33.96 33.10 30.47 29.22 28.46 29.45 25.66 26.17 24.68 27.80 28.46 26.78 26.18 29.34 28.74 31.11 31.20 32.54 33.45 33.74 33.40 32.69 33.31
47.99 49.06 49.85 49.86 48.35 46.53 40.27 35.71 35.33 36.58 37.14 30.68 31.38 32.99 33.65 34.62 35.02 34.82 34.25 34.57 33.30 31.88 30.20 27.63 28.70 29.11 27.95 26.44 25.11 23.92 28.60 28.56 27.12 27.19 30.70 30.21 29.85 31.26 32.69 33.33 33.29 33.78 32.69 30.80
47.66 48.31 49.01 49.17 48.30 45.55 39.20 34.86 37.20 36.65 37.03 30.80 28.35 32.74 30.04 31.55 32.66 32.91 31.70 33.56 32.39 31.43 30.50 29.25 29.47 29.84 30.07 24.76 23.20 29.08 29.11 30.20 31.55 30.81 28.60 30.22 31.40 32.04 30.42 32.39 33.01 33.19 32.91 32.34
47.45 48.09 48.81 47.65 47.47 39.14 37.19 34.83 37.07 40.11 36.72 31.72 27.71 26.67 31.24 31.40 31.56 31.50 31.70 31.35 30.69 30.73 29.42 28.28 27.61 28.17 29.69 25.92 23.82 30.70 30.71 31.14 30.94 31.02 30.20 30.19 30.94 32.00 32.28 32.34 33.25 35.66 31.93 31.03
47.38 48.04 49.16 48.04 45.43 41.35 36.23 36.32 42.45 37.87 33.78 31.64 20.39 23.30 26.59 32.09 28.94 28.85 29.67 29.44 28.85 29.31 29.20 27.77 27.41 27.65 26.69 25.24 29.48 28.63 30.70 30.73 30.10 30.64 30.97 30.49 29.66 30.67 30.48 29.84 30.28 29.18 28.38 27.73
47.60 48.43 47.12 39.91 36.90 33.55 34.46 42.75 39.44 34.47 32.32 25.13 22.42 20.01 20.74 29.83 28.45 29.33 28.80 29.07 25.56 29.02 27.02 26.80 27.79 25.57 23.79 29.67 29.71 30.16 30.65 30.50 30.47 28.67 29.34 29.67 29.86 29.97 29.12 28.89 28.59 28.38 27.42 25.75
48.19 41.55 36.33 32.76 34.95 41.24 39.86 33.95 31.08 28.57 28.34 27.20 23.41 23.72 22.13 27.48 26.88 27.40 27.03 27.29 26.07 18.88 26.62 27.63 25.61 25.43 30.50 31.56 31.19 31.20 30.95 30.70 29.34 27.42 26.57 27.93 27.27 28.62 28.18 28.38 28.43 28.51 27.17 25.37
41.80 35.57 33.14 35.24 39.80 33.97 29.93 26.55 25.63 26.45 24.10 27.32 25.05 24.27 23.46 28.68 24.46 26.54 29.11 21.32 22.56 16.37 21.51 23.29 21.32 22.53 26.46 29.64 29.38 30.25 29.40 28.38 28.99 30.71 30.76 31.33 30.50 29.10 28.62 27.73 28.41 28.01 26.28 24.63
41.46 38.13 36.04 33.19 30.33 26.34 22.85 19.64 23.03 23.03 22.66 24.12 23.06 25.36 26.96 26.99 28.46 27.22 26.43 21.99 20.06 16.73 22.42 20.67 20.24 24.25 28.05 28.21 28.21 28.35 27.93 27.86 27.87 29.02 30.48 30.43 30.56 30.07 29.05 28.26 27.47 25.60 25.16 25.40
37.94 33.59 30.46 28.69 25.46 18.38 20.40 19.48 19.35 15.56 22.84 22.54 24.15 22.76 25.75 26.47 28.18 25.62 23.22 18.55 22.31 22.62 14.52 18.12 21.30 25.43 26.33 26.24 25.99 27.07 27.33 27.03 27.96 29.13 29.20 28.50 27.58 28.11 27.75 26.70 24.91 24.38 23.69 23.36
33.29 29.69 24.97 24.84 17.45 22.14 24.38 24.29 25.41 26.10 24.55 24.59 24.20 22.68 23.82 26.25 24.19 24.41 16.49 23.77 22.35 11.48 16.18 17.94 21.71 23.98 25.94 25.69 26.28 26.53 26.00 26.44 24.22 24.94 27.30 26.81 25.12 23.88 24.04 25.82 24.18 23.53 22.54 22.83
31.75 28.36 23.82 22.30 25.36 20.10 21.08 20.65 24.84 25.10 26.85 26.42 24.85 23.26 24.27 21.54 21.17 23.68 20.20 15.71 12.51 15.90 17.55 22.79 23.23 25.15 24.96 25.69 25.68 26.37 26.91 26.65 25.56 23.99 21.49 19.89 21.66 21.97 21.29 22.84 23.44 22.99 22.55 21.94
30.94 27.22 21.00 23.13 19.61 19.42 19.89 21.12 23.29 26.18 27.34 25.11 25.80 20.63 17.70 18.94 20.16 16.36 16.60 15.30 14.85 19.70 19.91 23.88 21.82 25.45 25.83 25.46 25.77 26.81 27.30 26.69 26.06 24.77 24.72 24.57 22.90 22.41 21.80 21.58 21.39 21.46 21.66 20.27
31.26 29.63 27.35 25.20 23.67 27.22 27.16 26.76 26.99 28.70 27.81 24.72 22.29 17.57 20.65 20.64 12.61 15.31 22.02 20.40 22.05 23.41 22.65 20.27 23.58 27.37 26.76 26.07 25.99 27.14 27.98 26.98 25.97 24.48 23.65 22.42 22.94 20.32 18.69 19.35 20.31 19.96 20.35 19.28

GFSNW_sfc_wetblb_099.txt.gz
Wetbulb
52.26 52.38 52.70 52.79 53.27 51.48 41.91 34.82 31.88 42.31 41.38 33.25 31.05 32.43 35.33 39.31 36.47 37.91 36.05 34.26 33.14 30.94 30.97 30.29 31.60 30.99 33.83 39.44 39.86 34.85 36.32 33.84 27.77 30.25 35.48 36.65 35.66 32.55 31.51 26.27 24.86 26.96 26.10 28.10
52.90 52.90 52.64 52.29 52.73 49.75 37.65 32.50 32.11 40.66 40.97 28.30 24.44 31.34 34.96 36.22 35.24 34.82 34.99 34.16 36.06 35.07 32.93 30.13 32.66 34.31 38.70 39.73 38.12 34.81 35.74 29.57 22.88 25.15 29.35 33.31 31.64 32.38 31.89 30.34 27.82 24.76 22.94 26.86
52.81 52.67 52.57 52.43 52.51 50.59 37.78 34.09 30.19 35.45 35.17 31.81 29.89 30.55 31.78 32.81 37.24 35.96 36.00 34.77 35.64 33.88 31.68 33.41 31.02 32.77 37.40 38.99 38.65 42.56 38.42 29.48 27.06 21.60 26.37 30.51 29.32 29.94 30.68 28.78 23.20 25.20 25.19 29.11
52.38 52.41 52.74 52.50 52.25 49.62 39.42 34.11 29.75 31.27 28.33 31.82 30.53 30.67 32.45 31.85 32.46 35.76 36.18 33.70 33.17 32.05 28.94 29.18 28.87 31.60 33.03 36.20 38.62 36.51 33.68 26.88 25.72 28.50 29.36 30.40 30.30 29.77 29.49 26.38 27.28 24.62 27.18 28.30
51.84 52.16 52.45 52.29 51.37 49.90 38.46 34.54 32.93 31.26 30.10 29.78 29.70 33.39 31.59 32.35 33.35 33.84 33.37 32.59 33.51 32.61 29.88 30.00 28.10 30.80 29.64 29.32 32.37 31.90 32.21 26.75 28.66 24.53 29.57 29.33 28.08 29.42 28.69 30.46 30.71 29.81 29.63 29.29
52.18 52.06 52.13 52.21 50.39 46.97 37.62 35.36 35.63 34.15 32.73 30.12 29.27 29.90 31.34 33.02 33.45 34.84 35.05 33.67 31.85 31.19 32.50 34.52 34.88 34.79 33.74 32.28 29.68 30.11 30.04 27.33 23.59 21.52 25.47 26.34 23.60 26.29 28.88 31.07 31.48 30.78 28.23 31.65
51.99 52.02 52.02 52.05 50.55 45.26 38.48 37.01 35.96 32.84 30.22 31.08 31.41 32.76 33.27 32.92 32.99 31.92 34.58 34.28 31.71 35.36 36.80 34.92 32.91 31.06 32.75 31.94 31.35 31.81 28.72 27.01 24.02 21.40 22.65 15.29 26.19 29.82 31.81 31.01 31.88 32.48 32.42 33.48
51.04 51.62 51.90 51.97 51.32 47.70 38.57 36.41 36.35 33.58 29.40 30.83 30.89 31.97 31.03 31.79 31.74 31.72 33.62 35.34 36.99 36.37 32.58 30.18 28.10 26.62 27.06 28.24 29.95 30.03 30.37 27.23 22.81 19.08 17.97 23.92 24.31 27.86 29.30 28.81 29.37 31.93 32.67 33.43
50.22 50.88 51.54 51.99 51.03 48.02 38.29 36.33 36.05 35.11 31.08 29.91 32.74 32.18 30.55 30.18 27.64 30.44 32.47 35.62 36.62 33.76 30.53 28.33 23.21 21.04 22.12 23.97 25.89 29.36 29.39 28.64 26.05 21.91 19.41 18.09 24.76 29.47 32.74 31.00 24.06 31.12 34.07 33.72
49.82 50.19 51.04 51.94 51.34 48.26 40.08 36.48 36.37 35.25 31.31 31.30 32.74 31.95 31.91 32.76 29.47 29.44 29.24 32.82 33.36 32.54 28.56 26.92 24.01 21.24 24.71 21.90 21.44 22.20 23.90 23.78 23.26 23.34 21.17 24.39 27.81 31.90 32.61 22.38 25.94 31.90 34.14 34.25
49.51 49.85 51.08 51.97 50.72 48.48 40.83 36.91 36.80 36.64 31.66 31.58 33.27 34.65 32.62 32.00 32.00 30.08 31.48 30.91 31.23 30.08 27.62 26.82 25.24 24.08 23.64 21.40 23.21 22.27 23.37 20.55 21.24 21.66 19.73 18.26 31.48 31.32 28.07 30.85 30.85 33.42 33.65 34.08
48.93 49.60 51.11 51.54 50.64 47.80 43.51 36.36 38.02 37.03 35.00 34.34 34.23 35.23 34.42 34.54 35.74 34.57 31.90 31.05 31.42 31.80 28.52 27.55 26.84 26.46 21.22 21.33 21.63 22.63 22.40 26.24 23.90 25.42 25.42 30.29 31.49 32.30 32.53 31.69 33.47 33.27 33.36 34.43
48.25 49.17 50.29 50.91 49.75 46.98 41.90 35.62 35.54 36.17 33.39 33.56 32.83 33.13 33.26 35.41 35.63 36.85 33.65 32.35 33.59 32.67 32.13 29.32 28.27 26.93 27.27 23.12 21.94 21.27 25.47 26.87 26.46 27.82 27.91 29.03 31.65 32.07 32.73 33.06 33.07 32.95 33.55 34.56
47.93 48.63 49.69 50.63 49.43 45.87 41.32 35.63 35.22 36.54 34.44 30.30 32.17 35.18 31.79 34.33 35.43 35.02 35.28 34.70 34.02 33.48 32.59 29.98 28.71 27.89 29.05 25.20 25.70 24.24 27.60 27.64 26.05 25.62 28.93 29.55 30.65 30.57 32.02 32.63 33.76 33.84 33.87 34.46
47.64 48.08 49.06 49.14 49.11 47.57 40.16 35.58 34.92 36.14 36.45 30.23 31.77 32.61 32.32 33.48 34.70 34.68 34.24 34.31 32.87 31.34 29.88 27.51 28.41 28.91 27.14 25.46 24.44 22.85 27.37 27.40 26.40 26.89 30.77 30.35 30.32 29.98 31.86 31.15 32.72 33.46 33.61 32.34
47.45 47.82 48.44 49.11 47.63 45.49 39.04 35.29 36.96 36.30 36.70 30.06 28.53 32.33 29.10 30.22 31.88 32.62 31.80 33.06 31.72 30.89 30.16 28.69 28.74 29.38 29.30 24.90 23.17 28.73 28.42 29.51 31.11 30.94 28.86 29.92 30.75 31.84 32.09 31.78 32.60 33.34 33.14 33.05
47.40 47.55 48.29 48.43 45.91 39.36 37.29 35.51 36.80 39.69 36.65 31.07 27.26 27.10 30.69 30.98 30.89 30.32 30.47 30.42 29.87 30.37 29.16 28.01 27.64 28.13 30.13 25.99 25.68 30.96 30.73 31.34 30.93 30.91 29.32 29.75 31.05 32.13 31.85 32.18 32.70 35.78 32.19 31.43
47.40 47.57 48.29 48.75 45.49 41.19 36.18 36.63 42.46 37.88 33.44 31.54 20.85 23.60 25.92 30.54 28.47 28.27 29.05 28.52 28.40 28.88 28.98 27.28 27.22 27.31 26.74 25.21 30.17 28.32 30.22 29.60 30.07 30.36 30.13 30.94 29.74 29.70 29.89 30.09 30.70 29.77 29.23 28.15
47.38 47.78 46.95 39.94 36.79 33.54 34.29 42.42 39.16 34.17 32.64 25.87 23.73 20.77 20.41 29.40 27.79 28.77 28.49 28.65 24.88 28.64 26.80 26.53 28.22 26.01 24.42 29.97 30.39 30.20 30.95 31.18 30.73 30.06 29.22 28.27 28.92 30.24 29.61 29.20 28.70 28.91 28.28 26.97
47.84 43.04 36.50 32.52 34.31 40.77 40.62 33.64 31.03 28.85 29.10 28.08 24.01 23.81 20.97 27.24 26.31 27.08 26.60 26.73 25.27 17.91 26.37 27.16 25.89 26.09 30.05 31.78 31.22 31.72 31.73 30.81 29.39 27.08 26.15 27.27 27.34 28.56 28.39 28.18 28.68 29.24 28.40 26.29
41.85 37.29 34.68 34.92 39.52 33.17 29.67 26.33 25.71 27.14 24.88 27.88 25.84 25.68 24.51 28.43 24.63 26.27 28.75 20.51 22.71 15.93 21.46 22.98 22.35 22.81 26.63 29.03 28.66 30.00 30.28 29.91 29.26 29.25 29.35 29.91 29.67 29.32 28.71 28.53 29.00 28.76 27.67 26.14
42.05 38.67 36.67 34.71 31.40 26.90 22.33 19.75 22.63 23.42 24.06 24.75 23.70 24.54 27.23 26.88 28.41 27.37 26.39 22.07 21.59 17.95 21.91 23.14 21.12 24.27 27.61 27.45 27.91 27.37 27.62 27.45 27.86 28.05 28.11 28.98 30.58 29.80 29.16 28.71 28.23 27.84 27.34 26.04
39.87 35.28 31.77 29.49 26.73 18.03 21.59 21.46 18.73 18.05 24.22 23.02 25.26 24.42 27.01 26.51 28.20 25.46 23.75 21.49 23.39 22.49 13.19 17.13 20.53 25.18 26.31 26.06 26.06 26.34 26.90 26.84 28.37 28.75 28.35 29.67 28.44 29.10 28.29 27.71 27.40 25.98 24.46 24.12
33.95 31.25 26.73 24.46 17.31 21.32 24.06 24.55 24.64 25.82 24.21 24.76 24.63 22.32 25.00 27.02 25.29 25.22 19.24 24.13 22.30 12.78 16.82 16.72 21.16 24.05 25.86 24.94 25.88 25.85 25.28 27.28 25.27 24.23 26.52 26.77 26.04 25.35 24.50 27.70 25.65 23.83 23.09 23.17
31.80 30.82 26.40 23.89 25.72 20.71 19.90 20.88 24.80 24.94 28.35 26.81 24.17 22.84 24.78 22.36 22.51 24.04 20.56 16.34 14.26 16.97 18.12 21.02 22.84 24.93 24.67 25.41 25.76 26.14 26.79 27.36 27.16 25.98 23.33 21.19 21.43 21.68 21.18 23.44 24.50 23.84 23.58 22.84
30.88 30.07 21.99 21.90 17.08 16.88 17.60 20.05 26.67 27.86 29.07 27.68 26.99 21.66 18.38 20.81 21.33 17.97 17.92 15.76 16.44 21.05 20.87 24.11 20.64 23.51 24.50 25.38 25.90 26.38 28.03 28.32 28.19 27.07 26.27 26.43 24.32 23.46 23.30 22.92 22.79 22.76 22.58 22.21
30.02 28.79 28.05 23.14 19.28 21.10 23.26 26.70 28.38 30.17 29.10 26.95 25.97 22.32 23.10 21.41 12.76 14.95 21.03 20.11 25.67 25.26 23.89 21.46 22.97 25.05 25.98 25.53 25.96 26.79 27.93 27.65 27.73 26.66 26.16 25.87 25.33 22.34 19.95 20.98 21.84 21.60 22.03 21.55

GFSNW_sfc_wetblb_102.txt.gz
Wetbulb
53.18 52.73 52.92 52.60 53.31 50.53 46.07 45.06 41.46 50.12 49.14 42.75 40.03 36.87 38.33 40.30 39.28 41.44 39.73 39.28 37.87 36.46 36.35 35.92 36.44 35.82 38.13 42.84 43.14 38.04 39.85 36.17 31.69 35.06 39.45 40.57 39.94 36.93 35.27 31.14 28.74 32.57 31.58 32.85
53.13 52.87 52.93 52.74 53.37 48.94 45.95 42.88 42.61 49.72 50.43 38.82 37.61 38.21 38.34 39.43 38.82 38.44 39.07 38.46 40.25 39.84 37.61 34.86 37.34 37.92 41.95 43.01 41.69 39.07 40.10 35.34 30.96 30.56 34.99 38.02 36.19 36.99 35.81 34.75 34.01 31.21 29.91 34.36
52.71 52.78 52.86 52.37 52.08 50.69 45.73 44.48 40.81 45.72 43.97 40.11 38.68 37.55 37.24 37.16 40.60 39.35 39.41 39.05 40.47 38.90 36.97 38.77 36.53 37.33 40.54 42.56 42.32 42.34 41.80 36.08 33.44 31.12 32.79 36.32 33.87 34.97 34.95 34.95 31.56 32.45 33.24 35.35
52.18 52.21 52.61 52.28 50.69 50.68 46.52 43.31 39.27 38.57 39.28 39.38 38.84 39.24 37.73 36.72 36.67 40.71 40.88 38.86 37.63 37.04 35.42 35.71 35.42 37.17 38.12 40.45 41.21 41.06 39.58 33.85 33.46 35.13 36.04 35.54 35.12 35.10 34.91 32.04 34.49 31.74 34.34 34.64
52.29 51.99 52.18 52.20 50.58 48.60 45.76 42.88 41.02 38.82 38.36 36.14 38.76 38.30 36.69 36.26 37.34 38.04 37.92 37.29 37.56 38.31 36.33 36.53 35.22 36.69 36.82 36.86 38.33 38.37 37.86 34.65 33.60 30.89 34.35 34.55 32.37 35.06 35.36 35.26 35.19 34.62 34.91 34.81
52.13 52.01 52.03 51.93 49.96 48.77 45.26 42.93 42.67 42.14 36.67 37.92 38.54 37.35 36.73 36.62 37.86 39.36 39.38 38.50 38.03 37.30 38.50 40.49 41.48 41.43 40.17 39.26 37.30 36.40 35.75 35.07 32.38 30.02 31.75 32.02 29.91 34.17 34.81 35.71 37.46 37.39 33.75 38.86
51.40 51.73 52.13 52.10 50.74 46.46 45.85 43.22 42.98 41.68 37.44 39.02 38.34 37.76 38.01 37.29 37.56 37.59 39.48 39.57 38.19 39.80 42.89 41.03 40.41 39.51 38.95 38.62 38.62 38.63 35.06 33.78 32.80 30.69 31.45 25.00 33.37 36.52 37.04 36.76 38.00 39.24 38.37 39.17
50.76 51.27 51.63 52.13 50.74 47.21 45.54 43.50 43.58 41.69 38.12 37.92 36.96 37.13 37.93 38.04 38.20 37.85 38.47 40.50 41.53 42.33 40.03 37.49 34.93 34.79 34.32 35.07 36.51 36.68 37.58 35.31 32.36 28.96 28.60 33.34 32.64 32.81 34.77 34.25 35.86 39.91 39.51 40.90
50.20 50.51 51.32 51.86 50.76 47.70 44.83 42.74 42.95 42.61 39.61 38.16 38.97 38.56 38.19 38.38 38.26 37.95 37.87 41.01 42.68 41.31 38.30 36.02 30.64 30.24 29.98 31.04 31.79 34.98 34.86 35.31 33.25 29.43 25.90 26.12 33.13 35.90 38.42 38.31 32.29 38.70 39.23 40.26
49.40 50.09 51.15 51.96 50.51 48.18 45.63 42.67 42.24 43.47 40.12 39.56 39.66 39.50 38.70 39.28 38.06 37.61 37.06 38.71 39.45 39.70 37.41 33.58 31.80 31.27 31.77 29.47 29.07 29.10 31.45 32.21 30.23 30.93 28.87 32.63 37.00 37.93 38.80 30.40 34.09 38.10 40.18 41.68
48.73 49.59 50.65 51.67 50.65 47.82 45.20 42.29 42.12 43.21 40.65 40.83 38.25 40.05 39.30 38.43 39.14 37.96 37.71 37.96 37.51 37.57 34.71 33.73 33.57 31.78 32.72 30.13 32.63 31.36 31.58 29.87 29.28 29.89 27.88 25.81 37.35 36.28 33.84 38.54 36.99 39.89 40.40 41.78
48.19 49.06 50.03 50.97 50.33 48.05 44.45 42.95 41.90 41.62 41.66 41.32 39.03 40.62 41.15 41.76 42.54 41.49 38.55 37.65 37.62 39.37 36.90 35.37 35.24 32.72 31.62 30.65 30.01 31.43 29.33 34.08 33.31 33.61 34.76 37.21 39.37 40.46 41.91 38.69 40.11 39.90 40.76 41.46
48.05 48.46 49.53 50.81 49.63 46.75 43.61 42.00 42.08 41.89 40.50 41.21 39.32 39.11 39.39 39.10 40.49 42.52 40.47 39.33 39.47 38.46 39.47 38.50 36.71 32.99 35.24 31.70 30.82 31.89 34.14 34.64 33.35 34.08 37.96 36.83 38.59 40.89 40.57 40.87 40.41 41.09 41.12 41.25
48.19 48.16 48.92 50.01 49.38 46.31 42.78 41.65 41.13 42.67 40.30 37.21 39.12 38.88 38.25 39.08 39.62 39.69 40.42 40.06 39.01 39.60 39.84 38.59 36.95 34.33 37.14 34.03 34.19 32.47 37.41 33.82 34.10 33.80 36.98 38.50 39.28 39.00 39.99 39.86 39.24 39.53 40.24 40.64
48.40 47.92 48.19 49.20 49.25 47.77 43.06 40.60 39.91 40.69 41.42 37.24 38.11 38.34 37.01 37.70 38.73 38.51 38.66 39.14 38.87 39.14 37.34 36.31 35.03 37.20 34.79 35.17 31.95 31.98 36.49 35.17 33.13 33.75 39.01 38.82 39.20 38.05 38.31 38.19 38.40 38.56 39.31 38.71
48.85 47.67 47.82 48.56 48.46 47.19 42.31 40.03 40.82 39.73 41.32 38.48 34.50 37.53 35.47 36.10 37.31 37.10 36.95 37.89 37.79 38.48 37.81 37.33 37.42 35.40 35.73 33.57 32.45 37.83 37.10 38.61 40.48 38.50 38.45 38.29 38.34 37.97 38.52 38.28 39.22 38.77 38.95 40.23
48.85 47.71 47.65 48.27 47.10 43.21 40.53 38.86 40.05 40.69 40.89 36.72 34.35 34.90 35.17 36.39 35.98 35.57 35.96 36.38 37.36 37.50 36.94 34.44 35.27 34.95 35.72 34.10 32.03 38.79 38.60 38.28 38.62 38.59 36.70 36.27 37.21 37.66 37.92 37.60 37.99 38.62 38.14 38.53
48.65 47.56 47.63 48.61 47.02 43.90 40.62 40.76 43.32 40.51 37.79 35.97 32.41 32.47 31.01 35.51 33.50 33.14 34.75 34.58 35.00 34.90 35.71 33.52 32.98 33.20 33.70 30.54 36.89 37.99 37.04 36.98 36.47 36.99 36.81 37.83 36.16 35.80 36.50 36.25 35.94 35.90 35.74 35.44
47.98 47.45 46.80 43.10 41.34 38.58 38.55 42.49 40.29 38.19 37.18 34.32 30.76 30.73 31.54 33.65 32.54 33.83 32.74 34.15 31.74 34.04 32.34 32.23 32.41 32.43 27.27 34.04 36.43 36.84 36.74 35.73 36.79 35.61 35.13 35.13 33.58 34.55 34.74 34.72 35.01 35.22 35.50 34.17
47.88 44.23 39.92 37.05 38.43 41.20 42.58 37.18 35.11 34.86 35.02 32.73 29.90 31.02 29.72 33.06 31.53 32.17 32.18 31.75 31.82 29.55 32.19 31.89 28.93 30.12 35.29 36.61 37.01 36.86 37.54 36.71 35.52 33.25 32.88 32.83 32.13 33.08 33.88 33.50 35.58 35.87 35.68 34.26
42.60 38.54 36.65 38.25 40.11 37.16 34.02 32.40 31.04 31.40 29.82 31.99 31.04 30.64 30.23 32.70 31.57 32.21 33.32 30.57 30.19 27.26 29.40 28.51 28.79 27.68 31.88 34.79 33.98 35.24 35.77 36.83 36.21 36.49 36.73 35.87 35.19 34.34 33.94 33.24 33.93 34.26 34.56 33.10
42.39 39.42 38.31 37.27 34.43 31.79 29.71 28.50 27.68 27.18 28.82 29.69 28.42 28.97 31.78 30.93 32.58 32.84 29.71 29.07 26.99 24.27 27.87 25.59 23.80 30.28 33.18 32.86 32.79 33.30 33.20 33.01 32.84 32.59 32.28 32.65 33.06 33.76 34.03 33.69 33.96 33.78 33.64 32.24
41.58 36.78 33.60 33.38 32.37 24.97 25.66 23.36 26.24 25.61 29.34 27.94 28.41 28.75 30.92 29.74 31.36 29.94 29.34 25.87 25.04 27.01 23.98 23.99 28.45 31.92 31.37 31.22 30.97 31.09 31.26 31.51 32.29 32.42 32.27 32.11 32.39 33.80 33.21 33.04 33.01 33.31 32.03 31.16
33.42 31.68 28.40 28.59 26.26 25.63 27.74 29.02 31.60 32.02 30.01 28.22 29.76 28.28 29.36 30.02 29.38 28.90 26.01 28.28 26.17 22.84 20.21 23.65 31.14 31.31 32.95 31.78 30.67 30.14 31.53 31.65 30.64 31.32 32.22 31.90 31.58 31.60 31.66 31.91 32.65 31.69 30.54 29.01
31.78 31.46 28.56 28.54 30.40 28.44 28.29 28.70 28.05 28.26 30.98 30.45 29.49 28.75 29.35 28.04 27.31 26.55 24.90 21.21 20.69 23.35 25.74 31.22 33.65 32.13 30.76 29.89 29.95 30.84 31.14 31.74 31.98 31.05 30.05 30.20 30.17 29.66 30.74 30.41 30.67 29.75 29.33 27.58
32.39 30.70 30.69 27.67 26.71 26.95 24.88 25.38 29.33 30.17 31.42 30.88 31.45 27.38 25.82 27.11 26.56 22.36 22.41 22.10 21.57 27.91 29.26 32.90 30.57 30.32 30.00 30.55 30.76 30.56 31.20 32.31 32.38 32.22 31.40 31.72 30.13 29.65 30.40 29.88 29.10 28.71 28.09 27.35
30.19 29.85 32.30 30.19 28.04 31.38 28.75 28.72 30.69 32.03 31.19 30.20 29.52 25.50 26.68 24.86 23.38 21.62 25.31 23.86 29.27 32.31 31.82 29.53 29.08 30.90 31.27 31.24 30.24 29.78 30.04 31.41 31.80 31.62 31.64 30.42 29.78 28.37 27.15 27.38 28.45 27.36 26.80 27.27

GFSNW_sfc_wetblb_105.txt.gz
Wetbulb
52.63 52.64 53.09 53.23 53.49 51.50 49.11 51.50 43.31 52.43 51.67 45.41 44.13 39.21 40.26 40.66 41.32 43.36 41.76 42.10 40.51 39.22 38.94 38.36 38.50 37.93 40.58 44.89 44.13 39.25 41.85 38.56 34.56 37.00 42.25 43.05 41.81 38.58 37.49 31.99 31.79 34.62 32.84 33.96
52.99 52.57 52.47 52.17 52.04 51.46 48.82 47.06 47.65 53.98 53.94 41.37 40.97 41.98 40.60 41.93 41.47 40.99 41.53 40.82 42.38 42.11 39.51 36.63 39.43 39.64 43.57 44.12 42.89 40.59 41.72 37.61 32.64 33.10 37.07 39.67 37.33 39.65 38.83 37.42 36.10 32.21 31.16 35.00
52.92 52.84 52.85 52.55 51.65 51.31 50.13 49.06 43.46 48.16 47.74 45.10 42.84 41.24 40.29 39.17 42.74 41.72 42.18 41.51 42.81 40.91 39.21 40.98 38.34 39.12 42.03 44.01 43.53 42.66 42.45 38.29 34.68 32.00 34.09 37.33 35.24 37.09 37.50 36.26 32.87 34.78 34.78 36.96
52.43 52.60 52.76 52.26 51.66 50.18 50.67 47.68 43.37 43.12 42.54 41.79 42.99 42.81 41.10 39.53 38.80 42.87 43.16 41.00 40.62 39.52 37.45 38.16 37.73 39.63 40.32 42.36 42.76 42.47 41.17 35.00 36.49 36.79 37.56 37.52 36.41 36.22 37.40 34.00 35.31 32.33 37.25 36.39
52.15 52.13 52.51 52.25 51.14 51.33 49.97 46.40 45.20 44.42 43.31 41.01 42.45 41.17 39.48 39.32 39.73 40.71 39.73 39.17 39.87 40.96 38.34 38.50 37.12 38.77 39.24 38.59 40.84 40.07 40.70 35.41 36.07 32.03 37.02 36.12 34.19 36.80 37.23 37.31 37.16 36.56 36.98 36.33
51.63 51.88 52.25 52.35 50.80 51.43 48.87 48.38 47.55 44.75 39.61 41.69 41.72 40.79 39.91 39.46 40.86 41.40 42.07 41.28 40.65 39.43 40.33 42.37 43.39 43.79 43.16 41.86 39.57 38.30 37.52 36.51 34.01 30.71 34.97 34.82 30.78 35.42 36.19 37.44 38.95 38.17 34.53 40.16
51.09 51.40 52.02 52.41 50.94 48.73 50.82 47.78 46.67 44.33 40.65 41.79 40.82 40.23 40.44 39.66 40.60 40.32 41.94 42.16 40.77 42.51 45.02 44.62 42.68 42.32 41.82 41.88 41.28 41.96 37.66 36.00 34.90 31.24 33.78 25.98 35.76 39.08 38.84 38.20 39.39 40.79 40.66 42.07
50.49 50.93 51.56 52.16 51.19 48.63 49.63 48.73 47.87 44.61 41.32 41.43 40.60 40.04 40.43 41.17 41.25 39.99 40.83 42.81 44.12 45.54 42.92 39.15 36.76 36.68 36.39 37.90 39.97 40.02 40.34 37.75 33.23 29.66 30.47 34.80 36.18 35.38 36.33 36.35 36.74 41.85 40.90 42.47
49.50 50.29 51.15 52.05 50.84 49.00 49.24 47.33 47.16 47.15 42.11 40.74 41.14 40.99 41.34 40.21 40.74 40.91 40.68 43.26 45.22 44.25 41.09 37.80 32.35 31.52 32.85 32.55 33.35 37.18 38.97 38.98 34.73 32.86 26.96 26.90 35.14 37.66 40.49 40.23 32.75 41.94 41.61 41.80
48.79 49.73 50.62 51.92 51.03 48.73 47.90 47.07 46.60 46.82 42.98 43.63 42.80 41.44 41.16 42.47 41.49 39.90 40.93 41.29 41.91 42.70 39.47 35.12 33.58 33.31 34.76 31.19 31.44 30.94 32.48 33.59 30.89 31.52 29.96 34.19 39.64 39.47 41.36 31.32 34.91 40.63 41.71 42.22
48.48 48.88 50.00 51.48 51.21 49.28 46.58 46.46 46.26 45.13 44.20 44.68 42.26 43.57 42.13 41.85 42.11 38.85 41.45 40.59 40.36 40.42 36.14 35.51 36.13 33.99 35.92 32.81 36.19 34.34 33.62 31.85 31.07 32.57 30.17 26.40 40.85 38.51 34.84 39.74 40.35 42.24 42.67 43.86
48.26 48.17 49.15 50.87 51.00 48.94 46.06 45.67 45.40 44.38 43.17 44.38 43.45 45.47 46.25 45.63 45.70 43.84 42.68 41.12 40.62 42.44 38.52 38.48 37.98 34.78 36.29 34.46 31.04 36.75 31.19 36.40 35.48 35.86 35.99 39.92 41.61 42.53 43.86 41.89 41.56 42.26 42.76 43.92
48.33 48.20 48.35 49.86 50.42 48.67 45.20 44.34 44.98 44.96 42.82 43.86 41.52 41.45 43.94 43.36 43.39 47.32 41.65 43.18 43.26 41.71 43.06 41.12 39.16 34.30 38.34 32.88 34.09 35.88 37.71 39.79 34.68 35.62 39.30 40.47 41.40 42.51 43.55 43.62 42.34 43.26 43.55 43.47
49.16 48.31 47.91 48.83 49.83 49.08 45.45 45.61 45.03 44.30 43.01 38.10 41.36 41.89 40.55 42.53 42.79 43.17 44.69 43.47 42.48 43.41 43.01 40.55 38.66 35.76 40.13 35.94 37.33 35.61 39.00 37.15 35.65 35.95 39.02 40.25 41.56 42.16 42.51 42.24 42.36 41.18 42.20 42.43
50.20 48.49 47.57 47.79 48.84 48.81 46.96 46.88 45.34 44.15 41.77 37.79 39.23 42.31 40.47 40.52 41.22 40.69 41.54 41.83 41.91 41.35 39.25 38.31 36.56 40.03 37.79 38.82 37.38 34.33 39.80 36.87 34.43 35.13 40.51 40.67 40.86 40.93 41.03 40.42 40.68 41.27 40.76 40.74
50.41 48.83 47.56 47.81 48.25 46.49 45.92 43.06 43.99 43.32 44.40 39.13 35.46 39.78 37.43 38.17 39.49 39.36 39.27 40.67 40.98 41.32 39.84 39.12 40.63 40.47 38.49 34.55 34.07 40.68 41.47 42.37 42.39 39.90 40.52 40.91 41.54 40.45 40.98 39.62 40.98 41.41 40.73 41.17
50.56 48.86 47.62 47.77 48.35 46.51 42.84 42.02 42.58 42.40 44.32 38.55 36.27 37.42 36.68 38.09 37.97 38.21 37.93 39.00 39.62 39.52 39.16 37.81 38.64 37.87 37.42 35.96 32.51 40.97 42.40 42.67 42.22 42.57 41.04 37.30 38.93 38.38 40.16 40.13 40.29 40.33 40.38 41.17
50.55 48.51 47.46 47.86 48.17 46.82 43.86 44.80 43.92 43.41 41.43 38.65 34.78 36.08 33.91 37.69 35.79 35.02 37.96 36.57 37.31 37.77 37.48 37.16 35.16 36.70 36.20 32.52 37.83 40.70 42.60 41.83 41.13 40.99 41.06 40.05 40.61 38.72 38.20 39.15 38.78 37.55 37.44 38.22
49.43 47.68 47.19 44.85 43.79 41.39 41.69 43.05 42.63 42.22 40.12 37.62 35.39 32.90 34.35 35.75 35.39 36.38 34.93 36.53 32.66 37.22 33.11 34.41 35.10 34.22 30.55 35.24 37.40 39.36 41.20 39.83 39.57 38.69 39.86 38.74 36.87 37.29 37.91 37.65 37.16 36.28 37.96 38.04
47.68 44.85 40.37 37.23 40.64 42.05 42.82 39.10 37.17 37.02 38.22 36.27 33.00 36.81 32.99 35.48 34.51 34.23 35.03 34.79 33.08 30.35 33.49 34.46 30.21 30.41 37.22 39.76 40.36 41.08 41.62 40.88 39.95 35.52 33.86 34.87 34.39 35.34 36.43 35.92 37.01 37.27 37.78 37.22
43.28 38.92 36.97 40.38 40.74 38.91 36.87 34.51 33.14 35.18 32.04 35.59 34.95 35.04 34.45 35.57 33.47 34.17 35.64 34.08 33.51 28.51 31.60 29.54 30.78 30.58 35.23 38.14 38.10 39.50 40.94 39.96 39.33 39.52 39.46 38.69 37.86 36.80 36.23 36.17 36.06 36.34 36.12 35.10
42.42 39.59 39.23 38.44 36.04 34.83 31.30 31.74 31.62 29.87 30.77 35.14 32.57 32.80 34.48 34.68 35.86 34.38 32.89 31.45 29.87 26.00 31.16 27.71 25.34 33.11 36.81 36.77 35.66 36.05 36.62 35.92 36.40 37.29 36.25 35.76 34.86 35.60 35.48 35.64 35.72 35.30 35.63 35.81
42.12 37.25 33.58 34.12 34.36 28.11 28.03 25.12 28.68 29.83 33.40 32.20 31.23 31.24 34.48 32.90 34.10 33.75 31.91 28.20 26.89 30.31 26.77 26.27 30.75 36.03 36.29 35.31 34.30 34.11 33.24 33.44 33.76 34.16 34.82 34.48 34.15 34.77 34.58 34.69 34.91 35.46 35.11 34.65
34.42 31.94 29.61 30.85 30.34 29.44 31.71 31.93 35.50 35.90 34.25 32.22 33.66 32.46 32.49 33.64 31.27 32.66 28.12 31.47 29.14 25.83 22.85 26.15 35.61 36.93 36.17 36.30 34.78 32.93 33.80 33.23 32.12 33.04 34.03 33.20 32.59 33.20 33.64 34.34 34.93 34.24 33.65 33.41
32.63 32.18 29.61 30.25 34.15 34.48 34.03 34.15 32.23 31.48 34.43 32.79 31.72 32.21 32.17 31.26 30.03 29.73 28.88 24.72 23.34 27.02 28.50 35.59 38.37 34.73 34.32 33.36 32.24 32.98 33.19 34.23 33.94 34.22 32.37 31.60 32.06 31.54 32.70 33.25 33.29 33.39 32.54 30.60
32.98 31.58 30.18 31.71 31.48 33.76 31.01 31.31 32.31 33.63 33.67 33.92 33.70 30.81 28.47 28.78 29.19 26.13 25.07 25.85 25.21 32.69 34.50 37.24 35.54 34.38 34.02 33.36 32.57 32.64 33.50 33.22 32.98 33.38 33.59 33.70 33.16 32.67 33.23 33.19 31.81 31.87 31.12 29.96
30.92 31.28 35.01 35.87 36.25 35.38 37.19 35.14 34.65 35.14 32.93 31.55 31.92 27.85 27.17 27.87 26.27 24.98 29.78 27.90 33.97 37.30 37.72 36.38 34.26 33.47 34.35 33.85 32.84 32.00 31.19 32.35 33.31 32.96 32.91 32.63 32.86 31.35 30.00 29.94 32.21 30.41 29.49 29.60

GFSNW_sfc_wetblb_108.txt.gz
Wetbulb
53.19 53.28 53.27 53.35 53.36 52.92 47.15 51.04 41.50 51.05 50.38 43.67 42.41 37.60 40.09 40.48 41.59 43.95 42.33 41.87 40.34 38.20 38.32 37.71 37.04 36.77 39.14 44.03 42.95 38.77 39.27 36.04 29.22 34.42 40.50 40.87 38.11 35.85 34.94 25.90 29.34 29.79 27.43 26.54
53.26 53.09 53.20 52.95 52.59 52.18 48.68 46.20 46.21 53.21 50.88 39.30 38.57 41.11 40.28 42.11 41.80 41.10 41.81 40.68 42.02 41.51 38.42 34.76 37.86 38.47 42.64 43.61 41.48 37.88 38.45 34.14 24.92 27.05 33.19 36.45 34.34 36.63 37.07 34.72 32.04 25.93 23.08 27.89
52.97 52.84 53.03 52.92 52.29 52.01 49.68 47.68 39.08 47.64 46.51 43.82 40.80 39.65 39.91 39.22 43.03 42.04 42.69 41.42 42.43 40.19 37.79 39.06 36.61 38.00 41.79 42.77 42.47 43.44 41.14 35.29 30.29 25.24 28.41 33.74 31.18 34.53 36.33 32.87 25.20 28.15 29.33 31.32
52.32 52.69 52.72 52.58 51.89 52.22 50.30 46.74 41.13 41.69 41.04 40.00 41.19 41.12 40.96 39.50 38.94 42.30 42.59 39.90 40.06 38.61 34.95 36.09 35.55 37.83 38.73 41.51 42.97 39.78 38.09 30.19 31.26 33.79 35.27 34.79 33.25 33.24 34.32 31.20 31.62 26.03 30.03 31.13
51.89 52.20 52.49 52.34 51.33 51.59 48.72 44.18 42.11 42.31 40.66 40.85 40.55 39.68 38.72 39.38 40.06 39.82 38.72 38.09 39.46 39.41 36.04 36.65 34.68 36.63 35.95 35.37 38.50 36.78 38.26 30.07 30.75 25.53 34.01 33.91 30.62 33.61 34.43 34.59 34.66 33.41 33.55 32.79
51.31 51.57 52.28 52.41 51.15 51.67 47.59 46.94 45.72 42.60 39.93 40.19 38.40 37.71 38.81 39.58 40.61 41.06 41.58 40.18 38.91 37.54 38.97 39.99 39.95 39.87 39.78 38.01 34.74 35.31 34.53 31.45 27.81 24.56 32.12 31.29 24.89 31.70 32.78 33.80 35.25 35.50 31.05 35.63
50.40 51.06 52.11 52.36 51.14 49.55 48.70 46.07 45.11 41.89 37.27 38.93 38.59 40.12 40.11 39.48 39.60 38.33 41.11 40.47 38.06 39.92 43.04 42.10 39.62 38.23 38.71 38.70 37.69 38.21 33.86 32.01 28.99 24.37 27.79 17.76 31.17 34.75 35.28 34.35 36.53 37.05 36.81 37.08
49.51 50.59 51.55 52.24 51.37 49.83 47.92 47.01 45.01 42.08 37.28 38.55 39.24 39.55 39.01 39.50 39.81 38.28 39.70 41.13 41.25 42.51 39.23 34.98 32.33 31.91 31.84 34.93 36.72 36.40 36.96 32.95 26.05 22.32 23.03 29.03 31.62 31.90 31.84 31.62 31.97 37.24 37.21 37.35
49.41 49.78 51.25 51.74 51.07 49.52 47.58 45.30 45.27 43.94 38.77 36.86 39.94 38.60 38.85 36.07 35.39 37.29 39.13 41.14 42.09 40.39 37.30 33.59 25.60 24.70 26.49 26.77 29.59 33.58 36.01 34.94 29.15 26.46 22.65 19.99 29.47 33.19 36.36 35.38 25.87 36.27 37.80 37.16
49.47 49.17 50.29 51.51 50.79 49.07 45.77 44.67 45.20 43.79 38.99 39.98 39.04 37.22 37.79 39.61 37.16 35.47 36.57 38.10 38.59 39.05 34.04 29.60 26.93 25.94 30.38 24.83 25.21 25.27 27.57 28.73 26.65 26.34 24.32 28.91 33.95 35.45 36.93 23.85 28.83 34.92 36.06 36.80
49.28 49.08 49.22 50.96 50.71 48.86 45.68 44.73 44.97 42.19 40.10 40.48 40.80 41.77 38.57 38.80 37.98 34.21 37.42 36.88 37.05 35.88 31.18 29.34 29.45 27.38 29.64 26.55 30.11 28.88 27.91 25.42 25.06 26.07 23.70 21.39 36.35 34.45 30.21 34.10 34.16 36.90 36.96 37.55
49.00 48.99 48.89 49.93 50.72 48.92 48.43 43.46 44.45 43.27 39.61 40.94 41.94 42.44 42.09 41.24 40.44 39.70 39.07 37.36 37.38 37.71 32.87 31.73 30.92 28.34 29.70 28.28 23.87 31.24 26.25 31.30 28.71 30.17 29.46 35.48 37.39 36.42 38.23 37.62 37.21 36.92 36.57 38.84
49.58 48.72 48.77 48.72 50.08 49.38 46.99 43.80 43.24 43.13 39.97 40.64 39.45 38.86 40.60 41.95 41.11 42.95 37.62 39.19 40.19 38.83 38.33 35.64 33.55 29.56 31.37 26.07 27.43 28.34 31.40 34.48 29.42 31.36 33.22 36.26 36.46 38.79 39.25 39.52 37.93 39.06 39.35 39.54
50.90 49.23 48.54 47.99 48.83 49.28 47.24 44.53 44.05 42.21 40.81 35.23 37.64 40.87 37.91 39.66 40.80 40.74 40.96 39.96 40.65 40.28 38.65 35.46 33.53 30.86 35.09 29.97 31.41 30.58 33.26 31.89 30.86 30.73 35.06 36.58 38.46 38.41 37.91 38.42 38.76 37.91 37.61 37.94
51.80 50.08 48.22 47.68 48.08 48.90 46.65 46.39 44.25 42.84 39.12 34.83 36.49 40.08 37.31 38.72 39.10 38.75 38.96 38.99 38.10 36.88 34.90 33.27 32.30 34.10 33.55 33.34 31.94 32.07 35.30 34.52 31.32 31.18 34.78 34.59 34.25 34.93 35.97 35.77 35.26 37.07 36.65 36.40
51.56 50.08 48.27 47.55 47.99 47.52 44.13 40.52 41.58 41.70 41.66 35.91 32.05 37.14 34.85 35.81 36.76 36.90 36.61 37.61 37.38 36.90 36.63 34.49 36.10 36.93 34.24 28.47 27.08 34.62 36.84 39.17 39.03 35.77 36.87 36.14 34.78 34.92 35.02 34.98 36.46 37.43 37.07 37.36
51.67 50.20 48.35 47.56 47.81 45.99 41.92 39.78 40.32 41.78 41.56 35.85 31.97 33.05 33.97 35.81 35.44 35.78 35.44 36.46 35.68 35.20 34.86 33.99 33.89 34.01 34.54 30.75 29.20 35.20 37.03 38.46 39.12 39.45 36.15 34.54 34.81 34.65 36.52 36.44 36.49 37.67 36.03 36.81
51.93 49.92 48.07 47.52 48.04 47.04 42.37 41.45 43.78 42.44 38.79 36.83 31.09 31.51 30.38 34.03 32.28 31.07 35.08 33.30 34.09 33.41 32.68 34.33 32.49 32.25 31.78 29.28 33.96 35.50 37.39 38.28 36.90 36.68 37.29 36.41 35.01 34.47 34.65 34.98 35.40 34.03 34.18 34.61
50.93 48.37 47.43 44.48 42.76 40.12 39.52 43.03 42.43 40.51 37.49 33.03 32.11 28.82 29.88 33.19 32.53 32.95 31.86 33.07 30.87 34.41 31.48 31.46 31.74 29.56 28.23 31.98 34.04 35.28 37.03 36.71 36.44 34.24 34.39 35.45 34.68 34.21 34.21 34.21 33.84 32.90 32.97 34.25
47.77 44.46 40.00 36.08 39.45 42.45 41.91 37.95 35.20 33.69 36.16 33.85 30.62 32.89 29.58 31.82 31.29 31.25 30.75 31.52 30.59 28.42 30.00 31.05 29.52 28.75 33.83 35.82 36.39 36.69 37.26 38.02 37.00 31.04 30.50 30.48 30.67 32.11 32.69 33.06 34.00 33.81 33.53 33.84
43.03 38.72 36.91 39.47 41.16 38.07 34.97 32.39 31.93 33.28 31.69 32.54 31.83 30.67 29.43 33.21 29.59 30.62 32.58 28.25 30.17 26.30 25.60 25.53 24.99 27.35 31.78 34.46 33.43 33.43 33.62 34.98 36.02 35.31 35.19 35.22 34.08 33.64 33.48 33.02 32.98 33.25 33.17 32.99
42.14 40.25 39.79 38.54 35.59 34.32 30.98 30.49 30.35 29.64 28.12 30.90 28.96 28.78 30.30 30.35 31.84 29.66 29.83 26.78 27.82 23.17 26.87 25.87 22.79 28.30 33.36 32.39 31.65 32.69 32.26 31.83 32.03 33.58 33.91 33.95 33.44 32.31 31.99 32.13 32.53 32.65 32.54 32.83
42.00 36.98 33.68 33.73 33.36 28.07 27.46 24.27 26.24 27.51 29.86 29.00 27.52 26.14 30.07 29.35 30.57 28.87 27.62 23.29 24.95 26.52 18.80 20.96 25.32 30.49 32.93 32.84 31.21 30.10 28.88 28.14 29.37 30.27 31.63 32.22 31.78 32.30 31.67 31.34 31.95 32.10 32.65 32.98
34.97 32.54 30.27 29.54 28.18 29.03 29.14 28.27 29.63 30.49 30.81 30.33 30.63 28.55 30.77 31.27 30.15 30.47 24.95 28.07 25.90 18.13 20.51 19.94 26.87 32.28 31.28 30.82 30.26 29.61 29.31 29.62 27.32 26.33 29.23 30.05 28.55 28.54 29.13 31.38 32.24 31.81 31.06 31.65
33.06 31.71 26.94 28.58 30.07 29.68 28.66 29.12 28.00 27.58 31.74 29.30 26.82 27.04 28.50 28.14 28.38 28.24 27.16 21.60 19.02 20.23 21.24 25.98 30.47 31.87 30.61 29.70 29.06 28.45 28.61 29.21 30.50 31.27 29.58 26.39 27.70 27.31 28.26 31.25 31.44 31.15 30.63 30.21
32.97 31.73 28.88 31.71 28.51 28.99 26.71 25.65 26.43 29.38 30.44 29.15 28.98 25.83 24.23 24.78 26.52 25.25 20.03 20.30 18.40 22.85 29.08 32.09 32.54 31.45 32.12 31.34 29.92 30.00 29.76 28.91 29.81 30.23 30.82 30.90 31.43 31.00 30.01 31.48 30.56 30.17 29.89 29.41
31.84 29.34 33.46 31.44 28.27 28.39 29.48 31.02 30.69 32.94 29.42 25.46 25.71 26.18 25.52 28.14 25.88 21.31 23.88 21.59 26.43 31.21 30.53 32.55 33.63 31.39 31.23 32.23 31.21 30.28 29.04 29.12 29.42 30.34 30.59 30.08 30.60 27.86 26.75 27.44 30.16 30.18 29.96 29.35

GFSNW_sfc_wetblb_111.txt.gz
Wetbulb
52.97 53.34 53.14 52.90 52.97 51.23 46.53 43.31 34.49 45.71 46.29 35.97 35.61 28.98 37.23 40.80 39.97 41.49 39.91 39.34 37.72 34.52 36.34 34.69 33.79 33.96 36.53 41.75 41.03 35.93 36.98 34.36 26.82 32.28 38.49 40.04 36.70 33.56 32.93 24.75 26.20 29.86 25.22 26.05
52.94 53.12 53.14 53.09 52.74 52.14 43.48 40.46 40.10 46.36 45.99 30.64 28.47 36.85 38.78 39.90 39.59 38.98 39.49 38.44 39.64 38.75 35.60 32.31 34.99 36.08 40.71 42.24 39.66 36.23 36.72 31.55 21.22 25.86 31.15 34.82 32.89 34.78 35.33 32.27 29.15 23.85 21.46 25.57
52.51 52.61 53.00 52.83 52.52 52.74 45.00 41.50 32.59 41.19 40.23 38.74 34.22 35.16 36.46 36.69 40.67 39.70 40.48 39.00 39.60 37.10 34.55 36.14 34.40 35.60 40.06 41.36 40.62 43.59 40.43 33.11 28.40 24.80 27.40 31.91 29.61 33.01 34.34 31.27 21.81 23.89 26.05 27.95
52.05 52.03 52.74 52.37 51.78 52.63 45.49 39.50 33.90 37.30 30.72 35.32 35.74 37.00 37.58 36.45 36.08 39.64 39.64 36.90 37.21 35.24 31.61 32.78 32.59 35.94 36.25 39.65 42.50 38.41 36.46 28.32 28.23 31.62 33.00 32.83 32.06 31.42 32.37 30.11 31.09 26.22 26.68 29.05
51.62 51.86 52.53 52.17 51.17 52.27 42.11 37.95 36.90 37.25 35.43 36.67 35.65 36.60 34.75 36.51 37.56 37.28 36.03 35.31 37.24 35.80 32.81 33.27 31.49 34.00 33.40 34.18 36.16 35.33 36.05 27.76 29.54 24.28 31.79 31.28 29.03 31.37 32.43 32.69 33.71 32.36 32.48 31.70
50.70 51.61 52.41 52.03 51.18 49.64 40.44 40.76 39.93 38.31 36.65 34.81 32.72 32.99 34.66 36.74 37.83 38.46 38.90 37.09 35.65 35.01 36.60 36.62 36.63 36.86 36.32 35.46 34.01 33.30 33.12 28.72 24.99 22.01 28.76 28.44 23.09 28.25 31.33 31.90 32.96 34.31 29.48 34.71
49.80 51.05 52.35 52.04 51.42 48.32 42.55 40.71 39.86 36.73 32.89 34.15 35.06 36.90 37.07 36.58 36.69 35.71 38.29 37.64 35.03 37.97 40.06 38.77 36.40 34.76 35.59 35.52 35.37 35.74 31.70 29.78 25.94 21.67 25.07 15.99 28.19 33.66 34.29 32.77 34.16 35.95 35.44 34.71
49.82 50.10 51.64 51.66 51.22 50.52 43.11 41.66 39.97 36.33 32.50 34.43 35.39 36.15 35.69 35.71 35.79 34.76 37.05 38.44 38.70 39.34 37.35 32.22 28.65 29.19 30.02 32.52 34.18 33.98 34.65 30.91 23.73 20.90 20.94 26.27 29.51 30.99 30.88 30.36 30.25 35.66 36.07 37.74
49.91 49.44 50.72 51.56 50.84 50.12 43.43 40.11 40.82 39.33 33.15 31.90 36.22 35.21 35.77 32.46 30.46 33.52 36.26 38.65 39.94 38.66 34.73 30.81 23.89 22.35 24.79 25.11 28.39 32.28 33.94 32.72 27.39 24.17 21.82 19.58 28.01 31.29 34.72 33.44 24.67 33.24 35.42 35.65
49.74 49.48 49.51 51.09 50.70 50.06 43.26 40.64 41.01 39.92 34.90 36.28 35.72 32.87 34.24 36.38 33.18 31.59 33.79 35.16 36.46 37.25 30.95 27.61 24.56 22.51 28.16 23.21 23.21 23.76 26.70 26.73 24.99 24.07 23.03 26.65 32.84 33.50 35.59 22.22 27.44 33.33 34.36 34.61
49.65 49.46 49.23 50.13 50.64 49.92 43.36 40.80 40.96 38.83 34.43 36.06 38.53 38.62 35.61 35.83 34.58 30.99 34.25 33.20 34.59 33.20 28.76 26.99 26.02 25.15 27.17 24.56 26.51 26.38 25.60 23.31 23.65 24.56 22.88 20.52 34.55 33.54 29.63 32.22 33.87 34.35 34.86 35.43
49.83 49.21 49.27 48.91 50.21 50.05 47.62 39.15 42.19 40.93 36.51 35.63 40.08 40.03 39.93 40.47 39.57 37.80 36.24 33.89 34.63 35.27 30.32 28.39 27.54 26.55 25.98 25.01 22.50 27.76 25.01 29.60 27.16 28.49 28.53 34.29 34.95 34.00 36.83 35.62 35.11 34.32 35.46 36.47
50.94 49.50 49.22 48.60 48.81 49.61 46.89 39.99 40.27 39.68 36.50 35.95 37.37 36.82 38.61 40.30 39.53 40.80 34.34 35.55 38.18 36.76 36.79 33.29 31.08 28.48 28.47 24.74 23.86 25.20 29.52 32.00 28.73 30.26 31.37 34.73 37.00 37.78 36.18 36.14 36.05 37.23 38.24 38.50
51.99 50.53 49.02 48.31 48.11 48.64 47.82 41.09 41.21 39.36 37.56 32.13 34.36 39.10 36.21 37.77 38.72 38.53 39.09 38.45 38.84 38.39 36.61 33.21 31.02 29.20 32.39 27.47 29.55 27.57 31.32 30.77 28.91 28.70 34.19 33.77 35.91 36.02 35.76 36.67 36.85 36.83 37.34 37.09
52.52 51.62 49.42 47.87 47.76 48.33 44.79 43.07 43.27 40.31 36.89 31.66 33.62 37.49 36.20 37.38 37.23 36.70 37.25 37.67 36.39 34.55 32.74 30.55 30.04 31.62 32.16 31.21 29.55 30.92 33.55 33.37 30.25 30.99 37.01 33.43 33.61 34.08 34.46 34.02 34.57 35.75 34.78 34.69
52.20 51.39 49.69 48.04 47.60 48.16 42.38 37.88 40.17 39.86 39.81 32.92 28.98 35.65 32.91 35.60 36.45 35.96 35.67 36.01 35.34 34.89 33.26 31.07 33.22 35.52 33.16 27.14 25.18 31.50 33.80 36.94 38.63 36.39 36.06 35.24 35.47 35.96 35.25 34.93 35.85 35.31 34.95 35.02
51.60 51.48 49.67 48.14 47.78 44.10 39.53 38.42 39.28 41.27 39.74 33.63 29.04 29.66 32.92 34.47 33.75 34.30 34.45 34.97 34.00 33.94 32.54 30.79 31.44 32.57 34.08 28.20 25.82 33.54 34.05 34.94 35.58 36.04 34.44 33.92 34.19 34.99 35.63 35.47 35.91 37.18 35.13 35.61
50.94 51.55 49.31 47.63 47.62 45.96 40.11 39.57 43.50 41.11 37.50 35.50 27.56 30.14 30.76 33.58 31.24 30.37 33.70 31.95 32.79 31.42 30.73 32.82 32.77 31.37 30.00 27.64 32.37 33.72 34.92 35.29 35.45 36.01 35.18 35.90 34.73 34.25 33.87 34.53 34.35 33.44 33.38 33.27
50.37 49.41 47.62 44.34 41.04 38.00 37.79 43.02 42.03 38.67 36.64 32.32 32.40 27.66 26.89 33.22 32.06 31.99 31.02 32.13 30.16 32.30 30.74 30.89 30.63 28.05 27.58 31.23 32.80 33.49 34.68 34.02 35.06 36.37 35.31 34.20 33.47 33.42 33.14 32.78 32.52 31.75 32.04 32.48
47.84 44.16 39.91 36.31 38.22 42.77 41.75 36.79 33.59 31.01 34.11 30.40 29.63 29.67 28.21 31.13 30.50 30.80 30.26 30.80 30.03 28.18 30.18 30.34 29.83 28.30 32.67 34.75 35.50 35.52 35.35 33.98 32.88 31.47 31.04 31.53 30.58 31.43 31.73 32.11 32.51 32.24 31.89 31.85
42.45 38.74 36.63 37.52 41.41 36.58 33.13 31.63 31.25 32.31 31.18 31.59 31.43 28.09 26.33 31.56 27.19 28.27 31.06 24.98 30.73 25.28 28.29 27.84 25.98 25.73 30.66 34.30 33.52 33.15 31.98 31.37 31.01 32.59 32.71 33.14 32.94 32.37 31.99 31.87 31.96 31.67 31.43 30.94
41.57 39.65 39.19 37.24 33.30 33.51 31.18 29.72 30.01 29.87 28.30 28.27 27.99 27.78 29.25 29.17 30.05 28.16 28.67 23.86 28.01 22.49 25.46 25.48 22.18 26.21 31.41 32.71 31.43 31.04 30.20 30.19 29.83 29.37 29.36 30.07 30.79 30.69 30.03 29.98 30.44 30.92 30.64 30.94
41.10 35.83 34.14 33.52 32.54 27.72 27.05 21.12 25.48 25.87 26.40 25.55 25.18 24.16 27.84 28.18 29.93 27.79 26.52 25.46 23.21 24.94 16.02 19.03 22.96 27.60 30.70 30.98 29.18 29.31 28.38 26.68 27.60 28.66 29.39 30.57 29.95 30.03 29.52 29.52 29.74 30.44 30.94 31.99
35.39 32.45 28.19 28.63 25.35 28.72 26.59 24.28 23.59 28.14 27.80 27.17 28.62 26.41 26.57 28.04 26.02 27.44 21.59 25.64 24.91 14.72 18.23 19.04 24.00 29.21 32.13 30.02 28.80 26.79 27.82 27.70 25.73 25.54 28.71 29.55 28.08 28.00 27.66 29.42 30.17 30.81 30.73 30.83
29.44 31.68 27.19 27.74 29.29 21.07 22.13 28.03 24.98 25.86 30.86 29.04 25.73 25.74 27.32 23.31 24.63 28.01 24.06 18.67 16.14 17.28 19.31 24.97 27.22 31.21 30.25 29.82 29.33 28.46 28.05 28.38 28.60 29.22 27.96 25.95 25.65 26.13 28.11 29.05 30.60 30.43 30.25 30.17
32.84 32.04 28.92 31.21 29.90 29.30 23.99 17.51 21.85 26.33 28.73 26.28 27.06 24.96 21.98 23.80 23.59 25.21 19.39 14.67 14.37 21.19 23.92 28.07 28.39 30.64 31.06 31.50 31.01 31.07 30.08 29.21 29.37 29.84 30.27 30.50 29.67 29.94 30.31 30.48 30.21 29.91 30.08 30.18
30.04 29.34 32.21 29.67 20.27 21.79 23.49 26.80 27.38 29.63 27.40 23.14 25.25 25.13 22.36 26.30 23.81 21.44 21.81 18.56 24.97 26.95 27.64 26.12 29.52 30.62 31.98 31.62 30.63 30.91 30.21 29.88 29.50 29.18 29.48 30.66 31.01 27.94 27.20 28.66 31.49 30.24 29.82 30.23

GFSNW_sfc_wetblb_114.txt.gz
Wetbulb
52.76 52.61 52.76 52.71 52.92 50.93 45.88 41.13 34.59 44.60 45.26 34.99 32.97 27.98 36.05 40.63 38.76 40.17 38.55 37.61 36.37 33.43 33.94 32.56 31.87 32.24 35.16 39.85 39.52 35.05 35.92 32.59 26.28 32.04 36.53 38.48 35.48 32.83 31.46 23.67 23.52 25.73 23.70 24.83
52.47 52.50 52.66 52.35 52.40 51.40 42.32 39.19 38.84 45.11 43.47 30.71 27.84 35.68 37.71 38.79 38.49 37.80 38.14 37.40 38.51 37.66 34.37 31.20 33.97 34.78 39.76 41.25 38.74 34.63 35.26 30.50 20.69 26.01 30.62 33.36 33.41 33.98 33.37 30.52 27.64 23.56 20.62 23.96
52.14 52.36 52.66 52.58 52.26 52.89 44.16 38.95 32.52 39.12 38.58 36.66 33.81 33.45 35.03 35.34 39.56 38.60 39.01 37.66 38.57 36.23 33.54 34.83 32.99 33.88 38.79 39.85 39.69 42.97 39.91 31.62 27.08 21.98 26.27 30.50 29.32 31.47 33.44 30.84 21.79 23.69 25.22 26.39
51.79 52.18 52.56 52.45 52.37 53.05 43.11 36.57 33.15 35.96 29.83 34.24 34.20 34.88 35.68 34.77 34.63 38.25 38.35 35.53 35.67 33.59 30.10 31.38 31.60 34.80 35.23 38.66 41.93 37.54 35.70 27.75 26.57 30.12 31.60 31.66 31.43 31.10 31.65 29.72 32.32 25.82 26.01 27.81
51.01 51.97 52.58 52.27 51.83 51.16 40.71 37.15 35.14 35.50 33.75 34.98 33.19 34.76 34.00 35.06 35.84 35.59 34.25 33.70 35.50 34.21 31.36 31.97 31.18 32.91 33.04 33.54 34.88 34.39 34.75 26.87 27.51 24.00 29.78 29.61 28.34 30.48 31.90 32.17 32.77 31.67 32.43 31.57
50.21 51.48 52.32 52.15 51.37 47.49 38.63 38.92 38.37 36.48 34.57 33.13 31.15 32.06 34.40 35.85 36.98 37.47 37.79 36.18 34.21 33.29 35.04 36.22 35.22 35.46 35.31 33.72 33.68 32.74 32.05 28.11 24.12 21.54 26.23 27.22 22.87 28.41 30.52 30.18 31.15 33.43 29.30 34.73
50.03 50.55 51.96 52.09 51.61 47.29 40.93 39.44 38.52 35.53 31.28 32.64 33.31 35.02 35.70 35.71 35.80 34.68 36.96 36.31 34.39 36.91 38.60 37.12 35.08 32.70 34.39 33.96 34.06 34.10 29.97 28.26 24.84 21.10 24.28 15.61 27.48 30.29 31.87 31.89 33.40 34.78 34.60 35.85
50.39 49.78 51.17 51.56 51.34 49.91 40.46 39.09 39.04 35.17 30.52 32.33 33.87 34.42 33.83 34.67 35.06 34.14 35.03 37.08 38.04 38.20 35.56 30.47 27.38 26.95 28.36 31.14 32.64 32.72 33.23 29.43 23.33 19.66 19.98 25.45 28.34 29.05 30.19 29.26 29.53 34.03 34.84 36.62
50.20 49.80 49.91 51.26 50.78 50.10 41.57 38.38 39.07 37.62 32.09 29.70 33.87 34.17 33.84 30.98 28.97 31.91 35.05 37.49 38.56 37.05 33.19 29.35 23.06 21.67 24.38 24.47 26.85 31.26 32.53 31.38 26.71 23.56 21.21 18.69 26.62 29.56 33.53 31.31 24.43 30.24 33.37 34.14
50.23 49.95 49.59 50.51 50.64 50.10 42.28 39.13 39.41 39.20 33.68 34.82 33.78 32.07 32.81 34.54 31.12 29.78 31.62 34.06 34.91 35.13 29.26 26.95 23.79 21.83 26.29 22.74 22.97 24.14 26.55 25.75 24.41 23.37 22.41 26.01 32.15 32.49 33.15 22.96 27.44 32.25 32.37 33.34
50.49 49.85 49.70 49.33 50.36 50.09 43.00 40.26 39.56 37.22 33.11 34.18 37.53 37.39 34.55 34.45 33.17 29.86 32.03 31.93 32.91 32.02 27.98 26.68 25.17 24.04 25.74 23.12 25.18 25.38 25.16 22.71 22.61 23.15 21.41 19.72 33.50 32.49 29.49 32.23 32.23 33.44 34.41 34.59
50.94 49.77 49.64 49.03 49.39 49.77 45.40 38.75 41.69 40.32 35.68 34.96 38.61 39.78 38.39 38.12 37.77 35.06 34.41 31.56 33.31 33.56 29.08 27.63 26.09 25.93 24.22 23.85 22.17 25.45 24.45 28.48 25.93 27.52 27.35 33.15 33.49 33.64 35.04 34.08 33.71 34.01 34.59 36.31
51.90 50.53 49.45 49.02 48.54 49.01 45.87 39.95 39.54 38.93 35.61 34.91 36.09 36.12 37.56 39.51 37.87 39.57 34.41 33.53 36.37 35.37 34.64 31.33 29.30 27.37 26.96 23.43 22.51 22.72 27.83 29.98 28.32 28.72 31.86 33.95 35.95 36.97 35.95 35.20 35.60 36.15 36.92 37.26
52.85 51.81 50.23 48.70 48.37 48.46 46.62 41.06 42.19 38.88 36.74 31.60 33.16 38.54 35.55 37.70 38.11 37.86 38.46 37.68 37.98 37.50 35.71 32.31 29.41 28.50 31.16 26.18 27.80 25.92 29.97 29.06 27.55 26.77 32.67 34.50 35.18 34.79 35.34 35.23 34.83 35.00 35.48 36.23
52.95 52.52 51.21 48.92 48.02 48.14 43.34 42.32 40.96 40.28 36.55 30.88 32.65 36.48 35.56 36.52 36.63 36.47 36.86 37.36 35.94 34.19 32.39 30.40 30.19 30.95 31.20 29.84 27.86 26.18 31.35 31.19 28.27 29.82 34.08 32.02 33.22 33.08 34.45 34.91 35.34 35.53 33.97 33.50
51.46 52.07 51.21 49.24 47.68 47.63 41.97 38.14 39.98 39.55 40.09 33.47 29.37 34.87 32.95 35.27 35.72 35.79 35.15 35.49 34.61 34.22 32.75 30.63 32.03 33.90 32.49 26.92 25.19 31.03 32.18 33.59 34.72 34.43 32.92 33.65 35.19 34.01 34.24 34.95 35.74 35.20 35.23 35.11
50.30 51.61 51.11 49.03 47.69 42.46 38.53 37.38 39.46 41.28 39.84 33.96 30.39 30.47 33.73 33.66 33.34 33.64 33.88 34.19 33.38 33.34 31.96 30.24 30.48 32.07 33.79 28.55 26.15 32.94 33.27 34.15 34.93 35.70 33.29 34.92 33.91 34.10 35.27 34.17 35.01 36.02 35.28 35.07
49.59 50.83 50.52 48.05 47.64 45.15 39.06 39.25 43.36 41.20 37.81 35.41 28.20 29.56 31.37 33.67 31.08 30.18 32.21 30.66 31.17 31.30 30.12 31.19 32.40 32.07 30.06 27.83 31.78 33.19 34.59 35.30 35.15 35.25 34.50 34.37 35.47 33.73 34.11 34.27 33.69 33.24 32.71 32.50
49.52 49.81 47.82 44.36 40.95 36.80 36.88 43.04 41.20 38.43 36.62 32.67 32.23 28.10 26.60 33.32 31.94 31.82 31.05 31.35 29.10 31.19 29.48 29.17 30.41 28.41 27.29 31.50 32.53 33.43 34.43 33.06 34.19 34.91 32.99 33.02 32.61 33.03 32.65 32.31 32.08 31.13 31.19 31.57
47.81 44.50 40.49 35.34 37.36 42.95 41.32 35.88 32.77 30.72 31.52 30.50 30.37 30.28 28.87 30.93 30.19 30.45 30.33 30.28 29.76 27.25 29.53 31.57 29.57 27.86 32.10 34.18 34.80 34.72 34.56 34.06 32.17 29.01 29.20 30.51 29.77 31.06 31.58 31.80 31.75 31.24 31.12 31.00
42.53 37.96 34.10 36.35 41.30 35.52 32.45 31.79 30.99 30.90 30.45 30.95 30.87 28.28 26.39 30.59 26.74 27.45 30.30 24.37 29.38 25.57 26.78 28.48 26.44 25.62 29.64 33.33 33.19 33.28 31.12 30.34 30.44 29.70 29.78 29.62 29.91 30.05 30.53 30.97 31.35 30.92 30.54 29.98
41.73 39.25 38.73 35.54 32.62 33.32 31.46 29.14 30.44 30.05 28.52 27.85 26.61 27.43 28.90 28.37 29.40 27.94 27.52 23.05 27.71 21.72 25.85 26.54 21.83 25.59 30.36 31.49 31.75 30.44 29.62 28.25 28.08 28.40 28.48 29.39 30.26 29.82 28.93 28.73 28.76 29.26 29.71 30.18
40.46 36.03 32.85 33.75 31.98 28.17 26.86 17.36 25.54 25.16 24.28 25.39 25.31 24.39 27.85 27.60 28.64 26.05 25.03 24.79 22.68 24.08 15.07 19.53 22.65 27.80 29.73 30.41 29.75 28.73 27.31 26.63 27.03 27.91 28.76 29.46 29.49 30.13 28.97 28.99 29.06 29.05 29.47 30.83
35.05 32.54 28.46 28.84 25.91 27.61 24.57 21.85 21.21 26.50 25.54 25.42 26.76 24.30 25.50 27.21 25.23 25.89 23.95 24.72 24.29 13.77 18.84 18.41 23.71 27.65 29.47 30.35 29.41 27.69 28.65 28.38 26.62 26.85 28.02 28.55 27.70 27.23 28.11 29.73 30.72 30.85 30.65 31.28
31.23 31.86 25.86 27.42 29.07 22.94 25.52 24.78 23.96 25.10 28.67 27.04 25.99 24.91 26.45 22.84 23.53 26.86 23.89 21.60 20.70 16.31 18.57 22.79 25.42 28.79 30.25 30.51 30.87 29.87 29.41 29.09 28.61 28.35 26.34 26.47 27.36 28.87 29.29 30.28 30.42 30.76 30.87 30.41
32.46 31.48 29.30 30.66 29.54 29.87 27.46 19.53 22.87 25.41 27.21 24.74 25.87 21.12 17.74 21.07 21.76 24.65 23.73 19.99 17.69 20.12 20.78 24.11 25.12 29.33 30.37 33.63 31.88 31.09 30.19 29.53 30.09 30.54 29.00 28.96 28.89 28.76 28.99 30.02 30.06 29.81 29.32 29.39
29.90 28.57 31.63 28.40 22.00 23.72 27.08 27.76 27.69 28.82 27.30 22.88 22.77 19.79 20.84 20.96 23.61 22.16 21.36 17.34 21.17 23.92 28.08 23.04 27.75 30.13 31.98 31.49 30.64 29.92 30.68 31.85 32.25 30.83 29.91 28.55 29.56 25.05 23.54 26.17 30.86 30.26 29.81 29.64

GFSNW_sfc_wetblb_117.txt.gz
Wetbulb
52.51 52.67 52.80 52.71 52.05 51.32 45.22 39.92 34.13 43.96 44.28 34.90 31.57 27.37 34.91 40.24 37.70 39.03 37.63 36.50 35.70 32.90 33.00 31.81 31.33 30.68 33.63 38.71 38.26 33.50 34.37 31.50 25.88 30.53 35.32 36.87 34.35 31.77 30.20 23.35 22.20 24.51 22.70 24.56
52.24 52.51 52.56 52.59 52.45 49.78 41.68 38.11 37.76 44.10 42.17 30.27 26.93 34.78 36.62 37.72 37.15 36.62 36.87 36.10 37.18 36.05 33.39 30.49 32.59 33.99 38.54 40.00 37.87 34.18 34.29 29.45 20.23 25.36 29.92 32.89 32.23 32.89 32.24 29.11 27.09 23.35 20.17 23.18
51.90 52.38 52.37 52.27 52.40 52.75 43.29 37.45 32.14 37.66 37.30 34.99 33.20 32.67 34.07 34.16 38.43 37.14 37.69 36.32 37.00 34.51 32.29 34.32 32.04 32.86 37.82 39.35 39.00 42.65 38.92 30.17 26.53 20.83 25.26 29.85 29.39 30.56 31.98 30.24 21.39 23.25 24.72 25.81
51.35 52.22 52.21 52.46 52.31 53.57 42.46 35.40 32.45 34.14 29.42 33.78 32.74 33.34 34.82 33.52 33.24 36.79 36.61 33.93 34.15 32.59 29.29 30.56 30.60 33.61 34.43 37.63 41.34 36.08 34.36 26.96 25.69 28.56 30.21 30.59 30.12 29.85 30.51 29.20 31.30 26.13 23.85 26.85
50.61 51.79 52.21 52.14 51.90 51.97 39.40 36.50 34.17 34.06 32.37 33.80 31.64 33.96 31.73 33.38 34.44 34.95 33.41 32.21 34.07 33.33 30.91 31.79 30.70 33.23 31.83 32.00 33.49 32.79 33.52 26.30 26.96 22.86 28.75 28.91 28.47 29.64 31.02 31.36 32.45 32.31 32.64 31.93
50.39 50.90 52.16 51.94 51.67 46.24 38.00 37.21 37.02 35.27 33.14 31.75 29.90 30.11 32.56 34.04 35.57 36.08 36.33 34.92 33.18 32.47 33.83 34.66 33.65 34.15 34.14 32.98 33.73 32.06 30.85 27.53 23.77 21.13 24.87 26.27 21.93 26.06 29.26 29.56 30.62 32.93 28.72 34.39
50.70 50.06 51.61 51.81 51.51 45.69 39.56 37.70 37.50 35.09 30.23 31.81 32.25 33.72 34.49 34.06 34.82 33.47 36.17 35.64 32.72 35.43 37.87 36.41 34.16 31.58 31.97 31.68 31.80 33.25 28.95 27.23 24.48 20.36 22.94 14.88 26.21 29.56 31.26 30.79 32.25 33.51 33.95 35.73
50.56 50.12 50.39 51.15 51.11 48.37 39.41 37.66 37.51 33.97 29.47 31.52 32.22 34.36 33.68 33.27 33.31 33.04 33.64 36.10 36.85 37.34 34.40 29.27 26.81 26.23 27.68 29.10 30.66 30.64 31.63 28.52 22.63 18.40 18.81 24.26 26.09 28.00 28.56 28.14 28.84 31.64 33.63 35.41
50.34 50.22 49.84 50.55 50.53 49.27 39.95 37.36 37.72 36.15 30.10 29.00 34.03 33.56 33.29 30.24 28.00 30.29 34.49 36.85 37.36 35.72 31.41 28.16 22.06 20.75 22.57 23.56 25.42 30.90 31.30 30.24 25.59 23.03 20.10 17.75 24.15 28.58 31.45 29.85 24.38 28.45 31.67 32.45
50.36 50.09 49.88 49.81 50.26 49.61 41.07 38.64 38.32 37.91 31.85 32.59 32.36 31.25 31.71 33.13 29.80 28.78 29.56 32.44 33.59 33.76 28.33 26.15 23.27 21.49 25.11 22.21 22.82 24.20 26.19 25.05 23.99 23.38 22.04 25.12 30.78 32.37 32.61 23.29 27.29 29.97 32.18 32.50
50.53 49.88 49.90 49.37 49.79 49.52 42.79 39.64 39.30 36.58 32.31 32.99 36.19 36.99 33.67 34.13 32.30 29.02 30.57 30.99 31.17 30.84 27.57 26.23 24.54 23.18 24.47 21.68 22.97 24.43 24.72 22.61 23.33 23.93 21.30 19.38 32.60 31.09 28.85 31.59 30.70 33.36 33.29 33.79
51.25 50.00 49.68 49.27 49.10 49.31 44.29 38.80 41.03 39.88 35.52 34.91 37.53 38.48 38.08 37.12 36.56 33.70 33.07 30.63 31.48 32.50 27.95 26.94 25.62 25.61 23.30 22.86 21.70 23.87 23.79 27.38 25.07 26.72 26.67 31.91 32.28 31.80 32.94 33.51 32.92 33.77 33.93 35.80
52.32 51.01 49.73 49.00 48.69 49.02 45.15 40.65 39.93 38.75 35.15 34.29 34.98 35.24 36.96 38.41 36.95 38.32 34.19 33.15 35.47 34.23 33.52 29.84 28.45 26.68 26.54 22.97 22.19 21.75 27.01 28.72 27.53 28.03 29.06 31.87 34.73 35.66 35.19 34.68 35.35 36.07 34.42 34.84
52.91 52.64 51.13 49.06 48.44 48.39 45.77 40.07 40.90 39.40 36.74 31.62 32.56 38.13 34.71 37.15 37.04 37.52 37.79 36.88 37.40 36.46 34.92 31.84 28.81 28.27 30.38 25.55 26.91 25.42 29.07 27.87 26.90 26.46 31.01 32.87 33.07 31.65 33.04 33.99 34.19 33.72 34.11 34.00
52.08 52.58 52.21 50.15 48.28 47.89 43.13 41.04 39.77 40.28 37.05 32.13 32.99 35.91 35.12 36.12 36.22 36.01 36.64 37.24 35.57 33.91 32.51 30.36 30.02 30.43 30.42 29.22 27.65 26.09 29.78 29.50 27.31 27.23 30.84 30.61 33.82 32.82 33.57 34.71 35.05 36.03 33.71 33.54
50.63 51.53 52.00 50.43 47.97 46.24 41.25 37.14 39.24 39.23 38.99 33.08 29.48 35.07 33.47 35.62 36.26 35.86 35.12 35.41 34.41 33.64 32.43 30.36 31.35 33.15 31.53 26.54 25.28 31.25 31.34 32.87 33.20 31.92 33.93 34.91 35.91 36.67 33.34 32.83 35.00 35.79 33.58 34.38
49.35 50.81 51.52 49.69 47.56 41.10 36.96 35.81 38.67 41.02 39.34 33.80 29.98 30.13 33.78 33.14 31.96 32.75 33.23 33.18 32.09 32.97 31.95 31.12 31.08 32.02 33.54 28.78 26.73 32.80 32.91 33.82 34.62 34.78 33.06 33.16 32.69 33.55 35.76 35.08 35.18 34.89 33.58 34.43
49.13 50.02 50.59 48.41 48.07 45.03 38.00 38.04 42.84 40.49 36.74 34.29 26.03 29.44 31.52 32.86 30.68 30.11 31.53 30.48 31.15 31.24 30.42 30.59 30.68 31.49 30.43 28.10 32.53 34.32 34.99 35.22 34.95 34.25 34.36 33.65 34.24 33.25 33.57 33.41 33.06 32.76 32.63 32.57
48.95 49.60 48.17 43.84 40.84 38.47 37.14 42.77 40.59 36.86 35.12 29.03 30.98 26.26 22.28 32.68 30.78 30.79 30.63 30.89 27.12 30.11 29.61 28.81 30.22 28.41 27.41 31.23 32.43 33.19 32.97 32.31 33.29 33.26 31.86 31.05 30.89 30.47 31.04 31.55 32.01 31.14 31.33 31.46
48.54 43.23 40.53 34.04 37.74 42.45 40.77 35.06 32.11 29.94 30.46 28.75 30.44 29.48 27.59 29.15 29.04 28.75 28.68 29.19 27.88 23.98 28.87 31.01 28.36 28.23 32.47 34.13 34.55 34.01 33.80 32.74 29.97 27.40 27.95 28.51 27.99 28.37 28.94 29.98 31.14 30.68 30.48 30.40
40.11 35.49 32.80 35.44 40.79 34.81 31.95 31.36 30.10 31.18 29.56 30.72 29.96 27.91 24.48 29.63 25.59 26.52 29.49 23.28 28.94 25.27 25.79 27.87 26.55 25.98 30.01 32.80 32.59 32.48 29.96 28.07 27.99 28.62 28.87 28.03 27.45 27.40 28.36 29.21 29.09 29.04 29.12 29.34
39.95 38.02 37.52 35.00 33.20 33.28 29.91 25.00 29.43 30.02 28.56 27.80 26.28 27.46 28.49 28.45 29.16 27.77 27.14 23.05 27.69 21.75 26.61 27.27 22.76 26.22 30.07 30.72 30.42 29.95 28.27 26.54 27.13 27.15 28.00 28.38 28.69 28.91 28.63 28.29 28.36 28.68 29.11 29.29
38.83 34.66 32.52 32.77 29.92 27.71 25.28 21.65 26.19 26.63 24.87 24.97 25.32 23.35 26.85 26.98 28.39 25.73 24.74 24.84 23.24 23.66 22.28 21.47 22.66 27.06 29.24 29.76 29.74 28.98 28.74 27.77 28.01 28.97 28.82 28.46 28.44 28.84 28.47 28.73 28.96 28.95 28.64 29.66
32.12 31.49 24.36 25.92 23.13 27.14 24.52 23.24 23.37 26.55 24.95 24.01 26.03 23.42 24.56 26.33 24.48 25.18 23.49 24.69 23.71 21.69 19.55 18.49 23.48 26.09 29.17 30.12 29.68 28.78 30.56 30.47 28.75 29.10 29.11 28.76 28.57 28.26 28.00 28.06 28.75 28.81 29.75 30.78
31.09 31.73 22.61 22.62 25.85 24.20 27.44 25.97 26.86 27.20 29.02 27.71 26.04 25.12 25.68 22.42 23.21 27.07 24.72 23.62 21.81 20.78 20.49 23.51 22.94 27.63 29.52 29.05 29.92 30.49 30.12 30.27 30.11 29.78 28.54 27.95 27.70 27.50 27.85 28.61 28.23 28.14 28.63 28.93
32.20 31.21 27.89 27.36 29.06 26.41 28.16 27.76 25.41 27.81 28.26 25.27 26.37 20.90 18.66 19.68 22.05 24.31 24.51 22.66 20.29 22.43 22.29 23.71 24.28 28.38 29.45 30.15 29.93 30.22 30.56 30.48 31.46 31.65 30.93 30.68 28.55 29.14 30.31 29.61 28.37 28.31 27.92 28.77
27.59 27.69 30.35 24.83 23.13 25.41 26.26 30.11 28.92 29.61 28.31 26.12 25.19 21.27 20.96 22.42 20.90 20.02 22.64 19.54 21.57 24.25 24.11 23.77 25.15 25.69 30.79 29.94 29.86 30.33 30.52 30.77 30.87 30.88 30.53 29.65 31.22 26.59 22.83 26.51 32.14 31.28 29.45 28.31

GFSNW_sfc_wetblb_120.txt.gz
Wetbulb
52.50 52.75 52.47 52.34 52.18 50.64 45.19 39.05 33.74 43.33 43.05 33.74 30.37 27.31 33.80 39.89 36.62 38.24 37.18 36.20 34.27 31.70 31.75 30.55 29.63 29.52 32.87 37.93 37.49 32.77 33.01 29.95 25.08 29.30 33.71 35.55 33.10 30.57 29.08 22.72 21.02 23.28 22.05 23.83
52.16 52.53 52.39 52.32 51.92 50.50 40.93 37.79 37.17 43.22 40.58 28.45 26.60 33.49 35.60 36.82 36.12 35.43 35.97 34.94 36.18 35.56 32.37 29.98 31.27 32.99 38.03 39.20 36.78 33.86 34.00 28.65 19.95 24.70 29.23 31.95 30.70 31.70 30.82 27.92 26.60 22.75 19.26 22.93
51.58 52.31 52.23 52.16 52.13 52.45 42.20 36.46 31.69 36.87 36.55 34.02 30.74 31.49 32.50 33.52 37.84 36.13 36.68 35.36 35.90 33.32 31.27 33.13 31.33 32.41 37.03 38.28 38.11 42.09 37.51 29.10 26.17 20.57 24.41 29.52 28.89 30.19 30.41 29.42 20.76 22.60 23.92 25.21
50.94 51.96 52.06 51.87 52.85 52.97 40.68 34.53 31.80 33.30 28.62 32.78 31.66 31.88 33.68 32.75 32.86 36.39 36.31 33.62 33.72 31.69 27.67 28.75 29.14 32.01 33.36 37.28 40.43 35.00 32.81 25.81 24.04 27.39 28.97 29.76 30.02 30.17 29.99 28.13 29.32 25.62 23.87 25.21
50.59 51.21 51.81 51.60 51.82 49.64 38.78 34.87 33.97 32.37 31.49 32.35 30.14 32.36 30.58 32.25 33.80 33.55 32.47 30.94 33.03 32.35 28.52 29.36 27.94 31.89 29.98 29.85 33.00 30.95 32.33 25.64 25.84 21.94 27.67 27.73 27.24 28.84 29.51 30.24 31.60 31.16 31.95 31.52
50.88 50.43 51.81 51.80 49.81 46.49 37.40 36.12 36.20 33.76 32.17 30.65 29.28 30.16 32.73 33.97 34.84 35.31 35.72 34.64 32.01 30.68 32.74 33.33 32.18 33.16 33.02 32.09 32.61 31.02 29.95 27.26 23.48 20.25 24.07 25.23 21.03 25.28 28.06 28.65 29.58 31.78 28.23 33.88
50.93 50.34 51.14 51.31 50.69 44.75 39.06 36.92 36.48 33.93 28.97 30.07 31.30 32.59 33.95 34.32 34.85 33.37 35.25 34.62 32.04 34.30 37.22 35.76 33.49 32.99 31.92 31.15 30.45 32.26 27.98 26.38 24.02 19.67 21.77 14.46 24.91 27.14 29.17 29.27 30.50 32.44 32.65 34.45
50.62 50.51 50.19 50.65 50.55 46.80 38.78 36.81 36.71 33.27 27.85 29.55 31.07 32.30 31.96 31.90 32.68 31.20 32.70 34.69 35.45 36.42 33.30 28.38 25.83 25.18 26.77 27.76 29.05 28.97 30.47 27.51 21.78 17.48 17.53 23.19 24.24 27.10 27.85 27.73 27.41 30.31 32.25 33.87
50.49 50.40 49.97 50.28 50.09 48.08 39.00 36.61 36.81 34.78 30.20 28.08 31.94 32.23 30.96 29.27 25.95 29.49 32.72 35.57 36.36 34.48 29.90 27.56 21.08 20.29 21.85 23.01 24.24 29.97 30.16 28.93 24.72 22.05 19.19 17.30 23.25 28.11 31.12 30.15 24.10 27.60 30.88 31.26
50.59 50.18 50.04 49.69 49.80 48.74 40.30 38.12 37.75 37.17 30.97 31.38 32.86 30.67 31.34 32.10 28.71 27.70 28.27 30.80 32.31 31.97 27.47 25.37 22.59 20.50 23.85 21.49 22.43 23.72 25.65 24.62 23.24 22.69 21.32 24.04 29.41 30.70 31.98 22.53 25.34 30.24 31.04 32.28
50.79 49.95 49.90 49.53 49.54 48.99 42.11 38.92 38.59 36.12 31.90 32.26 35.88 36.30 34.02 33.37 31.25 28.29 29.69 30.19 30.31 29.64 27.05 25.75 24.08 22.96 23.49 20.65 21.85 24.00 24.53 22.35 22.72 24.65 21.24 18.22 31.60 29.75 26.74 30.10 29.72 31.53 32.08 33.24
51.55 50.33 49.65 49.34 49.30 48.84 44.01 37.85 40.81 39.46 35.55 34.35 36.68 36.98 36.77 36.26 35.66 32.98 31.81 29.98 30.40 31.88 27.19 26.26 25.34 25.42 21.95 21.58 21.30 22.43 23.03 26.94 24.62 26.06 26.08 31.09 31.17 31.42 31.99 32.54 32.20 32.39 31.89 34.45
52.49 51.35 49.96 48.94 48.87 48.65 44.45 39.54 39.34 38.33 35.40 33.99 34.28 34.84 35.75 37.55 36.36 37.63 33.38 32.73 34.49 33.08 33.00 29.41 27.82 26.49 26.56 22.84 22.29 21.43 25.77 27.91 26.91 27.29 28.41 29.89 33.06 33.25 33.30 33.14 32.90 34.57 34.58 33.17
52.34 52.76 51.38 49.00 48.43 48.09 45.02 39.83 39.70 38.70 36.15 31.73 32.98 37.96 34.81 36.36 36.52 36.92 37.08 36.14 36.63 35.50 34.05 31.20 28.80 27.80 29.44 25.26 26.29 24.49 27.80 27.56 26.31 26.26 30.05 32.60 31.54 31.07 32.65 34.45 35.43 34.59 33.93 33.79
51.28 51.64 52.13 49.91 48.26 46.73 41.32 38.59 37.88 38.74 35.72 31.46 32.27 35.80 35.58 36.31 36.49 36.36 36.92 36.82 35.08 33.85 32.26 30.27 30.58 30.71 30.03 28.69 28.22 26.53 28.23 28.62 26.59 26.37 29.99 30.28 32.32 33.99 34.38 32.91 33.23 34.47 33.90 33.62
50.38 50.64 51.61 50.39 48.06 45.04 40.27 36.02 37.75 38.37 38.12 31.28 28.25 33.41 32.34 35.00 35.56 35.01 34.65 35.21 33.93 33.06 32.62 31.49 31.64 33.05 31.17 26.64 26.25 32.16 31.53 32.01 32.66 31.60 32.86 33.52 34.61 34.36 32.66 32.51 33.59 34.35 33.73 33.62
49.20 49.62 50.72 49.84 47.45 40.53 37.39 35.88 37.94 40.78 38.16 32.29 28.37 27.56 31.91 31.81 31.35 31.96 32.29 32.66 31.60 32.23 31.01 30.48 31.00 31.97 33.23 28.83 26.89 32.72 32.70 33.73 34.07 33.02 31.74 30.50 30.95 31.49 33.78 32.51 33.30 34.58 33.41 33.48
49.03 49.34 50.35 48.57 47.37 44.00 37.56 37.61 42.21 39.92 35.38 33.00 22.31 24.61 28.19 31.04 29.31 28.87 30.59 29.94 30.38 30.36 29.55 29.80 30.00 30.87 30.04 27.98 32.55 33.80 34.70 34.32 33.02 33.13 32.96 32.87 33.67 32.36 31.60 31.30 31.79 31.57 31.87 32.24
48.68 49.49 48.34 44.12 40.68 38.23 38.10 42.40 39.93 36.54 34.16 28.63 30.47 25.33 20.67 31.34 29.17 29.40 29.67 29.50 26.28 29.39 28.85 28.62 29.75 28.22 26.37 30.51 31.82 31.91 32.49 30.72 31.52 31.20 30.04 29.92 29.13 29.46 28.80 28.27 29.58 28.99 29.85 30.43
48.88 44.32 41.07 36.21 36.59 42.19 40.33 34.52 31.82 30.44 30.50 28.96 30.42 31.92 27.71 28.11 27.65 27.77 27.53 27.84 25.88 17.99 27.22 29.22 27.39 26.81 31.00 32.85 33.16 33.04 32.72 30.56 28.96 27.07 27.78 26.99 27.17 28.01 28.33 27.97 29.13 28.73 28.84 28.93
42.12 38.00 33.66 35.11 40.47 34.79 32.01 28.81 29.50 30.55 29.72 31.37 30.70 30.54 25.12 29.24 25.43 26.50 28.87 23.85 28.35 24.97 22.52 27.45 24.29 24.89 28.97 31.64 30.83 30.84 29.22 26.85 27.35 27.67 28.48 28.44 27.58 27.05 27.58 28.97 29.25 28.98 28.99 28.73
41.04 38.55 36.44 34.00 32.45 33.02 27.07 24.31 29.22 29.78 27.73 28.47 26.96 28.54 28.47 28.32 29.37 28.67 28.47 23.64 27.48 22.50 26.29 26.55 22.58 25.26 29.49 29.62 28.70 28.59 28.61 27.11 27.36 27.44 27.87 28.73 29.13 28.76 28.08 28.37 28.92 29.19 29.01 29.22
39.12 34.71 33.36 29.14 29.20 26.11 22.89 16.42 24.90 26.70 29.20 24.27 26.63 25.47 28.09 27.75 28.67 26.37 25.41 24.58 23.58 23.67 23.44 21.45 22.61 26.88 28.05 28.54 29.18 28.79 28.34 27.79 27.65 28.89 29.15 29.37 29.06 29.75 27.75 27.91 28.95 27.77 27.68 29.56
33.58 29.25 25.73 24.17 22.51 21.84 22.08 22.66 22.86 25.72 24.36 23.06 24.77 23.22 25.03 26.96 25.39 25.58 23.52 25.43 24.64 21.83 20.31 18.18 21.60 24.39 27.34 28.00 28.74 28.48 28.96 29.34 28.23 28.87 29.67 29.12 28.50 28.55 28.42 28.58 28.47 27.83 28.91 30.66
30.64 30.87 23.43 20.42 24.78 21.98 26.88 24.84 26.39 25.42 27.19 26.19 25.19 24.88 25.69 23.45 23.01 27.07 25.47 23.31 21.76 22.52 19.37 21.67 21.31 26.24 27.41 28.35 28.34 28.99 29.10 29.24 28.98 29.71 29.72 29.99 29.87 29.84 30.22 29.02 28.37 28.31 28.72 28.29
30.40 29.44 23.84 25.45 23.19 22.74 23.63 25.04 26.27 26.98 28.40 27.06 27.29 21.70 17.01 20.32 24.82 24.32 23.74 22.74 19.53 20.86 23.14 23.54 23.48 26.62 27.66 28.08 28.82 28.89 29.46 29.12 29.28 29.35 29.59 30.16 29.89 30.13 30.97 31.46 29.70 29.29 28.90 28.37
26.60 26.85 28.84 27.12 28.24 27.10 25.27 27.34 27.57 29.67 29.79 26.28 24.23 18.83 19.83 21.66 22.32 20.72 21.49 20.16 23.01 24.61 23.94 24.50 26.08 26.36 26.82 26.97 28.00 28.82 28.91 28.64 29.57 29.13 29.66 29.88 31.23 29.25 25.45 26.57 30.67 30.49 29.93 29.55

GFSNW_sfc_wetblb_123.txt.gz
Wetbulb
52.17 52.62 52.54 52.41 52.13 50.18 44.54 38.20 33.41 42.91 42.19 34.19 29.91 27.03 32.68 39.62 36.08 37.56 36.11 35.24 33.66 31.08 31.53 31.12 31.17 31.59 33.86 37.80 37.47 33.11 33.89 29.73 25.87 29.85 34.16 35.71 33.81 31.20 29.75 25.05 22.99 24.87 24.24 25.93
51.59 52.37 52.42 52.32 51.94 50.63 40.09 37.00 36.55 42.16 39.47 29.31 26.51 33.19 35.04 36.15 35.57 34.84 35.40 34.73 35.87 34.98 32.15 30.35 31.60 33.66 38.70 39.09 36.56 33.99 34.55 28.96 21.99 25.99 29.91 33.32 32.22 32.22 31.08 28.41 27.85 23.89 21.95 26.23
51.11 51.90 52.22 52.13 52.95 51.96 41.33 35.26 30.96 36.22 35.63 33.18 32.40 31.42 31.60 32.51 37.15 35.25 35.67 34.56 35.42 32.75 31.21 32.77 30.85 32.00 37.02 38.27 37.99 41.42 37.40 29.30 26.65 22.71 25.76 30.52 30.25 31.02 30.51 30.14 24.32 24.45 24.99 26.66
50.93 51.21 51.90 51.76 53.27 51.76 40.23 33.75 30.82 32.01 27.68 32.26 29.68 30.49 33.83 32.18 31.48 35.18 35.20 32.73 32.53 31.01 27.58 28.25 28.25 31.79 33.48 37.18 39.91 35.12 32.51 26.41 25.01 27.76 28.76 30.12 30.49 30.97 30.10 28.58 29.35 26.96 26.23 26.10
51.34 50.71 51.54 51.56 51.35 48.44 37.99 34.38 33.71 31.45 30.59 31.28 28.68 31.67 29.95 31.53 32.62 33.37 30.93 31.36 32.24 31.10 28.82 29.79 28.81 31.76 30.22 29.75 33.09 31.20 32.11 25.68 26.61 21.28 28.13 27.93 27.03 28.74 29.80 30.94 31.48 29.52 31.23 31.20
51.30 50.60 51.36 51.49 49.12 45.25 36.72 34.91 35.30 33.48 31.06 29.60 27.70 28.30 30.66 32.55 33.60 34.15 34.90 33.30 31.18 30.44 32.06 32.90 31.70 32.09 32.94 32.90 32.73 30.48 29.66 27.01 23.59 19.88 24.39 25.07 22.11 24.95 27.97 29.19 30.54 32.29 28.57 33.53
51.01 50.70 50.64 50.95 49.38 44.01 38.61 36.27 35.93 33.66 28.57 29.68 30.43 31.20 32.58 32.49 32.43 31.14 33.89 33.57 30.16 33.03 35.82 34.67 32.95 32.39 31.80 32.11 30.65 31.66 28.11 26.38 24.46 19.35 21.97 15.67 25.63 27.71 30.09 29.96 30.58 32.25 32.48 33.90
50.79 50.64 50.20 50.30 50.07 45.75 38.46 36.21 35.97 32.63 27.85 29.17 29.96 31.16 31.56 31.57 30.67 30.87 31.80 33.56 33.96 35.86 32.16 27.78 25.30 24.82 27.06 27.42 28.22 28.20 29.74 27.23 22.22 18.07 17.79 22.97 24.67 27.36 28.13 27.14 28.06 30.50 31.31 33.09
50.75 50.44 50.25 49.93 49.80 46.64 38.47 35.87 36.30 34.13 29.31 28.04 31.41 31.79 30.51 29.00 26.47 28.09 31.34 34.32 35.22 33.47 28.80 27.30 20.72 20.07 21.76 23.26 24.28 29.42 29.74 28.35 24.73 21.98 19.15 17.82 24.90 27.54 31.34 30.08 24.34 28.95 31.79 32.22
50.87 50.25 50.16 49.89 49.73 47.74 40.46 37.97 36.93 35.87 30.52 30.74 31.23 30.64 30.83 30.42 27.89 27.15 27.56 30.94 31.75 31.43 27.07 25.22 22.52 20.01 23.06 21.67 22.10 23.87 25.44 24.59 23.56 23.11 21.32 24.24 28.97 30.04 31.38 22.42 26.09 29.69 31.49 32.43
51.35 50.19 49.92 49.70 49.76 48.27 41.60 38.40 38.41 36.24 31.44 31.34 35.33 35.39 32.35 32.00 30.25 27.71 29.03 30.37 29.91 29.04 26.43 25.32 24.17 22.96 23.03 20.92 22.33 24.24 23.95 23.14 22.56 24.47 21.77 18.29 30.90 29.85 26.92 30.21 30.87 32.07 32.23 32.62
52.39 50.95 49.73 49.32 49.45 48.43 43.57 37.40 40.61 39.23 35.48 33.66 35.66 36.14 35.76 35.00 34.70 31.78 30.44 29.16 29.28 31.34 26.94 26.02 24.99 25.05 21.82 22.19 21.63 23.09 22.87 27.06 24.81 26.20 26.05 30.92 30.96 31.74 32.13 32.72 32.73 32.69 32.23 34.42
52.45 51.85 50.63 48.90 48.94 48.16 43.49 38.64 38.38 37.55 34.65 33.61 33.79 33.65 35.10 37.47 36.14 37.09 33.14 32.24 33.75 31.91 32.43 28.69 27.26 25.87 26.26 21.91 22.37 21.38 25.35 27.84 26.83 26.92 27.63 31.23 33.11 32.29 33.12 33.21 32.54 33.06 33.68 33.83
52.30 52.60 52.00 49.46 48.33 47.21 44.10 38.19 37.82 37.24 35.11 31.03 31.64 37.47 33.05 36.01 36.91 36.85 37.35 36.01 36.54 35.41 34.30 31.15 28.63 27.63 28.85 25.61 26.33 24.96 27.87 27.40 26.14 26.18 29.04 31.54 30.12 31.71 32.99 33.43 33.51 32.63 33.44 33.32
51.60 51.60 52.11 50.35 48.30 45.12 39.65 37.20 36.86 37.73 35.52 31.29 31.40 34.37 34.51 35.51 35.82 35.36 35.69 36.93 35.03 33.46 31.51 29.76 29.38 29.21 28.74 27.88 27.41 25.57 27.73 27.73 26.48 26.16 30.09 31.98 32.75 33.87 34.56 32.92 32.61 32.53 31.61 32.64
50.59 50.09 50.96 50.39 48.25 45.00 39.06 35.27 36.91 37.95 37.03 31.83 28.37 32.45 30.66 33.88 34.41 34.40 33.92 34.38 33.21 32.77 32.11 30.53 30.93 32.49 30.45 26.43 26.53 31.05 30.04 30.62 32.19 31.25 31.15 32.10 33.95 33.93 32.97 31.90 32.53 32.65 32.90 33.62
49.90 49.53 50.13 49.65 46.93 41.03 38.08 36.22 37.69 40.73 37.28 31.68 27.87 26.70 31.21 31.31 31.24 31.27 31.72 31.87 31.03 31.56 30.16 29.54 29.15 30.64 31.51 27.68 25.87 31.53 32.17 33.40 33.42 33.20 31.18 29.29 29.84 30.14 32.25 31.59 31.85 32.53 32.29 32.77
49.39 49.43 49.95 48.27 46.68 43.36 37.69 37.60 41.80 39.33 34.56 32.19 21.32 23.98 27.52 30.90 28.79 28.32 29.57 29.42 29.80 30.11 29.32 29.03 29.05 29.22 28.05 26.56 30.32 31.82 31.80 31.12 31.70 31.34 31.39 31.30 31.69 30.87 30.73 30.46 29.58 29.36 29.81 30.40
49.50 49.56 48.60 44.16 40.29 37.16 35.89 41.97 39.50 36.35 34.17 27.51 30.18 25.79 21.05 30.63 28.79 29.36 29.66 28.90 25.51 28.67 27.24 27.48 29.32 27.60 26.33 29.12 30.57 29.48 29.69 29.26 29.58 30.01 28.55 28.37 27.67 28.29 28.32 27.60 28.29 27.80 29.25 29.10
48.64 43.78 40.40 33.66 37.48 42.18 40.13 34.92 32.30 30.77 30.91 29.76 30.35 31.89 27.87 28.21 27.80 27.80 27.53 28.04 26.54 19.31 27.10 28.71 27.68 27.08 30.70 32.29 32.31 32.06 31.53 29.47 28.01 25.78 27.12 26.19 26.23 27.37 27.38 27.55 27.73 27.52 28.03 28.78
42.62 38.83 36.16 34.98 40.07 34.41 31.71 28.46 28.11 28.89 28.77 31.70 31.18 31.01 26.87 29.22 25.66 26.79 29.17 24.67 26.58 25.12 23.32 27.57 26.47 25.28 28.94 30.80 29.64 29.90 28.64 26.89 25.73 26.23 27.05 27.14 26.58 26.13 26.99 28.13 28.52 28.39 28.41 28.16
41.64 38.74 37.76 35.37 34.05 32.92 25.40 22.01 28.40 28.47 24.26 27.91 28.39 29.28 28.67 27.68 28.58 28.02 28.42 24.04 27.15 22.24 26.34 26.54 22.15 25.30 28.92 29.14 29.02 28.49 28.68 26.96 27.71 26.65 27.69 27.99 28.40 28.64 28.10 27.84 28.29 29.39 29.32 29.14
39.83 35.65 32.56 30.51 27.54 25.63 22.47 14.79 24.30 26.08 29.55 24.10 27.87 24.18 26.95 27.10 28.20 26.24 25.87 25.46 24.02 24.01 24.88 22.38 22.29 26.57 28.08 27.89 28.80 28.69 28.02 27.38 27.92 28.74 29.21 29.38 28.80 29.23 28.38 28.50 29.99 28.81 28.07 29.47
33.73 30.37 26.56 24.81 23.63 20.68 22.25 20.79 21.77 25.22 23.96 23.06 27.09 22.58 24.46 26.31 24.43 25.07 19.28 25.74 25.25 21.62 19.96 17.75 22.41 25.56 27.29 27.45 27.78 27.02 27.75 28.57 27.58 26.99 28.27 28.26 27.74 27.82 28.22 28.89 29.30 28.35 28.80 30.51
31.46 30.60 24.19 24.41 25.08 24.01 26.74 27.04 27.13 27.32 26.53 25.94 25.61 23.44 25.59 24.34 24.39 26.63 25.68 22.49 21.21 22.48 18.36 21.45 22.60 25.71 26.77 27.05 27.66 27.52 27.51 27.88 27.63 28.06 27.03 26.87 27.31 27.60 28.52 28.37 28.22 27.96 29.51 29.69
30.33 28.42 25.43 26.47 25.68 24.24 25.79 22.97 21.99 27.37 27.81 25.70 26.78 21.61 19.45 22.10 25.85 23.96 22.79 21.16 17.92 19.94 21.37 22.45 23.37 25.89 26.42 26.86 27.49 27.58 27.67 27.35 27.92 28.33 28.53 28.77 27.91 28.20 29.77 30.42 29.93 29.47 29.10 28.67
25.49 23.81 29.29 27.95 26.98 26.78 26.19 26.90 27.78 30.87 31.23 27.78 27.19 21.58 21.71 22.01 21.88 19.51 20.55 20.15 21.61 23.15 21.94 22.19 25.29 26.25 26.81 26.77 26.74 26.89 26.76 26.31 26.29 26.19 26.16 26.54 28.87 28.50 26.27 26.47 29.40 29.84 29.81 29.56

GFSNW_sfc_wetblb_126.txt.gz
Wetbulb
51.77 52.47 52.63 52.48 51.41 49.98 47.66 46.36 44.39 48.58 48.95 44.21 41.08 38.95 38.43 40.81 40.38 41.75 40.13 39.98 38.19 36.41 35.78 35.70 35.45 35.36 38.35 42.12 42.26 38.56 39.55 37.68 33.52 34.23 38.46 40.08 39.04 36.99 37.17 34.14 30.13 32.68 32.39 35.34
51.36 51.90 52.46 52.40 52.08 50.78 47.15 45.65 44.69 48.01 45.87 40.89 39.57 39.61 39.15 40.33 39.81 39.40 39.84 39.20 40.39 40.20 36.91 34.82 37.06 38.26 41.71 42.48 41.11 39.46 40.39 35.91 31.07 31.79 35.43 37.91 36.67 37.76 37.29 35.29 35.58 31.62 31.78 35.54
51.52 51.42 52.11 51.96 53.22 51.44 47.81 44.26 43.28 45.37 44.84 41.51 40.54 38.68 37.80 37.72 41.03 39.78 39.69 39.48 40.54 38.62 37.06 38.46 36.14 37.54 40.36 42.05 41.83 40.79 41.62 36.34 33.77 32.26 32.63 37.09 34.22 35.87 36.75 36.68 32.94 33.42 33.91 36.47
51.65 51.02 51.69 51.43 52.43 50.20 46.81 42.41 40.65 40.00 40.08 40.14 39.75 39.40 38.59 36.85 36.85 40.27 40.15 38.36 38.39 37.57 35.06 35.43 35.62 37.78 39.17 41.03 40.91 39.88 39.11 32.97 32.29 33.77 33.90 34.51 35.05 35.79 35.43 34.07 36.37 33.32 35.20 33.83
51.70 50.83 51.17 51.25 50.61 48.76 45.47 43.40 42.13 39.43 38.84 37.91 38.75 37.67 37.33 36.40 37.65 37.91 37.15 37.40 37.75 38.08 36.25 36.49 35.38 37.58 38.14 37.37 39.87 38.41 37.93 32.31 32.16 29.37 32.01 32.25 30.79 33.85 35.65 36.16 36.70 36.36 36.48 35.72
51.43 50.95 51.15 51.06 48.70 47.30 44.98 41.94 41.94 41.88 35.64 37.33 37.59 37.61 37.74 37.50 38.81 39.16 39.62 38.63 37.78 36.66 37.40 39.55 39.26 39.62 40.17 40.32 38.99 37.08 35.89 34.04 31.03 28.30 29.98 30.64 28.65 32.23 33.28 34.39 36.30 36.76 32.99 38.43
51.18 50.97 50.56 50.56 48.87 45.40 45.79 43.62 43.71 42.60 37.14 37.47 37.57 36.39 38.16 37.87 38.72 37.92 39.21 39.65 37.74 38.72 41.25 40.68 40.88 39.45 38.39 38.82 36.88 38.21 35.13 33.85 32.27 29.56 30.04 25.35 31.14 35.13 35.90 34.83 36.07 37.89 38.22 39.37
50.98 50.70 50.46 50.13 49.62 45.41 44.92 43.26 43.45 41.65 37.76 37.23 36.21 36.61 37.27 37.75 38.05 37.66 37.64 38.91 40.34 42.30 38.88 35.13 32.09 33.13 33.63 33.31 34.26 35.81 36.43 35.33 30.92 28.44 27.91 31.73 31.82 32.61 33.73 34.01 33.06 36.96 37.37 38.69
50.91 50.48 50.35 50.19 49.47 45.57 44.39 42.46 42.59 42.14 38.70 36.87 38.24 37.70 37.82 37.17 36.51 36.32 37.05 39.97 41.00 39.44 36.96 34.04 28.51 28.55 30.19 29.69 30.98 34.72 34.70 35.90 33.35 28.82 25.14 27.28 32.98 35.06 37.52 37.06 31.55 36.44 37.78 37.83
51.17 50.28 50.14 50.06 49.74 46.67 45.48 43.28 42.16 42.31 38.84 37.91 38.48 38.56 37.84 37.11 35.77 35.70 36.17 37.98 37.93 38.14 35.52 31.46 29.64 29.60 30.81 29.21 28.54 29.52 31.27 31.94 29.73 29.94 28.52 32.48 36.60 36.81 37.61 30.28 31.77 37.32 37.93 38.33
52.23 50.46 49.79 49.71 49.79 47.66 45.63 43.45 43.29 42.36 39.08 38.08 39.27 39.67 37.75 37.07 36.91 35.67 35.38 36.88 36.19 35.48 32.94 32.02 32.01 30.79 30.93 29.25 30.81 31.06 30.33 29.09 28.59 29.63 27.03 26.95 37.12 35.64 33.43 35.39 38.82 38.62 38.51 38.13
52.71 51.43 49.87 49.15 49.50 48.27 44.60 42.91 43.73 42.78 41.11 38.67 39.93 40.73 40.45 39.73 39.62 37.91 36.35 35.17 35.69 38.74 35.38 33.46 32.75 30.51 30.33 31.20 30.62 31.11 29.63 34.03 32.12 33.40 33.90 36.73 37.71 37.98 37.83 38.71 37.29 37.26 36.37 36.81
52.47 51.94 51.20 49.20 48.85 47.84 45.15 44.13 43.15 42.16 39.83 38.32 38.91 38.33 39.68 40.58 39.64 40.39 38.28 37.57 37.59 36.18 38.04 36.45 35.49 32.24 33.73 30.33 30.49 30.51 31.86 33.94 33.41 31.30 34.64 36.19 38.19 37.85 38.76 38.33 37.00 37.21 36.72 35.88
52.67 52.64 52.15 50.20 48.34 46.91 44.58 42.84 41.97 42.07 40.28 37.74 36.85 40.35 38.17 39.78 40.16 40.08 40.80 39.86 39.92 39.61 39.03 37.00 35.64 33.15 34.73 33.27 32.05 32.10 34.12 33.31 33.12 33.14 35.13 36.07 35.61 37.72 37.34 37.13 36.91 36.10 36.33 35.97
52.33 52.23 52.38 50.55 47.91 44.33 42.38 41.64 41.08 41.78 40.54 37.09 36.37 37.76 38.02 38.85 39.15 39.07 39.87 40.10 39.71 39.39 37.21 36.23 34.90 35.77 33.56 33.40 32.92 32.02 33.42 33.80 32.81 33.64 36.23 37.57 37.71 38.00 37.44 35.74 35.31 35.74 35.17 35.53
51.32 50.62 50.97 50.62 48.30 45.71 42.79 39.72 40.76 41.56 40.69 38.88 35.43 36.35 36.08 37.55 38.30 37.86 37.64 38.34 38.14 38.63 37.90 36.34 36.09 35.67 35.86 31.97 31.13 35.87 35.61 35.95 36.95 36.81 37.13 37.20 38.01 37.31 37.15 34.89 35.25 35.51 35.64 35.99
50.61 50.13 50.48 49.85 47.50 43.83 41.42 39.59 41.08 42.31 41.10 37.64 35.61 33.76 35.49 36.36 36.25 36.25 37.20 37.07 37.07 37.64 36.78 34.96 35.35 35.41 36.28 33.19 30.40 35.50 36.74 37.46 37.66 37.95 36.20 34.09 34.88 34.55 35.63 35.10 35.09 35.26 35.01 35.74
50.54 49.93 50.35 48.24 46.54 44.31 41.38 41.08 42.57 41.53 38.27 36.78 33.47 32.60 32.30 35.37 33.43 33.54 34.65 35.38 36.37 35.65 35.17 34.74 34.41 34.41 34.01 30.37 34.67 35.81 36.89 36.06 36.35 35.48 34.83 34.74 34.32 35.04 34.90 34.65 34.46 34.19 34.97 35.42
49.81 49.80 48.25 45.22 42.74 40.20 39.92 41.91 40.24 39.86 38.49 34.58 32.71 32.17 31.18 34.55 32.37 33.14 33.56 33.64 31.21 33.30 32.19 32.15 32.94 31.60 29.48 34.22 35.13 35.51 35.77 34.91 35.06 34.32 34.87 34.73 33.65 33.56 34.31 33.85 34.99 33.60 34.52 35.03
49.40 45.61 41.56 37.12 39.32 42.39 41.59 37.47 35.70 36.05 35.51 34.89 32.26 34.03 30.89 32.88 31.81 31.26 32.21 31.91 30.53 28.89 31.04 32.43 29.40 29.66 34.23 35.55 36.29 36.54 35.75 34.48 33.71 33.02 32.20 32.44 32.05 32.82 33.07 33.16 34.06 33.77 33.94 34.42
43.15 39.38 37.40 37.93 41.02 37.49 34.95 32.59 31.61 31.52 30.29 33.25 32.98 33.23 31.00 33.05 31.28 31.24 32.25 30.52 30.45 26.38 28.55 28.55 27.80 27.36 31.89 33.81 34.37 35.13 33.63 33.48 32.87 33.10 32.77 32.63 31.87 31.19 31.41 32.40 33.60 33.96 33.81 33.65
43.23 39.04 38.57 37.24 35.71 33.63 30.73 28.00 29.60 28.41 27.73 30.88 30.12 30.95 32.47 31.73 33.05 32.10 30.69 28.96 28.35 24.70 30.39 27.22 24.53 30.07 32.12 32.24 31.47 31.69 33.38 33.29 32.95 32.50 32.73 33.02 32.62 33.12 32.38 32.30 32.79 33.68 34.41 34.24
40.93 37.21 34.26 33.61 31.61 26.87 24.95 20.73 25.23 27.36 30.64 29.64 29.99 29.69 31.33 30.58 31.78 29.96 29.78 26.82 25.64 28.41 25.02 24.34 27.89 30.17 31.87 32.42 33.05 33.23 33.66 33.16 33.00 33.22 33.88 33.52 33.23 33.74 32.86 32.37 33.69 34.06 33.57 34.29
33.03 31.84 26.80 29.25 26.03 27.45 27.25 25.37 27.89 30.09 30.45 29.62 30.94 28.73 29.84 29.79 28.98 28.59 24.61 27.09 26.61 22.40 21.18 22.87 29.34 30.87 31.94 32.44 33.19 32.74 33.31 33.31 32.10 31.92 32.78 32.14 31.25 31.14 31.69 32.09 33.11 33.05 32.67 33.70
31.87 31.52 26.34 26.99 29.18 27.84 28.63 29.44 30.35 29.72 31.17 30.68 29.05 28.52 29.97 27.94 26.45 27.84 26.72 22.95 21.87 23.87 24.07 28.59 30.13 31.51 31.94 31.93 31.94 32.29 32.26 32.33 32.00 32.26 31.25 30.29 30.18 30.20 30.76 32.08 32.46 32.57 32.82 32.62
31.50 29.97 26.76 27.81 28.58 27.14 29.24 29.40 29.76 29.65 30.80 30.52 30.94 26.83 26.46 26.26 27.82 25.23 23.69 23.04 21.58 25.96 29.20 30.99 30.52 30.26 30.78 31.05 31.35 31.45 31.83 31.58 31.43 31.62 31.45 31.76 31.59 31.19 31.57 32.57 32.43 32.30 32.03 31.20
29.26 27.95 30.73 30.04 29.65 29.46 29.40 29.86 30.39 31.59 32.16 29.85 29.34 25.24 24.29 25.39 23.93 22.85 26.54 25.04 28.33 30.17 30.59 29.99 30.22 30.97 31.30 31.43 30.81 30.46 30.27 30.09 30.40 30.40 30.73 30.84 31.76 31.39 29.71 28.83 31.78 32.46 32.15 31.98